Wetterdaten: Samstag, 14.04.2018
Datum Zeit Temp. A. Pool Temp. Feuchte A. Luftdruck Regen Wind Richtung Richtung Sonnenschein ET UV Solar Taupunkt Windchill Windben Empfang
14.04.2018 00:00 9,4 C 10,6 C 76 % 1016,3 hPa 0,0 l/m 5,7 km/h (1 Bft) W 264 0 min 0,000 mm 0,0 UV-I 0 W/m 5,4 C 9,4 C 6,4 km/h (2 Bft) 96,30 %
14.04.2018 00:02 9,5 C 10,6 C 75 % 1016,4 hPa 0,0 l/m 4,8 km/h (1 Bft) W-SW 254 0 min 0,000 mm 0,0 UV-I 0 W/m 5,3 C 9,5 C 4,8 km/h (1 Bft) 100,00 %
14.04.2018 00:03 9,4 C 10,6 C 75 % 1016,4 hPa 0,0 l/m 5,2 km/h (1 Bft) W 259 0 min 0,000 mm 0,0 UV-I 0 W/m 5,2 C 9,4 C 6,4 km/h (2 Bft) 95,83 %
14.04.2018 00:04 9,4 C 10,6 C 76 % 1016,4 hPa 0,0 l/m 5,3 km/h (1 Bft) W 277 0 min 0,000 mm 0,0 UV-I 0 W/m 5,4 C 9,4 C 9,7 km/h (2 Bft) 96,30 %
14.04.2018 00:05 9,4 C 10,6 C 76 % 1016,4 hPa 0,0 l/m 4,6 km/h (1 Bft) W 264 0 min 0,000 mm 0,0 UV-I 0 W/m 5,4 C 9,4 C 6,4 km/h (2 Bft) 100,00 %
14.04.2018 00:06 9,3 C 10,6 C 76 % 1016,4 hPa 0,0 l/m 5,4 km/h (1 Bft) W 263 0 min 0,000 mm 0,0 UV-I 0 W/m 5,3 C 9,3 C 6,4 km/h (2 Bft) 96,15 %
14.04.2018 00:07 9,3 C 10,6 C 77 % 1016,4 hPa 0,0 l/m 5,6 km/h (1 Bft) W 262 0 min 0,000 mm 0,0 UV-I 0 W/m 5,5 C 9,3 C 6,4 km/h (2 Bft) 100,00 %
14.04.2018 00:08 9,3 C 10,6 C 76 % 1016,4 hPa 0,0 l/m 4,7 km/h (1 Bft) W 268 0 min 0,000 mm 0,0 UV-I 0 W/m 5,3 C 9,3 C 6,4 km/h (2 Bft) 95,65 %
14.04.2018 00:09 9,3 C 10,6 C 76 % 1016,4 hPa 0,0 l/m 5,1 km/h (1 Bft) W 264 0 min 0,000 mm 0,0 UV-I 0 W/m 5,3 C 9,3 C 6,4 km/h (2 Bft) 100,00 %
14.04.2018 00:10 9,4 C 10,6 C 75 % 1016,5 hPa 0,0 l/m 4,6 km/h (1 Bft) W 265 0 min 0,000 mm 0,0 UV-I 0 W/m 5,2 C 9,4 C 9,7 km/h (2 Bft) 96,15 %
14.04.2018 00:11 9,4 C 10,6 C 75 % 1016,5 hPa 0,0 l/m 4,7 km/h (1 Bft) W 266 0 min 0,000 mm 0,0 UV-I 0 W/m 5,2 C 9,4 C 6,4 km/h (2 Bft) 86,67 %
14.04.2018 00:12 9,4 C 10,6 C 75 % 1016,4 hPa 0,0 l/m 4,2 km/h (1 Bft) W 266 0 min 0,000 mm 0,0 UV-I 0 W/m 5,2 C 9,4 C 6,4 km/h (2 Bft) 95,65 %
14.04.2018 00:13 9,4 C 10,6 C 75 % 1016,5 hPa 0,0 l/m 3,4 km/h (1 Bft) W 266 0 min 0,000 mm 0,0 UV-I 0 W/m 5,2 C 9,4 C 4,8 km/h (1 Bft) 95,83 %
14.04.2018 00:14 9,3 C 10,6 C 76 % 1016,5 hPa 0,0 l/m 3,2 km/h (1 Bft) W 266 0 min 0,000 mm 0,0 UV-I 0 W/m 5,3 C 9,3 C 4,8 km/h (1 Bft) 91,67 %
14.04.2018 00:15 9,3 C 10,6 C 76 % 1016,5 hPa 0,0 l/m 3,1 km/h (1 Bft) W 266 0 min 0,000 mm 0,0 UV-I 0 W/m 5,3 C 9,3 C 4,8 km/h (1 Bft) 100,00 %
14.04.2018 00:16 9,3 C 10,6 C 75 % 1016,5 hPa 0,0 l/m 4,5 km/h (1 Bft) W 261 0 min 0,000 mm 0,0 UV-I 0 W/m 5,1 C 9,3 C 6,4 km/h (2 Bft) 91,30 %
14.04.2018 00:17 9,3 C 10,6 C 75 % 1016,5 hPa 0,0 l/m 4,0 km/h (1 Bft) W 261 0 min 0,000 mm 0,0 UV-I 0 W/m 5,1 C 9,3 C 4,8 km/h (1 Bft) 95,83 %
14.04.2018 00:18 9,3 C 10,6 C 76 % 1016,5 hPa 0,0 l/m 3,4 km/h (1 Bft) W 261 0 min 0,000 mm 0,0 UV-I 0 W/m 5,3 C 9,3 C 4,8 km/h (1 Bft) 100,00 %
14.04.2018 00:19 9,1 C 10,6 C 78 % 1016,5 hPa 0,0 l/m 3,1 km/h (1 Bft) W 261 0 min 0,000 mm 0,0 UV-I 0 W/m 5,5 C 9,1 C 3,2 km/h (1 Bft) 95,65 %
14.04.2018 00:20 8,9 C 10,6 C 78 % 1016,6 hPa 0,0 l/m 3,3 km/h (1 Bft) W 261 0 min 0,000 mm 0,0 UV-I 0 W/m 5,3 C 8,9 C 4,8 km/h (1 Bft) 100,00 %
14.04.2018 00:21 8,7 C 10,6 C 78 % 1016,5 hPa 0,0 l/m 3,4 km/h (1 Bft) W 261 0 min 0,000 mm 0,0 UV-I 0 W/m 5,1 C 8,7 C 4,8 km/h (1 Bft) 95,65 %
14.04.2018 00:22 8,6 C 10,6 C 78 % 1016,5 hPa 0,0 l/m 4,5 km/h (1 Bft) W-SW 244 0 min 0,000 mm 0,0 UV-I 0 W/m 5,0 C 8,6 C 6,4 km/h (2 Bft) 100,00 %
14.04.2018 00:23 8,4 C 10,6 C 79 % 1016,6 hPa 0,0 l/m 4,1 km/h (1 Bft) W-SW 244 0 min 0,000 mm 0,0 UV-I 0 W/m 5,0 C 8,4 C 4,8 km/h (1 Bft) 96,55 %
14.04.2018 00:24 8,3 C 10,6 C 79 % 1016,6 hPa 0,0 l/m 3,6 km/h (1 Bft) W-SW 244 0 min 0,000 mm 0,0 UV-I 0 W/m 4,9 C 8,3 C 4,8 km/h (1 Bft) 100,00 %
14.04.2018 00:25 8,2 C 10,6 C 80 % 1016,6 hPa 0,0 l/m 4,0 km/h (1 Bft) W-SW 244 0 min 0,000 mm 0,0 UV-I 0 W/m 5,0 C 8,2 C 4,8 km/h (1 Bft) 96,15 %
14.04.2018 00:26 8,1 C 10,6 C 80 % 1016,6 hPa 0,0 l/m 4,5 km/h (1 Bft) W-SW 244 0 min 0,000 mm 0,0 UV-I 0 W/m 4,9 C 8,1 C 6,4 km/h (2 Bft) 100,00 %
14.04.2018 00:27 8,0 C 10,6 C 81 % 1016,6 hPa 0,0 l/m 4,6 km/h (1 Bft) W-SW 244 0 min 0,000 mm 0,0 UV-I 0 W/m 4,9 C 8,0 C 6,4 km/h (2 Bft) 96,15 %
14.04.2018 00:28 7,9 C 10,6 C 81 % 1016,6 hPa 0,0 l/m 4,8 km/h (1 Bft) W-SW 244 0 min 0,000 mm 0,0 UV-I 0 W/m 4,8 C 7,9 C 6,4 km/h (2 Bft) 91,67 %
14.04.2018 00:29 7,8 C 10,6 C 81 % 1016,6 hPa 0,0 l/m 4,3 km/h (1 Bft) W-SW 243 0 min 0,000 mm 0,0 UV-I 0 W/m 4,7 C 7,8 C 6,4 km/h (2 Bft) 100,00 %
14.04.2018 00:30 7,7 C 10,6 C 82 % 1016,6 hPa 0,0 l/m 4,8 km/h (1 Bft) W-SW 243 0 min 0,000 mm 0,0 UV-I 0 W/m 4,8 C 7,7 C 6,4 km/h (2 Bft) 95,83 %
14.04.2018 00:31 7,7 C 10,6 C 82 % 1016,6 hPa 0,0 l/m 4,6 km/h (1 Bft) W-SW 243 0 min 0,000 mm 0,0 UV-I 0 W/m 4,8 C 7,7 C 6,4 km/h (2 Bft) 100,00 %
14.04.2018 00:32 7,7 C 10,6 C 83 % 1016,6 hPa 0,0 l/m 4,4 km/h (1 Bft) W-SW 243 0 min 0,000 mm 0,0 UV-I 0 W/m 5,0 C 7,7 C 4,8 km/h (1 Bft) 95,83 %
14.04.2018 00:33 7,7 C 10,6 C 83 % 1016,6 hPa 0,0 l/m 3,8 km/h (1 Bft) W-SW 243 0 min 0,000 mm 0,0 UV-I 0 W/m 5,0 C 7,7 C 4,8 km/h (1 Bft) 100,00 %
14.04.2018 00:34 7,8 C 10,6 C 83 % 1016,7 hPa 0,0 l/m 4,2 km/h (1 Bft) W-SW 243 0 min 0,000 mm 0,0 UV-I 0 W/m 5,1 C 7,8 C 4,8 km/h (1 Bft) 95,83 %
14.04.2018 00:35 7,8 C 10,6 C 82 % 1016,6 hPa 0,0 l/m 4,0 km/h (1 Bft) W-SW 243 0 min 0,000 mm 0,0 UV-I 0 W/m 4,9 C 7,8 C 4,8 km/h (1 Bft) 100,00 %
14.04.2018 00:36 8,1 C 10,6 C 82 % 1016,6 hPa 0,0 l/m 3,5 km/h (1 Bft) W-SW 243 0 min 0,000 mm 0,0 UV-I 0 W/m 5,2 C 8,1 C 4,8 km/h (1 Bft) 96,55 %
14.04.2018 00:37 8,2 C 10,6 C 81 % 1016,7 hPa 0,0 l/m 2,9 km/h (1 Bft) W-SW 245 0 min 0,000 mm 0,0 UV-I 0 W/m 5,1 C 8,2 C 3,2 km/h (1 Bft) 96,15 %
14.04.2018 00:38 8,4 C 10,6 C 80 % 1016,7 hPa 0,0 l/m 2,7 km/h (1 Bft) W-SW 245 0 min 0,000 mm 0,0 UV-I 0 W/m 5,2 C 8,4 C 4,8 km/h (1 Bft) 100,00 %
14.04.2018 00:39 8,5 C 10,6 C 80 % 1016,7 hPa 0,0 l/m 3,2 km/h (1 Bft) W-SW 245 0 min 0,000 mm 0,0 UV-I 0 W/m 5,3 C 8,5 C 3,2 km/h (1 Bft) 100,00 %
14.04.2018 00:40 8,6 C 10,6 C 79 % 1016,7 hPa 0,0 l/m 2,7 km/h (1 Bft) W-SW 245 0 min 0,000 mm 0,0 UV-I 0 W/m 5,2 C 8,6 C 3,2 km/h (1 Bft) 95,65 %
14.04.2018 00:41 8,6 C 10,6 C 79 % 1016,7 hPa 0,0 l/m 3,1 km/h (1 Bft) W-SW 245 0 min 0,000 mm 0,0 UV-I 0 W/m 5,2 C 8,6 C 3,2 km/h (1 Bft) 91,67 %
14.04.2018 00:42 8,7 C 10,6 C 79 % 1016,7 hPa 0,0 l/m 3,2 km/h (1 Bft) W-SW 245 0 min 0,000 mm 0,0 UV-I 0 W/m 5,3 C 8,7 C 4,8 km/h (1 Bft) 100,00 %
14.04.2018 00:43 8,7 C 10,6 C 79 % 1016,7 hPa 0,0 l/m 3,1 km/h (1 Bft) W-SW 245 0 min 0,000 mm 0,0 UV-I 0 W/m 5,3 C 8,7 C 3,2 km/h (1 Bft) 96,30 %
14.04.2018 00:44 8,7 C 10,6 C 80 % 1016,7 hPa 0,0 l/m 3,2 km/h (1 Bft) W-SW 245 0 min 0,000 mm 0,0 UV-I 0 W/m 5,4 C 8,7 C 3,2 km/h (1 Bft) 100,00 %
14.04.2018 00:45 8,7 C 10,6 C 79 % 1016,8 hPa 0,0 l/m 3,5 km/h (1 Bft) W-SW 245 0 min 0,000 mm 0,0 UV-I 0 W/m 5,3 C 8,7 C 4,8 km/h (1 Bft) 96,30 %
14.04.2018 00:46 8,7 C 10,6 C 79 % 1016,8 hPa 0,0 l/m 3,8 km/h (1 Bft) W 265 0 min 0,000 mm 0,0 UV-I 0 W/m 5,3 C 8,7 C 4,8 km/h (1 Bft) 96,15 %
14.04.2018 00:47 8,7 C 10,6 C 79 % 1016,8 hPa 0,0 l/m 3,5 km/h (1 Bft) W 265 0 min 0,000 mm 0,0 UV-I 0 W/m 5,3 C 8,7 C 4,8 km/h (1 Bft) 100,00 %
14.04.2018 00:48 8,6 C 10,6 C 79 % 1016,8 hPa 0,0 l/m 4,7 km/h (1 Bft) W 265 0 min 0,000 mm 0,0 UV-I 0 W/m 5,2 C 8,6 C 4,8 km/h (1 Bft) 96,15 %
14.04.2018 00:49 8,5 C 10,6 C 80 % 1016,8 hPa 0,0 l/m 4,3 km/h (1 Bft) W 265 0 min 0,000 mm 0,0 UV-I 0 W/m 5,3 C 8,5 C 4,8 km/h (1 Bft) 95,83 %
14.04.2018 00:50 8,3 C 10,6 C 80 % 1016,8 hPa 0,0 l/m 3,9 km/h (1 Bft) W 265 0 min 0,000 mm 0,0 UV-I 0 W/m 5,1 C 8,3 C 4,8 km/h (1 Bft) 96,15 %
14.04.2018 00:51 8,2 C 10,6 C 81 % 1016,8 hPa 0,0 l/m 3,5 km/h (1 Bft) W 265 0 min 0,000 mm 0,0 UV-I 0 W/m 5,1 C 8,2 C 4,8 km/h (1 Bft) 100,00 %
14.04.2018 00:52 8,2 C 10,6 C 82 % 1016,8 hPa 0,0 l/m 2,6 km/h (1 Bft) W 265 0 min 0,000 mm 0,0 UV-I 0 W/m 5,3 C 8,2 C 3,2 km/h (1 Bft) 95,65 %
14.04.2018 00:53 8,1 C 10,6 C 82 % 1016,8 hPa 0,0 l/m 2,7 km/h (1 Bft) W 265 0 min 0,000 mm 0,0 UV-I 0 W/m 5,2 C 8,1 C 3,2 km/h (1 Bft) 100,00 %
14.04.2018 00:54 8,0 C 10,6 C 82 % 1016,8 hPa 0,0 l/m 3,2 km/h (1 Bft) W 265 0 min 0,000 mm 0,0 UV-I 0 W/m 5,1 C 8,0 C 4,8 km/h (1 Bft) 96,15 %
14.04.2018 00:55 7,9 C 10,6 C 82 % 1016,9 hPa 0,0 l/m 2,8 km/h (1 Bft) W 265 0 min 0,000 mm 0,0 UV-I 0 W/m 5,0 C 7,9 C 3,2 km/h (1 Bft) 100,00 %
14.04.2018 00:56 7,9 C 10,6 C 82 % 1016,8 hPa 0,0 l/m 2,9 km/h (1 Bft) W 265 0 min 0,000 mm 0,0 UV-I 0 W/m 5,0 C 7,9 C 3,2 km/h (1 Bft) 96,15 %
14.04.2018 00:57 7,9 C 10,6 C 82 % 1016,8 hPa 0,0 l/m 3,2 km/h (1 Bft) W 265 0 min 0,000 mm 0,0 UV-I 0 W/m 5,0 C 7,9 C 4,8 km/h (1 Bft) 100,00 %
14.04.2018 00:58 8,0 C 10,6 C 81 % 1016,9 hPa 0,0 l/m 3,3 km/h (1 Bft) W 279 0 min 0,000 mm 0,0 UV-I 0 W/m 4,9 C 8,0 C 4,8 km/h (1 Bft) 100,00 %
14.04.2018 00:59 8,1 C 10,6 C 81 % 1016,9 hPa 0,0 l/m 2,5 km/h (1 Bft) W 279 0 min 0,000 mm 0,0 UV-I 0 W/m 5,0 C 8,1 C 3,2 km/h (1 Bft) 100,00 %
14.04.2018 01:00 8,1 C 10,6 C 81 % 1016,9 hPa 0,0 l/m 2,1 km/h (1 Bft) W 279 0 min 0,000 mm 0,0 UV-I 0 W/m 5,0 C 8,1 C 3,2 km/h (1 Bft) 100,00 %
14.04.2018 01:01 7,9 C 10,6 C 81 % 1016,9 hPa 0,0 l/m 2,4 km/h (1 Bft) W 279 0 min 0,000 mm 0,0 UV-I 0 W/m 4,8 C 7,9 C 3,2 km/h (1 Bft) 100,00 %
14.04.2018 01:02 7,7 C 10,6 C 81 % 1016,9 hPa 0,0 l/m 3,5 km/h (1 Bft) SW 218 0 min 0,000 mm 0,0 UV-I 0 W/m 4,7 C 7,7 C 4,8 km/h (1 Bft) 100,00 %
14.04.2018 01:03 7,5 C 10,6 C 82 % 1017,0 hPa 0,0 l/m 3,2 km/h (1 Bft) SW 217 0 min 0,000 mm 0,0 UV-I 0 W/m 4,6 C 7,5 C 4,8 km/h (1 Bft) 96,55 %
14.04.2018 01:04 7,4 C 10,6 C 83 % 1016,9 hPa 0,0 l/m 3,8 km/h (1 Bft) SW 217 0 min 0,000 mm 0,0 UV-I 0 W/m 4,7 C 7,4 C 4,8 km/h (1 Bft) 100,00 %
14.04.2018 01:05 7,4 C 10,6 C 83 % 1017,0 hPa 0,0 l/m 4,3 km/h (1 Bft) SW 215 0 min 0,000 mm 0,0 UV-I 0 W/m 4,7 C 7,4 C 6,4 km/h (2 Bft) 100,00 %
14.04.2018 01:06 7,4 C 10,6 C 83 % 1017,0 hPa 0,0 l/m 4,4 km/h (1 Bft) SW 214 0 min 0,000 mm 0,0 UV-I 0 W/m 4,7 C 7,4 C 4,8 km/h (1 Bft) 100,00 %
14.04.2018 01:07 7,5 C 10,6 C 83 % 1017,0 hPa 0,0 l/m 4,3 km/h (1 Bft) S-SW 213 0 min 0,000 mm 0,0 UV-I 0 W/m 4,8 C 7,5 C 4,8 km/h (1 Bft) 100,00 %
14.04.2018 01:08 7,5 C 10,6 C 83 % 1017,0 hPa 0,0 l/m 4,2 km/h (1 Bft) S-SW 212 0 min 0,000 mm 0,0 UV-I 0 W/m 4,8 C 7,5 C 4,8 km/h (1 Bft) 100,00 %
14.04.2018 01:09 7,4 C 10,6 C 83 % 1017,0 hPa 0,0 l/m 4,7 km/h (1 Bft) S-SW 205 0 min 0,000 mm 0,0 UV-I 0 W/m 4,7 C 7,4 C 6,4 km/h (2 Bft) 95,65 %
14.04.2018 01:10 7,4 C 10,6 C 83 % 1017,1 hPa 0,0 l/m 5,2 km/h (1 Bft) S 175 0 min 0,000 mm 0,0 UV-I 0 W/m 4,7 C 7,4 C 6,4 km/h (2 Bft) 95,83 %
14.04.2018 01:11 7,4 C 10,6 C 83 % 1017,1 hPa 0,0 l/m 5,5 km/h (1 Bft) S 174 0 min 0,000 mm 0,0 UV-I 0 W/m 4,7 C 7,4 C 8,0 km/h (2 Bft) 91,67 %
14.04.2018 01:12 7,4 C 10,6 C 83 % 1017,1 hPa 0,0 l/m 7,7 km/h (2 Bft) S-SO 166 0 min 0,000 mm 0,0 UV-I 0 W/m 4,7 C 6,4 C 8,0 km/h (2 Bft) 100,00 %
14.04.2018 01:13 7,4 C 10,6 C 83 % 1017,1 hPa 0,0 l/m 6,6 km/h (2 Bft) S-SO 166 0 min 0,000 mm 0,0 UV-I 0 W/m 4,7 C 7,3 C 8,0 km/h (2 Bft) 100,00 %
14.04.2018 01:14 7,4 C 10,6 C 83 % 1017,2 hPa 0,0 l/m 6,0 km/h (2 Bft) S-SO 166 0 min 0,000 mm 0,0 UV-I 0 W/m 4,7 C 7,4 C 8,0 km/h (2 Bft) 100,00 %
14.04.2018 01:15 7,4 C 10,6 C 83 % 1017,2 hPa 0,0 l/m 7,0 km/h (2 Bft) S-SO 166 0 min 0,000 mm 0,0 UV-I 0 W/m 4,7 C 6,9 C 8,0 km/h (2 Bft) 100,00 %
14.04.2018 01:16 7,7 C 10,6 C 83 % 1017,2 hPa 0,0 l/m 6,3 km/h (2 Bft) S-SO 166 0 min 0,000 mm 0,0 UV-I 0 W/m 5,0 C 7,7 C 8,0 km/h (2 Bft) 100,00 %
14.04.2018 01:17 7,7 C 10,6 C 82 % 1017,2 hPa 0,0 l/m 5,6 km/h (1 Bft) S-SO 166 0 min 0,000 mm 0,0 UV-I 0 W/m 4,8 C 7,7 C 6,4 km/h (2 Bft) 100,00 %
14.04.2018 01:18 7,6 C 10,6 C 82 % 1017,2 hPa 0,0 l/m 5,5 km/h (1 Bft) S-SO 166 0 min 0,000 mm 0,0 UV-I 0 W/m 4,7 C 7,6 C 6,4 km/h (2 Bft) 100,00 %
14.04.2018 01:19 7,6 C 10,6 C 82 % 1017,2 hPa 0,0 l/m 5,4 km/h (1 Bft) S-SO 166 0 min 0,000 mm 0,0 UV-I 0 W/m 4,7 C 7,6 C 6,4 km/h (2 Bft) 100,00 %
14.04.2018 01:20 7,3 C 10,6 C 82 % 1017,3 hPa 0,0 l/m 4,6 km/h (1 Bft) S-SO 166 0 min 0,000 mm 0,0 UV-I 0 W/m 4,4 C 7,3 C 6,4 km/h (2 Bft) 100,00 %
14.04.2018 01:21 7,1 C 10,6 C 83 % 1017,3 hPa 0,0 l/m 3,1 km/h (1 Bft) S-SO 166 0 min 0,000 mm 0,0 UV-I 0 W/m 4,4 C 7,1 C 4,8 km/h (1 Bft) 100,00 %
14.04.2018 01:22 7,1 C 10,6 C 84 % 1017,3 hPa 0,0 l/m 4,4 km/h (1 Bft) S-SO 166 0 min 0,000 mm 0,0 UV-I 0 W/m 4,6 C 7,1 C 4,8 km/h (1 Bft) 100,00 %
14.04.2018 01:23 7,1 C 10,6 C 85 % 1017,3 hPa 0,0 l/m 4,6 km/h (1 Bft) S-SO 166 0 min 0,000 mm 0,0 UV-I 0 W/m 4,8 C 7,1 C 4,8 km/h (1 Bft) 100,00 %
14.04.2018 01:24 7,3 C 10,6 C 85 % 1017,3 hPa 0,0 l/m 4,8 km/h (1 Bft) S-SO 166 0 min 0,000 mm 0,0 UV-I 0 W/m 4,9 C 7,3 C 4,8 km/h (1 Bft) 100,00 %
14.04.2018 01:25 7,5 C 10,6 C 84 % 1017,3 hPa 0,0 l/m 2,9 km/h (1 Bft) S-SO 166 0 min 0,000 mm 0,0 UV-I 0 W/m 5,0 C 7,5 C 4,8 km/h (1 Bft) 100,00 %
14.04.2018 01:26 7,6 C 10,6 C 83 % 1017,4 hPa 0,0 l/m 2,4 km/h (1 Bft) S-SO 166 0 min 0,000 mm 0,0 UV-I 0 W/m 4,9 C 7,6 C 4,8 km/h (1 Bft) 97,14 %
14.04.2018 01:27 7,4 C 10,6 C 83 % 1017,4 hPa 0,0 l/m 2,5 km/h (1 Bft) S-SO 166 0 min 0,000 mm 0,0 UV-I 0 W/m 4,7 C 7,4 C 4,8 km/h (1 Bft) 100,00 %
14.04.2018 01:28 7,1 C 10,6 C 83 % 1017,3 hPa 0,0 l/m 3,9 km/h (1 Bft) S-SO 166 0 min 0,000 mm 0,0 UV-I 0 W/m 4,4 C 7,1 C 4,8 km/h (1 Bft) 100,00 %
14.04.2018 01:29 6,8 C 10,6 C 83 % 1017,3 hPa 0,0 l/m 4,5 km/h (1 Bft) S-SO 166 0 min 0,000 mm 0,0 UV-I 0 W/m 4,1 C 6,8 C 4,8 km/h (1 Bft) 100,00 %
14.04.2018 01:30 6,5 C 10,6 C 85 % 1017,3 hPa 0,0 l/m 4,3 km/h (1 Bft) S-SO 166 0 min 0,000 mm 0,0 UV-I 0 W/m 4,2 C 6,5 C 4,8 km/h (1 Bft) 100,00 %
14.04.2018 01:31 6,3 C 10,6 C 85 % 1017,3 hPa 0,0 l/m 5,0 km/h (1 Bft) S-SO 166 0 min 0,000 mm 0,0 UV-I 0 W/m 4,0 C 6,3 C 6,4 km/h (2 Bft) 100,00 %
14.04.2018 01:32 6,2 C 10,6 C 87 % 1017,3 hPa 0,0 l/m 4,9 km/h (1 Bft) S-SO 166 0 min 0,000 mm 0,0 UV-I 0 W/m 4,2 C 6,2 C 6,4 km/h (2 Bft) 100,00 %
14.04.2018 01:33 6,1 C 10,6 C 88 % 1017,3 hPa 0,0 l/m 5,2 km/h (1 Bft) S-SO 166 0 min 0,000 mm 0,0 UV-I 0 W/m 4,3 C 6,1 C 6,4 km/h (2 Bft) 100,00 %
14.04.2018 01:34 6,0 C 10,6 C 88 % 1017,3 hPa 0,0 l/m 5,3 km/h (1 Bft) S-SO 166 0 min 0,000 mm 0,0 UV-I 0 W/m 4,2 C 6,0 C 6,4 km/h (2 Bft) 95,65 %
14.04.2018 01:35 6,0 C 10,6 C 88 % 1017,3 hPa 0,0 l/m 5,2 km/h (1 Bft) S-SO 166 0 min 0,000 mm 0,0 UV-I 0 W/m 4,2 C 6,0 C 6,4 km/h (2 Bft) 100,00 %
14.04.2018 01:36 6,0 C 10,6 C 89 % 1017,3 hPa 0,0 l/m 5,4 km/h (1 Bft) S-SO 166 0 min 0,000 mm 0,0 UV-I 0 W/m 4,3 C 6,0 C 6,4 km/h (2 Bft) 97,98 %
14.04.2018 01:37 6,0 C 10,6 C 89 % 1017,3 hPa 0,0 l/m 5,8 km/h (2 Bft) S-SO 166 0 min 0,000 mm 0,0 UV-I 0 W/m 4,3 C 6,0 C 6,4 km/h (2 Bft) 97,56 %
14.04.2018 01:38 6,1 C 10,6 C 89 % 1017,3 hPa 0,0 l/m 5,8 km/h (2 Bft) S-SO 166 0 min 0,000 mm 0,0 UV-I 0 W/m 4,4 C 6,1 C 6,4 km/h (2 Bft) 96,30 %
14.04.2018 01:39 6,1 C 10,6 C 89 % 1017,4 hPa 0,0 l/m 6,4 km/h (2 Bft) S-SO 166 0 min 0,000 mm 0,0 UV-I 0 W/m 4,4 C 6,1 C 6,4 km/h (2 Bft) 95,65 %
14.04.2018 01:40 6,3 C 10,6 C 89 % 1017,4 hPa 0,0 l/m 6,8 km/h (2 Bft) S-SO 166 0 min 0,000 mm 0,0 UV-I 0 W/m 4,6 C 6,0 C 8,0 km/h (2 Bft) 100,00 %
14.04.2018 01:41 6,3 C 10,6 C 89 % 1017,4 hPa 0,0 l/m 7,3 km/h (2 Bft) S-SO 166 0 min 0,000 mm 0,0 UV-I 0 W/m 4,6 C 5,5 C 8,0 km/h (2 Bft) 96,15 %
14.04.2018 01:42 6,5 C 10,6 C 89 % 1017,4 hPa 0,0 l/m 7,0 km/h (2 Bft) S-SO 166 0 min 0,000 mm 0,0 UV-I 0 W/m 4,8 C 6,0 C 8,0 km/h (2 Bft) 100,00 %
14.04.2018 01:43 6,6 C 10,6 C 88 % 1017,4 hPa 0,0 l/m 6,8 km/h (2 Bft) S-SO 166 0 min 0,000 mm 0,0 UV-I 0 W/m 4,8 C 6,3 C 8,0 km/h (2 Bft) 92,86 %
14.04.2018 01:44 6,6 C 10,6 C 87 % 1017,4 hPa 0,0 l/m 7,6 km/h (2 Bft) S-SO 166 0 min 0,000 mm 0,0 UV-I 0 W/m 4,6 C 5,6 C 8,0 km/h (2 Bft) 100,00 %
14.04.2018 01:45 6,7 C 10,6 C 87 % 1017,4 hPa 0,0 l/m 7,6 km/h (2 Bft) S-SO 166 0 min 0,000 mm 0,0 UV-I 0 W/m 4,7 C 5,7 C 8,0 km/h (2 Bft) 95,65 %
14.04.2018 01:46 6,7 C 10,6 C 87 % 1017,4 hPa 0,0 l/m 7,6 km/h (2 Bft) S-SO 166 0 min 0,000 mm 0,0 UV-I 0 W/m 4,7 C 5,7 C 8,0 km/h (2 Bft) 95,83 %
14.04.2018 01:47 6,7 C 10,6 C 86 % 1017,5 hPa 0,0 l/m 7,8 km/h (2 Bft) S-SO 166 0 min 0,000 mm 0,0 UV-I 0 W/m 4,5 C 5,5 C 8,0 km/h (2 Bft) 95,65 %
14.04.2018 01:48 6,7 C 10,6 C 86 % 1017,5 hPa 0,0 l/m 7,7 km/h (2 Bft) S-SO 166 0 min 0,000 mm 0,0 UV-I 0 W/m 4,5 C 5,6 C 8,0 km/h (2 Bft) 96,30 %
14.04.2018 01:49 6,8 C 10,6 C 86 % 1017,5 hPa 0,0 l/m 7,9 km/h (2 Bft) S-SO 165 0 min 0,000 mm 0,0 UV-I 0 W/m 4,6 C 5,6 C 9,7 km/h (2 Bft) 95,65 %
14.04.2018 01:50 6,7 C 10,6 C 86 % 1017,5 hPa 0,0 l/m 7,6 km/h (2 Bft) S-SO 165 0 min 0,000 mm 0,0 UV-I 0 W/m 4,5 C 5,7 C 8,0 km/h (2 Bft) 95,83 %
14.04.2018 01:51 6,7 C 10,6 C 86 % 1017,5 hPa 0,0 l/m 7,1 km/h (2 Bft) S-SO 165 0 min 0,000 mm 0,0 UV-I 0 W/m 4,5 C 6,1 C 8,0 km/h (2 Bft) 100,00 %
14.04.2018 01:52 6,7 C 10,6 C 86 % 1017,5 hPa 0,0 l/m 6,2 km/h (2 Bft) S-SO 165 0 min 0,000 mm 0,0 UV-I 0 W/m 4,5 C 6,7 C 8,0 km/h (2 Bft) 95,83 %
14.04.2018 01:53 6,7 C 10,6 C 86 % 1017,5 hPa 0,0 l/m 5,6 km/h (1 Bft) S-SO 165 0 min 0,000 mm 0,0 UV-I 0 W/m 4,5 C 6,7 C 6,4 km/h (2 Bft) 100,00 %
14.04.2018 01:54 6,7 C 10,6 C 86 % 1017,6 hPa 0,0 l/m 3,8 km/h (1 Bft) S-SO 165 0 min 0,000 mm 0,0 UV-I 0 W/m 4,5 C 6,7 C 6,4 km/h (2 Bft) 95,83 %
14.04.2018 01:55 6,7 C 10,6 C 87 % 1017,6 hPa 0,0 l/m 4,3 km/h (1 Bft) S-SO 165 0 min 0,000 mm 0,0 UV-I 0 W/m 4,7 C 6,7 C 6,4 km/h (2 Bft) 100,00 %
14.04.2018 01:56 6,7 C 10,6 C 87 % 1017,6 hPa 0,0 l/m 3,8 km/h (1 Bft) S-SO 165 0 min 0,000 mm 0,0 UV-I 0 W/m 4,7 C 6,7 C 6,4 km/h (2 Bft) 91,30 %
14.04.2018 01:57 6,7 C 10,6 C 87 % 1017,6 hPa 0,0 l/m 3,9 km/h (1 Bft) S-SO 165 0 min 0,000 mm 0,0 UV-I 0 W/m 4,7 C 6,7 C 6,4 km/h (2 Bft) 91,67 %
14.04.2018 01:58 6,6 C 10,6 C 87 % 1017,6 hPa 0,0 l/m 3,6 km/h (1 Bft) S-SO 165 0 min 0,000 mm 0,0 UV-I 0 W/m 4,6 C 6,6 C 6,4 km/h (2 Bft) 100,00 %
14.04.2018 01:59 6,6 C 10,6 C 87 % 1017,6 hPa 0,0 l/m 3,9 km/h (1 Bft) S-SO 165 0 min 0,000 mm 0,0 UV-I 0 W/m 4,6 C 6,6 C 6,4 km/h (2 Bft) 95,83 %
14.04.2018 02:00 6,6 C 10,6 C 87 % 1017,6 hPa 0,0 l/m 3,5 km/h (1 Bft) S-SO 165 0 min 0,000 mm 0,0 UV-I 0 W/m 4,6 C 6,6 C 6,4 km/h (2 Bft) 91,30 %
14.04.2018 02:01 6,6 C 10,6 C 87 % 1017,6 hPa 0,0 l/m 3,3 km/h (1 Bft) S-SO 165 0 min 0,000 mm 0,0 UV-I 0 W/m 4,6 C 6,6 C 6,4 km/h (2 Bft) 95,83 %
14.04.2018 02:02 6,6 C 10,6 C 88 % 1017,6 hPa 0,0 l/m 2,7 km/h (1 Bft) S-SO 165 0 min 0,000 mm 0,0 UV-I 0 W/m 4,8 C 6,6 C 3,2 km/h (1 Bft) 100,00 %
14.04.2018 02:03 6,6 C 10,6 C 87 % 1017,6 hPa 0,0 l/m 2,5 km/h (1 Bft) S-SO 165 0 min 0,000 mm 0,0 UV-I 0 W/m 4,6 C 6,6 C 3,2 km/h (1 Bft) 95,83 %
14.04.2018 02:04 6,4 C 10,6 C 87 % 1017,6 hPa 0,0 l/m 3,2 km/h (1 Bft) S-SO 165 0 min 0,000 mm 0,0 UV-I 0 W/m 4,4 C 6,4 C 3,2 km/h (1 Bft) 100,00 %
14.04.2018 02:05 6,4 C 10,6 C 88 % 1017,6 hPa 0,0 l/m 2,7 km/h (1 Bft) S-SO 165 0 min 0,000 mm 0,0 UV-I 0 W/m 4,6 C 6,4 C 3,2 km/h (1 Bft) 96,97 %
14.04.2018 02:06 6,4 C 10,6 C 88 % 1017,6 hPa 0,0 l/m 2,5 km/h (1 Bft) S-SO 165 0 min 0,000 mm 0,0 UV-I 0 W/m 4,6 C 6,4 C 3,2 km/h (1 Bft) 91,30 %
14.04.2018 02:07 6,3 C 10,6 C 87 % 1017,6 hPa 0,0 l/m 2,2 km/h (1 Bft) S-SO 165 0 min 0,000 mm 0,0 UV-I 0 W/m 4,3 C 6,3 C 3,2 km/h (1 Bft) 100,00 %
14.04.2018 02:08 6,2 C 10,6 C 88 % 1017,7 hPa 0,0 l/m 2,5 km/h (1 Bft) S-SO 165 0 min 0,000 mm 0,0 UV-I 0 W/m 4,4 C 6,2 C 3,2 km/h (1 Bft) 95,65 %
14.04.2018 02:09 6,2 C 10,6 C 88 % 1017,7 hPa 0,0 l/m 3,7 km/h (1 Bft) S-SO 165 0 min 0,000 mm 0,0 UV-I 0 W/m 4,4 C 6,2 C 6,4 km/h (2 Bft) 100,00 %
14.04.2018 02:10 6,1 C 10,6 C 88 % 1017,7 hPa 0,0 l/m 1,7 km/h (1 Bft) S-SO 165 0 min 0,000 mm 0,0 UV-I 0 W/m 4,3 C 6,1 C 3,2 km/h (1 Bft) 95,65 %
14.04.2018 02:11 5,9 C 10,6 C 88 % 1017,7 hPa 0,0 l/m 2,2 km/h (1 Bft) S-SO 165 0 min 0,000 mm 0,0 UV-I 0 W/m 4,1 C 5,9 C 3,2 km/h (1 Bft) 100,00 %
14.04.2018 02:12 5,9 C 10,6 C 88 % 1017,6 hPa 0,0 l/m 2,9 km/h (1 Bft) S-SO 165 0 min 0,000 mm 0,0 UV-I 0 W/m 4,1 C 5,9 C 3,2 km/h (1 Bft) 92,59 %
14.04.2018 02:13 5,8 C 10,6 C 89 % 1017,7 hPa 0,0 l/m 1,3 km/h (1 Bft) S-SO 165 0 min 0,000 mm 0,0 UV-I 0 W/m 4,1 C 5,8 C 1,6 km/h (1 Bft) 96,15 %
14.04.2018 02:14 5,8 C 10,6 C 89 % 1017,7 hPa 0,0 l/m 1,5 km/h (1 Bft) S-SO 165 0 min 0,000 mm 0,0 UV-I 0 W/m 4,1 C 5,8 C 1,6 km/h (1 Bft) 96,30 %
14.04.2018 02:15 5,8 C 10,6 C 90 % 1017,7 hPa 0,0 l/m 1,4 km/h (1 Bft) S-SO 165 0 min 0,000 mm 0,0 UV-I 0 W/m 4,3 C 5,8 C 3,2 km/h (1 Bft) 90,91 %
14.04.2018 02:16 5,9 C 10,6 C 90 % 1017,7 hPa 0,0 l/m 1,3 km/h (1 Bft) S-SO 165 0 min 0,000 mm 0,0 UV-I 0 W/m 4,4 C 5,9 C 1,6 km/h (1 Bft) 96,67 %
14.04.2018 02:17 5,9 C 10,6 C 90 % 1017,7 hPa 0,0 l/m 1,6 km/h (1 Bft) S-SO 165 0 min 0,000 mm 0,0 UV-I 0 W/m 4,4 C 5,9 C 1,6 km/h (1 Bft) 95,65 %
14.04.2018 02:18 5,9 C 10,6 C 90 % 1017,7 hPa 0,0 l/m 1,9 km/h (1 Bft) S-SO 165 0 min 0,000 mm 0,0 UV-I 0 W/m 4,4 C 5,9 C 3,2 km/h (1 Bft) 100,00 %
14.04.2018 02:19 5,8 C 10,6 C 88 % 1017,7 hPa 0,0 l/m 2,1 km/h (1 Bft) S-SO 165 0 min 0,000 mm 0,0 UV-I 0 W/m 4,0 C 5,8 C 3,2 km/h (1 Bft) 100,00 %
14.04.2018 02:20 5,7 C 10,6 C 88 % 1017,7 hPa 0,0 l/m 2,3 km/h (1 Bft) S-SO 165 0 min 0,000 mm 0,0 UV-I 0 W/m 3,9 C 5,7 C 3,2 km/h (1 Bft) 100,00 %
14.04.2018 02:21 5,5 C 10,6 C 89 % 1017,7 hPa 0,0 l/m 2,3 km/h (1 Bft) S-SO 165 0 min 0,000 mm 0,0 UV-I 0 W/m 3,8 C 5,5 C 3,2 km/h (1 Bft) 100,00 %
14.04.2018 02:22 5,4 C 10,6 C 89 % 1017,7 hPa 0,0 l/m 2,5 km/h (1 Bft) S-SO 165 0 min 0,000 mm 0,0 UV-I 0 W/m 3,7 C 5,4 C 3,2 km/h (1 Bft) 100,00 %
14.04.2018 02:23 5,4 C 10,6 C 90 % 1017,8 hPa 0,0 l/m 2,5 km/h (1 Bft) S-SO 165 0 min 0,000 mm 0,0 UV-I 0 W/m 3,9 C 5,4 C 3,2 km/h (1 Bft) 100,00 %
14.04.2018 02:24 5,3 C 10,6 C 90 % 1017,7 hPa 0,0 l/m 2,4 km/h (1 Bft) S-SO 165 0 min 0,000 mm 0,0 UV-I 0 W/m 3,8 C 5,3 C 3,2 km/h (1 Bft) 100,00 %
14.04.2018 02:25 5,3 C 10,6 C 90 % 1017,7 hPa 0,0 l/m 2,5 km/h (1 Bft) S-SO 165 0 min 0,000 mm 0,0 UV-I 0 W/m 3,8 C 5,3 C 3,2 km/h (1 Bft) 96,15 %
14.04.2018 02:26 5,3 C 10,6 C 90 % 1017,7 hPa 0,0 l/m 2,2 km/h (1 Bft) S-SO 165 0 min 0,000 mm 0,0 UV-I 0 W/m 3,8 C 5,3 C 3,2 km/h (1 Bft) 95,83 %
14.04.2018 02:27 5,3 C 10,6 C 91 % 1017,7 hPa 0,0 l/m 2,1 km/h (1 Bft) S-SO 165 0 min 0,000 mm 0,0 UV-I 0 W/m 4,0 C 5,3 C 3,2 km/h (1 Bft) 100,00 %
14.04.2018 02:28 5,3 C 10,6 C 91 % 1017,7 hPa 0,0 l/m 1,9 km/h (1 Bft) S-SO 165 0 min 0,000 mm 0,0 UV-I 0 W/m 4,0 C 5,3 C 3,2 km/h (1 Bft) 100,00 %
14.04.2018 02:29 5,4 C 10,6 C 91 % 1017,7 hPa 0,0 l/m 1,6 km/h (1 Bft) S-SO 165 0 min 0,000 mm 0,0 UV-I 0 W/m 4,1 C 5,4 C 1,6 km/h (1 Bft) 95,65 %
14.04.2018 02:30 5,4 C 10,6 C 91 % 1017,7 hPa 0,0 l/m 1,9 km/h (1 Bft) S-SO 165 0 min 0,000 mm 0,0 UV-I 0 W/m 4,1 C 5,4 C 3,2 km/h (1 Bft) 100,00 %
14.04.2018 02:31 5,5 C 10,6 C 91 % 1017,7 hPa 0,0 l/m 1,9 km/h (1 Bft) S-SO 165 0 min 0,000 mm 0,0 UV-I 0 W/m 4,2 C 5,5 C 3,2 km/h (1 Bft) 100,00 %
14.04.2018 02:32 5,6 C 10,6 C 91 % 1017,8 hPa 0,0 l/m 2,5 km/h (1 Bft) S-SO 165 0 min 0,000 mm 0,0 UV-I 0 W/m 4,2 C 5,6 C 3,2 km/h (1 Bft) 100,00 %
14.04.2018 02:33 5,5 C 10,6 C 90 % 1017,8 hPa 0,0 l/m 3,5 km/h (1 Bft) S-SO 165 0 min 0,000 mm 0,0 UV-I 0 W/m 4,0 C 5,5 C 6,4 km/h (2 Bft) 100,00 %
14.04.2018 02:34 5,4 C 10,6 C 90 % 1017,8 hPa 0,0 l/m 3,6 km/h (1 Bft) S-SO 165 0 min 0,000 mm 0,0 UV-I 0 W/m 3,9 C 5,4 C 6,4 km/h (2 Bft) 100,00 %
14.04.2018 02:35 5,3 C 10,6 C 90 % 1017,8 hPa 0,0 l/m 3,9 km/h (1 Bft) S-SO 165 0 min 0,000 mm 0,0 UV-I 0 W/m 3,8 C 5,3 C 6,4 km/h (2 Bft) 93,33 %
14.04.2018 02:36 5,3 C 10,6 C 90 % 1017,8 hPa 0,0 l/m 3,6 km/h (1 Bft) S-SO 165 0 min 0,000 mm 0,0 UV-I 0 W/m 3,8 C 5,3 C 6,4 km/h (2 Bft) 100,00 %
14.04.2018 02:37 5,3 C 10,6 C 91 % 1017,8 hPa 0,0 l/m 3,8 km/h (1 Bft) S-SO 165 0 min 0,000 mm 0,0 UV-I 0 W/m 4,0 C 5,3 C 6,4 km/h (2 Bft) 100,00 %
14.04.2018 02:38 5,4 C 10,6 C 91 % 1017,8 hPa 0,0 l/m 3,5 km/h (1 Bft) S-SO 165 0 min 0,000 mm 0,0 UV-I 0 W/m 4,1 C 5,4 C 6,4 km/h (2 Bft) 100,00 %
14.04.2018 02:39 5,4 C 10,6 C 91 % 1017,8 hPa 0,0 l/m 3,4 km/h (1 Bft) S-SO 165 0 min 0,000 mm 0,0 UV-I 0 W/m 4,1 C 5,4 C 6,4 km/h (2 Bft) 100,00 %
14.04.2018 02:40 5,5 C 10,6 C 91 % 1017,8 hPa 0,0 l/m 3,2 km/h (1 Bft) S-SO 165 0 min 0,000 mm 0,0 UV-I 0 W/m 4,2 C 5,5 C 6,4 km/h (2 Bft) 100,00 %
14.04.2018 02:41 5,6 C 10,6 C 91 % 1017,8 hPa 0,0 l/m 3,0 km/h (1 Bft) S-SO 165 0 min 0,000 mm 0,0 UV-I 0 W/m 4,2 C 5,6 C 3,2 km/h (1 Bft) 96,30 %
14.04.2018 02:42 5,7 C 10,6 C 90 % 1017,9 hPa 0,0 l/m 3,0 km/h (1 Bft) S-SO 165 0 min 0,000 mm 0,0 UV-I 0 W/m 4,2 C 5,7 C 3,2 km/h (1 Bft) 100,00 %
14.04.2018 02:43 5,8 C 10,6 C 90 % 1017,9 hPa 0,0 l/m 1,9 km/h (1 Bft) S-SO 165 0 min 0,000 mm 0,0 UV-I 0 W/m 4,3 C 5,8 C 3,2 km/h (1 Bft) 100,00 %
14.04.2018 02:44 5,8 C 10,6 C 90 % 1017,9 hPa 0,0 l/m 0,9 km/h (0 Bft) S-SO 165 0 min 0,000 mm 0,0 UV-I 0 W/m 4,3 C 5,8 C 1,6 km/h (1 Bft) 95,65 %
14.04.2018 02:45 6,0 C 10,6 C 89 % 1017,9 hPa 0,0 l/m 0,9 km/h (0 Bft) S-SO 165 0 min 0,000 mm 0,0 UV-I 0 W/m 4,3 C 6,0 C 1,6 km/h (1 Bft) 96,67 %
14.04.2018 02:46 6,2 C 10,6 C 89 % 1017,9 hPa 0,0 l/m 1,4 km/h (1 Bft) S-SO 165 0 min 0,000 mm 0,0 UV-I 0 W/m 4,5 C 6,2 C 1,6 km/h (1 Bft) 100,00 %
14.04.2018 02:47 6,2 C 10,6 C 89 % 1017,9 hPa 0,0 l/m 0,0 km/h (0 Bft) S-SO 165 0 min 0,000 mm 0,0 UV-I 0 W/m 4,5 C 6,2 C 0,0 km/h (0 Bft) 100,00 %
14.04.2018 02:48 6,3 C 10,6 C 89 % 1017,9 hPa 0,0 l/m 0,0 km/h (0 Bft) S-SO 165 0 min 0,000 mm 0,0 UV-I 0 W/m 4,6 C 6,3 C 0,0 km/h (0 Bft) 100,00 %
14.04.2018 02:49 6,4 C 10,6 C 88 % 1017,9 hPa 0,0 l/m 0,0 km/h (0 Bft) S-SO 165 0 min 0,000 mm 0,0 UV-I 0 W/m 4,6 C 6,4 C 0,0 km/h (0 Bft) 100,00 %
14.04.2018 02:50 6,4 C 10,6 C 88 % 1018,0 hPa 0,0 l/m 0,3 km/h (0 Bft) S-SO 165 0 min 0,000 mm 0,0 UV-I 0 W/m 4,6 C 6,4 C 1,6 km/h (1 Bft) 100,00 %
14.04.2018 02:51 6,4 C 10,6 C 88 % 1018,0 hPa 0,0 l/m 1,5 km/h (1 Bft) S-SO 165 0 min 0,000 mm 0,0 UV-I 0 W/m 4,6 C 6,4 C 1,6 km/h (1 Bft) 95,83 %
14.04.2018 02:52 6,4 C 10,6 C 87 % 1018,1 hPa 0,0 l/m 1,1 km/h (1 Bft) S-SO 165 0 min 0,000 mm 0,0 UV-I 0 W/m 4,4 C 6,4 C 1,6 km/h (1 Bft) 96,15 %
14.04.2018 02:53 6,4 C 10,6 C 87 % 1018,0 hPa 0,0 l/m 0,1 km/h (0 Bft) S-SO 165 0 min 0,000 mm 0,0 UV-I 0 W/m 4,4 C 6,4 C 1,6 km/h (1 Bft) 100,00 %
14.04.2018 02:54 6,4 C 10,6 C 87 % 1018,0 hPa 0,0 l/m 0,0 km/h (0 Bft) S-SO 165 0 min 0,000 mm 0,0 UV-I 0 W/m 4,4 C 6,4 C 0,0 km/h (0 Bft) 100,00 %
14.04.2018 02:55 6,3 C 10,6 C 87 % 1018,1 hPa 0,0 l/m 0,0 km/h (0 Bft) S-SO 165 0 min 0,000 mm 0,0 UV-I 0 W/m 4,3 C 6,3 C 0,0 km/h (0 Bft) 100,00 %
14.04.2018 02:56 6,3 C 10,6 C 87 % 1018,1 hPa 0,0 l/m 0,0 km/h (0 Bft) S-SO 165 0 min 0,000 mm 0,0 UV-I 0 W/m 4,3 C 6,3 C 0,0 km/h (0 Bft) 100,00 %
14.04.2018 02:57 6,2 C 10,6 C 87 % 1018,0 hPa 0,0 l/m 0,0 km/h (0 Bft) S-SO 165 0 min 0,000 mm 0,0 UV-I 0 W/m 4,2 C 6,2 C 0,0 km/h (0 Bft) 100,00 %
14.04.2018 02:58 6,2 C 10,6 C 87 % 1018,1 hPa 0,0 l/m 0,0 km/h (0 Bft) S-SO 165 0 min 0,000 mm 0,0 UV-I 0 W/m 4,2 C 6,2 C 0,0 km/h (0 Bft) 100,00 %
14.04.2018 02:59 6,2 C 10,6 C 87 % 1018,1 hPa 0,0 l/m 0,0 km/h (0 Bft) S-SO 165 0 min 0,000 mm 0,0 UV-I 0 W/m 4,2 C 6,2 C 0,0 km/h (0 Bft) 92,86 %
14.04.2018 03:00 6,1 C 10,6 C 87 % 1018,1 hPa 0,0 l/m 0,0 km/h (0 Bft) S-SO 165 0 min 0,000 mm 0,0 UV-I 0 W/m 4,1 C 6,1 C 0,0 km/h (0 Bft) 100,00 %
14.04.2018 03:01 5,9 C 10,6 C 87 % 1018,0 hPa 0,0 l/m 0,0 km/h (0 Bft) S-SO 165 0 min 0,000 mm 0,0 UV-I 0 W/m 3,9 C 5,9 C 0,0 km/h (0 Bft) 100,00 %
14.04.2018 03:02 5,8 C 10,6 C 87 % 1018,0 hPa 0,0 l/m 0,0 km/h (0 Bft) S-SO 165 0 min 0,000 mm 0,0 UV-I 0 W/m 3,8 C 5,8 C 0,0 km/h (0 Bft) 100,00 %
14.04.2018 03:03 5,6 C 10,6 C 88 % 1018,0 hPa 0,0 l/m 0,0 km/h (0 Bft) S-SO 165 0 min 0,000 mm 0,0 UV-I 0 W/m 3,8 C 5,6 C 0,0 km/h (0 Bft) 97,89 %
14.04.2018 03:04 5,6 C 10,6 C 89 % 1018,0 hPa 0,0 l/m 0,0 km/h (0 Bft) S-SO 165 0 min 0,000 mm 0,0 UV-I 0 W/m 3,9 C 5,6 C 0,0 km/h (0 Bft) 100,00 %
14.04.2018 03:05 5,4 C 10,6 C 89 % 1018,0 hPa 0,0 l/m 0,0 km/h (0 Bft) S-SO 165 0 min 0,000 mm 0,0 UV-I 0 W/m 3,7 C 5,4 C 0,0 km/h (0 Bft) 100,00 %
14.04.2018 03:06 5,3 C 10,6 C 90 % 1018,0 hPa 0,0 l/m 0,0 km/h (0 Bft) S-SO 165 0 min 0,000 mm 0,0 UV-I 0 W/m 3,8 C 5,3 C 0,0 km/h (0 Bft) 100,00 %
14.04.2018 03:07 5,3 C 10,6 C 90 % 1018,1 hPa 0,0 l/m 0,0 km/h (0 Bft) S-SO 165 0 min 0,000 mm 0,0 UV-I 0 W/m 3,8 C 5,3 C 0,0 km/h (0 Bft) 100,00 %
14.04.2018 03:08 5,3 C 10,6 C 90 % 1018,0 hPa 0,0 l/m 0,0 km/h (0 Bft) S-SO 165 0 min 0,000 mm 0,0 UV-I 0 W/m 3,8 C 5,3 C 0,0 km/h (0 Bft) 100,00 %
14.04.2018 03:09 5,4 C 10,6 C 91 % 1018,1 hPa 0,0 l/m 0,0 km/h (0 Bft) S-SO 165 0 min 0,000 mm 0,0 UV-I 0 W/m 4,1 C 5,4 C 0,0 km/h (0 Bft) 93,10 %
14.04.2018 03:10 5,4 C 10,6 C 91 % 1018,1 hPa 0,0 l/m 0,0 km/h (0 Bft) S-SO 165 0 min 0,000 mm 0,0 UV-I 0 W/m 4,1 C 5,4 C 0,0 km/h (0 Bft) 100,00 %
14.04.2018 03:11 5,4 C 10,6 C 91 % 1018,1 hPa 0,0 l/m 0,0 km/h (0 Bft) S-SO 165 0 min 0,000 mm 0,0 UV-I 0 W/m 4,1 C 5,4 C 0,0 km/h (0 Bft) 100,00 %
14.04.2018 03:12 5,4 C 10,6 C 90 % 1018,1 hPa 0,0 l/m 0,0 km/h (0 Bft) S-SO 165 0 min 0,000 mm 0,0 UV-I 0 W/m 3,9 C 5,4 C 0,0 km/h (0 Bft) 100,00 %
14.04.2018 03:13 5,4 C 10,6 C 90 % 1018,1 hPa 0,0 l/m 0,0 km/h (0 Bft) S-SO 165 0 min 0,000 mm 0,0 UV-I 0 W/m 3,9 C 5,4 C 0,0 km/h (0 Bft) 100,00 %
14.04.2018 03:14 5,3 C 10,6 C 90 % 1018,2 hPa 0,0 l/m 0,0 km/h (0 Bft) S-SO 165 0 min 0,000 mm 0,0 UV-I 0 W/m 3,8 C 5,3 C 0,0 km/h (0 Bft) 95,65 %
14.04.2018 03:15 5,2 C 10,6 C 90 % 1018,1 hPa 0,0 l/m 0,0 km/h (0 Bft) S-SO 165 0 min 0,000 mm 0,0 UV-I 0 W/m 3,7 C 5,2 C 0,0 km/h (0 Bft) 95,83 %
14.04.2018 03:16 5,1 C 10,6 C 90 % 1018,1 hPa 0,0 l/m 0,0 km/h (0 Bft) S-SO 165 0 min 0,000 mm 0,0 UV-I 0 W/m 3,6 C 5,1 C 0,0 km/h (0 Bft) 91,30 %
14.04.2018 03:17 4,9 C 10,6 C 91 % 1018,2 hPa 0,0 l/m 0,0 km/h (0 Bft) S-SO 165 0 min 0,000 mm 0,0 UV-I 0 W/m 3,6 C 4,9 C 0,0 km/h (0 Bft) 100,00 %
14.04.2018 03:18 4,8 C 10,6 C 91 % 1018,1 hPa 0,0 l/m 0,0 km/h (0 Bft) S-SO 165 0 min 0,000 mm 0,0 UV-I 0 W/m 3,5 C 4,8 C 0,0 km/h (0 Bft) 100,00 %
14.04.2018 03:19 4,8 C 10,6 C 91 % 1018,1 hPa 0,0 l/m 0,0 km/h (0 Bft) S-SO 165 0 min 0,000 mm 0,0 UV-I 0 W/m 3,5 C 4,8 C 0,0 km/h (0 Bft) 100,00 %
14.04.2018 03:20 4,8 C 10,6 C 92 % 1018,1 hPa 0,0 l/m 0,0 km/h (0 Bft) S-SO 165 0 min 0,000 mm 0,0 UV-I 0 W/m 3,6 C 4,8 C 0,0 km/h (0 Bft) 100,00 %
14.04.2018 03:21 4,8 C 10,6 C 92 % 1018,1 hPa 0,0 l/m 1,5 km/h (1 Bft) S-SO 165 0 min 0,000 mm 0,0 UV-I 0 W/m 3,6 C 4,8 C 3,2 km/h (1 Bft) 100,00 %
14.04.2018 03:22 4,8 C 10,6 C 92 % 1018,1 hPa 0,0 l/m 3,0 km/h (1 Bft) S-SO 165 0 min 0,000 mm 0,0 UV-I 0 W/m 3,6 C 4,8 C 3,2 km/h (1 Bft) 96,15 %
14.04.2018 03:23 4,8 C 10,6 C 92 % 1018,1 hPa 0,0 l/m 3,4 km/h (1 Bft) S-SO 165 0 min 0,000 mm 0,0 UV-I 0 W/m 3,6 C 4,8 C 6,4 km/h (2 Bft) 100,00 %
14.04.2018 03:24 4,8 C 10,6 C 92 % 1018,1 hPa 0,0 l/m 3,6 km/h (1 Bft) S-SO 165 0 min 0,000 mm 0,0 UV-I 0 W/m 3,6 C 4,8 C 6,4 km/h (2 Bft) 100,00 %
14.04.2018 03:25 4,8 C 10,6 C 92 % 1018,1 hPa 0,0 l/m 5,8 km/h (2 Bft) S-SO 165 0 min 0,000 mm 0,0 UV-I 0 W/m 3,6 C 4,8 C 8,0 km/h (2 Bft) 100,00 %
14.04.2018 03:26 4,8 C 10,6 C 92 % 1018,1 hPa 0,0 l/m 6,5 km/h (2 Bft) S-SO 165 0 min 0,000 mm 0,0 UV-I 0 W/m 3,6 C 4,7 C 8,0 km/h (2 Bft) 88,46 %
14.04.2018 03:27 4,9 C 10,6 C 92 % 1018,1 hPa 0,0 l/m 6,3 km/h (2 Bft) S-SO 165 0 min 0,000 mm 0,0 UV-I 0 W/m 3,7 C 4,9 C 6,4 km/h (2 Bft) 100,00 %
14.04.2018 03:28 4,9 C 10,6 C 92 % 1018,1 hPa 0,0 l/m 6,4 km/h (2 Bft) S-SO 165 0 min 0,000 mm 0,0 UV-I 0 W/m 3,7 C 4,9 C 8,0 km/h (2 Bft) 95,65 %
14.04.2018 03:29 5,1 C 10,6 C 92 % 1018,1 hPa 0,0 l/m 6,5 km/h (2 Bft) S-SO 165 0 min 0,000 mm 0,0 UV-I 0 W/m 3,9 C 5,0 C 8,0 km/h (2 Bft) 91,67 %
14.04.2018 03:30 5,1 C 10,6 C 92 % 1018,2 hPa 0,0 l/m 6,3 km/h (2 Bft) S-SO 165 0 min 0,000 mm 0,0 UV-I 0 W/m 3,9 C 5,1 C 6,4 km/h (2 Bft) 100,00 %
14.04.2018 03:31 5,1 C 10,6 C 92 % 1018,2 hPa 0,0 l/m 5,3 km/h (1 Bft) S-SO 165 0 min 0,000 mm 0,0 UV-I 0 W/m 3,9 C 5,1 C 6,4 km/h (2 Bft) 92,86 %
14.04.2018 03:32 5,2 C 10,6 C 92 % 1018,2 hPa 0,0 l/m 5,9 km/h (2 Bft) S-SO 165 0 min 0,000 mm 0,0 UV-I 0 W/m 4,0 C 5,2 C 6,4 km/h (2 Bft) 100,00 %
14.04.2018 03:33 5,3 C 10,6 C 91 % 1018,2 hPa 0,0 l/m 4,2 km/h (1 Bft) S-SO 165 0 min 0,000 mm 0,0 UV-I 0 W/m 4,0 C 5,3 C 6,4 km/h (2 Bft) 100,00 %
14.04.2018 03:34 5,3 C 10,6 C 91 % 1018,2 hPa 0,0 l/m 4,1 km/h (1 Bft) S-SO 165 0 min 0,000 mm 0,0 UV-I 0 W/m 4,0 C 5,3 C 6,4 km/h (2 Bft) 93,33 %
14.04.2018 03:35 5,4 C 10,6 C 91 % 1018,2 hPa 0,0 l/m 1,8 km/h (1 Bft) S-SO 165 0 min 0,000 mm 0,0 UV-I 0 W/m 4,1 C 5,4 C 3,2 km/h (1 Bft) 96,55 %
14.04.2018 03:36 5,4 C 10,6 C 91 % 1018,2 hPa 0,0 l/m 0,1 km/h (0 Bft) S-SO 165 0 min 0,000 mm 0,0 UV-I 0 W/m 4,1 C 5,4 C 1,6 km/h (1 Bft) 100,00 %
14.04.2018 03:37 5,4 C 10,6 C 91 % 1018,2 hPa 0,0 l/m 1,0 km/h (0 Bft) S-SO 165 0 min 0,000 mm 0,0 UV-I 0 W/m 4,1 C 5,4 C 1,6 km/h (1 Bft) 94,12 %
14.04.2018 03:38 5,4 C 10,6 C 91 % 1018,2 hPa 0,0 l/m 1,4 km/h (1 Bft) S-SO 165 0 min 0,000 mm 0,0 UV-I 0 W/m 4,1 C 5,4 C 3,2 km/h (1 Bft) 100,00 %
14.04.2018 03:39 5,4 C 10,6 C 90 % 1018,2 hPa 0,0 l/m 2,4 km/h (1 Bft) S-SO 165 0 min 0,000 mm 0,0 UV-I 0 W/m 3,9 C 5,4 C 3,2 km/h (1 Bft) 95,65 %
14.04.2018 03:40 5,4 C 10,6 C 90 % 1018,2 hPa 0,0 l/m 2,5 km/h (1 Bft) S-SO 165 0 min 0,000 mm 0,0 UV-I 0 W/m 3,9 C 5,4 C 3,2 km/h (1 Bft) 96,30 %
14.04.2018 03:41 5,3 C 10,6 C 90 % 1018,2 hPa 0,0 l/m 2,1 km/h (1 Bft) S-SO 165 0 min 0,000 mm 0,0 UV-I 0 W/m 3,8 C 5,3 C 3,2 km/h (1 Bft) 100,00 %
14.04.2018 03:42 5,3 C 10,6 C 90 % 1018,2 hPa 0,0 l/m 2,6 km/h (1 Bft) S-SO 165 0 min 0,000 mm 0,0 UV-I 0 W/m 3,8 C 5,3 C 3,2 km/h (1 Bft) 96,30 %
14.04.2018 03:43 5,2 C 10,6 C 91 % 1018,2 hPa 0,0 l/m 2,4 km/h (1 Bft) S-SO 165 0 min 0,000 mm 0,0 UV-I 0 W/m 3,9 C 5,2 C 3,2 km/h (1 Bft) 100,00 %
14.04.2018 03:44 5,2 C 10,6 C 91 % 1018,2 hPa 0,0 l/m 1,9 km/h (1 Bft) S-SO 165 0 min 0,000 mm 0,0 UV-I 0 W/m 3,9 C 5,2 C 3,2 km/h (1 Bft) 92,31 %
14.04.2018 03:45 5,2 C 10,6 C 91 % 1018,2 hPa 0,0 l/m 1,7 km/h (1 Bft) S-SO 165 0 min 0,000 mm 0,0 UV-I 0 W/m 3,9 C 5,2 C 3,2 km/h (1 Bft) 100,00 %
14.04.2018 03:46 5,2 C 10,6 C 91 % 1018,3 hPa 0,0 l/m 2,3 km/h (1 Bft) S-SO 165 0 min 0,000 mm 0,0 UV-I 0 W/m 3,9 C 5,2 C 3,2 km/h (1 Bft) 96,15 %
14.04.2018 03:47 5,2 C 10,6 C 91 % 1018,3 hPa 0,0 l/m 2,6 km/h (1 Bft) S-SO 165 0 min 0,000 mm 0,0 UV-I 0 W/m 3,9 C 5,2 C 3,2 km/h (1 Bft) 100,00 %
14.04.2018 03:48 5,2 C 10,6 C 91 % 1018,3 hPa 0,0 l/m 3,1 km/h (1 Bft) S-SO 165 0 min 0,000 mm 0,0 UV-I 0 W/m 3,9 C 5,2 C 3,2 km/h (1 Bft) 91,30 %
14.04.2018 03:49 5,3 C 10,6 C 91 % 1018,3 hPa 0,0 l/m 2,9 km/h (1 Bft) S-SO 165 0 min 0,000 mm 0,0 UV-I 0 W/m 4,0 C 5,3 C 3,2 km/h (1 Bft) 100,00 %
14.04.2018 03:50 5,3 C 10,6 C 91 % 1018,3 hPa 0,0 l/m 2,5 km/h (1 Bft) S-SO 165 0 min 0,000 mm 0,0 UV-I 0 W/m 4,0 C 5,3 C 3,2 km/h (1 Bft) 96,97 %
14.04.2018 03:51 5,3 C 10,6 C 91 % 1018,3 hPa 0,0 l/m 1,9 km/h (1 Bft) S-SO 165 0 min 0,000 mm 0,0 UV-I 0 W/m 4,0 C 5,3 C 3,2 km/h (1 Bft) 96,30 %
14.04.2018 03:52 5,3 C 10,6 C 91 % 1018,2 hPa 0,0 l/m 2,3 km/h (1 Bft) S-SO 165 0 min 0,000 mm 0,0 UV-I 0 W/m 4,0 C 5,3 C 3,2 km/h (1 Bft) 100,00 %
14.04.2018 03:53 5,2 C 10,6 C 91 % 1018,3 hPa 0,0 l/m 2,5 km/h (1 Bft) S-SO 165 0 min 0,000 mm 0,0 UV-I 0 W/m 3,9 C 5,2 C 3,2 km/h (1 Bft) 95,83 %
14.04.2018 03:54 5,2 C 10,6 C 91 % 1018,3 hPa 0,0 l/m 2,6 km/h (1 Bft) S-SO 165 0 min 0,000 mm 0,0 UV-I 0 W/m 3,9 C 5,2 C 3,2 km/h (1 Bft) 100,00 %
14.04.2018 03:55 5,2 C 10,6 C 91 % 1018,4 hPa 0,0 l/m 2,7 km/h (1 Bft) S-SO 165 0 min 0,000 mm 0,0 UV-I 0 W/m 3,9 C 5,2 C 3,2 km/h (1 Bft) 95,83 %
14.04.2018 03:56 5,2 C 10,6 C 91 % 1018,4 hPa 0,0 l/m 2,7 km/h (1 Bft) S-SO 165 0 min 0,000 mm 0,0 UV-I 0 W/m 3,9 C 5,2 C 3,2 km/h (1 Bft) 100,00 %
14.04.2018 03:57 5,2 C 10,6 C 91 % 1018,4 hPa 0,0 l/m 1,9 km/h (1 Bft) S-SO 165 0 min 0,000 mm 0,0 UV-I 0 W/m 3,9 C 5,2 C 3,2 km/h (1 Bft) 96,30 %
14.04.2018 03:58 5,2 C 10,6 C 92 % 1018,4 hPa 0,0 l/m 1,8 km/h (1 Bft) S-SO 165 0 min 0,000 mm 0,0 UV-I 0 W/m 4,0 C 5,2 C 3,2 km/h (1 Bft) 91,30 %
14.04.2018 03:59 5,3 C 10,6 C 92 % 1018,4 hPa 0,0 l/m 1,6 km/h (1 Bft) S-SO 165 0 min 0,000 mm 0,0 UV-I 0 W/m 4,1 C 5,3 C 1,6 km/h (1 Bft) 100,00 %
14.04.2018 04:00 5,3 C 10,6 C 92 % 1018,4 hPa 0,0 l/m 1,1 km/h (1 Bft) S-SO 165 0 min 0,000 mm 0,0 UV-I 0 W/m 4,1 C 5,3 C 1,6 km/h (1 Bft) 95,65 %
14.04.2018 04:01 5,2 C 10,6 C 91 % 1018,4 hPa 0,0 l/m 0,1 km/h (0 Bft) S-SO 165 0 min 0,000 mm 0,0 UV-I 0 W/m 3,9 C 5,2 C 1,6 km/h (1 Bft) 100,00 %
14.04.2018 04:02 5,2 C 10,6 C 91 % 1018,3 hPa 0,0 l/m 0,1 km/h (0 Bft) S-SO 165 0 min 0,000 mm 0,0 UV-I 0 W/m 3,9 C 5,2 C 1,6 km/h (1 Bft) 96,55 %
14.04.2018 04:03 5,1 C 10,6 C 91 % 1018,3 hPa 0,0 l/m 0,0 km/h (0 Bft) S-SO 165 0 min 0,000 mm 0,0 UV-I 0 W/m 3,8 C 5,1 C 0,0 km/h (0 Bft) 100,00 %
14.04.2018 04:04 4,9 C 10,6 C 91 % 1018,3 hPa 0,0 l/m 0,0 km/h (0 Bft) S-SO 165 0 min 0,000 mm 0,0 UV-I 0 W/m 3,6 C 4,9 C 0,0 km/h (0 Bft) 96,43 %
14.04.2018 04:05 4,8 C 10,6 C 91 % 1018,3 hPa 0,0 l/m 0,0 km/h (0 Bft) S-SO 165 0 min 0,000 mm 0,0 UV-I 0 W/m 3,5 C 4,8 C 0,0 km/h (0 Bft) 100,00 %
14.04.2018 04:06 4,8 C 10,6 C 91 % 1018,3 hPa 0,0 l/m 0,0 km/h (0 Bft) S-SO 165 0 min 0,000 mm 0,0 UV-I 0 W/m 3,5 C 4,8 C 0,0 km/h (0 Bft) 91,67 %
14.04.2018 04:07 4,8 C 10,6 C 91 % 1018,4 hPa 0,0 l/m 0,0 km/h (0 Bft) S-SO 165 0 min 0,000 mm 0,0 UV-I 0 W/m 3,5 C 4,8 C 0,0 km/h (0 Bft) 100,00 %
14.04.2018 04:08 4,9 C 10,6 C 92 % 1018,4 hPa 0,0 l/m 0,0 km/h (0 Bft) S-SO 165 0 min 0,000 mm 0,0 UV-I 0 W/m 3,7 C 4,9 C 0,0 km/h (0 Bft) 96,30 %
14.04.2018 04:09 5,0 C 10,6 C 92 % 1018,4 hPa 0,0 l/m 0,4 km/h (0 Bft) S-SO 165 0 min 0,000 mm 0,0 UV-I 0 W/m 3,8 C 5,0 C 1,6 km/h (1 Bft) 100,00 %
14.04.2018 04:10 5,0 C 10,6 C 92 % 1018,4 hPa 0,0 l/m 1,2 km/h (1 Bft) S-SO 165 0 min 0,000 mm 0,0 UV-I 0 W/m 3,8 C 5,0 C 1,6 km/h (1 Bft) 92,59 %
14.04.2018 04:11 5,0 C 10,6 C 91 % 1018,4 hPa 0,0 l/m 1,8 km/h (1 Bft) S-SO 165 0 min 0,000 mm 0,0 UV-I 0 W/m 3,7 C 5,0 C 3,2 km/h (1 Bft) 100,00 %
14.04.2018 04:12 5,0 C 10,6 C 91 % 1018,5 hPa 0,0 l/m 2,1 km/h (1 Bft) S-SO 165 0 min 0,000 mm 0,0 UV-I 0 W/m 3,7 C 5,0 C 3,2 km/h (1 Bft) 83,33 %
14.04.2018 04:13 5,0 C 10,6 C 91 % 1018,5 hPa 0,0 l/m 2,9 km/h (1 Bft) S-SO 165 0 min 0,000 mm 0,0 UV-I 0 W/m 3,7 C 5,0 C 6,4 km/h (2 Bft) 91,30 %
14.04.2018 04:14 5,0 C 10,6 C 91 % 1018,5 hPa 0,0 l/m 3,4 km/h (1 Bft) S-SO 165 0 min 0,000 mm 0,0 UV-I 0 W/m 3,7 C 5,0 C 6,4 km/h (2 Bft) 95,83 %
14.04.2018 04:15 5,0 C 10,6 C 91 % 1018,5 hPa 0,0 l/m 4,7 km/h (1 Bft) S-SO 165 0 min 0,000 mm 0,0 UV-I 0 W/m 3,7 C 5,0 C 6,4 km/h (2 Bft) 95,65 %
14.04.2018 04:16 5,1 C 10,6 C 91 % 1018,5 hPa 0,0 l/m 6,2 km/h (2 Bft) S-SO 165 0 min 0,000 mm 0,0 UV-I 0 W/m 3,8 C 5,1 C 6,4 km/h (2 Bft) 95,83 %
14.04.2018 04:17 5,1 C 10,6 C 91 % 1018,5 hPa 0,0 l/m 6,9 km/h (2 Bft) S-SO 165 0 min 0,000 mm 0,0 UV-I 0 W/m 3,8 C 4,7 C 8,0 km/h (2 Bft) 92,31 %
14.04.2018 04:18 4,9 C 10,6 C 91 % 1018,5 hPa 0,0 l/m 6,2 km/h (2 Bft) S-SO 165 0 min 0,000 mm 0,0 UV-I 0 W/m 3,6 C 4,9 C 8,0 km/h (2 Bft) 100,00 %
14.04.2018 04:19 4,9 C 10,6 C 91 % 1018,5 hPa 0,0 l/m 5,2 km/h (1 Bft) S-SO 165 0 min 0,000 mm 0,0 UV-I 0 W/m 3,6 C 4,9 C 6,4 km/h (2 Bft) 91,30 %
14.04.2018 04:20 4,8 C 10,6 C 91 % 1018,5 hPa 0,0 l/m 4,3 km/h (1 Bft) S-SO 165 0 min 0,000 mm 0,0 UV-I 0 W/m 3,5 C 4,8 C 6,4 km/h (2 Bft) 100,00 %
14.04.2018 04:21 4,4 C 10,6 C 90 % 1018,4 hPa 0,0 l/m 3,3 km/h (1 Bft) S-SO 165 0 min 0,000 mm 0,0 UV-I 0 W/m 2,9 C 4,4 C 6,4 km/h (2 Bft) 86,96 %
14.04.2018 04:22 4,3 C 10,6 C 91 % 1018,4 hPa 0,0 l/m 3,9 km/h (1 Bft) S-SO 165 0 min 0,000 mm 0,0 UV-I 0 W/m 3,0 C 4,3 C 6,4 km/h (2 Bft) 95,83 %
14.04.2018 04:23 4,3 C 10,6 C 92 % 1018,5 hPa 0,0 l/m 3,0 km/h (1 Bft) S-SO 165 0 min 0,000 mm 0,0 UV-I 0 W/m 3,1 C 4,3 C 6,4 km/h (2 Bft) 95,65 %
14.04.2018 04:24 4,3 C 10,6 C 92 % 1018,5 hPa 0,0 l/m 1,9 km/h (1 Bft) S-SO 165 0 min 0,000 mm 0,0 UV-I 0 W/m 3,1 C 4,3 C 3,2 km/h (1 Bft) 91,67 %
14.04.2018 04:25 4,6 C 10,6 C 93 % 1018,5 hPa 0,0 l/m 0,4 km/h (0 Bft) S-SO 165 0 min 0,000 mm 0,0 UV-I 0 W/m 3,6 C 4,6 C 1,6 km/h (1 Bft) 100,00 %
14.04.2018 04:26 4,6 C 10,6 C 93 % 1018,5 hPa 0,0 l/m 1,7 km/h (1 Bft) S-SO 165 0 min 0,000 mm 0,0 UV-I 0 W/m 3,6 C 4,6 C 3,2 km/h (1 Bft) 91,67 %
14.04.2018 04:27 4,8 C 10,6 C 93 % 1018,5 hPa 0,0 l/m 1,0 km/h (0 Bft) S-SO 165 0 min 0,000 mm 0,0 UV-I 0 W/m 3,8 C 4,8 C 1,6 km/h (1 Bft) 92,00 %
14.04.2018 04:28 4,9 C 10,6 C 92 % 1018,5 hPa 0,0 l/m 1,4 km/h (1 Bft) S-SO 165 0 min 0,000 mm 0,0 UV-I 0 W/m 3,7 C 4,9 C 3,2 km/h (1 Bft) 95,83 %
14.04.2018 04:29 5,1 C 10,6 C 93 % 1018,5 hPa 0,0 l/m 1,6 km/h (1 Bft) S-SO 165 0 min 0,000 mm 0,0 UV-I 0 W/m 4,1 C 5,1 C 3,2 km/h (1 Bft) 100,00 %
14.04.2018 04:30 5,1 C 10,6 C 92 % 1018,5 hPa 0,0 l/m 1,2 km/h (1 Bft) S-SO 165 0 min 0,000 mm 0,0 UV-I 0 W/m 3,9 C 5,1 C 1,6 km/h (1 Bft) 92,86 %
14.04.2018 04:31 5,2 C 10,6 C 92 % 1018,5 hPa 0,0 l/m 1,6 km/h (1 Bft) S-SO 165 0 min 0,000 mm 0,0 UV-I 0 W/m 4,0 C 5,2 C 1,6 km/h (1 Bft) 100,00 %
14.04.2018 04:32 5,2 C 10,6 C 92 % 1018,5 hPa 0,0 l/m 1,8 km/h (1 Bft) S-SO 165 0 min 0,000 mm 0,0 UV-I 0 W/m 4,0 C 5,2 C 3,2 km/h (1 Bft) 100,00 %
14.04.2018 04:33 5,1 C 10,6 C 91 % 1018,5 hPa 0,0 l/m 2,3 km/h (1 Bft) S-SO 165 0 min 0,000 mm 0,0 UV-I 0 W/m 3,8 C 5,1 C 3,2 km/h (1 Bft) 100,00 %
14.04.2018 04:34 5,1 C 10,6 C 91 % 1018,5 hPa 0,0 l/m 3,2 km/h (1 Bft) S-SO 165 0 min 0,000 mm 0,0 UV-I 0 W/m 3,8 C 5,1 C 3,2 km/h (1 Bft) 92,31 %
14.04.2018 04:35 4,9 C 10,6 C 91 % 1018,5 hPa 0,0 l/m 3,1 km/h (1 Bft) S-SO 165 0 min 0,000 mm 0,0 UV-I 0 W/m 3,6 C 4,9 C 3,2 km/h (1 Bft) 95,83 %
14.04.2018 04:36 4,8 C 10,6 C 91 % 1018,5 hPa 0,0 l/m 3,4 km/h (1 Bft) S-SO 165 0 min 0,000 mm 0,0 UV-I 0 W/m 3,5 C 4,8 C 6,4 km/h (2 Bft) 100,00 %
14.04.2018 04:37 4,8 C 10,6 C 91 % 1018,5 hPa 0,0 l/m 5,0 km/h (1 Bft) S-SO 165 0 min 0,000 mm 0,0 UV-I 0 W/m 3,5 C 4,8 C 6,4 km/h (2 Bft) 95,83 %
14.04.2018 04:38 4,6 C 10,6 C 91 % 1018,5 hPa 0,0 l/m 5,4 km/h (1 Bft) S-SO 165 0 min 0,000 mm 0,0 UV-I 0 W/m 3,3 C 4,6 C 6,4 km/h (2 Bft) 100,00 %
14.04.2018 04:39 4,4 C 10,6 C 91 % 1018,5 hPa 0,0 l/m 4,6 km/h (1 Bft) S-SO 165 0 min 0,000 mm 0,0 UV-I 0 W/m 3,1 C 4,4 C 6,4 km/h (2 Bft) 95,83 %
14.04.2018 04:40 4,3 C 10,6 C 91 % 1018,5 hPa 0,0 l/m 3,6 km/h (1 Bft) S-SO 165 0 min 0,000 mm 0,0 UV-I 0 W/m 3,0 C 4,3 C 6,4 km/h (2 Bft) 95,65 %
14.04.2018 04:41 4,3 C 10,6 C 92 % 1018,5 hPa 0,0 l/m 2,9 km/h (1 Bft) S-SO 165 0 min 0,000 mm 0,0 UV-I 0 W/m 3,1 C 4,3 C 3,2 km/h (1 Bft) 100,00 %
14.04.2018 04:42 4,4 C 10,6 C 92 % 1018,6 hPa 0,0 l/m 3,0 km/h (1 Bft) S-SO 165 0 min 0,000 mm 0,0 UV-I 0 W/m 3,2 C 4,4 C 3,2 km/h (1 Bft) 91,30 %
14.04.2018 04:43 4,6 C 10,6 C 93 % 1018,6 hPa 0,0 l/m 2,9 km/h (1 Bft) S-SO 165 0 min 0,000 mm 0,0 UV-I 0 W/m 3,6 C 4,6 C 3,2 km/h (1 Bft) 100,00 %
14.04.2018 04:44 4,7 C 10,6 C 93 % 1018,6 hPa 0,0 l/m 2,8 km/h (1 Bft) S-SO 165 0 min 0,000 mm 0,0 UV-I 0 W/m 3,7 C 4,7 C 6,4 km/h (2 Bft) 95,83 %
14.04.2018 04:45 4,8 C 10,6 C 93 % 1018,5 hPa 0,0 l/m 3,0 km/h (1 Bft) S-SO 165 0 min 0,000 mm 0,0 UV-I 0 W/m 3,8 C 4,8 C 3,2 km/h (1 Bft) 100,00 %
14.04.2018 04:46 4,8 C 10,6 C 92 % 1018,6 hPa 0,0 l/m 3,0 km/h (1 Bft) S-SO 165 0 min 0,000 mm 0,0 UV-I 0 W/m 3,6 C 4,8 C 3,2 km/h (1 Bft) 95,83 %
14.04.2018 04:47 4,9 C 10,6 C 92 % 1018,6 hPa 0,0 l/m 2,5 km/h (1 Bft) S-SO 165 0 min 0,000 mm 0,0 UV-I 0 W/m 3,7 C 4,9 C 3,2 km/h (1 Bft) 100,00 %
14.04.2018 04:48 4,9 C 10,6 C 92 % 1018,6 hPa 0,0 l/m 2,3 km/h (1 Bft) S-SO 165 0 min 0,000 mm 0,0 UV-I 0 W/m 3,7 C 4,9 C 3,2 km/h (1 Bft) 95,83 %
14.04.2018 04:49 5,0 C 10,6 C 92 % 1018,7 hPa 0,0 l/m 1,3 km/h (1 Bft) S-SO 165 0 min 0,000 mm 0,0 UV-I 0 W/m 3,8 C 5,0 C 3,2 km/h (1 Bft) 95,65 %
14.04.2018 04:50 4,9 C 10,6 C 92 % 1018,7 hPa 0,0 l/m 0,0 km/h (0 Bft) S-SO 165 0 min 0,000 mm 0,0 UV-I 0 W/m 3,7 C 4,9 C 0,0 km/h (0 Bft) 100,00 %
14.04.2018 04:51 4,9 C 10,6 C 92 % 1018,7 hPa 0,0 l/m 0,0 km/h (0 Bft) S-SO 165 0 min 0,000 mm 0,0 UV-I 0 W/m 3,7 C 4,9 C 0,0 km/h (0 Bft) 95,65 %
14.04.2018 04:52 4,9 C 10,6 C 91 % 1018,7 hPa 0,0 l/m 0,0 km/h (0 Bft) S-SO 165 0 min 0,000 mm 0,0 UV-I 0 W/m 3,6 C 4,9 C 0,0 km/h (0 Bft) 100,00 %
14.04.2018 04:53 4,7 C 10,6 C 91 % 1018,7 hPa 0,0 l/m 0,0 km/h (0 Bft) S-SO 165 0 min 0,000 mm 0,0 UV-I 0 W/m 3,4 C 4,7 C 0,0 km/h (0 Bft) 100,00 %
14.04.2018 04:54 4,6 C 10,6 C 91 % 1018,7 hPa 0,0 l/m 0,0 km/h (0 Bft) S-SO 165 0 min 0,000 mm 0,0 UV-I 0 W/m 3,3 C 4,6 C 0,0 km/h (0 Bft) 100,00 %
14.04.2018 04:55 4,6 C 10,6 C 92 % 1018,7 hPa 0,0 l/m 1,9 km/h (1 Bft) S-SO 165 0 min 0,000 mm 0,0 UV-I 0 W/m 3,4 C 4,6 C 3,2 km/h (1 Bft) 100,00 %
14.04.2018 04:56 4,6 C 10,6 C 92 % 1018,7 hPa 0,0 l/m 2,7 km/h (1 Bft) S-SO 165 0 min 0,000 mm 0,0 UV-I 0 W/m 3,4 C 4,6 C 3,2 km/h (1 Bft) 100,00 %
14.04.2018 04:57 4,6 C 10,6 C 92 % 1018,7 hPa 0,0 l/m 2,6 km/h (1 Bft) S-SO 165 0 min 0,000 mm 0,0 UV-I 0 W/m 3,4 C 4,6 C 3,2 km/h (1 Bft) 91,30 %
14.04.2018 04:58 4,6 C 10,6 C 92 % 1018,7 hPa 0,0 l/m 0,7 km/h (0 Bft) S-SO 165 0 min 0,000 mm 0,0 UV-I 0 W/m 3,4 C 4,6 C 1,6 km/h (1 Bft) 95,83 %
14.04.2018 04:59 4,6 C 10,6 C 92 % 1018,8 hPa 0,0 l/m 0,0 km/h (0 Bft) S-SO 165 0 min 0,000 mm 0,0 UV-I 0 W/m 3,4 C 4,6 C 0,0 km/h (0 Bft) 95,65 %
14.04.2018 05:00 4,7 C 10,6 C 93 % 1018,8 hPa 0,0 l/m 0,1 km/h (0 Bft) S-SO 165 0 min 0,000 mm 0,0 UV-I 0 W/m 3,7 C 4,7 C 1,6 km/h (1 Bft) 100,00 %
14.04.2018 05:01 4,7 C 10,6 C 93 % 1018,7 hPa 0,0 l/m 1,7 km/h (1 Bft) S-SO 165 0 min 0,000 mm 0,0 UV-I 0 W/m 3,7 C 4,7 C 3,2 km/h (1 Bft) 100,00 %
14.04.2018 05:02 4,7 C 10,6 C 93 % 1018,7 hPa 0,0 l/m 2,1 km/h (1 Bft) S-SO 165 0 min 0,000 mm 0,0 UV-I 0 W/m 3,7 C 4,7 C 3,2 km/h (1 Bft) 95,83 %
14.04.2018 05:03 4,6 C 10,6 C 92 % 1018,8 hPa 0,0 l/m 1,6 km/h (1 Bft) S-SO 165 0 min 0,000 mm 0,0 UV-I 0 W/m 3,4 C 4,6 C 3,2 km/h (1 Bft) 100,00 %
14.04.2018 05:04 4,5 C 10,6 C 92 % 1018,7 hPa 0,0 l/m 2,3 km/h (1 Bft) S-SO 165 0 min 0,000 mm 0,0 UV-I 0 W/m 3,3 C 4,5 C 3,2 km/h (1 Bft) 95,65 %
14.04.2018 05:05 4,3 C 10,6 C 92 % 1018,8 hPa 0,0 l/m 1,8 km/h (1 Bft) S-SO 165 0 min 0,000 mm 0,0 UV-I 0 W/m 3,1 C 4,3 C 3,2 km/h (1 Bft) 95,83 %
14.04.2018 05:06 4,3 C 10,6 C 92 % 1018,8 hPa 0,0 l/m 0,1 km/h (0 Bft) S-SO 165 0 min 0,000 mm 0,0 UV-I 0 W/m 3,1 C 4,3 C 1,6 km/h (1 Bft) 100,00 %
14.04.2018 05:07 4,3 C 10,6 C 92 % 1018,8 hPa 0,0 l/m 0,0 km/h (0 Bft) S-SO 165 0 min 0,000 mm 0,0 UV-I 0 W/m 3,1 C 4,3 C 0,0 km/h (0 Bft) 100,00 %
14.04.2018 05:08 4,4 C 10,6 C 93 % 1018,8 hPa 0,0 l/m 0,0 km/h (0 Bft) S-SO 165 0 min 0,000 mm 0,0 UV-I 0 W/m 3,4 C 4,4 C 0,0 km/h (0 Bft) 95,65 %
14.04.2018 05:09 4,5 C 10,6 C 93 % 1018,9 hPa 0,0 l/m 0,0 km/h (0 Bft) S-SO 165 0 min 0,000 mm 0,0 UV-I 0 W/m 3,5 C 4,5 C 0,0 km/h (0 Bft) 100,00 %
14.04.2018 05:10 4,6 C 10,6 C 93 % 1018,9 hPa 0,0 l/m 0,0 km/h (0 Bft) S-SO 165 0 min 0,000 mm 0,0 UV-I 0 W/m 3,6 C 4,6 C 0,0 km/h (0 Bft) 100,00 %
14.04.2018 05:11 4,6 C 10,6 C 93 % 1018,8 hPa 0,0 l/m 0,0 km/h (0 Bft) S-SO 165 0 min 0,000 mm 0,0 UV-I 0 W/m 3,6 C 4,6 C 0,0 km/h (0 Bft) 100,00 %
14.04.2018 05:12 4,7 C 10,6 C 93 % 1018,9 hPa 0,0 l/m 0,0 km/h (0 Bft) S-SO 165 0 min 0,000 mm 0,0 UV-I 0 W/m 3,7 C 4,7 C 0,0 km/h (0 Bft) 95,65 %
14.04.2018 05:13 4,7 C 10,6 C 93 % 1018,8 hPa 0,0 l/m 0,0 km/h (0 Bft) S-SO 165 0 min 0,000 mm 0,0 UV-I 0 W/m 3,7 C 4,7 C 0,0 km/h (0 Bft) 100,00 %
14.04.2018 05:14 4,7 C 10,6 C 93 % 1018,9 hPa 0,0 l/m 0,0 km/h (0 Bft) S-SO 165 0 min 0,000 mm 0,0 UV-I 0 W/m 3,7 C 4,7 C 0,0 km/h (0 Bft) 100,00 %
14.04.2018 05:15 4,6 C 10,6 C 92 % 1018,9 hPa 0,0 l/m 0,0 km/h (0 Bft) S-SO 165 0 min 0,000 mm 0,0 UV-I 0 W/m 3,4 C 4,6 C 0,0 km/h (0 Bft) 100,00 %
14.04.2018 05:16 4,6 C 10,6 C 93 % 1018,9 hPa 0,0 l/m 0,0 km/h (0 Bft) S-SO 165 0 min 0,000 mm 0,0 UV-I 0 W/m 3,6 C 4,6 C 0,0 km/h (0 Bft) 95,65 %
14.04.2018 05:17 4,6 C 10,6 C 92 % 1018,8 hPa 0,0 l/m 0,0 km/h (0 Bft) S-SO 165 0 min 0,000 mm 0,0 UV-I 0 W/m 3,4 C 4,6 C 0,0 km/h (0 Bft) 100,00 %
14.04.2018 05:18 4,6 C 10,6 C 92 % 1018,8 hPa 0,0 l/m 0,0 km/h (0 Bft) S-SO 165 0 min 0,000 mm 0,0 UV-I 0 W/m 3,4 C 4,6 C 0,0 km/h (0 Bft) 100,00 %
14.04.2018 05:19 4,6 C 10,6 C 92 % 1018,9 hPa 0,0 l/m 0,1 km/h (0 Bft) S-SO 165 0 min 0,000 mm 0,0 UV-I 0 W/m 3,4 C 4,6 C 1,6 km/h (1 Bft) 100,00 %
14.04.2018 05:20 4,7 C 10,6 C 92 % 1018,9 hPa 0,0 l/m 1,2 km/h (1 Bft) S-SO 165 0 min 0,000 mm 0,0 UV-I 0 W/m 3,5 C 4,7 C 1,6 km/h (1 Bft) 95,65 %
14.04.2018 05:21 4,6 C 10,6 C 92 % 1018,9 hPa 0,0 l/m 1,6 km/h (1 Bft) S-SO 165 0 min 0,000 mm 0,0 UV-I 0 W/m 3,4 C 4,6 C 3,2 km/h (1 Bft) 96,99 %
14.04.2018 05:22 4,6 C 10,6 C 92 % 1018,8 hPa 0,0 l/m 1,4 km/h (1 Bft) S-SO 165 0 min 0,000 mm 0,0 UV-I 0 W/m 3,4 C 4,6 C 1,6 km/h (1 Bft) 97,62 %
14.04.2018 05:23 4,6 C 10,6 C 92 % 1018,9 hPa 0,0 l/m 0,1 km/h (0 Bft) S-SO 165 0 min 0,000 mm 0,0 UV-I 0 W/m 3,4 C 4,6 C 1,6 km/h (1 Bft) 95,65 %
14.04.2018 05:24 4,6 C 10,6 C 92 % 1018,9 hPa 0,0 l/m 0,0 km/h (0 Bft) S-SO 165 0 min 0,000 mm 0,0 UV-I 0 W/m 3,4 C 4,6 C 0,0 km/h (0 Bft) 100,00 %
14.04.2018 05:25 4,6 C 10,6 C 92 % 1018,9 hPa 0,0 l/m 0,0 km/h (0 Bft) S-SO 165 0 min 0,000 mm 0,0 UV-I 0 W/m 3,4 C 4,6 C 0,0 km/h (0 Bft) 91,30 %
14.04.2018 05:26 4,6 C 10,6 C 93 % 1018,8 hPa 0,0 l/m 0,1 km/h (0 Bft) S-SO 165 0 min 0,000 mm 0,0 UV-I 0 W/m 3,6 C 4,6 C 1,6 km/h (1 Bft) 100,00 %
14.04.2018 05:27 4,6 C 10,6 C 92 % 1018,8 hPa 0,0 l/m 1,0 km/h (0 Bft) S-SO 165 0 min 0,000 mm 0,0 UV-I 0 W/m 3,4 C 4,6 C 1,6 km/h (1 Bft) 86,96 %
14.04.2018 05:28 4,4 C 10,6 C 92 % 1018,8 hPa 0,0 l/m 0,0 km/h (0 Bft) S-SO 165 0 min 0,000 mm 0,0 UV-I 0 W/m 3,2 C 4,4 C 0,0 km/h (0 Bft) 100,00 %
14.04.2018 05:29 4,3 C 10,6 C 92 % 1018,9 hPa 0,0 l/m 0,0 km/h (0 Bft) S-SO 165 0 min 0,000 mm 0,0 UV-I 0 W/m 3,1 C 4,3 C 0,0 km/h (0 Bft) 100,00 %
14.04.2018 05:30 4,3 C 10,6 C 92 % 1018,9 hPa 0,0 l/m 1,5 km/h (1 Bft) S-SO 165 0 min 0,000 mm 0,0 UV-I 0 W/m 3,1 C 4,3 C 6,4 km/h (2 Bft) 95,83 %
14.04.2018 05:31 4,4 C 10,6 C 93 % 1018,9 hPa 0,0 l/m 2,5 km/h (1 Bft) S-SO 165 0 min 0,000 mm 0,0 UV-I 0 W/m 3,4 C 4,4 C 3,2 km/h (1 Bft) 100,00 %
14.04.2018 05:32 4,4 C 10,6 C 93 % 1018,9 hPa 0,0 l/m 1,7 km/h (1 Bft) S-SO 165 0 min 0,000 mm 0,0 UV-I 0 W/m 3,4 C 4,4 C 3,2 km/h (1 Bft) 91,67 %
14.04.2018 05:33 4,5 C 10,6 C 93 % 1018,9 hPa 0,0 l/m 0,5 km/h (0 Bft) S-SO 165 0 min 0,000 mm 0,0 UV-I 0 W/m 3,5 C 4,5 C 1,6 km/h (1 Bft) 92,31 %
14.04.2018 05:34 4,5 C 10,6 C 93 % 1018,8 hPa 0,0 l/m 0,0 km/h (0 Bft) S-SO 165 0 min 0,000 mm 0,0 UV-I 0 W/m 3,5 C 4,5 C 0,0 km/h (0 Bft) 95,83 %
14.04.2018 05:35 4,5 C 10,6 C 92 % 1018,8 hPa 0,0 l/m 0,0 km/h (0 Bft) S-SO 165 0 min 0,000 mm 0,0 UV-I 0 W/m 3,3 C 4,5 C 0,0 km/h (0 Bft) 91,67 %
14.04.2018 05:36 4,5 C 10,6 C 92 % 1018,8 hPa 0,0 l/m 0,0 km/h (0 Bft) S-SO 165 0 min 0,000 mm 0,0 UV-I 0 W/m 3,3 C 4,5 C 0,0 km/h (0 Bft) 100,00 %
14.04.2018 05:37 4,4 C 10,6 C 92 % 1018,9 hPa 0,0 l/m 0,0 km/h (0 Bft) S-SO 165 0 min 0,000 mm 0,0 UV-I 0 W/m 3,2 C 4,4 C 0,0 km/h (0 Bft) 100,00 %
14.04.2018 05:38 4,2 C 10,6 C 91 % 1018,9 hPa 0,0 l/m 0,8 km/h (0 Bft) S-SO 165 0 min 0,000 mm 0,0 UV-I 0 W/m 2,9 C 4,2 C 1,6 km/h (1 Bft) 100,00 %
14.04.2018 05:39 4,2 C 10,6 C 92 % 1018,9 hPa 0,0 l/m 1,0 km/h (0 Bft) S-SO 165 0 min 0,000 mm 0,0 UV-I 0 W/m 3,0 C 4,2 C 1,6 km/h (1 Bft) 100,00 %
14.04.2018 05:40 4,2 C 10,6 C 92 % 1018,9 hPa 0,0 l/m 1,5 km/h (1 Bft) S-SO 165 0 min 0,000 mm 0,0 UV-I 0 W/m 3,0 C 4,2 C 1,6 km/h (1 Bft) 100,00 %
14.04.2018 05:41 4,2 C 10,6 C 93 % 1018,9 hPa 0,0 l/m 1,7 km/h (1 Bft) S-SO 165 0 min 0,000 mm 0,0 UV-I 0 W/m 3,2 C 4,2 C 3,2 km/h (1 Bft) 95,83 %
14.04.2018 05:42 4,2 C 10,6 C 93 % 1018,9 hPa 0,0 l/m 2,3 km/h (1 Bft) S-SO 165 0 min 0,000 mm 0,0 UV-I 0 W/m 3,2 C 4,2 C 3,2 km/h (1 Bft) 100,00 %
14.04.2018 05:43 4,2 C 10,6 C 93 % 1018,9 hPa 0,0 l/m 2,2 km/h (1 Bft) S-SO 165 0 min 0,000 mm 0,0 UV-I 0 W/m 3,2 C 4,2 C 3,2 km/h (1 Bft) 100,00 %
14.04.2018 05:44 4,3 C 10,6 C 93 % 1018,9 hPa 0,0 l/m 2,4 km/h (1 Bft) S-SO 165 0 min 0,000 mm 0,0 UV-I 0 W/m 3,3 C 4,3 C 3,2 km/h (1 Bft) 100,00 %
14.04.2018 05:45 4,2 C 10,6 C 92 % 1018,9 hPa 0,0 l/m 2,7 km/h (1 Bft) S-SO 165 0 min 0,000 mm 0,0 UV-I 0 W/m 3,0 C 4,2 C 3,2 km/h (1 Bft) 100,00 %
14.04.2018 05:46 4,2 C 10,6 C 92 % 1018,9 hPa 0,0 l/m 2,5 km/h (1 Bft) S-SO 165 0 min 0,000 mm 0,0 UV-I 0 W/m 3,0 C 4,2 C 3,2 km/h (1 Bft) 96,15 %
14.04.2018 05:47 4,2 C 10,6 C 92 % 1018,9 hPa 0,0 l/m 2,7 km/h (1 Bft) S-SO 165 0 min 0,000 mm 0,0 UV-I 0 W/m 3,0 C 4,2 C 3,2 km/h (1 Bft) 100,00 %
14.04.2018 05:48 4,2 C 10,6 C 93 % 1018,9 hPa 0,0 l/m 3,0 km/h (1 Bft) S-SO 165 0 min 0,000 mm 0,0 UV-I 0 W/m 3,2 C 4,2 C 3,2 km/h (1 Bft) 100,00 %
14.04.2018 05:49 4,2 C 10,6 C 93 % 1018,9 hPa 0,0 l/m 2,8 km/h (1 Bft) S-SO 165 0 min 0,000 mm 0,0 UV-I 0 W/m 3,2 C 4,2 C 3,2 km/h (1 Bft) 100,00 %
14.04.2018 05:50 4,1 C 10,6 C 93 % 1018,9 hPa 0,0 l/m 3,0 km/h (1 Bft) S-SO 165 0 min 0,000 mm 0,0 UV-I 0 W/m 3,1 C 4,1 C 3,2 km/h (1 Bft) 100,00 %
14.04.2018 05:51 4,1 C 10,6 C 93 % 1018,9 hPa 0,0 l/m 2,7 km/h (1 Bft) S-SO 165 0 min 0,000 mm 0,0 UV-I 0 W/m 3,1 C 4,1 C 3,2 km/h (1 Bft) 100,00 %
14.04.2018 05:52 4,2 C 10,6 C 93 % 1018,9 hPa 0,0 l/m 2,9 km/h (1 Bft) S-SO 165 0 min 0,000 mm 0,0 UV-I 0 W/m 3,2 C 4,2 C 3,2 km/h (1 Bft) 100,00 %
14.04.2018 05:53 4,2 C 10,6 C 93 % 1018,9 hPa 0,0 l/m 3,9 km/h (1 Bft) S-SO 165 0 min 0,000 mm 0,0 UV-I 0 W/m 3,2 C 4,2 C 6,4 km/h (2 Bft) 100,00 %
14.04.2018 05:54 4,1 C 10,6 C 93 % 1018,9 hPa 0,0 l/m 4,9 km/h (1 Bft) S-SO 165 0 min 0,000 mm 0,0 UV-I 0 W/m 3,1 C 4,1 C 6,4 km/h (2 Bft) 100,00 %
14.04.2018 05:55 4,1 C 10,6 C 93 % 1018,9 hPa 0,0 l/m 5,2 km/h (1 Bft) S-SO 165 0 min 0,000 mm 0,0 UV-I 0 W/m 3,1 C 4,1 C 6,4 km/h (2 Bft) 100,00 %
14.04.2018 05:56 4,1 C 10,6 C 93 % 1018,9 hPa 0,0 l/m 5,8 km/h (2 Bft) S-SO 165 0 min 0,000 mm 0,0 UV-I 0 W/m 3,1 C 4,1 C 6,4 km/h (2 Bft) 95,65 %
14.04.2018 05:57 4,1 C 10,6 C 93 % 1018,9 hPa 0,0 l/m 5,8 km/h (2 Bft) S-SO 165 0 min 0,000 mm 0,0 UV-I 0 W/m 3,1 C 4,1 C 6,4 km/h (2 Bft) 87,50 %
14.04.2018 05:58 4,0 C 10,6 C 93 % 1018,9 hPa 0,0 l/m 6,6 km/h (2 Bft) S 172 0 min 0,000 mm 0,0 UV-I 0 W/m 3,0 C 3,8 C 8,0 km/h (2 Bft) 100,00 %
14.04.2018 05:59 3,9 C 10,6 C 93 % 1018,9 hPa 0,0 l/m 6,2 km/h (2 Bft) S 173 0 min 0,000 mm 0,0 UV-I 0 W/m 2,9 C 3,9 C 8,0 km/h (2 Bft) 95,65 %
14.04.2018 06:00 3,8 C 10,6 C 93 % 1018,9 hPa 0,0 l/m 6,0 km/h (2 Bft) S 174 0 min 0,000 mm 0,0 UV-I 0 W/m 2,8 C 3,8 C 8,0 km/h (2 Bft) 100,00 %
14.04.2018 06:01 3,8 C 10,6 C 93 % 1018,9 hPa 0,0 l/m 6,2 km/h (2 Bft) S 175 0 min 0,000 mm 0,0 UV-I 0 W/m 2,8 C 3,8 C 8,0 km/h (2 Bft) 91,30 %
14.04.2018 06:02 3,6 C 10,6 C 92 % 1018,9 hPa 0,0 l/m 5,7 km/h (1 Bft) S 177 0 min 0,000 mm 0,0 UV-I 0 W/m 2,4 C 3,6 C 6,4 km/h (2 Bft) 95,83 %
14.04.2018 06:03 3,5 C 10,6 C 92 % 1018,8 hPa 0,0 l/m 5,8 km/h (2 Bft) S 190 0 min 0,000 mm 0,0 UV-I 4 W/m 2,3 C 3,5 C 6,4 km/h (2 Bft) 95,65 %
14.04.2018 06:04 3,4 C 10,6 C 93 % 1018,8 hPa 0,0 l/m 5,8 km/h (2 Bft) S 191 0 min 0,000 mm 0,0 UV-I 5 W/m 2,4 C 3,4 C 6,4 km/h (2 Bft) 100,00 %
14.04.2018 06:05 3,4 C 10,6 C 93 % 1018,9 hPa 0,0 l/m 5,7 km/h (1 Bft) S 191 0 min 0,000 mm 0,0 UV-I 5 W/m 2,4 C 3,4 C 6,4 km/h (2 Bft) 91,30 %
14.04.2018 06:06 3,4 C 10,6 C 93 % 1018,9 hPa 0,0 l/m 5,2 km/h (1 Bft) S 191 0 min 0,000 mm 0,0 UV-I 5 W/m 2,4 C 3,4 C 6,4 km/h (2 Bft) 100,00 %
14.04.2018 06:07 3,5 C 10,6 C 94 % 1019,0 hPa 0,0 l/m 5,3 km/h (1 Bft) S 191 0 min 0,000 mm 0,0 UV-I 5 W/m 2,6 C 3,5 C 6,4 km/h (2 Bft) 100,00 %
14.04.2018 06:08 3,6 C 10,6 C 94 % 1019,0 hPa 0,0 l/m 6,5 km/h (2 Bft) S-SW 193 0 min 0,000 mm 0,0 UV-I 5 W/m 2,7 C 3,5 C 8,0 km/h (2 Bft) 100,00 %
14.04.2018 06:09 3,6 C 10,6 C 94 % 1019,0 hPa 0,0 l/m 6,5 km/h (2 Bft) S 188 0 min 0,000 mm 0,0 UV-I 5 W/m 2,7 C 3,5 C 8,0 km/h (2 Bft) 95,65 %
14.04.2018 06:10 3,6 C 10,6 C 94 % 1019,0 hPa 0,0 l/m 6,3 km/h (2 Bft) S 184 0 min 0,000 mm 0,0 UV-I 7 W/m 2,7 C 3,6 C 8,0 km/h (2 Bft) 100,00 %
14.04.2018 06:11 3,6 C 10,6 C 94 % 1019,0 hPa 0,0 l/m 5,3 km/h (1 Bft) S 184 0 min 0,000 mm 0,0 UV-I 7 W/m 2,7 C 3,6 C 6,4 km/h (2 Bft) 95,65 %
14.04.2018 06:12 3,6 C 10,6 C 93 % 1019,0 hPa 0,0 l/m 6,2 km/h (2 Bft) S 184 0 min 0,000 mm 0,0 UV-I 7 W/m 2,6 C 3,6 C 8,0 km/h (2 Bft) 100,00 %
14.04.2018 06:13 3,6 C 10,6 C 94 % 1019,0 hPa 0,0 l/m 7,3 km/h (2 Bft) S 184 0 min 0,000 mm 0,0 UV-I 7 W/m 2,7 C 2,8 C 8,0 km/h (2 Bft) 100,00 %
14.04.2018 06:14 3,7 C 10,6 C 94 % 1019,0 hPa 0,0 l/m 7,1 km/h (2 Bft) S 186 0 min 0,000 mm 0,0 UV-I 7 W/m 2,8 C 3,1 C 8,0 km/h (2 Bft) 100,00 %
14.04.2018 06:15 3,8 C 10,6 C 94 % 1019,0 hPa 0,0 l/m 6,1 km/h (2 Bft) S 185 0 min 0,000 mm 0,0 UV-I 9 W/m 2,9 C 3,8 C 8,0 km/h (2 Bft) 100,00 %
14.04.2018 06:16 3,9 C 10,6 C 94 % 1019,1 hPa 0,0 l/m 6,2 km/h (2 Bft) S 174 0 min 0,000 mm 0,0 UV-I 9 W/m 3,0 C 3,9 C 9,7 km/h (2 Bft) 100,00 %
14.04.2018 06:17 3,9 C 10,6 C 94 % 1019,0 hPa 0,0 l/m 7,4 km/h (2 Bft) S 172 0 min 0,000 mm 0,0 UV-I 9 W/m 3,0 C 3,0 C 9,7 km/h (2 Bft) 95,65 %
14.04.2018 06:18 4,1 C 10,6 C 94 % 1019,0 hPa 0,0 l/m 7,7 km/h (2 Bft) S 179 0 min 0,000 mm 0,0 UV-I 9 W/m 3,2 C 2,9 C 9,7 km/h (2 Bft) 100,00 %
14.04.2018 06:19 4,1 C 10,6 C 94 % 1019,0 hPa 0,0 l/m 5,7 km/h (1 Bft) S 180 0 min 0,000 mm 0,0 UV-I 10 W/m 3,2 C 4,1 C 8,0 km/h (2 Bft) 100,00 %
14.04.2018 06:20 3,9 C 10,6 C 93 % 1019,0 hPa 0,0 l/m 5,5 km/h (1 Bft) S 180 0 min 0,000 mm 0,0 UV-I 11 W/m 2,9 C 3,9 C 8,0 km/h (2 Bft) 95,83 %
14.04.2018 06:21 3,8 C 10,6 C 93 % 1019,0 hPa 0,0 l/m 6,0 km/h (2 Bft) S 183 0 min 0,000 mm 0,0 UV-I 11 W/m 2,8 C 3,8 C 8,0 km/h (2 Bft) 100,00 %
14.04.2018 06:22 3,8 C 10,6 C 93 % 1019,0 hPa 0,0 l/m 5,9 km/h (2 Bft) S 191 0 min 0,000 mm 0,0 UV-I 12 W/m 2,8 C 3,8 C 8,0 km/h (2 Bft) 100,00 %
14.04.2018 06:23 3,7 C 10,6 C 93 % 1019,0 hPa 0,0 l/m 5,2 km/h (1 Bft) S 190 0 min 0,000 mm 0,0 UV-I 13 W/m 2,7 C 3,7 C 6,4 km/h (2 Bft) 100,00 %
14.04.2018 06:24 3,7 C 10,6 C 93 % 1019,0 hPa 0,0 l/m 6,1 km/h (2 Bft) S 190 0 min 0,000 mm 0,0 UV-I 14 W/m 2,7 C 3,7 C 6,4 km/h (2 Bft) 100,00 %
14.04.2018 06:25 3,7 C 10,6 C 93 % 1019,0 hPa 0,0 l/m 5,6 km/h (1 Bft) S 190 0 min 0,000 mm 0,0 UV-I 15 W/m 2,7 C 3,7 C 6,4 km/h (2 Bft) 95,83 %
14.04.2018 06:26 3,7 C 10,6 C 93 % 1019,0 hPa 0,0 l/m 4,8 km/h (1 Bft) S 190 0 min 0,000 mm 0,0 UV-I 16 W/m 2,7 C 3,7 C 6,4 km/h (2 Bft) 100,00 %
14.04.2018 06:27 3,9 C 10,6 C 94 % 1019,0 hPa 0,0 l/m 4,7 km/h (1 Bft) S 190 1 min 0,000 mm 0,0 UV-I 18 W/m 3,0 C 3,9 C 6,4 km/h (2 Bft) 100,00 %
14.04.2018 06:28 4,0 C 10,6 C 94 % 1019,1 hPa 0,0 l/m 4,9 km/h (1 Bft) S 190 1 min 0,000 mm 0,0 UV-I 18 W/m 3,1 C 4,0 C 6,4 km/h (2 Bft) 100,00 %
14.04.2018 06:29 4,1 C 10,6 C 94 % 1019,0 hPa 0,0 l/m 5,1 km/h (1 Bft) S 190 1 min 0,000 mm 0,0 UV-I 17 W/m 3,2 C 4,1 C 6,4 km/h (2 Bft) 100,00 %
14.04.2018 06:30 4,2 C 10,6 C 94 % 1019,0 hPa 0,0 l/m 5,2 km/h (1 Bft) S 190 1 min 0,000 mm 0,0 UV-I 16 W/m 3,3 C 4,2 C 6,4 km/h (2 Bft) 100,00 %
14.04.2018 06:31 4,2 C 10,6 C 94 % 1019,0 hPa 0,0 l/m 5,7 km/h (1 Bft) S-SW 200 1 min 0,000 mm 0,0 UV-I 16 W/m 3,3 C 4,2 C 6,4 km/h (2 Bft) 100,00 %
14.04.2018 06:32 4,3 C 10,6 C 94 % 1019,0 hPa 0,0 l/m 4,7 km/h (1 Bft) S-SW 200 1 min 0,000 mm 0,0 UV-I 18 W/m 3,4 C 4,3 C 6,4 km/h (2 Bft) 100,00 %
14.04.2018 06:33 4,3 C 10,6 C 93 % 1019,0 hPa 0,0 l/m 4,9 km/h (1 Bft) S-SW 200 1 min 0,000 mm 0,0 UV-I 18 W/m 3,3 C 4,3 C 6,4 km/h (2 Bft) 100,00 %
14.04.2018 06:34 4,2 C 10,6 C 93 % 1019,0 hPa 0,0 l/m 4,7 km/h (1 Bft) S-SW 200 0 min 0,000 mm 0,0 UV-I 18 W/m 3,2 C 4,2 C 6,4 km/h (2 Bft) 100,00 %
14.04.2018 06:35 4,2 C 11,1 C 93 % 1019,0 hPa 0,0 l/m 4,4 km/h (1 Bft) S-SW 200 0 min 0,000 mm 0,0 UV-I 18 W/m 3,2 C 4,2 C 4,8 km/h (1 Bft) 95,83 %
14.04.2018 06:36 4,2 C 10,6 C 93 % 1019,0 hPa 0,0 l/m 4,5 km/h (1 Bft) S-SW 200 0 min 0,000 mm 0,0 UV-I 19 W/m 3,2 C 4,2 C 4,8 km/h (1 Bft) 100,00 %
14.04.2018 06:37 4,2 C 10,6 C 93 % 1019,0 hPa 0,0 l/m 4,3 km/h (1 Bft) S-SW 200 0 min 0,000 mm 0,0 UV-I 19 W/m 3,2 C 4,2 C 6,4 km/h (2 Bft) 91,67 %
14.04.2018 06:38 4,2 C 10,6 C 93 % 1019,1 hPa 0,0 l/m 4,6 km/h (1 Bft) S-SW 200 0 min 0,000 mm 0,0 UV-I 19 W/m 3,2 C 4,2 C 4,8 km/h (1 Bft) 100,00 %
14.04.2018 06:39 4,2 C 10,6 C 93 % 1019,1 hPa 0,0 l/m 4,6 km/h (1 Bft) S-SW 200 0 min 0,000 mm 0,0 UV-I 21 W/m 3,2 C 4,2 C 6,4 km/h (2 Bft) 95,65 %
14.04.2018 06:40 4,2 C 10,6 C 93 % 1019,1 hPa 0,0 l/m 3,9 km/h (1 Bft) S-SW 200 0 min 0,000 mm 0,0 UV-I 26 W/m 3,2 C 4,2 C 4,8 km/h (1 Bft) 96,15 %
14.04.2018 06:41 4,2 C 10,6 C 93 % 1019,1 hPa 0,0 l/m 4,2 km/h (1 Bft) S-SW 200 1 min 0,000 mm 0,0 UV-I 31 W/m 3,2 C 4,2 C 6,4 km/h (2 Bft) 95,65 %
14.04.2018 06:42 4,2 C 10,6 C 92 % 1019,1 hPa 0,0 l/m 5,1 km/h (1 Bft) S-SW 199 1 min 0,000 mm 0,0 UV-I 34 W/m 3,0 C 4,2 C 6,4 km/h (2 Bft) 91,67 %
14.04.2018 06:43 4,2 C 10,6 C 92 % 1019,1 hPa 0,0 l/m 4,1 km/h (1 Bft) S-SW 199 1 min 0,000 mm 0,0 UV-I 38 W/m 3,0 C 4,2 C 6,4 km/h (2 Bft) 100,00 %
14.04.2018 06:44 4,2 C 10,6 C 93 % 1019,1 hPa 0,0 l/m 4,9 km/h (1 Bft) S-SW 199 1 min 0,000 mm 0,0 UV-I 42 W/m 3,2 C 4,2 C 6,4 km/h (2 Bft) 95,83 %
14.04.2018 06:45 4,3 C 10,6 C 93 % 1019,1 hPa 0,0 l/m 5,2 km/h (1 Bft) S-SW 199 1 min 0,000 mm 0,0 UV-I 46 W/m 3,3 C 4,3 C 6,4 km/h (2 Bft) 100,00 %
14.04.2018 06:46 4,3 C 10,6 C 93 % 1019,1 hPa 0,0 l/m 5,5 km/h (1 Bft) S-SW 197 1 min 0,000 mm 0,0 UV-I 45 W/m 3,3 C 4,3 C 6,4 km/h (2 Bft) 95,83 %
14.04.2018 06:47 4,4 C 11,1 C 93 % 1019,1 hPa 0,0 l/m 5,1 km/h (1 Bft) S-SW 194 1 min 0,000 mm 0,0 UV-I 42 W/m 3,4 C 4,4 C 6,4 km/h (2 Bft) 100,00 %
14.04.2018 06:48 4,5 C 10,6 C 93 % 1019,2 hPa 0,0 l/m 4,9 km/h (1 Bft) S-SW 197 1 min 0,000 mm 0,0 UV-I 42 W/m 3,5 C 4,5 C 6,4 km/h (2 Bft) 96,15 %
14.04.2018 06:49 4,6 C 10,6 C 92 % 1019,2 hPa 0,0 l/m 6,0 km/h (2 Bft) S-SW 196 1 min 0,000 mm 0,0 UV-I 50 W/m 3,4 C 4,6 C 8,0 km/h (2 Bft) 100,00 %
14.04.2018 06:50 4,7 C 10,6 C 92 % 1019,2 hPa 0,0 l/m 5,9 km/h (2 Bft) S-SW 192 1 min 0,000 mm 0,0 UV-I 55 W/m 3,5 C 4,7 C 8,0 km/h (2 Bft) 91,67 %
14.04.2018 06:51 4,8 C 10,6 C 92 % 1019,2 hPa 0,0 l/m 4,0 km/h (1 Bft) S-SW 192 1 min 0,000 mm 0,0 UV-I 60 W/m 3,6 C 4,8 C 6,4 km/h (2 Bft) 96,15 %
14.04.2018 06:52 4,8 C 10,6 C 92 % 1019,2 hPa 0,0 l/m 3,8 km/h (1 Bft) S-SW 192 1 min 0,000 mm 0,0 UV-I 61 W/m 3,6 C 4,8 C 4,8 km/h (1 Bft) 91,67 %
14.04.2018 06:53 4,8 C 11,1 C 91 % 1019,2 hPa 0,0 l/m 3,4 km/h (1 Bft) S-SW 192 1 min 0,000 mm 0,0 UV-I 62 W/m 3,5 C 4,8 C 4,8 km/h (1 Bft) 95,65 %
14.04.2018 06:54 4,8 C 10,6 C 91 % 1019,2 hPa 0,0 l/m 2,6 km/h (1 Bft) S-SW 192 1 min 0,000 mm 0,0 UV-I 65 W/m 3,5 C 4,8 C 3,2 km/h (1 Bft) 95,83 %
14.04.2018 06:55 4,8 C 10,6 C 91 % 1019,2 hPa 0,0 l/m 2,0 km/h (1 Bft) S-SW 192 1 min 0,000 mm 0,0 UV-I 67 W/m 3,5 C 4,8 C 3,2 km/h (1 Bft) 95,65 %
14.04.2018 06:56 4,8 C 11,1 C 91 % 1019,2 hPa 0,0 l/m 0,7 km/h (0 Bft) S-SW 192 1 min 0,000 mm 0,0 UV-I 70 W/m 3,5 C 4,8 C 1,6 km/h (1 Bft) 91,67 %
14.04.2018 06:57 4,8 C 10,6 C 91 % 1019,2 hPa 0,0 l/m 0,2 km/h (0 Bft) S-SW 192 1 min 0,000 mm 0,0 UV-I 72 W/m 3,5 C 4,8 C 1,6 km/h (1 Bft) 95,83 %
14.04.2018 06:58 4,7 C 11,1 C 91 % 1019,2 hPa 0,0 l/m 0,0 km/h (0 Bft) S-SW 192 1 min 0,000 mm 0,0 UV-I 71 W/m 3,4 C 4,7 C 0,0 km/h (0 Bft) 95,65 %
14.04.2018 06:59 4,7 C 10,6 C 90 % 1019,3 hPa 0,0 l/m 0,3 km/h (0 Bft) S-SW 192 1 min 0,000 mm 0,0 UV-I 70 W/m 3,2 C 4,7 C 1,6 km/h (1 Bft) 91,67 %
14.04.2018 07:00 4,6 C 11,1 C 91 % 1019,2 hPa 0,0 l/m 0,3 km/h (0 Bft) S-SW 192 1 min 0,025 mm 0,0 UV-I 71 W/m 3,3 C 4,6 C 1,6 km/h (1 Bft) 91,30 %
14.04.2018 07:01 4,5 C 10,6 C 91 % 1019,3 hPa 0,0 l/m 0,6 km/h (0 Bft) S-SW 192 1 min 0,000 mm 0,0 UV-I 70 W/m 3,2 C 4,5 C 1,6 km/h (1 Bft) 95,83 %
14.04.2018 07:02 4,4 C 10,6 C 91 % 1019,3 hPa 0,0 l/m 0,0 km/h (0 Bft) S-SW 192 1 min 0,000 mm 0,0 UV-I 72 W/m 3,1 C 4,4 C 0,0 km/h (0 Bft) 91,30 %
14.04.2018 07:03 4,4 C 11,1 C 91 % 1019,3 hPa 0,0 l/m 0,0 km/h (0 Bft) S-SW 192 1 min 0,000 mm 0,0 UV-I 68 W/m 3,1 C 4,4 C 0,0 km/h (0 Bft) 95,83 %
14.04.2018 07:04 4,4 C 10,6 C 92 % 1019,3 hPa 0,0 l/m 0,0 km/h (0 Bft) S-SW 192 0 min 0,000 mm 0,0 UV-I 64 W/m 3,2 C 4,4 C 0,0 km/h (0 Bft) 95,65 %
14.04.2018 07:05 4,4 C 11,1 C 92 % 1019,3 hPa 0,0 l/m 0,0 km/h (0 Bft) S-SW 192 0 min 0,000 mm 0,0 UV-I 66 W/m 3,2 C 4,4 C 0,0 km/h (0 Bft) 95,83 %
14.04.2018 07:06 4,4 C 10,6 C 92 % 1019,4 hPa 0,0 l/m 0,0 km/h (0 Bft) S-SW 192 1 min 0,000 mm 0,0 UV-I 71 W/m 3,2 C 4,4 C 0,0 km/h (0 Bft) 95,65 %
14.04.2018 07:07 4,5 C 10,6 C 92 % 1019,4 hPa 0,0 l/m 0,3 km/h (0 Bft) S-SW 192 1 min 0,000 mm 0,0 UV-I 74 W/m 3,3 C 4,5 C 1,6 km/h (1 Bft) 95,83 %
14.04.2018 07:08 4,6 C 11,1 C 92 % 1019,4 hPa 0,0 l/m 1,5 km/h (1 Bft) S-SW 192 1 min 0,000 mm 0,0 UV-I 77 W/m 3,4 C 4,6 C 3,2 km/h (1 Bft) 95,65 %
14.04.2018 07:09 4,7 C 10,6 C 92 % 1019,4 hPa 0,0 l/m 1,9 km/h (1 Bft) S-SW 192 1 min 0,000 mm 0,0 UV-I 78 W/m 3,5 C 4,7 C 3,2 km/h (1 Bft) 91,67 %
14.04.2018 07:10 4,7 C 11,1 C 92 % 1019,4 hPa 0,0 l/m 1,5 km/h (1 Bft) S-SW 192 1 min 0,000 mm 0,0 UV-I 82 W/m 3,5 C 4,7 C 3,2 km/h (1 Bft) 95,65 %
14.04.2018 07:11 4,7 C 10,6 C 92 % 1019,4 hPa 0,0 l/m 1,2 km/h (1 Bft) S-SW 192 1 min 0,000 mm 0,0 UV-I 84 W/m 3,5 C 4,7 C 1,6 km/h (1 Bft) 95,83 %
14.04.2018 07:12 4,7 C 10,6 C 92 % 1019,4 hPa 0,0 l/m 1,0 km/h (0 Bft) S-SW 192 1 min 0,000 mm 0,0 UV-I 89 W/m 3,5 C 4,7 C 1,6 km/h (1 Bft) 96,15 %
14.04.2018 07:13 4,7 C 11,1 C 92 % 1019,4 hPa 0,0 l/m 0,0 km/h (0 Bft) S-SW 192 1 min 0,000 mm 0,0 UV-I 89 W/m 3,5 C 4,7 C 0,0 km/h (0 Bft) 95,83 %
14.04.2018 07:14 4,7 C 11,1 C 92 % 1019,4 hPa 0,0 l/m 0,0 km/h (0 Bft) S-SW 192 0 min 0,000 mm 0,0 UV-I 82 W/m 3,5 C 4,7 C 0,0 km/h (0 Bft) 91,67 %
14.04.2018 07:15 4,7 C 11,1 C 92 % 1019,4 hPa 0,0 l/m 1,5 km/h (1 Bft) S-SW 192 1 min 0,000 mm 0,0 UV-I 89 W/m 3,5 C 4,7 C 3,2 km/h (1 Bft) 96,15 %
14.04.2018 07:16 4,8 C 10,6 C 92 % 1019,5 hPa 0,0 l/m 1,3 km/h (1 Bft) S-SW 192 1 min 0,000 mm 0,0 UV-I 103 W/m 3,6 C 4,8 C 3,2 km/h (1 Bft) 96,30 %
14.04.2018 07:17 4,8 C 10,6 C 92 % 1019,4 hPa 0,0 l/m 2,0 km/h (1 Bft) S-SW 192 1 min 0,000 mm 0,0 UV-I 111 W/m 3,6 C 4,8 C 3,2 km/h (1 Bft) 95,65 %
14.04.2018 07:18 4,8 C 11,1 C 92 % 1019,4 hPa 0,0 l/m 3,0 km/h (1 Bft) S-SW 192 1 min 0,000 mm 0,0 UV-I 115 W/m 3,6 C 4,8 C 4,8 km/h (1 Bft) 91,67 %
14.04.2018 07:19 4,9 C 11,1 C 91 % 1019,5 hPa 0,0 l/m 3,0 km/h (1 Bft) S-SW 192 1 min 0,000 mm 0,0 UV-I 119 W/m 3,6 C 4,9 C 4,8 km/h (1 Bft) 100,00 %
14.04.2018 07:20 4,9 C 11,1 C 91 % 1019,5 hPa 0,0 l/m 3,0 km/h (1 Bft) S-SW 192 1 min 0,000 mm 0,0 UV-I 123 W/m 3,6 C 4,9 C 4,8 km/h (1 Bft) 91,67 %
14.04.2018 07:21 5,0 C 11,1 C 91 % 1019,5 hPa 0,0 l/m 3,2 km/h (1 Bft) S-SW 192 1 min 0,000 mm 0,0 UV-I 126 W/m 3,7 C 5,0 C 3,2 km/h (1 Bft) 92,31 %
14.04.2018 07:22 5,1 C 11,1 C 91 % 1019,5 hPa 0,0 l/m 2,3 km/h (1 Bft) S-SW 192 1 min 0,000 mm 0,0 UV-I 127 W/m 3,8 C 5,1 C 3,2 km/h (1 Bft) 91,67 %
14.04.2018 07:23 5,1 C 10,6 C 91 % 1019,5 hPa 0,0 l/m 1,6 km/h (1 Bft) S-SW 192 1 min 0,000 mm 0,0 UV-I 129 W/m 3,8 C 5,1 C 3,2 km/h (1 Bft) 100,00 %
14.04.2018 07:24 5,1 C 11,1 C 91 % 1019,6 hPa 0,0 l/m 1,9 km/h (1 Bft) S-SW 192 1 min 0,000 mm 0,0 UV-I 133 W/m 3,8 C 5,1 C 3,2 km/h (1 Bft) 96,30 %
14.04.2018 07:25 5,1 C 11,1 C 90 % 1019,5 hPa 0,0 l/m 1,8 km/h (1 Bft) S-SW 192 1 min 0,000 mm 0,0 UV-I 134 W/m 3,6 C 5,1 C 3,2 km/h (1 Bft) 96,15 %
14.04.2018 07:26 5,1 C 11,1 C 90 % 1019,6 hPa 0,0 l/m 3,1 km/h (1 Bft) S-SW 192 1 min 0,000 mm 0,0 UV-I 135 W/m 3,6 C 5,1 C 3,2 km/h (1 Bft) 100,00 %
14.04.2018 07:27 5,1 C 11,1 C 90 % 1019,5 hPa 0,0 l/m 2,1 km/h (1 Bft) S-SW 192 1 min 0,000 mm 0,0 UV-I 137 W/m 3,6 C 5,1 C 3,2 km/h (1 Bft) 95,65 %
14.04.2018 07:28 5,1 C 11,1 C 90 % 1019,5 hPa 0,0 l/m 2,0 km/h (1 Bft) S-SW 192 1 min 0,000 mm 0,0 UV-I 139 W/m 3,6 C 5,1 C 3,2 km/h (1 Bft) 100,00 %
14.04.2018 07:29 5,1 C 11,1 C 90 % 1019,5 hPa 0,0 l/m 1,7 km/h (1 Bft) S-SW 192 1 min 0,000 mm 0,0 UV-I 142 W/m 3,6 C 5,1 C 3,2 km/h (1 Bft) 91,30 %
14.04.2018 07:30 5,1 C 10,6 C 90 % 1019,5 hPa 0,0 l/m 0,1 km/h (0 Bft) S-SW 192 1 min 0,000 mm 0,0 UV-I 143 W/m 3,6 C 5,1 C 1,6 km/h (1 Bft) 100,00 %
14.04.2018 07:31 5,2 C 10,6 C 90 % 1019,5 hPa 0,0 l/m 0,0 km/h (0 Bft) S-SW 192 1 min 0,000 mm 0,0 UV-I 146 W/m 3,7 C 5,2 C 0,0 km/h (0 Bft) 86,96 %
14.04.2018 07:32 5,2 C 11,1 C 90 % 1019,5 hPa 0,0 l/m 0,0 km/h (0 Bft) S-SW 192 1 min 0,000 mm 0,0 UV-I 151 W/m 3,7 C 5,2 C 0,0 km/h (0 Bft) 100,00 %
14.04.2018 07:33 5,3 C 11,1 C 90 % 1019,5 hPa 0,0 l/m 0,0 km/h (0 Bft) S-SW 192 1 min 0,000 mm 0,0 UV-I 154 W/m 3,8 C 5,3 C 0,0 km/h (0 Bft) 95,65 %
14.04.2018 07:34 5,3 C 11,1 C 90 % 1019,5 hPa 0,0 l/m 0,0 km/h (0 Bft) S-SW 192 1 min 0,000 mm 0,0 UV-I 155 W/m 3,8 C 5,3 C 0,0 km/h (0 Bft) 95,83 %
14.04.2018 07:35 5,4 C 11,1 C 89 % 1019,5 hPa 0,0 l/m 0,3 km/h (0 Bft) S-SW 192 1 min 0,000 mm 0,0 UV-I 157 W/m 3,7 C 5,4 C 1,6 km/h (1 Bft) 100,00 %
14.04.2018 07:36 5,6 C 11,1 C 89 % 1019,5 hPa 0,0 l/m 0,9 km/h (0 Bft) S-SW 192 1 min 0,000 mm 0,0 UV-I 159 W/m 3,9 C 5,6 C 3,2 km/h (1 Bft) 91,30 %
14.04.2018 07:37 5,7 C 11,1 C 89 % 1019,5 hPa 0,0 l/m 1,7 km/h (1 Bft) S-SW 192 1 min 0,000 mm 0,0 UV-I 162 W/m 4,0 C 5,7 C 3,2 km/h (1 Bft) 100,00 %
14.04.2018 07:38 5,8 C 11,1 C 88 % 1019,5 hPa 0,0 l/m 2,1 km/h (1 Bft) S-SW 192 1 min 0,000 mm 0,0 UV-I 159 W/m 4,0 C 5,8 C 3,2 km/h (1 Bft) 95,65 %
14.04.2018 07:39 5,9 C 11,1 C 88 % 1019,6 hPa 0,0 l/m 1,9 km/h (1 Bft) S-SW 192 1 min 0,000 mm 0,0 UV-I 167 W/m 4,1 C 5,9 C 3,2 km/h (1 Bft) 100,00 %
14.04.2018 07:40 6,0 C 11,1 C 88 % 1019,6 hPa 0,0 l/m 1,4 km/h (1 Bft) S-SW 192 1 min 0,000 mm 0,0 UV-I 166 W/m 4,2 C 6,0 C 3,2 km/h (1 Bft) 91,30 %
14.04.2018 07:41 6,1 C 11,1 C 87 % 1019,6 hPa 0,0 l/m 1,5 km/h (1 Bft) S-SW 192 1 min 0,000 mm 0,0 UV-I 167 W/m 4,1 C 6,1 C 3,2 km/h (1 Bft) 95,83 %
14.04.2018 07:42 6,1 C 11,1 C 87 % 1019,6 hPa 0,0 l/m 1,3 km/h (1 Bft) S-SW 192 1 min 0,000 mm 0,0 UV-I 173 W/m 4,1 C 6,1 C 1,6 km/h (1 Bft) 86,96 %
14.04.2018 07:43 6,2 C 11,1 C 86 % 1019,6 hPa 0,0 l/m 1,1 km/h (1 Bft) S-SW 192 1 min 0,000 mm 0,0 UV-I 168 W/m 4,0 C 6,2 C 1,6 km/h (1 Bft) 95,83 %
14.04.2018 07:44 6,3 C 11,1 C 86 % 1019,6 hPa 0,0 l/m 1,7 km/h (1 Bft) S-SW 192 1 min 0,000 mm 0,0 UV-I 168 W/m 4,1 C 6,3 C 3,2 km/h (1 Bft) 100,00 %
14.04.2018 07:45 6,3 C 11,1 C 86 % 1019,6 hPa 0,0 l/m 1,9 km/h (1 Bft) S-SW 192 1 min 0,000 mm 0,0 UV-I 172 W/m 4,1 C 6,3 C 3,2 km/h (1 Bft) 95,83 %
14.04.2018 07:46 6,4 C 11,1 C 86 % 1019,7 hPa 0,0 l/m 1,7 km/h (1 Bft) S-SW 192 1 min 0,000 mm 0,0 UV-I 178 W/m 4,2 C 6,4 C 3,2 km/h (1 Bft) 100,00 %
14.04.2018 07:47 6,4 C 11,1 C 86 % 1019,7 hPa 0,0 l/m 1,3 km/h (1 Bft) S-SW 192 1 min 0,000 mm 0,0 UV-I 185 W/m 4,2 C 6,4 C 1,6 km/h (1 Bft) 95,83 %
14.04.2018 07:48 6,6 C 11,1 C 86 % 1019,7 hPa 0,0 l/m 1,7 km/h (1 Bft) S-SW 192 1 min 0,000 mm 0,0 UV-I 187 W/m 4,4 C 6,6 C 3,2 km/h (1 Bft) 95,65 %
14.04.2018 07:49 6,6 C 11,1 C 86 % 1019,7 hPa 0,0 l/m 1,7 km/h (1 Bft) S-SW 192 1 min 0,000 mm 0,0 UV-I 192 W/m 4,4 C 6,6 C 3,2 km/h (1 Bft) 95,83 %
14.04.2018 07:50 6,7 C 11,1 C 86 % 1019,7 hPa 0,0 l/m 1,7 km/h (1 Bft) S-SW 192 1 min 0,000 mm 0,0 UV-I 193 W/m 4,5 C 6,7 C 3,2 km/h (1 Bft) 95,65 %
14.04.2018 07:51 6,7 C 11,1 C 86 % 1019,7 hPa 0,0 l/m 1,7 km/h (1 Bft) S-SW 192 1 min 0,000 mm 0,0 UV-I 198 W/m 4,5 C 6,7 C 3,2 km/h (1 Bft) 93,33 %
14.04.2018 07:52 6,8 C 11,1 C 85 % 1019,7 hPa 0,0 l/m 0,5 km/h (0 Bft) S-SW 192 1 min 0,000 mm 0,0 UV-I 203 W/m 4,5 C 6,8 C 1,6 km/h (1 Bft) 100,00 %
14.04.2018 07:53 6,8 C 11,1 C 86 % 1019,7 hPa 0,0 l/m 0,8 km/h (0 Bft) S-SW 192 1 min 0,000 mm 0,0 UV-I 206 W/m 4,6 C 6,8 C 1,6 km/h (1 Bft) 95,65 %
14.04.2018 07:54 6,8 C 11,1 C 84 % 1019,7 hPa 0,0 l/m 1,6 km/h (1 Bft) S-SW 192 1 min 0,000 mm 0,0 UV-I 208 W/m 4,3 C 6,8 C 3,2 km/h (1 Bft) 95,83 %
14.04.2018 07:55 6,8 C 11,1 C 85 % 1019,7 hPa 0,0 l/m 0,3 km/h (0 Bft) S-SW 192 1 min 0,000 mm 0,0 UV-I 212 W/m 4,5 C 6,8 C 1,6 km/h (1 Bft) 100,00 %
14.04.2018 07:56 6,8 C 11,1 C 85 % 1019,7 hPa 0,0 l/m 0,0 km/h (0 Bft) S-SW 192 1 min 0,000 mm 0,0 UV-I 208 W/m 4,5 C 6,8 C 0,0 km/h (0 Bft) 100,00 %
14.04.2018 07:57 6,8 C 11,1 C 84 % 1019,7 hPa 0,0 l/m 1,4 km/h (1 Bft) S-SW 192 1 min 0,000 mm 0,0 UV-I 207 W/m 4,3 C 6,8 C 3,2 km/h (1 Bft) 95,65 %
14.04.2018 07:58 6,8 C 11,1 C 84 % 1019,7 hPa 0,0 l/m 1,3 km/h (1 Bft) S-SW 192 1 min 0,000 mm 0,0 UV-I 209 W/m 4,3 C 6,8 C 1,6 km/h (1 Bft) 100,00 %
14.04.2018 07:59 6,9 C 11,1 C 84 % 1019,8 hPa 0,0 l/m 1,8 km/h (1 Bft) S-SW 192 1 min 0,000 mm 0,0 UV-I 201 W/m 4,4 C 6,9 C 3,2 km/h (1 Bft) 100,00 %
14.04.2018 08:00 6,9 C 11,1 C 84 % 1019,8 hPa 0,0 l/m 2,0 km/h (1 Bft) S-SW 192 1 min 0,051 mm 0,0 UV-I 203 W/m 4,4 C 6,9 C 3,2 km/h (1 Bft) 100,00 %
14.04.2018 08:01 7,0 C 11,1 C 83 % 1019,8 hPa 0,0 l/m 2,2 km/h (1 Bft) S-SW 192 1 min 0,000 mm 0,0 UV-I 206 W/m 4,3 C 7,0 C 3,2 km/h (1 Bft) 100,00 %
14.04.2018 08:02 7,1 C 11,1 C 83 % 1019,8 hPa 0,0 l/m 2,0 km/h (1 Bft) S-SW 192 1 min 0,000 mm 0,0 UV-I 198 W/m 4,4 C 7,1 C 3,2 km/h (1 Bft) 100,00 %
14.04.2018 08:03 7,2 C 11,1 C 83 % 1019,8 hPa 0,0 l/m 2,7 km/h (1 Bft) S-SW 192 1 min 0,000 mm 0,0 UV-I 209 W/m 4,5 C 7,2 C 3,2 km/h (1 Bft) 100,00 %
14.04.2018 08:04 7,3 C 11,1 C 83 % 1019,8 hPa 0,0 l/m 2,3 km/h (1 Bft) S-SW 192 1 min 0,000 mm 0,0 UV-I 202 W/m 4,6 C 7,3 C 4,8 km/h (1 Bft) 100,00 %
14.04.2018 08:05 7,3 C 11,1 C 83 % 1019,8 hPa 0,0 l/m 1,7 km/h (1 Bft) S-SW 192 1 min 0,000 mm 0,0 UV-I 201 W/m 4,6 C 7,3 C 3,2 km/h (1 Bft) 100,00 %
14.04.2018 08:06 7,4 C 11,1 C 83 % 1019,8 hPa 0,0 l/m 2,0 km/h (1 Bft) S-SW 192 1 min 0,000 mm 0,0 UV-I 209 W/m 4,7 C 7,4 C 3,2 km/h (1 Bft) 100,00 %
14.04.2018 08:07 7,5 C 11,1 C 83 % 1019,9 hPa 0,0 l/m 2,9 km/h (1 Bft) S-SW 192 1 min 0,000 mm 0,0 UV-I 204 W/m 4,8 C 7,5 C 3,2 km/h (1 Bft) 96,15 %
14.04.2018 08:08 7,6 C 11,1 C 82 % 1019,8 hPa 0,0 l/m 2,3 km/h (1 Bft) S-SW 192 1 min 0,000 mm 0,0 UV-I 173 W/m 4,7 C 7,6 C 3,2 km/h (1 Bft) 100,00 %
14.04.2018 08:09 7,6 C 11,1 C 82 % 1019,8 hPa 0,0 l/m 1,1 km/h (1 Bft) S-SW 192 0 min 0,000 mm 0,0 UV-I 127 W/m 4,7 C 7,6 C 3,2 km/h (1 Bft) 95,65 %
14.04.2018 08:10 7,6 C 11,1 C 82 % 1019,9 hPa 0,0 l/m 0,3 km/h (0 Bft) S-SW 192 0 min 0,000 mm 0,0 UV-I 126 W/m 4,7 C 7,6 C 1,6 km/h (1 Bft) 100,00 %
14.04.2018 08:11 7,6 C 11,1 C 82 % 1019,9 hPa 0,0 l/m 0,0 km/h (0 Bft) S-SW 192 0 min 0,000 mm 0,0 UV-I 170 W/m 4,7 C 7,6 C 0,0 km/h (0 Bft) 100,00 %
14.04.2018 08:12 7,6 C 11,1 C 81 % 1019,9 hPa 0,0 l/m 0,6 km/h (0 Bft) S-SW 192 1 min 0,000 mm 0,0 UV-I 192 W/m 4,6 C 7,6 C 1,6 km/h (1 Bft) 95,83 %
14.04.2018 08:13 7,6 C 11,1 C 81 % 1019,9 hPa 0,0 l/m 0,4 km/h (0 Bft) S-SW 192 1 min 0,000 mm 0,0 UV-I 195 W/m 4,6 C 7,6 C 1,6 km/h (1 Bft) 96,15 %
14.04.2018 08:14 7,6 C 11,1 C 80 % 1020,0 hPa 0,0 l/m 0,6 km/h (0 Bft) S-SW 192 1 min 0,000 mm 0,1 UV-I 221 W/m 4,4 C 7,6 C 1,6 km/h (1 Bft) 100,00 %
14.04.2018 08:15 7,6 C 11,1 C 80 % 1020,0 hPa 0,0 l/m 0,3 km/h (0 Bft) S-SW 192 1 min 0,000 mm 0,5 UV-I 238 W/m 4,4 C 7,6 C 1,6 km/h (1 Bft) 100,00 %
14.04.2018 08:16 7,8 C 11,1 C 81 % 1020,0 hPa 0,0 l/m 0,0 km/h (0 Bft) S-SW 192 1 min 0,000 mm 0,5 UV-I 255 W/m 4,7 C 7,8 C 0,0 km/h (0 Bft) 100,00 %
14.04.2018 08:17 7,8 C 11,1 C 80 % 1020,0 hPa 0,0 l/m 0,0 km/h (0 Bft) S-SW 192 1 min 0,000 mm 0,5 UV-I 252 W/m 4,6 C 7,8 C 0,0 km/h (0 Bft) 100,00 %
14.04.2018 08:18 7,9 C 11,1 C 79 % 1020,0 hPa 0,0 l/m 0,0 km/h (0 Bft) S-SW 192 1 min 0,000 mm 0,5 UV-I 263 W/m 4,5 C 7,9 C 0,0 km/h (0 Bft) 100,00 %
14.04.2018 08:19 8,2 C 11,1 C 80 % 1019,9 hPa 0,0 l/m 0,5 km/h (0 Bft) S-SW 192 1 min 0,000 mm 0,5 UV-I 269 W/m 5,0 C 8,2 C 3,2 km/h (1 Bft) 95,83 %
14.04.2018 08:20 8,3 C 11,1 C 79 % 1020,0 hPa 0,0 l/m 0,3 km/h (0 Bft) S-SW 192 1 min 0,000 mm 0,5 UV-I 280 W/m 4,9 C 8,3 C 1,6 km/h (1 Bft) 100,00 %
14.04.2018 08:21 8,4 C 11,1 C 78 % 1020,0 hPa 0,0 l/m 0,0 km/h (0 Bft) S-SW 192 1 min 0,000 mm 0,5 UV-I 249 W/m 4,8 C 8,4 C 0,0 km/h (0 Bft) 95,83 %
14.04.2018 08:22 8,4 C 11,1 C 78 % 1020,0 hPa 0,0 l/m 1,3 km/h (1 Bft) S-SW 192 1 min 0,000 mm 0,5 UV-I 243 W/m 4,8 C 8,4 C 3,2 km/h (1 Bft) 100,00 %
14.04.2018 08:23 8,5 C 11,1 C 78 % 1020,0 hPa 0,0 l/m 2,8 km/h (1 Bft) S-SO 161 1 min 0,000 mm 0,5 UV-I 279 W/m 4,9 C 8,5 C 6,4 km/h (2 Bft) 95,83 %
14.04.2018 08:24 8,6 C 11,1 C 79 % 1020,0 hPa 0,0 l/m 3,7 km/h (1 Bft) O-SO 117 1 min 0,000 mm 0,5 UV-I 276 W/m 5,2 C 8,6 C 6,4 km/h (2 Bft) 100,00 %
14.04.2018 08:25 8,7 C 11,1 C 79 % 1020,0 hPa 0,0 l/m 3,4 km/h (1 Bft) O-SO 117 1 min 0,000 mm 0,6 UV-I 291 W/m 5,3 C 8,7 C 4,8 km/h (1 Bft) 100,00 %
14.04.2018 08:26 8,8 C 11,1 C 78 % 1020,1 hPa 0,0 l/m 4,0 km/h (1 Bft) O-NO 76 1 min 0,000 mm 0,6 UV-I 293 W/m 5,2 C 8,8 C 4,8 km/h (1 Bft) 95,65 %
14.04.2018 08:27 8,9 C 11,1 C 80 % 1020,0 hPa 0,0 l/m 3,8 km/h (1 Bft) O-NO 76 1 min 0,000 mm 0,6 UV-I 289 W/m 5,6 C 8,9 C 4,8 km/h (1 Bft) 100,00 %
14.04.2018 08:28 8,9 C 11,1 C 81 % 1020,0 hPa 0,0 l/m 4,5 km/h (1 Bft) O-NO 60 1 min 0,000 mm 0,6 UV-I 286 W/m 5,8 C 8,9 C 6,4 km/h (2 Bft) 100,00 %
14.04.2018 08:29 9,0 C 11,1 C 80 % 1020,0 hPa 0,0 l/m 4,5 km/h (1 Bft) O-NO 60 1 min 0,000 mm 0,6 UV-I 279 W/m 5,7 C 9,0 C 4,8 km/h (1 Bft) 100,00 %
14.04.2018 08:30 8,9 C 11,1 C 79 % 1020,1 hPa 0,0 l/m 4,3 km/h (1 Bft) NO 44 1 min 0,000 mm 0,6 UV-I 251 W/m 5,5 C 8,9 C 6,4 km/h (2 Bft) 95,65 %
14.04.2018 08:31 9,0 C 11,1 C 80 % 1020,1 hPa 0,0 l/m 6,1 km/h (2 Bft) NO 36 1 min 0,000 mm 0,6 UV-I 236 W/m 5,7 C 9,0 C 6,4 km/h (2 Bft) 100,00 %
14.04.2018 08:32 9,1 C 11,1 C 80 % 1020,1 hPa 0,0 l/m 5,9 km/h (2 Bft) NO 35 1 min 0,000 mm 0,6 UV-I 275 W/m 5,8 C 9,1 C 8,0 km/h (2 Bft) 100,00 %
14.04.2018 08:33 9,1 C 11,1 C 79 % 1020,1 hPa 0,0 l/m 5,1 km/h (1 Bft) NO 35 1 min 0,000 mm 0,6 UV-I 272 W/m 5,7 C 9,1 C 6,4 km/h (2 Bft) 100,00 %
14.04.2018 08:34 9,1 C 11,1 C 79 % 1020,1 hPa 0,0 l/m 4,6 km/h (1 Bft) NO 35 1 min 0,000 mm 0,6 UV-I 269 W/m 5,7 C 9,1 C 6,4 km/h (2 Bft) 100,00 %
14.04.2018 08:35 9,1 C 11,1 C 80 % 1020,1 hPa 0,0 l/m 5,0 km/h (1 Bft) NO 35 1 min 0,000 mm 0,6 UV-I 242 W/m 5,8 C 9,1 C 6,4 km/h (2 Bft) 100,00 %
14.04.2018 08:36 9,1 C 11,1 C 80 % 1020,2 hPa 0,0 l/m 4,4 km/h (1 Bft) NO 35 1 min 0,000 mm 0,6 UV-I 255 W/m 5,8 C 9,1 C 4,8 km/h (1 Bft) 100,00 %
14.04.2018 08:37 9,2 C 11,1 C 81 % 1020,3 hPa 0,0 l/m 5,9 km/h (2 Bft) NO 35 1 min 0,000 mm 0,6 UV-I 277 W/m 6,1 C 9,2 C 6,4 km/h (2 Bft) 95,65 %
14.04.2018 08:38 9,2 C 11,1 C 81 % 1020,2 hPa 0,0 l/m 6,3 km/h (2 Bft) NO 35 1 min 0,000 mm 0,6 UV-I 277 W/m 6,1 C 9,2 C 6,4 km/h (2 Bft) 95,83 %
14.04.2018 08:39 9,2 C 11,1 C 81 % 1020,2 hPa 0,0 l/m 6,0 km/h (2 Bft) NO 35 1 min 0,000 mm 0,6 UV-I 257 W/m 6,1 C 9,2 C 6,4 km/h (2 Bft) 96,55 %
14.04.2018 08:40 9,2 C 11,1 C 81 % 1020,2 hPa 0,0 l/m 6,2 km/h (2 Bft) NO 36 1 min 0,000 mm 0,6 UV-I 229 W/m 6,1 C 9,2 C 8,0 km/h (2 Bft) 100,00 %
14.04.2018 08:41 9,2 C 11,1 C 81 % 1020,2 hPa 0,0 l/m 6,5 km/h (2 Bft) NO 38 0 min 0,000 mm 0,6 UV-I 180 W/m 6,1 C 9,2 C 8,0 km/h (2 Bft) 100,00 %
14.04.2018 08:42 9,2 C 11,1 C 81 % 1020,3 hPa 0,0 l/m 6,3 km/h (2 Bft) NO 42 0 min 0,000 mm 0,6 UV-I 193 W/m 6,1 C 9,2 C 6,4 km/h (2 Bft) 91,67 %
14.04.2018 08:43 9,2 C 11,1 C 80 % 1020,3 hPa 0,0 l/m 6,4 km/h (2 Bft) NO 42 0 min 0,000 mm 0,6 UV-I 203 W/m 5,9 C 9,2 C 8,0 km/h (2 Bft) 100,00 %
14.04.2018 08:44 9,2 C 11,1 C 81 % 1020,3 hPa 0,0 l/m 6,9 km/h (2 Bft) NO 42 1 min 0,000 mm 0,7 UV-I 264 W/m 6,1 C 8,8 C 8,0 km/h (2 Bft) 100,00 %
14.04.2018 08:45 9,2 C 11,1 C 81 % 1020,3 hPa 0,0 l/m 8,0 km/h (2 Bft) NO 42 1 min 0,000 mm 0,7 UV-I 269 W/m 6,1 C 8,0 C 9,7 km/h (2 Bft) 100,00 %
14.04.2018 08:46 9,2 C 11,1 C 82 % 1020,3 hPa 0,0 l/m 7,4 km/h (2 Bft) NO 43 1 min 0,000 mm 0,7 UV-I 304 W/m 6,3 C 8,4 C 8,0 km/h (2 Bft) 95,83 %
14.04.2018 08:47 9,2 C 11,1 C 81 % 1020,4 hPa 0,0 l/m 8,7 km/h (2 Bft) NO 43 1 min 0,000 mm 0,8 UV-I 341 W/m 6,1 C 7,5 C 9,7 km/h (2 Bft) 100,00 %
14.04.2018 08:48 9,2 C 11,1 C 82 % 1020,3 hPa 0,0 l/m 7,4 km/h (2 Bft) NO 45 1 min 0,000 mm 0,8 UV-I 361 W/m 6,3 C 8,4 C 8,0 km/h (2 Bft) 100,00 %
14.04.2018 08:49 9,3 C 11,1 C 83 % 1020,3 hPa 0,0 l/m 6,5 km/h (2 Bft) NO 45 1 min 0,000 mm 0,8 UV-I 358 W/m 6,6 C 9,3 C 8,0 km/h (2 Bft) 100,00 %
14.04.2018 08:50 9,4 C 11,1 C 83 % 1020,3 hPa 0,0 l/m 7,1 km/h (2 Bft) NO 44 1 min 0,000 mm 0,8 UV-I 365 W/m 6,7 C 8,9 C 8,0 km/h (2 Bft) 100,00 %
14.04.2018 08:51 9,5 C 11,1 C 83 % 1020,4 hPa 0,0 l/m 6,1 km/h (2 Bft) NO 44 1 min 0,000 mm 0,8 UV-I 366 W/m 6,8 C 9,5 C 6,4 km/h (2 Bft) 100,00 %
14.04.2018 08:52 9,6 C 11,1 C 83 % 1020,3 hPa 0,0 l/m 7,5 km/h (2 Bft) NO 44 1 min 0,000 mm 0,8 UV-I 368 W/m 6,9 C 8,8 C 8,0 km/h (2 Bft) 96,15 %
14.04.2018 08:53 9,7 C 11,1 C 82 % 1020,3 hPa 0,0 l/m 7,4 km/h (2 Bft) NO 45 1 min 0,000 mm 0,8 UV-I 371 W/m 6,8 C 9,0 C 9,7 km/h (2 Bft) 100,00 %
14.04.2018 08:54 9,7 C 11,1 C 82 % 1020,3 hPa 0,0 l/m 7,1 km/h (2 Bft) NO 38 1 min 0,000 mm 0,8 UV-I 360 W/m 6,8 C 9,2 C 9,7 km/h (2 Bft) 95,65 %
14.04.2018 08:55 9,8 C 11,1 C 82 % 1020,3 hPa 0,0 l/m 7,8 km/h (2 Bft) NO 40 1 min 0,000 mm 0,8 UV-I 354 W/m 6,9 C 8,8 C 9,7 km/h (2 Bft) 100,00 %
14.04.2018 08:56 9,8 C 11,1 C 82 % 1020,3 hPa 0,0 l/m 7,4 km/h (2 Bft) NO 49 1 min 0,000 mm 0,9 UV-I 360 W/m 6,9 C 9,1 C 9,7 km/h (2 Bft) 100,00 %
14.04.2018 08:57 9,8 C 11,1 C 82 % 1020,3 hPa 0,0 l/m 8,1 km/h (2 Bft) NO 39 1 min 0,000 mm 0,9 UV-I 372 W/m 6,9 C 8,6 C 9,7 km/h (2 Bft) 91,67 %
14.04.2018 08:58 9,8 C 11,1 C 83 % 1020,3 hPa 0,0 l/m 8,0 km/h (2 Bft) N-NO 22 1 min 0,000 mm 0,9 UV-I 379 W/m 7,1 C 8,6 C 9,7 km/h (2 Bft) 100,00 %
14.04.2018 08:59 9,9 C 11,1 C 83 % 1020,3 hPa 0,0 l/m 7,4 km/h (2 Bft) NO 34 1 min 0,000 mm 0,9 UV-I 381 W/m 7,2 C 9,2 C 9,7 km/h (2 Bft) 95,83 %
14.04.2018 09:00 9,9 C 11,1 C 84 % 1020,3 hPa 0,0 l/m 8,7 km/h (2 Bft) NO 43 1 min 0,127 mm 0,9 UV-I 386 W/m 7,3 C 8,3 C 11,3 km/h (2 Bft) 100,00 %
14.04.2018 09:01 9,8 C 11,1 C 84 % 1020,3 hPa 0,0 l/m 10,1 km/h (2 Bft) NO 44 1 min 0,000 mm 0,9 UV-I 389 W/m 7,2 C 7,3 C 12,9 km/h (3 Bft) 97,37 %
14.04.2018 09:02 9,8 C 11,1 C 83 % 1020,3 hPa 0,0 l/m 9,1 km/h (2 Bft) NO 41 1 min 0,000 mm 0,9 UV-I 392 W/m 7,1 C 7,9 C 11,3 km/h (2 Bft) 95,65 %
14.04.2018 09:03 9,8 C 11,1 C 82 % 1020,3 hPa 0,0 l/m 8,5 km/h (2 Bft) NO 43 1 min 0,000 mm 0,9 UV-I 398 W/m 6,9 C 8,3 C 11,3 km/h (2 Bft) 100,00 %
14.04.2018 09:04 9,8 C 11,1 C 83 % 1020,3 hPa 0,0 l/m 9,3 km/h (2 Bft) NO 49 1 min 0,000 mm 1,0 UV-I 400 W/m 7,1 C 7,8 C 11,3 km/h (2 Bft) 91,30 %
14.04.2018 09:05 9,8 C 11,1 C 83 % 1020,3 hPa 0,0 l/m 9,8 km/h (2 Bft) N 11 1 min 0,000 mm 1,0 UV-I 401 W/m 7,1 C 7,5 C 12,9 km/h (3 Bft) 100,00 %
14.04.2018 09:06 9,9 C 11,1 C 83 % 1020,3 hPa 0,0 l/m 11,1 km/h (2 Bft) NO 39 1 min 0,000 mm 1,0 UV-I 403 W/m 7,2 C 6,9 C 14,5 km/h (3 Bft) 95,65 %
14.04.2018 09:07 9,9 C 11,1 C 84 % 1020,3 hPa 0,0 l/m 11,0 km/h (2 Bft) NO 36 1 min 0,000 mm 1,0 UV-I 385 W/m 7,3 C 6,9 C 14,5 km/h (3 Bft) 95,83 %
14.04.2018 09:08 9,9 C 11,1 C 83 % 1020,3 hPa 0,0 l/m 11,8 km/h (2 Bft) NO 40 1 min 0,000 mm 1,0 UV-I 393 W/m 7,2 C 6,5 C 14,5 km/h (3 Bft) 95,65 %
14.04.2018 09:09 10,0 C 11,1 C 84 % 1020,3 hPa 0,0 l/m 10,5 km/h (2 Bft) NO 42 1 min 0,000 mm 1,0 UV-I 414 W/m 7,4 C 7,3 C 14,5 km/h (3 Bft) 100,00 %
14.04.2018 09:10 10,0 C 11,1 C 84 % 1020,3 hPa 0,0 l/m 9,0 km/h (2 Bft) NO 42 1 min 0,000 mm 1,0 UV-I 407 W/m 7,4 C 8,2 C 12,9 km/h (3 Bft) 95,83 %
14.04.2018 09:11 9,9 C 11,1 C 83 % 1020,3 hPa 0,0 l/m 9,9 km/h (2 Bft) N-NO 32 1 min 0,000 mm 1,0 UV-I 401 W/m 7,2 C 7,5 C 12,9 km/h (3 Bft) 92,31 %
14.04.2018 09:12 9,9 C 11,1 C 83 % 1020,3 hPa 0,0 l/m 9,4 km/h (2 Bft) N-NO 13 1 min 0,000 mm 1,0 UV-I 408 W/m 7,2 C 7,8 C 12,9 km/h (3 Bft) 100,00 %
14.04.2018 09:13 9,9 C 11,1 C 83 % 1020,3 hPa 0,0 l/m 8,5 km/h (2 Bft) N-NO 18 1 min 0,000 mm 1,1 UV-I 417 W/m 7,2 C 8,4 C 12,9 km/h (3 Bft) 91,30 %
14.04.2018 09:14 9,9 C 11,1 C 85 % 1020,3 hPa 0,0 l/m 7,0 km/h (2 Bft) N-NO 21 1 min 0,000 mm 1,1 UV-I 424 W/m 7,5 C 9,5 C 11,3 km/h (2 Bft) 95,83 %
14.04.2018 09:15 10,0 C 11,1 C 85 % 1020,3 hPa 0,0 l/m 10,5 km/h (2 Bft) NO 46 1 min 0,000 mm 1,1 UV-I 429 W/m 7,6 C 7,3 C 14,5 km/h (3 Bft) 91,30 %
14.04.2018 09:16 10,1 C 11,1 C 85 % 1020,3 hPa 0,0 l/m 9,6 km/h (2 Bft) O-NO 73 1 min 0,000 mm 1,1 UV-I 435 W/m 7,7 C 7,9 C 16,1 km/h (3 Bft) 100,00 %
14.04.2018 09:17 10,1 C 11,1 C 83 % 1020,3 hPa 0,0 l/m 9,7 km/h (2 Bft) O-NO 77 1 min 0,000 mm 1,1 UV-I 439 W/m 7,3 C 7,9 C 14,5 km/h (3 Bft) 95,65 %
14.04.2018 09:18 10,1 C 11,1 C 84 % 1020,3 hPa 0,0 l/m 7,6 km/h (2 Bft) NO 49 1 min 0,000 mm 1,1 UV-I 441 W/m 7,5 C 9,2 C 9,7 km/h (2 Bft) 91,67 %
14.04.2018 09:19 10,2 C 11,1 C 84 % 1020,3 hPa 0,0 l/m 10,8 km/h (2 Bft) N 5 1 min 0,000 mm 1,1 UV-I 421 W/m 7,6 C 7,4 C 12,9 km/h (3 Bft) 100,00 %
14.04.2018 09:20 10,2 C 11,1 C 84 % 1020,3 hPa 0,0 l/m 9,2 km/h (2 Bft) NO 43 1 min 0,000 mm 1,1 UV-I 405 W/m 7,6 C 8,3 C 12,9 km/h (3 Bft) 100,00 %
14.04.2018 09:21 10,2 C 11,1 C 84 % 1020,3 hPa 0,0 l/m 7,8 km/h (2 Bft) NO 36 1 min 0,000 mm 1,1 UV-I 411 W/m 7,6 C 9,2 C 12,9 km/h (3 Bft) 95,65 %
14.04.2018 09:22 10,2 C 11,1 C 84 % 1020,3 hPa 0,0 l/m 8,5 km/h (2 Bft) N-NO 26 1 min 0,000 mm 1,2 UV-I 421 W/m 7,6 C 8,7 C 11,3 km/h (2 Bft) 100,00 %
14.04.2018 09:23 10,4 C 11,1 C 86 % 1020,4 hPa 0,0 l/m 7,8 km/h (2 Bft) NO 41 1 min 0,000 mm 1,2 UV-I 433 W/m 8,2 C 9,4 C 12,9 km/h (3 Bft) 100,00 %
14.04.2018 09:24 10,5 C 11,1 C 86 % 1020,3 hPa 0,0 l/m 8,2 km/h (2 Bft) NO 43 1 min 0,000 mm 1,2 UV-I 442 W/m 8,3 C 9,2 C 11,3 km/h (2 Bft) 95,83 %
14.04.2018 09:25 10,6 C 11,1 C 85 % 1020,3 hPa 0,0 l/m 8,8 km/h (2 Bft) N-NO 31 1 min 0,000 mm 1,2 UV-I 435 W/m 8,2 C 9,0 C 12,9 km/h (3 Bft) 100,00 %
14.04.2018 09:26 10,6 C 11,1 C 86 % 1020,4 hPa 0,0 l/m 10,5 km/h (2 Bft) NO 41 1 min 0,000 mm 1,2 UV-I 441 W/m 8,4 C 8,0 C 14,5 km/h (3 Bft) 100,00 %
14.04.2018 09:27 10,7 C 11,1 C 85 % 1020,4 hPa 0,0 l/m 9,5 km/h (2 Bft) N-NO 31 1 min 0,000 mm 1,2 UV-I 435 W/m 8,3 C 8,7 C 12,9 km/h (3 Bft) 95,65 %
14.04.2018 09:28 10,7 C 11,1 C 84 % 1020,4 hPa 0,0 l/m 8,8 km/h (2 Bft) N-NO 30 1 min 0,000 mm 1,2 UV-I 424 W/m 8,1 C 9,1 C 12,9 km/h (3 Bft) 95,83 %
14.04.2018 09:29 10,7 C 11,1 C 84 % 1020,4 hPa 0,0 l/m 8,7 km/h (2 Bft) NO 47 1 min 0,000 mm 1,2 UV-I 419 W/m 8,1 C 9,1 C 11,3 km/h (2 Bft) 100,00 %
14.04.2018 09:30 10,7 C 11,1 C 84 % 1020,5 hPa 0,0 l/m 10,4 km/h (2 Bft) NO 44 1 min 0,000 mm 1,3 UV-I 453 W/m 8,1 C 8,1 C 14,5 km/h (3 Bft) 100,00 %
14.04.2018 09:31 10,7 C 11,1 C 85 % 1020,4 hPa 0,0 l/m 10,3 km/h (2 Bft) N-NO 29 1 min 0,000 mm 1,3 UV-I 470 W/m 8,3 C 8,2 C 12,9 km/h (3 Bft) 100,00 %
14.04.2018 09:32 10,7 C 11,1 C 85 % 1020,5 hPa 0,0 l/m 10,1 km/h (2 Bft) NO 34 1 min 0,000 mm 1,3 UV-I 470 W/m 8,3 C 8,3 C 14,5 km/h (3 Bft) 100,00 %
14.04.2018 09:33 10,8 C 11,1 C 85 % 1020,5 hPa 0,0 l/m 10,0 km/h (2 Bft) NO 36 1 min 0,000 mm 1,3 UV-I 440 W/m 8,4 C 8,5 C 12,9 km/h (3 Bft) 100,00 %
14.04.2018 09:34 10,8 C 11,1 C 84 % 1020,5 hPa 0,0 l/m 8,9 km/h (2 Bft) N-NO 22 1 min 0,000 mm 1,3 UV-I 493 W/m 8,2 C 9,1 C 12,9 km/h (3 Bft) 100,00 %
14.04.2018 09:35 10,9 C 11,1 C 85 % 1020,5 hPa 0,0 l/m 9,7 km/h (2 Bft) NO 47 1 min 0,000 mm 1,3 UV-I 504 W/m 8,5 C 8,8 C 14,5 km/h (3 Bft) 95,83 %
14.04.2018 09:36 11,1 C 11,1 C 85 % 1020,5 hPa 0,0 l/m 7,5 km/h (2 Bft) N-NO 30 1 min 0,000 mm 1,4 UV-I 498 W/m 8,7 C 10,3 C 11,3 km/h (2 Bft) 100,00 %
14.04.2018 09:37 11,1 C 11,1 C 84 % 1020,5 hPa 0,0 l/m 8,9 km/h (2 Bft) N-NO 30 1 min 0,000 mm 1,3 UV-I 460 W/m 8,5 C 9,4 C 9,7 km/h (2 Bft) 100,00 %
14.04.2018 09:38 11,2 C 11,1 C 84 % 1020,5 hPa 0,0 l/m 12,9 km/h (3 Bft) NO 39 1 min 0,000 mm 1,3 UV-I 428 W/m 8,6 C 7,5 C 16,1 km/h (3 Bft) 100,00 %
14.04.2018 09:39 11,2 C 11,1 C 83 % 1020,5 hPa 0,0 l/m 11,8 km/h (2 Bft) NO 42 1 min 0,000 mm 1,3 UV-I 400 W/m 8,4 C 8,0 C 16,1 km/h (3 Bft) 100,00 %
14.04.2018 09:40 11,2 C 11,1 C 83 % 1020,5 hPa 0,0 l/m 14,3 km/h (3 Bft) NO 53 1 min 0,000 mm 1,3 UV-I 388 W/m 8,4 C 6,9 C 16,1 km/h (3 Bft) 100,00 %
14.04.2018 09:41 11,1 C 11,1 C 83 % 1020,5 hPa 0,0 l/m 11,0 km/h (2 Bft) NO 51 1 min 0,000 mm 1,3 UV-I 410 W/m 8,3 C 8,3 C 14,5 km/h (3 Bft) 95,83 %
14.04.2018 09:42 11,1 C 11,1 C 83 % 1020,4 hPa 0,0 l/m 10,6 km/h (2 Bft) NO 44 1 min 0,000 mm 1,3 UV-I 412 W/m 8,3 C 8,5 C 14,5 km/h (3 Bft) 100,00 %
14.04.2018 09:43 11,1 C 11,1 C 83 % 1020,4 hPa 0,0 l/m 9,7 km/h (2 Bft) NO 42 1 min 0,000 mm 1,3 UV-I 435 W/m 8,3 C 9,0 C 12,9 km/h (3 Bft) 100,00 %
14.04.2018 09:44 11,2 C 11,1 C 83 % 1020,4 hPa 0,0 l/m 12,7 km/h (3 Bft) NO 35 1 min 0,000 mm 1,4 UV-I 446 W/m 8,4 C 7,6 C 16,1 km/h (3 Bft) 95,65 %
14.04.2018 09:45 11,2 C 11,1 C 83 % 1020,4 hPa 0,0 l/m 13,1 km/h (3 Bft) N-NO 28 1 min 0,000 mm 1,4 UV-I 453 W/m 8,4 C 7,4 C 16,1 km/h (3 Bft) 95,83 %
14.04.2018 09:46 11,3 C 11,1 C 84 % 1020,4 hPa 0,0 l/m 11,3 km/h (2 Bft) NO 40 1 min 0,000 mm 1,4 UV-I 446 W/m 8,7 C 8,4 C 14,5 km/h (3 Bft) 100,00 %
14.04.2018 09:47 11,4 C 11,1 C 83 % 1020,4 hPa 0,0 l/m 8,6 km/h (2 Bft) NO 54 1 min 0,000 mm 1,4 UV-I 464 W/m 8,6 C 9,9 C 9,7 km/h (2 Bft) 100,00 %
14.04.2018 09:48 11,4 C 11,1 C 82 % 1020,5 hPa 0,0 l/m 9,3 km/h (2 Bft) N-NO 28 1 min 0,000 mm 1,4 UV-I 469 W/m 8,4 C 9,5 C 12,9 km/h (3 Bft) 95,83 %
14.04.2018 09:49 11,4 C 11,1 C 82 % 1020,5 hPa 0,0 l/m 9,3 km/h (2 Bft) O-NO 72 1 min 0,000 mm 1,4 UV-I 476 W/m 8,4 C 9,5 C 12,9 km/h (3 Bft) 100,00 %
14.04.2018 09:50 11,5 C 11,1 C 81 % 1020,5 hPa 0,0 l/m 7,6 km/h (2 Bft) NO 52 1 min 0,000 mm 1,4 UV-I 462 W/m 8,4 C 10,7 C 9,7 km/h (2 Bft) 95,83 %
14.04.2018 09:51 11,6 C 11,1 C 81 % 1020,4 hPa 0,0 l/m 7,9 km/h (2 Bft) NO 40 1 min 0,000 mm 1,5 UV-I 467 W/m 8,5 C 10,6 C 9,7 km/h (2 Bft) 91,30 %
14.04.2018 09:52 11,6 C 11,1 C 79 % 1020,5 hPa 0,0 l/m 7,3 km/h (2 Bft) O-NO 57 1 min 0,000 mm 1,5 UV-I 463 W/m 8,1 C 11,0 C 9,7 km/h (2 Bft) 100,00 %
14.04.2018 09:53 11,8 C 11,1 C 81 % 1020,5 hPa 0,0 l/m 9,7 km/h (2 Bft) NO 45 1 min 0,000 mm 1,5 UV-I 472 W/m 8,6 C 9,7 C 12,9 km/h (3 Bft) 100,00 %
14.04.2018 09:54 11,9 C 11,1 C 82 % 1020,5 hPa 0,0 l/m 6,9 km/h (2 Bft) NO 45 1 min 0,000 mm 1,5 UV-I 468 W/m 8,9 C 11,6 C 9,7 km/h (2 Bft) 100,00 %
14.04.2018 09:55 11,9 C 11,1 C 81 % 1020,5 hPa 0,0 l/m 6,9 km/h (2 Bft) NO 42 1 min 0,000 mm 1,5 UV-I 491 W/m 8,7 C 11,6 C 9,7 km/h (2 Bft) 100,00 %
14.04.2018 09:56 12,0 C 11,1 C 80 % 1020,5 hPa 0,0 l/m 7,0 km/h (2 Bft) NO 34 1 min 0,000 mm 1,5 UV-I 464 W/m 8,7 C 11,6 C 9,7 km/h (2 Bft) 100,00 %
14.04.2018 09:57 12,0 C 11,1 C 79 % 1020,5 hPa 0,0 l/m 7,8 km/h (2 Bft) O-NO 64 1 min 0,000 mm 1,5 UV-I 475 W/m 8,5 C 11,1 C 9,7 km/h (2 Bft) 95,65 %
14.04.2018 09:58 11,9 C 11,1 C 79 % 1020,5 hPa 0,0 l/m 8,2 km/h (2 Bft) N-NO 26 1 min 0,000 mm 1,6 UV-I 473 W/m 8,4 C 10,7 C 9,7 km/h (2 Bft) 100,00 %
14.04.2018 09:59 12,0 C 11,1 C 79 % 1020,5 hPa 0,0 l/m 7,2 km/h (2 Bft) NO 42 1 min 0,000 mm 1,5 UV-I 446 W/m 8,5 C 11,5 C 9,7 km/h (2 Bft) 100,00 %
14.04.2018 10:00 12,1 C 10,6 C 80 % 1020,5 hPa 0,0 l/m 6,6 km/h (2 Bft) O-NO 66 1 min 0,229 mm 1,5 UV-I 450 W/m 8,8 C 12,0 C 9,7 km/h (2 Bft) 100,00 %
14.04.2018 10:01 12,0 C 11,1 C 77 % 1020,5 hPa 0,0 l/m 6,7 km/h (2 Bft) NO 51 1 min 0,000 mm 1,6 UV-I 459 W/m 8,1 C 11,8 C 9,7 km/h (2 Bft) 96,15 %
14.04.2018 10:02 12,1 C 11,1 C 80 % 1020,5 hPa 0,0 l/m 8,1 km/h (2 Bft) NO 53 1 min 0,000 mm 1,6 UV-I 465 W/m 8,8 C 11,0 C 12,9 km/h (3 Bft) 100,00 %
14.04.2018 10:03 12,2 C 11,1 C 80 % 1020,5 hPa 0,0 l/m 6,0 km/h (2 Bft) O-NO 62 1 min 0,000 mm 1,6 UV-I 478 W/m 8,9 C 12,2 C 8,0 km/h (2 Bft) 100,00 %
14.04.2018 10:04 12,2 C 11,1 C 78 % 1020,5 hPa 0,0 l/m 8,0 km/h (2 Bft) O-NO 67 1 min 0,000 mm 1,5 UV-I 437 W/m 8,5 C 11,2 C 11,3 km/h (2 Bft) 96,30 %
14.04.2018 10:05 12,2 C 11,1 C 78 % 1020,5 hPa 0,0 l/m 11,9 km/h (2 Bft) O-NO 57 1 min 0,000 mm 1,5 UV-I 409 W/m 8,5 C 9,1 C 16,1 km/h (3 Bft) 100,00 %
14.04.2018 10:06 12,1 C 11,1 C 77 % 1020,5 hPa 0,0 l/m 8,2 km/h (2 Bft) O 82 1 min 0,000 mm 1,4 UV-I 390 W/m 8,2 C 10,9 C 14,5 km/h (3 Bft) 95,83 %
14.04.2018 10:07 12,1 C 11,1 C 76 % 1020,5 hPa 0,0 l/m 12,2 km/h (2 Bft) O 101 1 min 0,000 mm 1,5 UV-I 419 W/m 8,0 C 8,8 C 16,1 km/h (3 Bft) 100,00 %
14.04.2018 10:08 11,9 C 11,1 C 74 % 1020,5 hPa 0,0 l/m 11,6 km/h (2 Bft) O-NO 57 1 min 0,000 mm 1,5 UV-I 420 W/m 7,4 C 8,9 C 14,5 km/h (3 Bft) 100,00 %
14.04.2018 10:09 11,9 C 11,1 C 76 % 1020,5 hPa 0,0 l/m 11,2 km/h (2 Bft) O 90 1 min 0,000 mm 1,5 UV-I 430 W/m 7,8 C 9,1 C 16,1 km/h (3 Bft) 100,00 %
14.04.2018 10:10 11,9 C 11,1 C 75 % 1020,5 hPa 0,0 l/m 12,9 km/h (3 Bft) O 86 1 min 0,000 mm 1,5 UV-I 400 W/m 7,6 C 8,3 C 16,1 km/h (3 Bft) 100,00 %
14.04.2018 10:11 11,8 C 11,1 C 76 % 1020,5 hPa 0,0 l/m 10,4 km/h (2 Bft) O-NO 61 1 min 0,000 mm 1,5 UV-I 413 W/m 7,7 C 9,4 C 14,5 km/h (3 Bft) 100,00 %
14.04.2018 10:12 11,9 C 11,1 C 77 % 1020,6 hPa 0,0 l/m 11,9 km/h (2 Bft) O 89 1 min 0,000 mm 1,7 UV-I 489 W/m 8,0 C 8,7 C 16,1 km/h (3 Bft) 100,00 %
14.04.2018 10:14 12,1 C 11,1 C 76 % 1020,5 hPa 0,0 l/m 10,7 km/h (2 Bft) O-NO 62 2 min 0,000 mm 1,8 UV-I 539 W/m 8,0 C 9,6 C 16,1 km/h (3 Bft) 97,87 %
14.04.2018 10:15 12,1 C 11,1 C 75 % 1020,5 hPa 0,0 l/m 11,6 km/h (2 Bft) O 92 1 min 0,000 mm 1,8 UV-I 555 W/m 7,8 C 9,1 C 12,9 km/h (3 Bft) 93,33 %
14.04.2018 10:16 12,2 C 11,1 C 75 % 1020,5 hPa 0,0 l/m 11,6 km/h (2 Bft) O 96 1 min 0,000 mm 1,8 UV-I 545 W/m 7,9 C 9,2 C 14,5 km/h (3 Bft) 100,00 %
14.04.2018 10:17 12,2 C 11,1 C 75 % 1020,5 hPa 0,0 l/m 8,6 km/h (2 Bft) O-NO 78 1 min 0,000 mm 1,7 UV-I 512 W/m 7,9 C 10,8 C 12,9 km/h (3 Bft) 95,83 %
14.04.2018 10:18 12,3 C 11,1 C 75 % 1020,5 hPa 0,0 l/m 13,9 km/h (3 Bft) O 94 1 min 0,000 mm 1,8 UV-I 530 W/m 8,0 C 8,4 C 17,7 km/h (3 Bft) 95,65 %
14.04.2018 10:19 12,3 C 11,1 C 74 % 1020,5 hPa 0,0 l/m 10,8 km/h (2 Bft) O-NO 74 1 min 0,000 mm 1,8 UV-I 526 W/m 7,8 C 9,7 C 16,1 km/h (3 Bft) 95,83 %
14.04.2018 10:20 12,3 C 11,1 C 74 % 1020,5 hPa 0,0 l/m 8,6 km/h (2 Bft) O 101 1 min 0,000 mm 1,9 UV-I 536 W/m 7,8 C 10,9 C 14,5 km/h (3 Bft) 96,15 %
14.04.2018 10:21 12,3 C 11,1 C 74 % 1020,5 hPa 0,0 l/m 12,1 km/h (2 Bft) O-SO 111 1 min 0,000 mm 1,9 UV-I 528 W/m 7,8 C 9,1 C 16,1 km/h (3 Bft) 91,67 %
14.04.2018 10:22 12,3 C 11,1 C 74 % 1020,5 hPa 0,0 l/m 12,2 km/h (2 Bft) O-NO 74 1 min 0,000 mm 1,8 UV-I 485 W/m 7,8 C 9,1 C 17,7 km/h (3 Bft) 96,15 %
14.04.2018 10:23 12,4 C 11,1 C 75 % 1020,5 hPa 0,0 l/m 11,3 km/h (2 Bft) O 86 1 min 0,000 mm 1,9 UV-I 530 W/m 8,1 C 9,6 C 16,1 km/h (3 Bft) 95,83 %
14.04.2018 10:24 12,5 C 11,1 C 76 % 1020,5 hPa 0,0 l/m 12,3 km/h (3 Bft) O 91 1 min 0,000 mm 1,9 UV-I 527 W/m 8,4 C 9,3 C 16,1 km/h (3 Bft) 95,65 %
14.04.2018 10:25 12,5 C 11,1 C 73 % 1020,5 hPa 0,0 l/m 13,9 km/h (3 Bft) O 92 1 min 0,000 mm 1,8 UV-I 493 W/m 7,8 C 8,6 C 17,7 km/h (3 Bft) 91,67 %
14.04.2018 10:26 12,5 C 11,1 C 73 % 1020,5 hPa 0,0 l/m 14,3 km/h (3 Bft) O-NO 67 1 min 0,000 mm 1,8 UV-I 478 W/m 7,8 C 8,4 C 16,1 km/h (3 Bft) 91,67 %
14.04.2018 10:27 12,4 C 10,6 C 73 % 1020,5 hPa 0,0 l/m 12,9 km/h (3 Bft) O-NO 66 1 min 0,000 mm 1,9 UV-I 509 W/m 7,7 C 8,9 C 16,1 km/h (3 Bft) 96,15 %
14.04.2018 10:28 12,4 C 11,1 C 74 % 1020,5 hPa 0,0 l/m 10,4 km/h (2 Bft) O 87 1 min 0,000 mm 1,9 UV-I 512 W/m 7,9 C 10,0 C 12,9 km/h (3 Bft) 95,83 %
14.04.2018 10:29 12,5 C 11,1 C 73 % 1020,5 hPa 0,0 l/m 14,9 km/h (3 Bft) O-NO 61 1 min 0,000 mm 1,9 UV-I 496 W/m 7,8 C 8,2 C 19,3 km/h (3 Bft) 92,31 %
14.04.2018 10:30 12,6 C 11,1 C 72 % 1020,5 hPa 0,0 l/m 12,9 km/h (3 Bft) O 90 1 min 0,000 mm 1,9 UV-I 519 W/m 7,7 C 9,1 C 16,1 km/h (3 Bft) 88,89 %
14.04.2018 10:31 12,7 C 11,1 C 73 % 1020,5 hPa 0,0 l/m 11,1 km/h (2 Bft) O-NO 67 1 min 0,000 mm 1,9 UV-I 487 W/m 8,0 C 10,0 C 14,5 km/h (3 Bft) 100,00 %
14.04.2018 10:32 12,7 C 11,1 C 73 % 1020,5 hPa 0,0 l/m 12,9 km/h (3 Bft) O 84 1 min 0,000 mm 1,9 UV-I 476 W/m 8,0 C 9,2 C 16,1 km/h (3 Bft) 91,67 %
14.04.2018 10:33 12,8 C 11,1 C 71 % 1020,5 hPa 0,0 l/m 11,1 km/h (2 Bft) O-NO 76 1 min 0,000 mm 2,0 UV-I 498 W/m 7,7 C 10,1 C 16,1 km/h (3 Bft) 95,65 %
14.04.2018 10:34 12,8 C 11,1 C 71 % 1020,5 hPa 0,0 l/m 15,5 km/h (3 Bft) O-NO 62 1 min 0,000 mm 2,0 UV-I 519 W/m 7,7 C 8,3 C 17,7 km/h (3 Bft) 95,83 %
14.04.2018 10:35 12,8 C 11,1 C 72 % 1020,5 hPa 0,0 l/m 12,5 km/h (3 Bft) O 80 1 min 0,000 mm 1,9 UV-I 504 W/m 7,9 C 9,5 C 16,1 km/h (3 Bft) 100,00 %
14.04.2018 10:36 12,8 C 11,1 C 72 % 1020,5 hPa 0,0 l/m 13,3 km/h (3 Bft) O 98 1 min 0,000 mm 2,0 UV-I 531 W/m 7,9 C 9,2 C 16,1 km/h (3 Bft) 91,67 %
14.04.2018 10:37 12,8 C 11,1 C 73 % 1020,5 hPa 0,0 l/m 14,3 km/h (3 Bft) O 85 1 min 0,000 mm 2,0 UV-I 536 W/m 8,1 C 8,8 C 17,7 km/h (3 Bft) 95,83 %
14.04.2018 10:38 12,8 C 11,1 C 72 % 1020,5 hPa 0,0 l/m 14,0 km/h (3 Bft) O-NO 65 1 min 0,000 mm 2,0 UV-I 528 W/m 7,9 C 8,9 C 16,1 km/h (3 Bft) 95,65 %
14.04.2018 10:39 12,8 C 11,1 C 73 % 1020,5 hPa 0,0 l/m 7,8 km/h (2 Bft) O-NO 78 1 min 0,000 mm 2,0 UV-I 517 W/m 8,1 C 11,9 C 11,3 km/h (2 Bft) 91,67 %
14.04.2018 10:40 12,9 C 11,1 C 73 % 1020,5 hPa 0,0 l/m 11,8 km/h (2 Bft) O 83 1 min 0,000 mm 2,1 UV-I 543 W/m 8,2 C 9,9 C 14,5 km/h (3 Bft) 100,00 %
14.04.2018 10:41 13,0 C 11,1 C 73 % 1020,5 hPa 0,0 l/m 10,8 km/h (2 Bft) O-NO 74 1 min 0,000 mm 2,1 UV-I 538 W/m 8,3 C 10,5 C 14,5 km/h (3 Bft) 91,67 %
14.04.2018 10:42 13,0 C 11,1 C 73 % 1020,5 hPa 0,0 l/m 13,3 km/h (3 Bft) O-NO 69 1 min 0,000 mm 2,1 UV-I 523 W/m 8,3 C 9,4 C 16,1 km/h (3 Bft) 100,00 %
14.04.2018 10:43 13,0 C 11,1 C 73 % 1020,5 hPa 0,0 l/m 10,9 km/h (2 Bft) O-NO 64 1 min 0,000 mm 2,2 UV-I 539 W/m 8,3 C 10,5 C 12,9 km/h (3 Bft) 92,59 %
14.04.2018 10:44 13,1 C 11,1 C 73 % 1020,5 hPa 0,0 l/m 9,8 km/h (2 Bft) NO 52 1 min 0,000 mm 2,1 UV-I 548 W/m 8,4 C 11,1 C 14,5 km/h (3 Bft) 96,15 %
14.04.2018 10:45 13,2 C 11,1 C 75 % 1020,4 hPa 0,0 l/m 14,1 km/h (3 Bft) NO 47 1 min 0,000 mm 2,2 UV-I 563 W/m 8,9 C 9,3 C 20,9 km/h (4 Bft) 100,00 %
14.04.2018 10:46 13,3 C 11,1 C 73 % 1020,4 hPa 0,0 l/m 15,7 km/h (3 Bft) NO 35 1 min 0,000 mm 2,2 UV-I 556 W/m 8,6 C 8,9 C 19,3 km/h (3 Bft) 95,65 %
14.04.2018 10:47 13,3 C 11,1 C 74 % 1020,4 hPa 0,0 l/m 12,3 km/h (3 Bft) O-NO 57 1 min 0,000 mm 2,2 UV-I 543 W/m 8,8 C 10,2 C 16,1 km/h (3 Bft) 100,00 %
14.04.2018 10:48 13,4 C 11,1 C 76 % 1020,5 hPa 0,0 l/m 15,2 km/h (3 Bft) O-NO 59 1 min 0,000 mm 2,2 UV-I 547 W/m 9,3 C 9,2 C 17,7 km/h (3 Bft) 88,46 %
14.04.2018 10:49 13,5 C 11,1 C 74 % 1020,5 hPa 0,0 l/m 11,6 km/h (2 Bft) N-NO 30 1 min 0,000 mm 2,2 UV-I 531 W/m 9,0 C 10,7 C 14,5 km/h (3 Bft) 100,00 %
14.04.2018 10:50 13,6 C 11,1 C 74 % 1020,4 hPa 0,0 l/m 13,9 km/h (3 Bft) O-NO 57 1 min 0,000 mm 2,2 UV-I 553 W/m 9,1 C 9,9 C 17,7 km/h (3 Bft) 95,65 %
14.04.2018 10:51 13,7 C 11,1 C 75 % 1020,4 hPa 0,0 l/m 13,5 km/h (3 Bft) NO 55 1 min 0,000 mm 2,2 UV-I 561 W/m 9,3 C 10,2 C 17,7 km/h (3 Bft) 100,00 %
14.04.2018 10:52 13,7 C 11,1 C 74 % 1020,4 hPa 0,0 l/m 10,5 km/h (2 Bft) NO 55 1 min 0,000 mm 2,2 UV-I 556 W/m 9,2 C 11,4 C 14,5 km/h (3 Bft) 91,30 %
14.04.2018 10:53 13,8 C 11,1 C 73 % 1020,4 hPa 0,0 l/m 8,7 km/h (2 Bft) O-NO 74 1 min 0,000 mm 2,3 UV-I 590 W/m 9,0 C 12,5 C 12,9 km/h (3 Bft) 95,83 %
14.04.2018 10:54 13,8 C 11,1 C 73 % 1020,4 hPa 0,0 l/m 9,4 km/h (2 Bft) N-NO 30 1 min 0,000 mm 2,3 UV-I 594 W/m 9,0 C 12,1 C 14,5 km/h (3 Bft) 92,86 %
14.04.2018 10:55 13,9 C 11,1 C 74 % 1020,4 hPa 0,0 l/m 12,1 km/h (2 Bft) NO 44 1 min 0,000 mm 2,3 UV-I 566 W/m 9,3 C 11,0 C 14,5 km/h (3 Bft) 95,83 %
14.04.2018 10:56 14,0 C 11,1 C 76 % 1020,4 hPa 0,0 l/m 13,2 km/h (3 Bft) NO 53 1 min 0,000 mm 2,3 UV-I 584 W/m 9,8 C 10,6 C 16,1 km/h (3 Bft) 91,30 %
14.04.2018 10:57 14,1 C 11,1 C 74 % 1020,3 hPa 0,0 l/m 10,9 km/h (2 Bft) O-NO 59 1 min 0,000 mm 2,3 UV-I 568 W/m 9,5 C 11,7 C 16,1 km/h (3 Bft) 96,30 %
14.04.2018 10:58 14,2 C 11,1 C 74 % 1020,4 hPa 0,0 l/m 13,7 km/h (3 Bft) NO 35 1 min 0,000 mm 2,3 UV-I 563 W/m 9,6 C 10,7 C 17,7 km/h (3 Bft) 100,00 %
14.04.2018 10:59 14,2 C 11,1 C 73 % 1020,4 hPa 0,0 l/m 15,8 km/h (3 Bft) N-NO 29 1 min 0,000 mm 2,3 UV-I 567 W/m 9,4 C 10,0 C 17,7 km/h (3 Bft) 95,83 %
14.04.2018 11:00 14,2 C 11,1 C 74 % 1020,4 hPa 0,0 l/m 12,4 km/h (3 Bft) O-NO 64 1 min 0,279 mm 2,3 UV-I 548 W/m 9,6 C 11,2 C 20,9 km/h (4 Bft) 100,00 %
14.04.2018 11:01 14,2 C 11,1 C 70 % 1020,4 hPa 0,0 l/m 9,2 km/h (2 Bft) NO 53 1 min 0,000 mm 2,3 UV-I 548 W/m 8,8 C 12,6 C 11,3 km/h (2 Bft) 95,83 %
14.04.2018 11:02 14,1 C 11,1 C 70 % 1020,3 hPa 0,0 l/m 10,8 km/h (2 Bft) O-NO 62 1 min 0,000 mm 2,3 UV-I 554 W/m 8,7 C 11,8 C 14,5 km/h (3 Bft) 100,00 %
14.04.2018 11:03 14,1 C 11,1 C 71 % 1020,4 hPa 0,0 l/m 14,6 km/h (3 Bft) O 80 1 min 0,000 mm 2,4 UV-I 576 W/m 8,9 C 10,2 C 17,7 km/h (3 Bft) 93,33 %
14.04.2018 11:04 14,0 C 11,1 C 69 % 1020,4 hPa 0,0 l/m 10,3 km/h (2 Bft) NO 48 1 min 0,000 mm 2,4 UV-I 572 W/m 8,4 C 11,9 C 14,5 km/h (3 Bft) 100,00 %
14.04.2018 11:05 14,1 C 11,1 C 71 % 1020,3 hPa 0,0 l/m 12,1 km/h (2 Bft) NO 46 1 min 0,000 mm 2,4 UV-I 590 W/m 8,9 C 11,2 C 17,7 km/h (3 Bft) 96,15 %
14.04.2018 11:06 14,2 C 11,1 C 73 % 1020,3 hPa 0,0 l/m 14,4 km/h (3 Bft) NO 51 1 min 0,000 mm 2,4 UV-I 601 W/m 9,4 C 10,4 C 16,1 km/h (3 Bft) 100,00 %
14.04.2018 11:07 14,3 C 11,1 C 72 % 1020,3 hPa 0,0 l/m 13,0 km/h (3 Bft) NO 40 1 min 0,000 mm 2,5 UV-I 602 W/m 9,3 C 11,1 C 16,1 km/h (3 Bft) 95,65 %
14.04.2018 11:08 14,2 C 11,1 C 70 % 1020,3 hPa 0,0 l/m 11,3 km/h (2 Bft) NO 44 1 min 0,000 mm 2,4 UV-I 566 W/m 8,8 C 11,6 C 16,1 km/h (3 Bft) 95,83 %
14.04.2018 11:09 14,2 C 11,1 C 70 % 1020,3 hPa 0,0 l/m 11,3 km/h (2 Bft) NO 55 1 min 0,000 mm 2,4 UV-I 574 W/m 8,8 C 11,6 C 16,1 km/h (3 Bft) 95,65 %
14.04.2018 11:10 14,2 C 11,1 C 69 % 1020,2 hPa 0,0 l/m 10,3 km/h (2 Bft) O 98 1 min 0,000 mm 2,5 UV-I 580 W/m 8,6 C 12,1 C 16,1 km/h (3 Bft) 95,83 %
14.04.2018 11:11 14,2 C 11,1 C 69 % 1020,3 hPa 0,0 l/m 10,1 km/h (2 Bft) O 91 1 min 0,000 mm 2,5 UV-I 587 W/m 8,6 C 12,2 C 12,9 km/h (3 Bft) 100,00 %
14.04.2018 11:12 14,2 C 11,1 C 68 % 1020,2 hPa 0,0 l/m 10,5 km/h (2 Bft) O-NO 58 1 min 0,000 mm 2,5 UV-I 582 W/m 8,4 C 12,0 C 14,5 km/h (3 Bft) 96,30 %
14.04.2018 11:13 14,2 C 11,1 C 71 % 1020,3 hPa 0,0 l/m 10,8 km/h (2 Bft) N-NO 28 1 min 0,000 mm 2,5 UV-I 588 W/m 9,0 C 11,9 C 14,5 km/h (3 Bft) 100,00 %
14.04.2018 11:14 14,3 C 11,1 C 71 % 1020,3 hPa 0,0 l/m 9,9 km/h (2 Bft) NO 51 1 min 0,000 mm 2,5 UV-I 598 W/m 9,1 C 12,4 C 12,9 km/h (3 Bft) 95,83 %
14.04.2018 11:15 14,5 C 11,1 C 73 % 1020,2 hPa 0,0 l/m 10,7 km/h (2 Bft) O-NO 66 1 min 0,000 mm 2,6 UV-I 614 W/m 9,7 C 12,2 C 17,7 km/h (3 Bft) 100,00 %
14.04.2018 11:16 14,6 C 11,1 C 72 % 1020,2 hPa 0,0 l/m 8,1 km/h (2 Bft) O-NO 66 1 min 0,000 mm 2,6 UV-I 593 W/m 9,6 C 13,6 C 11,3 km/h (2 Bft) 95,83 %
14.04.2018 11:17 14,6 C 11,1 C 71 % 1020,2 hPa 0,0 l/m 8,4 km/h (2 Bft) N-NO 32 1 min 0,000 mm 2,5 UV-I 596 W/m 9,4 C 13,5 C 12,9 km/h (3 Bft) 91,30 %
14.04.2018 11:18 14,7 C 11,1 C 70 % 1020,2 hPa 0,0 l/m 7,6 km/h (2 Bft) NO 51 1 min 0,000 mm 2,6 UV-I 634 W/m 9,3 C 14,0 C 9,7 km/h (2 Bft) 100,00 %
14.04.2018 11:19 14,7 C 11,1 C 69 % 1020,1 hPa 0,0 l/m 9,3 km/h (2 Bft) NO 55 1 min 0,000 mm 2,7 UV-I 641 W/m 9,1 C 13,1 C 16,1 km/h (3 Bft) 95,83 %
14.04.2018 11:20 14,8 C 11,1 C 69 % 1020,2 hPa 0,0 l/m 13,1 km/h (3 Bft) N-NO 26 1 min 0,000 mm 2,7 UV-I 643 W/m 9,2 C 11,6 C 17,7 km/h (3 Bft) 100,00 %
14.04.2018 11:21 14,8 C 11,1 C 71 % 1020,1 hPa 0,0 l/m 11,5 km/h (2 Bft) N-NO 30 1 min 0,000 mm 2,6 UV-I 590 W/m 9,6 C 12,2 C 14,5 km/h (3 Bft) 95,83 %
14.04.2018 11:22 14,9 C 11,1 C 72 % 1020,1 hPa 0,0 l/m 8,5 km/h (2 Bft) NO 39 1 min 0,000 mm 2,6 UV-I 579 W/m 9,9 C 13,7 C 11,3 km/h (2 Bft) 100,00 %
14.04.2018 11:23 14,9 C 11,1 C 71 % 1020,1 hPa 0,0 l/m 9,3 km/h (2 Bft) O-NO 65 1 min 0,000 mm 2,6 UV-I 584 W/m 9,7 C 13,3 C 16,1 km/h (3 Bft) 95,83 %
14.04.2018 11:24 14,9 C 11,1 C 71 % 1020,1 hPa 0,0 l/m 9,7 km/h (2 Bft) O-NO 57 1 min 0,000 mm 2,6 UV-I 601 W/m 9,7 C 13,1 C 12,9 km/h (3 Bft) 100,00 %
14.04.2018 11:25 14,9 C 11,1 C 67 % 1020,1 hPa 0,0 l/m 6,8 km/h (2 Bft) NO 54 1 min 0,000 mm 2,7 UV-I 605 W/m 8,8 C 14,7 C 11,3 km/h (2 Bft) 95,83 %
14.04.2018 11:26 14,8 C 11,1 C 67 % 1020,1 hPa 0,0 l/m 10,6 km/h (2 Bft) O-NO 61 1 min 0,000 mm 2,7 UV-I 607 W/m 8,7 C 12,6 C 16,1 km/h (3 Bft) 100,00 %
14.04.2018 11:27 14,9 C 11,1 C 69 % 1020,0 hPa 0,0 l/m 13,1 km/h (3 Bft) NO 51 1 min 0,000 mm 2,7 UV-I 618 W/m 9,3 C 11,7 C 17,7 km/h (3 Bft) 95,83 %
14.04.2018 11:28 14,9 C 11,1 C 70 % 1020,0 hPa 0,0 l/m 14,6 km/h (3 Bft) NO 42 1 min 0,000 mm 2,7 UV-I 630 W/m 9,5 C 11,2 C 17,7 km/h (3 Bft) 96,15 %
14.04.2018 11:29 15,1 C 11,1 C 70 % 1020,0 hPa 0,0 l/m 11,8 km/h (2 Bft) NO 40 1 min 0,000 mm 2,8 UV-I 638 W/m 9,7 C 12,5 C 16,1 km/h (3 Bft) 100,00 %
14.04.2018 11:30 15,1 C 11,1 C 69 % 1020,0 hPa 0,0 l/m 14,0 km/h (3 Bft) NO 49 1 min 0,000 mm 2,8 UV-I 631 W/m 9,5 C 11,6 C 16,1 km/h (3 Bft) 95,65 %
14.04.2018 11:31 15,1 C 11,1 C 70 % 1020,0 hPa 0,0 l/m 11,2 km/h (2 Bft) NO 40 1 min 0,000 mm 2,8 UV-I 646 W/m 9,7 C 12,7 C 14,5 km/h (3 Bft) 95,83 %
14.04.2018 11:32 15,2 C 11,1 C 72 % 1020,0 hPa 0,0 l/m 12,9 km/h (3 Bft) NO 39 1 min 0,000 mm 2,9 UV-I 663 W/m 10,2 C 12,2 C 17,7 km/h (3 Bft) 95,65 %
14.04.2018 11:33 15,3 C 11,1 C 70 % 1020,0 hPa 0,0 l/m 13,8 km/h (3 Bft) NO 45 1 min 0,000 mm 2,9 UV-I 665 W/m 9,9 C 12,0 C 16,1 km/h (3 Bft) 100,00 %
14.04.2018 11:34 15,2 C 11,1 C 68 % 1020,0 hPa 0,0 l/m 10,7 km/h (2 Bft) N-NO 30 1 min 0,000 mm 2,9 UV-I 666 W/m 9,3 C 13,0 C 14,5 km/h (3 Bft) 91,30 %
14.04.2018 11:35 15,3 C 11,1 C 69 % 1020,0 hPa 0,0 l/m 9,3 km/h (2 Bft) N-NO 19 1 min 0,000 mm 2,9 UV-I 675 W/m 9,6 C 13,8 C 12,9 km/h (3 Bft) 95,83 %
14.04.2018 11:36 15,4 C 11,1 C 71 % 1020,0 hPa 0,0 l/m 13,4 km/h (3 Bft) NO 52 1 min 0,000 mm 2,9 UV-I 670 W/m 10,2 C 12,2 C 17,7 km/h (3 Bft) 91,67 %
14.04.2018 11:37 15,5 C 11,1 C 67 % 1020,0 hPa 0,0 l/m 9,7 km/h (2 Bft) O 79 1 min 0,000 mm 2,9 UV-I 660 W/m 9,4 C 13,8 C 14,5 km/h (3 Bft) 100,00 %
14.04.2018 11:38 15,5 C 11,1 C 67 % 1020,0 hPa 0,0 l/m 9,7 km/h (2 Bft) NO 42 1 min 0,000 mm 2,9 UV-I 660 W/m 9,4 C 13,8 C 16,1 km/h (3 Bft) 95,83 %
14.04.2018 11:39 15,5 C 11,1 C 67 % 1020,0 hPa 0,0 l/m 10,4 km/h (2 Bft) NO 43 1 min 0,000 mm 2,9 UV-I 667 W/m 9,4 C 13,5 C 19,3 km/h (3 Bft) 100,00 %
14.04.2018 11:40 15,6 C 11,1 C 70 % 1020,0 hPa 0,0 l/m 17,1 km/h (3 Bft) NO 51 1 min 0,000 mm 2,9 UV-I 669 W/m 10,1 C 11,3 C 19,3 km/h (3 Bft) 95,83 %
14.04.2018 11:41 15,5 C 11,1 C 66 % 1020,0 hPa 0,0 l/m 12,2 km/h (2 Bft) NO 42 1 min 0,000 mm 3,0 UV-I 647 W/m 9,2 C 12,8 C 17,7 km/h (3 Bft) 100,00 %
14.04.2018 11:42 15,5 C 11,1 C 68 % 1019,9 hPa 0,0 l/m 15,4 km/h (3 Bft) NO 44 1 min 0,000 mm 2,9 UV-I 654 W/m 9,6 C 11,7 C 19,3 km/h (3 Bft) 97,44 %
14.04.2018 11:43 15,4 C 11,1 C 67 % 1019,9 hPa 0,0 l/m 12,9 km/h (3 Bft) NO 40 1 min 0,000 mm 2,8 UV-I 609 W/m 9,3 C 12,4 C 17,7 km/h (3 Bft) 95,65 %
14.04.2018 11:44 15,5 C 11,1 C 69 % 1019,9 hPa 0,0 l/m 11,2 km/h (2 Bft) O-NO 65 1 min 0,000 mm 3,0 UV-I 656 W/m 9,8 C 13,2 C 16,1 km/h (3 Bft) 100,00 %
14.04.2018 11:45 15,4 C 11,1 C 67 % 1019,9 hPa 0,0 l/m 11,5 km/h (2 Bft) NO 36 1 min 0,000 mm 3,0 UV-I 654 W/m 9,3 C 12,9 C 17,7 km/h (3 Bft) 95,65 %
14.04.2018 11:46 15,5 C 11,1 C 68 % 1019,9 hPa 0,0 l/m 11,4 km/h (2 Bft) NO 42 1 min 0,000 mm 3,0 UV-I 672 W/m 9,6 C 13,1 C 16,1 km/h (3 Bft) 100,00 %
14.04.2018 11:47 15,6 C 11,1 C 67 % 1019,9 hPa 0,0 l/m 9,6 km/h (2 Bft) NO 40 1 min 0,000 mm 3,0 UV-I 660 W/m 9,5 C 14,0 C 14,5 km/h (3 Bft) 95,65 %
14.04.2018 11:48 15,6 C 11,1 C 68 % 1019,9 hPa 0,0 l/m 15,2 km/h (3 Bft) NO 34 1 min 0,000 mm 3,0 UV-I 665 W/m 9,7 C 11,9 C 19,3 km/h (3 Bft) 100,00 %
14.04.2018 11:49 15,7 C 11,1 C 69 % 1019,9 hPa 0,0 l/m 16,7 km/h (3 Bft) NO 34 1 min 0,000 mm 3,0 UV-I 676 W/m 10,0 C 11,5 C 19,3 km/h (3 Bft) 95,65 %
14.04.2018 11:50 15,7 C 11,1 C 68 % 1019,9 hPa 0,0 l/m 15,7 km/h (3 Bft) N 11 1 min 0,000 mm 3,1 UV-I 679 W/m 9,8 C 11,8 C 19,3 km/h (3 Bft) 95,83 %
14.04.2018 11:51 15,8 C 11,1 C 68 % 1019,9 hPa 0,0 l/m 12,9 km/h (3 Bft) NO 36 1 min 0,000 mm 3,1 UV-I 680 W/m 9,9 C 12,9 C 16,1 km/h (3 Bft) 95,65 %
14.04.2018 11:52 15,9 C 11,1 C 69 % 1019,9 hPa 0,0 l/m 11,5 km/h (2 Bft) NO 38 1 min 0,000 mm 3,1 UV-I 687 W/m 10,2 C 13,5 C 16,1 km/h (3 Bft) 92,59 %
14.04.2018 11:53 16,1 C 11,1 C 68 % 1019,9 hPa 0,0 l/m 13,4 km/h (3 Bft) O-NO 66 1 min 0,000 mm 3,1 UV-I 690 W/m 10,2 C 13,0 C 16,1 km/h (3 Bft) 100,00 %
14.04.2018 11:54 16,1 C 11,1 C 65 % 1019,9 hPa 0,0 l/m 15,6 km/h (3 Bft) NO 42 1 min 0,000 mm 3,1 UV-I 678 W/m 9,5 C 12,3 C 17,7 km/h (3 Bft) 100,00 %
14.04.2018 11:55 16,1 C 11,1 C 66 % 1019,9 hPa 0,0 l/m 12,4 km/h (3 Bft) O 82 1 min 0,000 mm 3,1 UV-I 675 W/m 9,7 C 13,4 C 17,7 km/h (3 Bft) 91,67 %
14.04.2018 11:56 16,0 C 11,1 C 66 % 1019,8 hPa 0,0 l/m 11,3 km/h (2 Bft) NO 38 1 min 0,000 mm 3,1 UV-I 679 W/m 9,7 C 13,7 C 16,1 km/h (3 Bft) 95,65 %
14.04.2018 11:57 16,0 C 11,1 C 65 % 1019,8 hPa 0,0 l/m 8,6 km/h (2 Bft) O-NO 66 1 min 0,000 mm 3,1 UV-I 676 W/m 9,4 C 14,9 C 11,3 km/h (2 Bft) 95,83 %
14.04.2018 11:58 16,0 C 11,1 C 67 % 1019,8 hPa 0,0 l/m 12,7 km/h (3 Bft) N-NO 31 1 min 0,000 mm 3,1 UV-I 692 W/m 9,9 C 13,2 C 19,3 km/h (3 Bft) 91,30 %
14.04.2018 11:59 15,9 C 11,1 C 66 % 1019,8 hPa 0,0 l/m 8,5 km/h (2 Bft) N 11 1 min 0,000 mm 3,2 UV-I 704 W/m 9,6 C 14,8 C 14,5 km/h (3 Bft) 100,00 %
14.04.2018 12:00 15,9 C 11,1 C 66 % 1019,8 hPa 0,0 l/m 9,7 km/h (2 Bft) NO 42 1 min 0,000 mm 3,2 UV-I 697 W/m 9,6 C 14,2 C 14,5 km/h (3 Bft) 92,31 %
14.04.2018 12:01 16,0 C 11,1 C 67 % 1019,8 hPa 0,0 l/m 9,2 km/h (2 Bft) N-NO 32 1 min 0,381 mm 3,2 UV-I 705 W/m 9,9 C 14,6 C 12,9 km/h (3 Bft) 100,00 %
14.04.2018 12:02 16,0 C 11,1 C 66 % 1019,8 hPa 0,0 l/m 8,6 km/h (2 Bft) N-NO 32 1 min 0,000 mm 3,2 UV-I 696 W/m 9,7 C 14,9 C 9,7 km/h (2 Bft) 91,30 %
14.04.2018 12:03 16,1 C 11,1 C 63 % 1019,8 hPa 0,0 l/m 8,7 km/h (2 Bft) O-NO 69 1 min 0,000 mm 3,2 UV-I 685 W/m 9,1 C 14,9 C 11,3 km/h (2 Bft) 95,83 %
14.04.2018 12:04 16,1 C 11,1 C 62 % 1019,8 hPa 0,0 l/m 6,8 km/h (2 Bft) N-NO 33 1 min 0,000 mm 3,1 UV-I 662 W/m 8,8 C 15,9 C 8,0 km/h (2 Bft) 96,15 %
14.04.2018 12:05 16,3 C 11,1 C 66 % 1019,8 hPa 0,0 l/m 9,8 km/h (2 Bft) N 5 1 min 0,000 mm 3,1 UV-I 660 W/m 9,9 C 14,6 C 14,5 km/h (3 Bft) 95,83 %
14.04.2018 12:06 16,4 C 11,1 C 64 % 1019,8 hPa 0,0 l/m 14,3 km/h (3 Bft) NO 52 1 min 0,000 mm 3,2 UV-I 670 W/m 9,6 C 13,1 C 20,9 km/h (4 Bft) 100,00 %
14.04.2018 12:07 16,5 C 11,1 C 63 % 1019,8 hPa 0,0 l/m 15,6 km/h (3 Bft) NO 42 1 min 0,000 mm 3,3 UV-I 716 W/m 9,4 C 12,8 C 17,7 km/h (3 Bft) 91,67 %
14.04.2018 12:08 16,6 C 11,1 C 63 % 1019,8 hPa 0,0 l/m 13,7 km/h (3 Bft) NO 52 1 min 0,000 mm 3,2 UV-I 684 W/m 9,5 C 13,5 C 17,7 km/h (3 Bft) 95,65 %
14.04.2018 12:09 16,7 C 11,1 C 66 % 1019,8 hPa 0,0 l/m 11,3 km/h (2 Bft) NO 55 1 min 0,000 mm 3,2 UV-I 663 W/m 10,3 C 14,5 C 16,1 km/h (3 Bft) 91,67 %
14.04.2018 12:10 16,7 C 11,1 C 61 % 1019,7 hPa 0,0 l/m 10,1 km/h (2 Bft) O-NO 57 1 min 0,000 mm 3,2 UV-I 683 W/m 9,1 C 15,0 C 14,5 km/h (3 Bft) 100,00 %
14.04.2018 12:11 16,7 C 11,1 C 65 % 1019,7 hPa 0,0 l/m 9,2 km/h (2 Bft) N-NO 19 1 min 0,000 mm 3,2 UV-I 688 W/m 10,1 C 15,3 C 14,5 km/h (3 Bft) 83,33 %
14.04.2018 12:12 16,8 C 11,1 C 66 % 1019,7 hPa 0,0 l/m 13,0 km/h (3 Bft) NO 34 1 min 0,000 mm 3,2 UV-I 694 W/m 10,4 C 14,0 C 14,5 km/h (3 Bft) 96,77 %
14.04.2018 12:14 17,0 C 11,1 C 66 % 1019,7 hPa 0,0 l/m 12,5 km/h (3 Bft) NO 40 2 min 0,000 mm 3,2 UV-I 690 W/m 10,6 C 14,4 C 16,1 km/h (3 Bft) 93,62 %
14.04.2018 12:15 17,0 C 11,1 C 63 % 1019,7 hPa 0,0 l/m 12,5 km/h (3 Bft) N-NO 15 1 min 0,000 mm 3,3 UV-I 688 W/m 9,9 C 14,4 C 17,7 km/h (3 Bft) 95,83 %
14.04.2018 12:16 17,1 C 11,1 C 64 % 1019,8 hPa 0,0 l/m 10,9 km/h (2 Bft) O-NO 74 1 min 0,000 mm 3,3 UV-I 712 W/m 10,2 C 15,1 C 14,5 km/h (3 Bft) 91,30 %
14.04.2018 12:17 17,0 C 11,1 C 57 % 1019,8 hPa 0,0 l/m 11,2 km/h (2 Bft) O 89 1 min 0,000 mm 3,3 UV-I 716 W/m 8,4 C 14,9 C 14,5 km/h (3 Bft) 95,83 %
14.04.2018 12:18 16,9 C 11,1 C 57 % 1019,8 hPa 0,0 l/m 9,0 km/h (2 Bft) O-SO 117 1 min 0,000 mm 3,4 UV-I 732 W/m 8,3 C 15,6 C 12,9 km/h (3 Bft) 91,67 %
14.04.2018 12:19 16,7 C 11,1 C 56 % 1019,7 hPa 0,0 l/m 11,1 km/h (2 Bft) O 88 1 min 0,000 mm 3,4 UV-I 728 W/m 7,9 C 14,6 C 14,5 km/h (3 Bft) 100,00 %
14.04.2018 12:20 16,7 C 11,1 C 58 % 1019,7 hPa 0,0 l/m 8,4 km/h (2 Bft) O-SO 115 1 min 0,000 mm 3,4 UV-I 726 W/m 8,4 C 15,7 C 14,5 km/h (3 Bft) 100,00 %
14.04.2018 12:21 16,7 C 11,1 C 59 % 1019,7 hPa 0,0 l/m 7,6 km/h (2 Bft) O-SO 107 1 min 0,000 mm 3,4 UV-I 718 W/m 8,6 C 16,1 C 11,3 km/h (2 Bft) 100,00 %
14.04.2018 12:22 16,8 C 11,1 C 60 % 1019,7 hPa 0,0 l/m 9,9 km/h (2 Bft) O 84 1 min 0,000 mm 3,4 UV-I 701 W/m 9,0 C 15,1 C 19,3 km/h (3 Bft) 100,00 %
14.04.2018 12:23 16,8 C 11,1 C 56 % 1019,7 hPa 0,0 l/m 15,6 km/h (3 Bft) O-NO 77 1 min 0,000 mm 3,3 UV-I 687 W/m 8,0 C 13,2 C 20,9 km/h (4 Bft) 100,00 %
14.04.2018 12:24 16,7 C 11,1 C 57 % 1019,7 hPa 0,0 l/m 16,4 km/h (3 Bft) O 80 1 min 0,000 mm 3,4 UV-I 692 W/m 8,1 C 12,9 C 22,5 km/h (4 Bft) 100,00 %
14.04.2018 12:25 16,7 C 11,1 C 56 % 1019,8 hPa 0,0 l/m 16,6 km/h (3 Bft) O 84 1 min 0,000 mm 3,4 UV-I 705 W/m 7,9 C 12,8 C 20,9 km/h (4 Bft) 100,00 %
14.04.2018 12:26 16,7 C 11,1 C 54 % 1019,7 hPa 0,0 l/m 12,3 km/h (3 Bft) O 79 1 min 0,000 mm 3,4 UV-I 719 W/m 7,3 C 14,1 C 16,1 km/h (3 Bft) 100,00 %
14.04.2018 12:27 16,7 C 11,1 C 57 % 1019,7 hPa 0,0 l/m 13,7 km/h (3 Bft) O 84 1 min 0,000 mm 3,5 UV-I 727 W/m 8,1 C 13,7 C 19,3 km/h (3 Bft) 100,00 %
14.04.2018 12:28 16,7 C 11,1 C 56 % 1019,7 hPa 0,0 l/m 13,5 km/h (3 Bft) O 82 1 min 0,000 mm 3,5 UV-I 729 W/m 7,9 C 13,7 C 16,1 km/h (3 Bft) 100,00 %
14.04.2018 12:29 16,7 C 11,1 C 55 % 1019,7 hPa 0,0 l/m 15,9 km/h (3 Bft) O-NO 61 1 min 0,000 mm 3,5 UV-I 726 W/m 7,6 C 13,0 C 17,7 km/h (3 Bft) 100,00 %
14.04.2018 12:30 16,7 C 11,1 C 56 % 1019,7 hPa 0,0 l/m 17,6 km/h (3 Bft) O-NO 74 1 min 0,000 mm 3,5 UV-I 728 W/m 7,9 C 12,5 C 22,5 km/h (4 Bft) 100,00 %
14.04.2018 12:31 16,7 C 11,1 C 55 % 1019,7 hPa 0,0 l/m 16,6 km/h (3 Bft) NO 40 1 min 0,000 mm 3,5 UV-I 726 W/m 7,6 C 12,8 C 20,9 km/h (4 Bft) 100,00 %
14.04.2018 12:32 16,7 C 11,1 C 56 % 1019,7 hPa 0,0 l/m 14,6 km/h (3 Bft) O-NO 78 1 min 0,000 mm 3,5 UV-I 729 W/m 7,9 C 13,4 C 19,3 km/h (3 Bft) 100,00 %
14.04.2018 12:33 16,9 C 11,1 C 60 % 1019,7 hPa 0,0 l/m 12,9 km/h (3 Bft) NO 55 1 min 0,000 mm 3,4 UV-I 711 W/m 9,1 C 14,2 C 20,9 km/h (4 Bft) 100,00 %
14.04.2018 12:34 17,0 C 11,1 C 61 % 1019,7 hPa 0,0 l/m 15,5 km/h (3 Bft) O 84 1 min 0,000 mm 3,4 UV-I 713 W/m 9,4 C 13,5 C 19,3 km/h (3 Bft) 100,00 %
14.04.2018 12:35 16,9 C 11,1 C 55 % 1019,7 hPa 0,0 l/m 14,0 km/h (3 Bft) O 97 1 min 0,000 mm 3,5 UV-I 731 W/m 7,8 C 13,8 C 17,7 km/h (3 Bft) 100,00 %
14.04.2018 12:36 16,9 C 11,1 C 56 % 1019,7 hPa 0,0 l/m 13,9 km/h (3 Bft) O 92 1 min 0,000 mm 3,5 UV-I 739 W/m 8,1 C 13,8 C 16,1 km/h (3 Bft) 100,00 %
14.04.2018 12:37 16,9 C 11,1 C 56 % 1019,7 hPa 0,0 l/m 11,7 km/h (2 Bft) O 97 1 min 0,000 mm 3,5 UV-I 721 W/m 8,1 C 14,6 C 16,1 km/h (3 Bft) 100,00 %
14.04.2018 12:38 16,8 C 11,1 C 55 % 1019,7 hPa 0,0 l/m 13,7 km/h (3 Bft) O-SO 107 1 min 0,000 mm 3,5 UV-I 719 W/m 7,7 C 13,8 C 17,7 km/h (3 Bft) 100,00 %
14.04.2018 12:39 16,9 C 11,1 C 56 % 1019,6 hPa 0,0 l/m 19,6 km/h (3 Bft) O-NO 58 1 min 0,000 mm 3,5 UV-I 728 W/m 8,1 C 12,3 C 24,1 km/h (4 Bft) 100,00 %
14.04.2018 12:40 17,1 C 11,1 C 59 % 1019,6 hPa 0,0 l/m 18,4 km/h (3 Bft) O-NO 76 1 min 0,000 mm 3,5 UV-I 723 W/m 9,0 C 12,8 C 27,4 km/h (4 Bft) 95,65 %
14.04.2018 12:41 17,1 C 11,1 C 57 % 1019,7 hPa 0,0 l/m 10,1 km/h (2 Bft) O 83 1 min 0,000 mm 3,5 UV-I 712 W/m 8,5 C 15,4 C 14,5 km/h (3 Bft) 95,83 %
14.04.2018 12:42 17,1 C 11,1 C 57 % 1019,7 hPa 0,0 l/m 14,1 km/h (3 Bft) O-NO 78 1 min 0,000 mm 3,4 UV-I 717 W/m 8,5 C 14,0 C 22,5 km/h (4 Bft) 91,30 %
14.04.2018 12:43 17,1 C 11,1 C 56 % 1019,7 hPa 0,0 l/m 15,6 km/h (3 Bft) O-NO 78 1 min 0,000 mm 3,6 UV-I 741 W/m 8,3 C 13,6 C 19,3 km/h (3 Bft) 100,00 %
14.04.2018 12:44 17,0 C 11,1 C 56 % 1019,7 hPa 0,0 l/m 13,1 km/h (3 Bft) O-NO 67 1 min 0,000 mm 3,5 UV-I 719 W/m 8,2 C 14,2 C 16,1 km/h (3 Bft) 95,45 %
14.04.2018 12:45 17,0 C 11,1 C 56 % 1019,6 hPa 0,0 l/m 14,8 km/h (3 Bft) O-SO 111 1 min 0,000 mm 3,4 UV-I 684 W/m 8,2 C 13,7 C 17,7 km/h (3 Bft) 100,00 %
14.04.2018 12:46 17,1 C 11,1 C 57 % 1019,6 hPa 0,0 l/m 14,1 km/h (3 Bft) O 101 1 min 0,000 mm 3,4 UV-I 678 W/m 8,5 C 14,0 C 17,7 km/h (3 Bft) 100,00 %
14.04.2018 12:47 17,2 C 11,1 C 57 % 1019,6 hPa 0,0 l/m 14,6 km/h (3 Bft) O-NO 70 1 min 0,000 mm 3,3 UV-I 677 W/m 8,6 C 14,0 C 22,5 km/h (4 Bft) 100,00 %
14.04.2018 12:48 17,1 C 11,1 C 55 % 1019,7 hPa 0,0 l/m 16,4 km/h (3 Bft) O 92 1 min 0,000 mm 3,4 UV-I 671 W/m 8,0 C 13,3 C 22,5 km/h (4 Bft) 100,00 %
14.04.2018 12:49 17,1 C 11,1 C 56 % 1019,6 hPa 0,0 l/m 17,4 km/h (3 Bft) O-NO 67 1 min 0,000 mm 3,5 UV-I 704 W/m 8,3 C 13,1 C 22,5 km/h (4 Bft) 95,83 %
14.04.2018 12:50 17,1 C 11,1 C 56 % 1019,6 hPa 0,0 l/m 17,5 km/h (3 Bft) O-NO 74 1 min 0,000 mm 3,5 UV-I 708 W/m 8,3 C 13,1 C 22,5 km/h (4 Bft) 100,00 %
14.04.2018 12:51 17,2 C 11,1 C 57 % 1019,6 hPa 0,0 l/m 14,0 km/h (3 Bft) O-NO 70 1 min 0,000 mm 3,5 UV-I 725 W/m 8,6 C 14,2 C 17,7 km/h (3 Bft) 100,00 %
14.04.2018 12:52 17,3 C 11,1 C 56 % 1019,6 hPa 0,0 l/m 13,1 km/h (3 Bft) O 86 1 min 0,000 mm 3,5 UV-I 715 W/m 8,4 C 14,6 C 17,7 km/h (3 Bft) 95,65 %
14.04.2018 12:53 17,3 C 11,1 C 55 % 1019,6 hPa 0,0 l/m 13,1 km/h (3 Bft) NO 51 1 min 0,000 mm 3,5 UV-I 709 W/m 8,2 C 14,6 C 16,1 km/h (3 Bft) 100,00 %
14.04.2018 12:54 17,3 C 11,1 C 55 % 1019,7 hPa 0,0 l/m 9,4 km/h (2 Bft) O-SO 113 1 min 0,000 mm 3,3 UV-I 685 W/m 8,2 C 15,9 C 16,1 km/h (3 Bft) 95,65 %
14.04.2018 12:55 17,2 C 11,1 C 55 % 1019,6 hPa 0,0 l/m 12,3 km/h (3 Bft) O-SO 106 1 min 0,000 mm 3,4 UV-I 714 W/m 8,1 C 14,7 C 17,7 km/h (3 Bft) 100,00 %
14.04.2018 12:56 17,3 C 11,1 C 58 % 1019,6 hPa 0,0 l/m 8,1 km/h (2 Bft) N-NO 30 1 min 0,000 mm 3,5 UV-I 718 W/m 9,0 C 16,5 C 16,1 km/h (3 Bft) 100,00 %
14.04.2018 12:57 17,6 C 11,1 C 59 % 1019,5 hPa 0,0 l/m 17,6 km/h (3 Bft) NO 34 1 min 0,000 mm 3,6 UV-I 722 W/m 9,5 C 13,7 C 19,3 km/h (3 Bft) 95,83 %
14.04.2018 12:58 17,7 C 11,1 C 58 % 1019,5 hPa 0,0 l/m 16,6 km/h (3 Bft) NO 36 1 min 0,000 mm 3,5 UV-I 711 W/m 9,3 C 14,0 C 19,3 km/h (3 Bft) 100,00 %
14.04.2018 12:59 17,8 C 11,1 C 56 % 1019,6 hPa 0,0 l/m 19,0 km/h (3 Bft) O-NO 59 1 min 0,000 mm 3,5 UV-I 701 W/m 8,9 C 13,6 C 24,1 km/h (4 Bft) 100,00 %
14.04.2018 13:00 17,9 C 11,1 C 56 % 1019,6 hPa 0,0 l/m 16,3 km/h (3 Bft) NO 56 1 min 0,000 mm 3,4 UV-I 687 W/m 9,0 C 14,4 C 24,1 km/h (4 Bft) 100,00 %
14.04.2018 13:01 17,8 C 11,1 C 54 % 1019,5 hPa 0,0 l/m 18,4 km/h (3 Bft) NO 53 1 min 0,457 mm 3,5 UV-I 697 W/m 8,4 C 13,7 C 22,5 km/h (4 Bft) 100,00 %
14.04.2018 13:02 17,8 C 11,1 C 56 % 1019,5 hPa 0,0 l/m 15,1 km/h (3 Bft) O-NO 71 1 min 0,000 mm 3,5 UV-I 711 W/m 8,9 C 14,6 C 19,3 km/h (3 Bft) 100,00 %
14.04.2018 13:03 17,8 C 11,1 C 54 % 1019,5 hPa 0,0 l/m 11,0 km/h (2 Bft) O-NO 57 1 min 0,000 mm 3,5 UV-I 706 W/m 8,4 C 15,8 C 16,1 km/h (3 Bft) 95,65 %
14.04.2018 13:04 17,8 C 11,1 C 56 % 1019,5 hPa 0,0 l/m 7,9 km/h (2 Bft) O 101 1 min 0,000 mm 3,5 UV-I 706 W/m 8,9 C 17,1 C 12,9 km/h (3 Bft) 100,00 %
14.04.2018 13:05 17,7 C 11,1 C 53 % 1019,5 hPa 0,0 l/m 15,8 km/h (3 Bft) O-SO 102 1 min 0,000 mm 3,5 UV-I 712 W/m 8,0 C 14,2 C 24,1 km/h (4 Bft) 100,00 %
14.04.2018 13:06 17,7 C 11,1 C 53 % 1019,5 hPa 0,0 l/m 14,5 km/h (3 Bft) O-NO 65 1 min 0,000 mm 3,5 UV-I 715 W/m 8,0 C 14,6 C 17,7 km/h (3 Bft) 100,00 %
14.04.2018 13:07 17,7 C 11,1 C 52 % 1019,5 hPa 0,0 l/m 14,5 km/h (3 Bft) O-NO 76 1 min 0,000 mm 3,5 UV-I 708 W/m 7,7 C 14,6 C 16,1 km/h (3 Bft) 100,00 %
14.04.2018 13:08 17,6 C 11,1 C 51 % 1019,5 hPa 0,0 l/m 8,6 km/h (2 Bft) O-NO 61 1 min 0,000 mm 3,5 UV-I 725 W/m 7,3 C 16,6 C 12,9 km/h (3 Bft) 100,00 %
14.04.2018 13:09 17,6 C 11,1 C 52 % 1019,5 hPa 0,0 l/m 11,0 km/h (2 Bft) O-NO 68 1 min 0,000 mm 3,6 UV-I 731 W/m 7,6 C 15,6 C 14,5 km/h (3 Bft) 100,00 %
14.04.2018 13:10 17,7 C 11,1 C 53 % 1019,4 hPa 0,0 l/m 17,9 km/h (3 Bft) O 88 1 min 0,000 mm 3,6 UV-I 723 W/m 8,0 C 13,7 C 22,5 km/h (4 Bft) 95,83 %
14.04.2018 13:11 17,7 C 11,1 C 54 % 1019,5 hPa 0,0 l/m 14,7 km/h (3 Bft) O 82 1 min 0,000 mm 3,6 UV-I 732 W/m 8,3 C 14,5 C 19,3 km/h (3 Bft) 100,00 %
14.04.2018 13:12 17,7 C 11,1 C 52 % 1019,5 hPa 0,0 l/m 13,6 km/h (3 Bft) O-SO 103 1 min 0,000 mm 3,6 UV-I 728 W/m 7,7 C 14,9 C 19,3 km/h (3 Bft) 100,00 %
14.04.2018 13:13 17,7 C 11,1 C 52 % 1019,4 hPa 0,0 l/m 10,0 km/h (2 Bft) O 96 1 min 0,000 mm 3,5 UV-I 697 W/m 7,7 C 16,1 C 14,5 km/h (3 Bft) 100,00 %
14.04.2018 13:14 17,7 C 11,1 C 53 % 1019,4 hPa 0,0 l/m 9,1 km/h (2 Bft) O-SO 113 1 min 0,000 mm 3,4 UV-I 666 W/m 8,0 C 16,5 C 14,5 km/h (3 Bft) 100,00 %
14.04.2018 13:15 17,6 C 11,1 C 52 % 1019,4 hPa 0,0 l/m 11,1 km/h (2 Bft) O 94 1 min 0,000 mm 3,3 UV-I 613 W/m 7,6 C 15,6 C 14,5 km/h (3 Bft) 95,65 %
14.04.2018 13:16 17,7 C 11,1 C 53 % 1019,3 hPa 0,0 l/m 10,0 km/h (2 Bft) O 89 1 min 0,000 mm 3,4 UV-I 644 W/m 8,0 C 16,1 C 12,9 km/h (3 Bft) 95,83 %
14.04.2018 13:17 17,8 C 11,1 C 55 % 1019,3 hPa 0,0 l/m 16,1 km/h (3 Bft) NO 41 1 min 0,000 mm 3,5 UV-I 696 W/m 8,6 C 14,3 C 22,5 km/h (4 Bft) 100,00 %
14.04.2018 13:18 18,0 C 11,1 C 57 % 1019,3 hPa 0,0 l/m 15,8 km/h (3 Bft) NO 35 1 min 0,000 mm 3,5 UV-I 694 W/m 9,4 C 14,6 C 19,3 km/h (3 Bft) 95,83 %
14.04.2018 13:19 18,2 C 11,1 C 55 % 1019,3 hPa 0,0 l/m 14,8 km/h (3 Bft) NO 54 1 min 0,000 mm 3,5 UV-I 701 W/m 9,0 C 15,1 C 17,7 km/h (3 Bft) 100,00 %
14.04.2018 13:20 18,3 C 11,1 C 54 % 1019,3 hPa 0,0 l/m 15,5 km/h (3 Bft) O-NO 70 1 min 0,000 mm 3,5 UV-I 699 W/m 8,8 C 15,1 C 19,3 km/h (3 Bft) 95,65 %
14.04.2018 13:21 18,3 C 11,1 C 53 % 1019,3 hPa 0,0 l/m 14,1 km/h (3 Bft) O-NO 57 1 min 0,000 mm 3,5 UV-I 685 W/m 8,6 C 15,4 C 17,7 km/h (3 Bft) 95,83 %
14.04.2018 13:22 18,3 C 11,1 C 53 % 1019,3 hPa 0,0 l/m 13,4 km/h (3 Bft) NO 38 1 min 0,000 mm 3,5 UV-I 680 W/m 8,6 C 15,6 C 17,7 km/h (3 Bft) 100,00 %
14.04.2018 13:23 18,4 C 11,1 C 52 % 1019,3 hPa 0,0 l/m 8,9 km/h (2 Bft) N-NO 26 1 min 0,000 mm 3,5 UV-I 692 W/m 8,4 C 17,3 C 12,9 km/h (3 Bft) 100,00 %
14.04.2018 13:24 18,4 C 11,1 C 53 % 1019,3 hPa 0,0 l/m 12,7 km/h (3 Bft) O-NO 74 1 min 0,000 mm 3,6 UV-I 712 W/m 8,6 C 16,0 C 16,1 km/h (3 Bft) 100,00 %
14.04.2018 13:25 18,6 C 11,1 C 56 % 1019,3 hPa 0,0 l/m 8,3 km/h (2 Bft) NO 37 1 min 0,000 mm 3,6 UV-I 717 W/m 9,6 C 17,8 C 12,9 km/h (3 Bft) 96,30 %
14.04.2018 13:26 18,7 C 11,1 C 55 % 1019,3 hPa 0,0 l/m 11,4 km/h (2 Bft) NO 49 1 min 0,000 mm 3,6 UV-I 712 W/m 9,5 C 16,7 C 16,1 km/h (3 Bft) 100,00 %
14.04.2018 13:27 18,8 C 11,1 C 51 % 1019,3 hPa 0,0 l/m 7,2 km/h (2 Bft) O-NO 63 1 min 0,000 mm 3,6 UV-I 727 W/m 8,4 C 18,4 C 11,3 km/h (2 Bft) 100,00 %
14.04.2018 13:28 18,7 C 11,1 C 55 % 1019,3 hPa 0,0 l/m 8,1 km/h (2 Bft) O-NO 60 1 min 0,000 mm 3,6 UV-I 741 W/m 9,5 C 17,9 C 14,5 km/h (3 Bft) 95,65 %
14.04.2018 13:29 18,8 C 11,1 C 54 % 1019,3 hPa 0,0 l/m 12,2 km/h (2 Bft) O-NO 74 1 min 0,000 mm 3,5 UV-I 703 W/m 9,3 C 16,6 C 16,1 km/h (3 Bft) 91,67 %
14.04.2018 13:30 18,9 C 10,6 C 53 % 1019,3 hPa 0,0 l/m 12,3 km/h (3 Bft) O 88 1 min 0,000 mm 3,5 UV-I 686 W/m 9,1 C 16,7 C 17,7 km/h (3 Bft) 100,00 %
14.04.2018 13:31 18,9 C 11,1 C 52 % 1019,2 hPa 0,0 l/m 13,8 km/h (3 Bft) O-NO 78 1 min 0,000 mm 3,5 UV-I 686 W/m 8,8 C 16,2 C 19,3 km/h (3 Bft) 95,83 %
14.04.2018 13:32 18,8 C 11,1 C 51 % 1019,2 hPa 0,0 l/m 16,9 km/h (3 Bft) O 95 1 min 0,000 mm 3,5 UV-I 694 W/m 8,4 C 15,3 C 22,5 km/h (4 Bft) 100,00 %
14.04.2018 13:33 18,7 C 11,1 C 50 % 1019,2 hPa 0,0 l/m 15,8 km/h (3 Bft) O 94 1 min 0,000 mm 3,5 UV-I 701 W/m 8,1 C 15,5 C 19,3 km/h (3 Bft) 95,83 %
14.04.2018 13:34 18,5 C 11,1 C 49 % 1019,2 hPa 0,0 l/m 10,6 km/h (2 Bft) NO 34 1 min 0,000 mm 3,5 UV-I 703 W/m 7,6 C 16,8 C 14,5 km/h (3 Bft) 100,00 %
14.04.2018 13:35 18,4 C 11,1 C 50 % 1019,3 hPa 0,0 l/m 6,8 km/h (2 Bft) NO 35 1 min 0,000 mm 3,5 UV-I 705 W/m 7,8 C 18,2 C 8,0 km/h (2 Bft) 96,15 %
14.04.2018 13:36 18,4 C 11,1 C 51 % 1019,2 hPa 0,0 l/m 12,9 km/h (3 Bft) O 86 1 min 0,000 mm 3,5 UV-I 692 W/m 8,1 C 15,9 C 17,7 km/h (3 Bft) 100,00 %
14.04.2018 13:37 18,6 C 11,1 C 54 % 1019,2 hPa 0,0 l/m 11,6 km/h (2 Bft) O 92 1 min 0,000 mm 3,5 UV-I 688 W/m 9,1 C 16,5 C 14,5 km/h (3 Bft) 91,67 %
14.04.2018 13:38 18,6 C 11,1 C 50 % 1019,2 hPa 0,0 l/m 12,7 km/h (3 Bft) O-NO 63 1 min 0,000 mm 3,5 UV-I 697 W/m 8,0 C 16,2 C 17,7 km/h (3 Bft) 100,00 %
14.04.2018 13:39 18,6 C 11,1 C 50 % 1019,2 hPa 0,0 l/m 8,5 km/h (2 Bft) N-NO 26 1 min 0,000 mm 3,5 UV-I 698 W/m 8,0 C 17,7 C 14,5 km/h (3 Bft) 95,65 %
14.04.2018 13:40 18,8 C 11,1 C 52 % 1019,2 hPa 0,0 l/m 12,1 km/h (2 Bft) O 81 1 min 0,000 mm 3,5 UV-I 684 W/m 8,7 C 16,6 C 16,1 km/h (3 Bft) 95,83 %
14.04.2018 13:41 18,8 C 11,1 C 49 % 1019,2 hPa 0,0 l/m 9,5 km/h (2 Bft) O-NO 59 1 min 0,000 mm 3,5 UV-I 637 W/m 7,9 C 17,5 C 16,1 km/h (3 Bft) 95,65 %
14.04.2018 13:42 18,8 C 11,1 C 50 % 1019,2 hPa 0,0 l/m 14,5 km/h (3 Bft) NO 55 1 min 0,000 mm 3,3 UV-I 663 W/m 8,2 C 15,9 C 20,9 km/h (4 Bft) 92,59 %
14.04.2018 13:43 18,9 C 11,1 C 51 % 1019,2 hPa 0,0 l/m 10,9 km/h (2 Bft) O-NO 61 1 min 0,000 mm 3,4 UV-I 657 W/m 8,5 C 17,1 C 16,1 km/h (3 Bft) 95,65 %
14.04.2018 13:44 18,9 C 11,1 C 52 % 1019,2 hPa 0,0 l/m 13,9 km/h (3 Bft) O-NO 77 1 min 0,000 mm 3,3 UV-I 655 W/m 8,8 C 16,2 C 19,3 km/h (3 Bft) 95,83 %
14.04.2018 13:45 18,9 C 11,1 C 50 % 1019,2 hPa 0,0 l/m 14,8 km/h (3 Bft) O 88 1 min 0,000 mm 3,4 UV-I 670 W/m 8,2 C 16,0 C 20,9 km/h (4 Bft) 91,30 %
14.04.2018 13:46 18,8 C 11,1 C 49 % 1019,2 hPa 0,0 l/m 10,7 km/h (2 Bft) O-NO 66 1 min 0,000 mm 3,4 UV-I 659 W/m 7,9 C 17,1 C 17,7 km/h (3 Bft) 95,83 %
14.04.2018 13:47 18,7 C 11,1 C 50 % 1019,2 hPa 0,0 l/m 9,9 km/h (2 Bft) O-NO 76 1 min 0,000 mm 3,4 UV-I 668 W/m 8,1 C 17,2 C 14,5 km/h (3 Bft) 92,31 %
14.04.2018 13:48 18,7 C 11,1 C 51 % 1019,2 hPa 0,0 l/m 10,9 km/h (2 Bft) O 88 1 min 0,000 mm 3,4 UV-I 672 W/m 8,4 C 16,9 C 14,5 km/h (3 Bft) 100,00 %
14.04.2018 13:49 18,7 C 11,1 C 48 % 1019,2 hPa 0,0 l/m 10,9 km/h (2 Bft) O 94 1 min 0,000 mm 3,4 UV-I 686 W/m 7,5 C 16,9 C 16,1 km/h (3 Bft) 95,65 %
14.04.2018 13:50 18,6 C 11,1 C 48 % 1019,2 hPa 0,0 l/m 11,8 km/h (2 Bft) O 91 1 min 0,000 mm 3,4 UV-I 685 W/m 7,4 C 16,5 C 14,5 km/h (3 Bft) 100,00 %
14.04.2018 13:51 18,7 C 11,1 C 50 % 1019,2 hPa 0,0 l/m 11,8 km/h (2 Bft) O-NO 66 1 min 0,000 mm 3,4 UV-I 674 W/m 8,1 C 16,6 C 14,5 km/h (3 Bft) 95,65 %
14.04.2018 13:52 18,8 C 11,1 C 49 % 1019,2 hPa 0,0 l/m 10,7 km/h (2 Bft) O 93 1 min 0,000 mm 3,5 UV-I 696 W/m 7,9 C 17,1 C 14,5 km/h (3 Bft) 100,00 %
14.04.2018 13:53 18,9 C 11,1 C 48 % 1019,1 hPa 0,0 l/m 9,3 km/h (2 Bft) NO 46 1 min 0,000 mm 3,5 UV-I 696 W/m 7,6 C 17,7 C 12,9 km/h (3 Bft) 91,30 %
14.04.2018 13:54 19,1 C 11,1 C 50 % 1019,1 hPa 0,0 l/m 9,3 km/h (2 Bft) NO 52 1 min 0,000 mm 3,4 UV-I 688 W/m 8,4 C 17,9 C 11,3 km/h (2 Bft) 95,83 %
14.04.2018 13:55 19,2 C 11,1 C 51 % 1019,1 hPa 0,0 l/m 14,8 km/h (3 Bft) O-NO 59 1 min 0,000 mm 3,4 UV-I 681 W/m 8,8 C 16,3 C 17,7 km/h (3 Bft) 100,00 %
14.04.2018 13:56 19,3 C 11,1 C 49 % 1019,1 hPa 0,0 l/m 13,9 km/h (3 Bft) NO 52 1 min 0,000 mm 3,4 UV-I 684 W/m 8,3 C 16,7 C 17,7 km/h (3 Bft) 100,00 %
14.04.2018 13:57 19,3 C 11,1 C 48 % 1019,1 hPa 0,0 l/m 11,1 km/h (2 Bft) O-NO 61 1 min 0,000 mm 3,4 UV-I 684 W/m 8,0 C 17,5 C 14,5 km/h (3 Bft) 95,83 %
14.04.2018 13:58 19,4 C 11,1 C 49 % 1019,1 hPa 0,0 l/m 12,9 km/h (3 Bft) O-NO 74 1 min 0,000 mm 3,4 UV-I 676 W/m 8,4 C 17,1 C 17,7 km/h (3 Bft) 91,30 %
14.04.2018 13:59 19,3 C 11,1 C 46 % 1019,1 hPa 0,0 l/m 14,6 km/h (3 Bft) O-NO 78 1 min 0,000 mm 3,4 UV-I 673 W/m 7,4 C 16,5 C 17,7 km/h (3 Bft) 95,83 %
14.04.2018 14:00 19,3 C 11,1 C 46 % 1019,1 hPa 0,0 l/m 12,9 km/h (3 Bft) N-NO 31 1 min 0,458 mm 3,4 UV-I 659 W/m 7,4 C 17,0 C 16,1 km/h (3 Bft) 95,65 %
14.04.2018 14:01 19,3 C 11,1 C 50 % 1019,1 hPa 0,0 l/m 17,9 km/h (3 Bft) N-NO 33 1 min 0,000 mm 3,3 UV-I 672 W/m 8,6 C 15,7 C 20,9 km/h (4 Bft) 100,00 %
14.04.2018 14:02 19,4 C 11,1 C 49 % 1019,0 hPa 0,0 l/m 14,2 km/h (3 Bft) NO 51 1 min 0,000 mm 3,3 UV-I 665 W/m 8,4 C 16,7 C 17,7 km/h (3 Bft) 100,00 %
14.04.2018 14:03 19,4 C 11,1 C 46 % 1019,1 hPa 0,0 l/m 16,6 km/h (3 Bft) NO 48 1 min 0,000 mm 3,3 UV-I 664 W/m 7,5 C 16,1 C 20,9 km/h (4 Bft) 100,00 %
14.04.2018 14:04 19,4 C 11,1 C 46 % 1019,1 hPa 0,0 l/m 9,1 km/h (2 Bft) O-NO 61 1 min 0,000 mm 3,3 UV-I 657 W/m 7,5 C 18,3 C 14,5 km/h (3 Bft) 100,00 %
14.04.2018 14:05 19,3 C 11,1 C 46 % 1019,0 hPa 0,0 l/m 8,0 km/h (2 Bft) O-NO 58 1 min 0,000 mm 3,3 UV-I 667 W/m 7,4 C 18,6 C 9,7 km/h (2 Bft) 95,83 %
14.04.2018 14:06 19,2 C 11,1 C 45 % 1019,0 hPa 0,0 l/m 10,5 km/h (2 Bft) O-NO 65 1 min 0,000 mm 3,3 UV-I 673 W/m 7,0 C 17,6 C 17,7 km/h (3 Bft) 100,00 %
14.04.2018 14:07 19,3 C 11,1 C 46 % 1019,0 hPa 0,0 l/m 11,9 km/h (2 Bft) NO 42 1 min 0,000 mm 3,3 UV-I 670 W/m 7,4 C 17,3 C 17,7 km/h (3 Bft) 95,83 %
14.04.2018 14:08 19,3 C 11,1 C 47 % 1019,0 hPa 0,0 l/m 8,9 km/h (2 Bft) NO 54 1 min 0,000 mm 3,3 UV-I 667 W/m 7,7 C 18,3 C 12,9 km/h (3 Bft) 95,65 %
14.04.2018 14:09 19,4 C 11,1 C 49 % 1019,0 hPa 0,0 l/m 13,4 km/h (3 Bft) NO 55 1 min 0,000 mm 3,3 UV-I 665 W/m 8,4 C 16,9 C 19,3 km/h (3 Bft) 100,00 %
14.04.2018 14:10 19,6 C 11,1 C 48 % 1019,0 hPa 0,0 l/m 10,7 km/h (2 Bft) O 82 1 min 0,000 mm 3,3 UV-I 671 W/m 8,3 C 18,0 C 19,3 km/h (3 Bft) 100,00 %
14.04.2018 14:11 19,6 C 11,1 C 44 % 1019,0 hPa 0,0 l/m 12,7 km/h (3 Bft) O 94 1 min 0,000 mm 3,3 UV-I 680 W/m 7,0 C 17,4 C 14,5 km/h (3 Bft) 100,00 %
14.04.2018 14:12 19,4 C 11,1 C 44 % 1019,0 hPa 0,0 l/m 12,9 km/h (3 Bft) O-NO 78 1 min 0,000 mm 3,3 UV-I 684 W/m 6,8 C 17,1 C 19,3 km/h (3 Bft) 100,00 %
14.04.2018 14:13 19,4 C 11,1 C 45 % 1018,9 hPa 0,0 l/m 16,3 km/h (3 Bft) NO 42 1 min 0,000 mm 3,3 UV-I 694 W/m 7,2 C 16,2 C 20,9 km/h (4 Bft) 100,00 %
14.04.2018 14:14 19,4 C 11,1 C 44 % 1018,9 hPa 0,0 l/m 10,2 km/h (2 Bft) O-NO 64 1 min 0,000 mm 3,4 UV-I 702 W/m 6,8 C 17,9 C 12,9 km/h (3 Bft) 100,00 %
14.04.2018 14:15 19,4 C 11,1 C 43 % 1018,9 hPa 0,0 l/m 9,7 km/h (2 Bft) O-NO 69 1 min 0,000 mm 3,4 UV-I 709 W/m 6,5 C 18,1 C 12,9 km/h (3 Bft) 100,00 %
14.04.2018 14:16 19,4 C 11,1 C 43 % 1018,9 hPa 0,0 l/m 9,3 km/h (2 Bft) O-NO 61 1 min 0,000 mm 3,4 UV-I 703 W/m 6,5 C 18,2 C 12,9 km/h (3 Bft) 100,00 %
14.04.2018 14:17 19,5 C 11,1 C 46 % 1018,9 hPa 0,0 l/m 12,5 km/h (3 Bft) O-NO 60 1 min 0,000 mm 3,4 UV-I 714 W/m 7,6 C 17,3 C 19,3 km/h (3 Bft) 100,00 %
14.04.2018 14:18 19,6 C 11,1 C 46 % 1018,9 hPa 0,0 l/m 12,0 km/h (2 Bft) NO 40 1 min 0,000 mm 3,4 UV-I 713 W/m 7,7 C 17,6 C 16,1 km/h (3 Bft) 100,00 %
14.04.2018 14:19 19,6 C 11,1 C 42 % 1018,9 hPa 0,0 l/m 14,7 km/h (3 Bft) O 81 1 min 0,000 mm 3,4 UV-I 711 W/m 6,3 C 16,8 C 17,7 km/h (3 Bft) 95,65 %
14.04.2018 14:20 19,5 C 11,1 C 42 % 1018,9 hPa 0,0 l/m 9,1 km/h (2 Bft) O 90 1 min 0,000 mm 3,3 UV-I 706 W/m 6,2 C 18,4 C 12,9 km/h (3 Bft) 95,83 %
14.04.2018 14:21 19,4 C 11,1 C 44 % 1018,9 hPa 0,0 l/m 10,3 km/h (2 Bft) O-NO 78 1 min 0,000 mm 3,3 UV-I 703 W/m 6,8 C 17,9 C 14,5 km/h (3 Bft) 91,30 %
14.04.2018 14:22 19,4 C 11,1 C 44 % 1018,9 hPa 0,0 l/m 11,0 km/h (2 Bft) O 100 1 min 0,000 mm 3,1 UV-I 638 W/m 6,8 C 17,6 C 20,9 km/h (4 Bft) 100,00 %
14.04.2018 14:23 19,5 C 11,1 C 42 % 1018,9 hPa 0,0 l/m 14,1 km/h (3 Bft) NO 56 1 min 0,000 mm 3,2 UV-I 649 W/m 6,2 C 16,9 C 22,5 km/h (4 Bft) 100,00 %
14.04.2018 14:24 19,5 C 11,1 C 43 % 1018,9 hPa 0,0 l/m 8,3 km/h (2 Bft) NO 42 1 min 0,000 mm 3,1 UV-I 649 W/m 6,6 C 18,7 C 11,3 km/h (2 Bft) 100,00 %
14.04.2018 14:25 19,6 C 11,1 C 46 % 1018,9 hPa 0,0 l/m 8,6 km/h (2 Bft) O 86 1 min 0,000 mm 3,1 UV-I 653 W/m 7,7 C 18,7 C 14,5 km/h (3 Bft) 95,65 %
14.04.2018 14:26 19,6 C 11,1 C 41 % 1018,8 hPa 0,0 l/m 13,3 km/h (3 Bft) O 92 1 min 0,000 mm 3,0 UV-I 634 W/m 6,0 C 17,2 C 16,1 km/h (3 Bft) 95,83 %
14.04.2018 14:27 19,6 C 11,1 C 41 % 1018,8 hPa 0,0 l/m 10,7 km/h (2 Bft) O-NO 70 1 min 0,000 mm 3,1 UV-I 628 W/m 6,0 C 18,0 C 14,5 km/h (3 Bft) 100,00 %
14.04.2018 14:28 19,5 C 11,1 C 43 % 1018,8 hPa 0,0 l/m 4,9 km/h (1 Bft) O-NO 57 1 min 0,000 mm 3,1 UV-I 649 W/m 6,6 C 19,5 C 9,7 km/h (2 Bft) 100,00 %
14.04.2018 14:29 19,5 C 11,1 C 43 % 1018,8 hPa 0,0 l/m 10,6 km/h (2 Bft) O-NO 57 1 min 0,000 mm 3,1 UV-I 658 W/m 6,6 C 17,9 C 16,1 km/h (3 Bft) 100,00 %
14.04.2018 14:30 19,6 C 11,1 C 45 % 1018,8 hPa 0,0 l/m 10,3 km/h (2 Bft) O 79 1 min 0,000 mm 3,1 UV-I 643 W/m 7,3 C 18,1 C 14,5 km/h (3 Bft) 100,00 %
14.04.2018 14:31 19,7 C 11,1 C 43 % 1018,8 hPa 0,0 l/m 7,4 km/h (2 Bft) NO 53 1 min 0,000 mm 3,1 UV-I 652 W/m 6,8 C 19,3 C 9,7 km/h (2 Bft) 100,00 %
14.04.2018 14:32 19,7 C 11,1 C 45 % 1018,8 hPa 0,0 l/m 10,4 km/h (2 Bft) NO 38 1 min 0,000 mm 3,2 UV-I 673 W/m 7,4 C 18,2 C 14,5 km/h (3 Bft) 100,00 %
14.04.2018 14:33 19,9 C 11,1 C 47 % 1018,8 hPa 0,0 l/m 11,5 km/h (2 Bft) O-NO 72 1 min 0,000 mm 3,1 UV-I 657 W/m 8,3 C 18,1 C 16,1 km/h (3 Bft) 100,00 %
14.04.2018 14:34 20,1 C 11,1 C 48 % 1018,8 hPa 0,0 l/m 13,7 km/h (3 Bft) NO 38 1 min 0,000 mm 3,1 UV-I 662 W/m 8,7 C 17,7 C 16,1 km/h (3 Bft) 100,00 %
14.04.2018 14:35 20,2 C 11,1 C 46 % 1018,8 hPa 0,0 l/m 14,7 km/h (3 Bft) O-NO 69 1 min 0,000 mm 3,1 UV-I 655 W/m 8,2 C 17,6 C 20,9 km/h (4 Bft) 91,67 %
14.04.2018 14:36 20,2 C 11,1 C 43 % 1018,8 hPa 0,0 l/m 12,8 km/h (3 Bft) O-SO 116 1 min 0,000 mm 3,1 UV-I 648 W/m 7,2 C 18,0 C 17,7 km/h (3 Bft) 95,65 %
14.04.2018 14:37 20,1 C 11,1 C 41 % 1018,8 hPa 0,0 l/m 14,8 km/h (3 Bft) O 91 1 min 0,000 mm 3,1 UV-I 646 W/m 6,4 C 17,4 C 17,7 km/h (3 Bft) 100,00 %
14.04.2018 14:38 20,0 C 11,1 C 41 % 1018,8 hPa 0,0 l/m 15,7 km/h (3 Bft) O 93 1 min 0,000 mm 3,1 UV-I 638 W/m 6,3 C 17,1 C 17,7 km/h (3 Bft) 95,65 %
14.04.2018 14:39 19,9 C 11,1 C 42 % 1018,8 hPa 0,0 l/m 12,5 km/h (3 Bft) O 94 1 min 0,000 mm 3,0 UV-I 649 W/m 6,6 C 17,8 C 16,1 km/h (3 Bft) 100,00 %
14.04.2018 14:40 19,8 C 11,1 C 42 % 1018,8 hPa 0,0 l/m 17,6 km/h (3 Bft) O-NO 61 1 min 0,000 mm 3,1 UV-I 654 W/m 6,5 C 16,4 C 22,5 km/h (4 Bft) 100,00 %
14.04.2018 14:41 19,8 C 11,1 C 42 % 1018,8 hPa 0,0 l/m 16,3 km/h (3 Bft) O-NO 70 1 min 0,000 mm 3,0 UV-I 641 W/m 6,5 C 16,7 C 19,3 km/h (3 Bft) 100,00 %
14.04.2018 14:42 19,8 C 11,1 C 43 % 1018,8 hPa 0,0 l/m 16,6 km/h (3 Bft) O-NO 63 1 min 0,000 mm 3,0 UV-I 632 W/m 6,9 C 16,6 C 19,3 km/h (3 Bft) 91,30 %
14.04.2018 14:43 19,8 C 11,1 C 42 % 1018,8 hPa 0,0 l/m 14,5 km/h (3 Bft) NO 49 1 min 0,000 mm 3,0 UV-I 638 W/m 6,5 C 17,1 C 19,3 km/h (3 Bft) 100,00 %
14.04.2018 14:44 19,8 C 11,1 C 43 % 1018,7 hPa 0,0 l/m 11,9 km/h (2 Bft) O-NO 62 1 min 0,000 mm 3,0 UV-I 637 W/m 6,9 C 17,8 C 14,5 km/h (3 Bft) 100,00 %
14.04.2018 14:45 19,8 C 11,1 C 46 % 1018,7 hPa 0,0 l/m 12,5 km/h (3 Bft) N-NO 31 1 min 0,000 mm 2,9 UV-I 637 W/m 7,8 C 17,7 C 14,5 km/h (3 Bft) 95,83 %
14.04.2018 14:46 19,9 C 11,1 C 46 % 1018,7 hPa 0,0 l/m 6,7 km/h (2 Bft) N-NO 31 1 min 0,000 mm 3,0 UV-I 613 W/m 7,9 C 19,8 C 9,7 km/h (2 Bft) 100,00 %
14.04.2018 14:47 20,1 C 11,1 C 44 % 1018,7 hPa 0,0 l/m 10,8 km/h (2 Bft) NO 51 1 min 0,000 mm 3,0 UV-I 641 W/m 7,5 C 18,5 C 19,3 km/h (3 Bft) 100,00 %
14.04.2018 14:48 20,2 C 11,1 C 46 % 1018,7 hPa 0,0 l/m 17,0 km/h (3 Bft) NO 46 1 min 0,000 mm 3,0 UV-I 645 W/m 8,2 C 17,0 C 22,5 km/h (4 Bft) 100,00 %
14.04.2018 14:49 20,3 C 11,1 C 43 % 1018,6 hPa 0,0 l/m 15,6 km/h (3 Bft) O-NO 69 1 min 0,000 mm 3,0 UV-I 646 W/m 7,3 C 17,5 C 20,9 km/h (4 Bft) 100,00 %
14.04.2018 14:50 20,3 C 11,1 C 43 % 1018,6 hPa 0,0 l/m 19,1 km/h (3 Bft) NO 53 1 min 0,000 mm 2,9 UV-I 622 W/m 7,3 C 16,8 C 24,1 km/h (4 Bft) 96,77 %
14.04.2018 14:51 20,3 C 11,1 C 43 % 1018,6 hPa 0,0 l/m 20,5 km/h (4 Bft) O-NO 72 1 min 0,000 mm 3,0 UV-I 647 W/m 7,3 C 16,5 C 27,4 km/h (4 Bft) 100,00 %
14.04.2018 14:52 20,2 C 11,1 C 40 % 1018,6 hPa 0,0 l/m 15,4 km/h (3 Bft) O-NO 72 1 min 0,000 mm 3,0 UV-I 657 W/m 6,2 C 17,4 C 17,7 km/h (3 Bft) 91,30 %
14.04.2018 14:53 20,2 C 11,1 C 43 % 1018,6 hPa 0,0 l/m 13,0 km/h (3 Bft) O-NO 66 1 min 0,000 mm 3,0 UV-I 654 W/m 7,2 C 18,0 C 19,3 km/h (3 Bft) 100,00 %
14.04.2018 14:54 20,2 C 11,1 C 42 % 1018,6 hPa 0,0 l/m 16,6 km/h (3 Bft) NO 55 1 min 0,000 mm 2,9 UV-I 651 W/m 6,9 C 17,1 C 19,3 km/h (3 Bft) 100,00 %
14.04.2018 14:55 20,2 C 11,1 C 43 % 1018,5 hPa 0,0 l/m 11,6 km/h (2 Bft) NO 54 1 min 0,000 mm 2,9 UV-I 660 W/m 7,2 C 18,4 C 16,1 km/h (3 Bft) 100,00 %
14.04.2018 14:56 20,3 C 11,1 C 44 % 1018,5 hPa 0,0 l/m 8,9 km/h (2 Bft) NO 50 1 min 0,000 mm 2,9 UV-I 650 W/m 7,6 C 19,3 C 16,1 km/h (3 Bft) 100,00 %
14.04.2018 14:58 20,3 C 11,1 C 42 % 1018,5 hPa 0,0 l/m 12,7 km/h (3 Bft) O-NO 76 2 min 0,000 mm 2,9 UV-I 643 W/m 7,0 C 18,2 C 19,3 km/h (3 Bft) 100,00 %
14.04.2018 14:59 20,3 C 11,1 C 42 % 1018,5 hPa 0,0 l/m 15,8 km/h (3 Bft) O-NO 63 1 min 0,000 mm 2,8 UV-I 620 W/m 7,0 C 17,4 C 17,7 km/h (3 Bft) 100,00 %
14.04.2018 15:00 20,3 C 11,1 C 42 % 1018,5 hPa 0,0 l/m 11,7 km/h (2 Bft) O 82 1 min 0,000 mm 2,8 UV-I 613 W/m 7,0 C 18,5 C 14,5 km/h (3 Bft) 92,59 %
14.04.2018 15:02 20,2 C 11,1 C 41 % 1018,5 hPa 0,0 l/m 13,9 km/h (3 Bft) O-SO 105 2 min 0,482 mm 2,8 UV-I 613 W/m 6,5 C 17,8 C 20,9 km/h (4 Bft) 100,00 %
14.04.2018 15:03 20,1 C 11,1 C 41 % 1018,5 hPa 0,0 l/m 15,4 km/h (3 Bft) O-SO 119 1 min 0,000 mm 2,8 UV-I 618 W/m 6,4 C 17,3 C 20,9 km/h (4 Bft) 100,00 %
14.04.2018 15:04 20,1 C 11,1 C 41 % 1018,5 hPa 0,0 l/m 8,2 km/h (2 Bft) O-NO 76 1 min 0,000 mm 2,8 UV-I 624 W/m 6,4 C 19,4 C 11,3 km/h (2 Bft) 100,00 %
14.04.2018 15:05 20,1 C 11,1 C 40 % 1018,4 hPa 0,0 l/m 6,5 km/h (2 Bft) NO 42 1 min 0,000 mm 2,8 UV-I 622 W/m 6,1 C 20,1 C 9,7 km/h (2 Bft) 91,30 %
14.04.2018 15:06 20,1 C 11,1 C 40 % 1018,4 hPa 0,0 l/m 6,6 km/h (2 Bft) NO 36 1 min 0,000 mm 2,8 UV-I 625 W/m 6,1 C 20,0 C 8,0 km/h (2 Bft) 95,83 %
14.04.2018 15:07 20,2 C 11,1 C 44 % 1018,4 hPa 0,0 l/m 10,6 km/h (2 Bft) NO 38 1 min 0,000 mm 2,7 UV-I 616 W/m 7,6 C 18,7 C 20,9 km/h (4 Bft) 100,00 %
14.04.2018 15:08 20,4 C 11,1 C 43 % 1018,4 hPa 0,0 l/m 16,0 km/h (3 Bft) N-NO 30 1 min 0,000 mm 2,7 UV-I 601 W/m 7,4 C 17,5 C 20,9 km/h (4 Bft) 100,00 %
14.04.2018 15:09 20,5 C 11,1 C 45 % 1018,4 hPa 0,0 l/m 13,9 km/h (3 Bft) NO 54 1 min 0,000 mm 2,6 UV-I 590 W/m 8,2 C 18,1 C 19,3 km/h (3 Bft) 100,00 %
14.04.2018 15:10 20,6 C 11,1 C 44 % 1018,4 hPa 0,0 l/m 14,1 km/h (3 Bft) O 80 1 min 0,000 mm 2,6 UV-I 588 W/m 7,9 C 18,2 C 17,7 km/h (3 Bft) 100,00 %
14.04.2018 15:11 20,7 C 11,1 C 45 % 1018,4 hPa 0,0 l/m 19,4 km/h (3 Bft) O-NO 68 1 min 0,000 mm 2,6 UV-I 599 W/m 8,3 C 17,2 C 24,1 km/h (4 Bft) 100,00 %
14.04.2018 15:12 20,6 C 11,1 C 40 % 1018,4 hPa 0,0 l/m 16,6 km/h (3 Bft) O-NO 63 1 min 0,000 mm 2,6 UV-I 602 W/m 6,5 C 17,6 C 20,9 km/h (4 Bft) 96,15 %
14.04.2018 15:13 20,5 C 11,1 C 41 % 1018,4 hPa 0,0 l/m 12,8 km/h (3 Bft) O 86 1 min 0,000 mm 2,6 UV-I 587 W/m 6,8 C 18,4 C 16,1 km/h (3 Bft) 100,00 %
14.04.2018 15:14 20,4 C 11,1 C 40 % 1018,4 hPa 0,0 l/m 9,0 km/h (2 Bft) O-NO 74 1 min 0,000 mm 2,6 UV-I 585 W/m 6,3 C 19,4 C 12,9 km/h (3 Bft) 95,65 %
14.04.2018 15:15 20,3 C 11,1 C 40 % 1018,4 hPa 0,0 l/m 10,2 km/h (2 Bft) O-NO 67 1 min 0,000 mm 2,6 UV-I 594 W/m 6,3 C 18,9 C 14,5 km/h (3 Bft) 100,00 %
14.04.2018 15:16 20,2 C 11,1 C 39 % 1018,4 hPa 0,0 l/m 6,5 km/h (2 Bft) NO 50 1 min 0,000 mm 2,6 UV-I 604 W/m 5,8 C 20,2 C 9,7 km/h (2 Bft) 95,65 %
14.04.2018 15:17 20,2 C 11,1 C 40 % 1018,4 hPa 0,0 l/m 11,5 km/h (2 Bft) O 88 1 min 0,000 mm 2,6 UV-I 606 W/m 6,2 C 18,4 C 19,3 km/h (3 Bft) 95,83 %
14.04.2018 15:18 20,3 C 11,1 C 45 % 1018,4 hPa 0,0 l/m 18,9 km/h (3 Bft) O-NO 74 1 min 0,000 mm 2,6 UV-I 604 W/m 8,0 C 16,8 C 22,5 km/h (4 Bft) 95,65 %
14.04.2018 15:19 20,3 C 11,1 C 41 % 1018,4 hPa 0,0 l/m 13,7 km/h (3 Bft) O 84 1 min 0,000 mm 2,6 UV-I 604 W/m 6,6 C 17,9 C 17,7 km/h (3 Bft) 95,83 %
14.04.2018 15:20 20,3 C 11,1 C 43 % 1018,4 hPa 0,0 l/m 15,2 km/h (3 Bft) O-NO 66 1 min 0,000 mm 2,5 UV-I 599 W/m 7,3 C 17,6 C 19,3 km/h (3 Bft) 100,00 %
14.04.2018 15:21 20,3 C 11,1 C 41 % 1018,4 hPa 0,0 l/m 14,9 km/h (3 Bft) O-NO 65 1 min 0,000 mm 2,5 UV-I 596 W/m 6,6 C 17,6 C 17,7 km/h (3 Bft) 95,83 %
14.04.2018 15:22 20,3 C 11,1 C 42 % 1018,4 hPa 0,0 l/m 10,2 km/h (2 Bft) NO 51 1 min 0,000 mm 2,5 UV-I 602 W/m 7,0 C 18,9 C 14,5 km/h (3 Bft) 96,55 %
14.04.2018 15:23 20,3 C 11,1 C 40 % 1018,4 hPa 0,0 l/m 11,0 km/h (2 Bft) NO 38 1 min 0,000 mm 2,5 UV-I 594 W/m 6,3 C 18,7 C 14,5 km/h (3 Bft) 95,83 %
14.04.2018 15:24 20,4 C 11,1 C 43 % 1018,3 hPa 0,0 l/m 11,8 km/h (2 Bft) N-NO 29 1 min 0,000 mm 2,5 UV-I 593 W/m 7,4 C 18,5 C 17,7 km/h (3 Bft) 95,65 %
14.04.2018 15:25 20,6 C 11,1 C 44 % 1018,3 hPa 0,0 l/m 18,3 km/h (3 Bft) N-NO 27 1 min 0,000 mm 2,4 UV-I 575 W/m 7,9 C 17,3 C 20,9 km/h (4 Bft) 100,00 %
14.04.2018 15:26 20,7 C 11,1 C 44 % 1018,3 hPa 0,0 l/m 15,8 km/h (3 Bft) NO 42 1 min 0,000 mm 2,4 UV-I 575 W/m 8,0 C 17,9 C 19,3 km/h (3 Bft) 95,65 %
14.04.2018 15:27 20,8 C 11,1 C 41 % 1018,3 hPa 0,0 l/m 11,9 km/h (2 Bft) O-NO 71 1 min 0,000 mm 2,4 UV-I 588 W/m 7,1 C 19,0 C 16,1 km/h (3 Bft) 100,00 %
14.04.2018 15:28 20,8 C 11,1 C 43 % 1018,3 hPa 0,0 l/m 13,3 km/h (3 Bft) O-NO 63 1 min 0,000 mm 2,4 UV-I 581 W/m 7,8 C 18,6 C 19,3 km/h (3 Bft) 95,83 %
14.04.2018 15:29 20,8 C 11,1 C 40 % 1018,3 hPa 0,0 l/m 15,9 km/h (3 Bft) O-NO 71 1 min 0,000 mm 2,4 UV-I 572 W/m 6,7 C 18,0 C 19,3 km/h (3 Bft) 100,00 %
14.04.2018 15:30 20,7 C 11,1 C 38 % 1018,3 hPa 0,0 l/m 17,0 km/h (3 Bft) O 86 1 min 0,000 mm 2,4 UV-I 575 W/m 5,9 C 17,7 C 20,9 km/h (4 Bft) 95,83 %
14.04.2018 15:31 20,6 C 11,1 C 39 % 1018,3 hPa 0,0 l/m 14,9 km/h (3 Bft) O-NO 65 1 min 0,000 mm 2,4 UV-I 574 W/m 6,2 C 18,0 C 19,3 km/h (3 Bft) 95,65 %
14.04.2018 15:32 20,5 C 11,1 C 39 % 1018,3 hPa 0,0 l/m 13,4 km/h (3 Bft) NO 55 1 min 0,000 mm 2,3 UV-I 569 W/m 6,1 C 18,2 C 17,7 km/h (3 Bft) 100,00 %
14.04.2018 15:33 20,4 C 11,1 C 40 % 1018,2 hPa 0,0 l/m 14,5 km/h (3 Bft) O-NO 73 1 min 0,000 mm 2,3 UV-I 573 W/m 6,3 C 17,9 C 17,7 km/h (3 Bft) 95,65 %
14.04.2018 15:34 20,4 C 11,1 C 40 % 1018,3 hPa 0,0 l/m 13,9 km/h (3 Bft) O 81 1 min 0,000 mm 2,3 UV-I 571 W/m 6,3 C 18,0 C 17,7 km/h (3 Bft) 100,00 %
14.04.2018 15:35 20,3 C 11,1 C 39 % 1018,3 hPa 0,0 l/m 11,5 km/h (2 Bft) O-NO 66 1 min 0,000 mm 2,3 UV-I 570 W/m 5,9 C 18,5 C 16,1 km/h (3 Bft) 95,65 %
14.04.2018 15:36 20,3 C 11,1 C 38 % 1018,2 hPa 0,0 l/m 10,1 km/h (2 Bft) O 83 1 min 0,000 mm 2,3 UV-I 567 W/m 5,5 C 18,9 C 14,5 km/h (3 Bft) 100,00 %
14.04.2018 15:37 20,3 C 11,1 C 41 % 1018,2 hPa 0,0 l/m 11,3 km/h (2 Bft) NO 36 1 min 0,000 mm 2,3 UV-I 566 W/m 6,6 C 18,6 C 14,5 km/h (3 Bft) 95,65 %
14.04.2018 15:38 20,4 C 11,1 C 44 % 1018,2 hPa 0,0 l/m 14,4 km/h (3 Bft) NO 42 1 min 0,000 mm 2,3 UV-I 566 W/m 7,7 C 17,9 C 17,7 km/h (3 Bft) 100,00 %
14.04.2018 15:39 20,6 C 11,1 C 41 % 1018,2 hPa 0,0 l/m 14,3 km/h (3 Bft) O-NO 60 1 min 0,000 mm 2,3 UV-I 562 W/m 6,9 C 18,1 C 17,7 km/h (3 Bft) 91,30 %
14.04.2018 15:40 20,6 C 11,1 C 40 % 1018,2 hPa 0,0 l/m 7,7 km/h (2 Bft) NO 44 1 min 0,000 mm 2,2 UV-I 559 W/m 6,5 C 20,1 C 14,5 km/h (3 Bft) 100,00 %
14.04.2018 15:41 20,6 C 11,1 C 41 % 1018,2 hPa 0,0 l/m 7,4 km/h (2 Bft) O-NO 57 1 min 0,000 mm 2,2 UV-I 556 W/m 6,9 C 20,2 C 9,7 km/h (2 Bft) 92,31 %
14.04.2018 15:42 20,6 C 11,1 C 39 % 1018,2 hPa 0,0 l/m 7,8 km/h (2 Bft) NO 44 1 min 0,000 mm 2,2 UV-I 553 W/m 6,2 C 20,1 C 14,5 km/h (3 Bft) 95,83 %
14.04.2018 15:43 20,7 C 11,1 C 39 % 1018,2 hPa 0,0 l/m 15,1 km/h (3 Bft) O-NO 76 1 min 0,000 mm 2,2 UV-I 548 W/m 6,2 C 18,1 C 17,7 km/h (3 Bft) 96,15 %
14.04.2018 15:44 20,7 C 11,1 C 40 % 1018,1 hPa 0,0 l/m 16,0 km/h (3 Bft) O-NO 60 1 min 0,000 mm 2,2 UV-I 548 W/m 6,6 C 17,9 C 20,9 km/h (4 Bft) 95,83 %
14.04.2018 15:45 20,7 C 11,1 C 43 % 1018,2 hPa 0,0 l/m 10,8 km/h (2 Bft) NO 48 1 min 0,000 mm 2,2 UV-I 544 W/m 7,7 C 19,2 C 16,1 km/h (3 Bft) 100,00 %
14.04.2018 15:46 20,8 C 11,1 C 44 % 1018,1 hPa 0,0 l/m 17,4 km/h (3 Bft) NO 38 1 min 0,000 mm 2,2 UV-I 542 W/m 8,1 C 17,7 C 22,5 km/h (4 Bft) 91,67 %
14.04.2018 15:47 20,8 C 11,1 C 43 % 1018,1 hPa 0,0 l/m 15,4 km/h (3 Bft) O-NO 59 1 min 0,000 mm 2,1 UV-I 540 W/m 7,8 C 18,1 C 19,3 km/h (3 Bft) 95,83 %
14.04.2018 15:48 20,8 C 11,1 C 41 % 1018,0 hPa 0,0 l/m 13,9 km/h (3 Bft) N-NO 25 1 min 0,000 mm 2,1 UV-I 537 W/m 7,1 C 18,5 C 16,1 km/h (3 Bft) 95,65 %
14.04.2018 15:49 20,8 C 11,1 C 40 % 1018,0 hPa 0,0 l/m 15,4 km/h (3 Bft) N-NO 31 1 min 0,000 mm 2,1 UV-I 534 W/m 6,7 C 18,1 C 19,3 km/h (3 Bft) 100,00 %
14.04.2018 15:50 20,8 C 11,1 C 40 % 1018,0 hPa 0,0 l/m 11,2 km/h (2 Bft) NO 55 1 min 0,000 mm 2,1 UV-I 533 W/m 6,7 C 19,2 C 14,5 km/h (3 Bft) 100,00 %
14.04.2018 15:51 20,8 C 11,1 C 42 % 1018,0 hPa 0,0 l/m 8,9 km/h (2 Bft) O-NO 76 1 min 0,000 mm 2,1 UV-I 530 W/m 7,4 C 19,9 C 16,1 km/h (3 Bft) 100,00 %
14.04.2018 15:52 20,7 C 11,1 C 38 % 1018,0 hPa 0,0 l/m 11,0 km/h (2 Bft) NO 49 1 min 0,000 mm 2,1 UV-I 527 W/m 5,9 C 19,1 C 14,5 km/h (3 Bft) 100,00 %
14.04.2018 15:53 20,7 C 11,1 C 43 % 1018,0 hPa 0,0 l/m 9,8 km/h (2 Bft) NO 44 1 min 0,000 mm 2,0 UV-I 525 W/m 7,7 C 19,5 C 16,1 km/h (3 Bft) 95,83 %
14.04.2018 15:54 20,7 C 11,1 C 41 % 1018,0 hPa 0,0 l/m 14,9 km/h (3 Bft) NO 49 1 min 0,000 mm 2,0 UV-I 521 W/m 7,0 C 18,1 C 17,7 km/h (3 Bft) 100,00 %
14.04.2018 15:55 20,8 C 11,1 C 41 % 1018,0 hPa 0,0 l/m 13,1 km/h (3 Bft) O 90 1 min 0,000 mm 2,0 UV-I 520 W/m 7,1 C 18,7 C 16,1 km/h (3 Bft) 100,00 %
14.04.2018 15:56 20,7 C 11,1 C 41 % 1018,0 hPa 0,0 l/m 10,3 km/h (2 Bft) NO 53 1 min 0,000 mm 2,0 UV-I 519 W/m 7,0 C 19,3 C 12,9 km/h (3 Bft) 100,00 %
14.04.2018 15:57 20,7 C 11,1 C 42 % 1018,0 hPa 0,0 l/m 14,2 km/h (3 Bft) NO 48 1 min 0,000 mm 2,0 UV-I 517 W/m 7,3 C 18,3 C 17,7 km/h (3 Bft) 100,00 %
14.04.2018 15:58 20,7 C 11,1 C 40 % 1017,9 hPa 0,0 l/m 12,0 km/h (2 Bft) NO 40 1 min 0,000 mm 2,0 UV-I 515 W/m 6,6 C 18,8 C 16,1 km/h (3 Bft) 100,00 %
14.04.2018 15:59 20,8 C 11,1 C 44 % 1017,9 hPa 0,0 l/m 13,6 km/h (3 Bft) O-NO 77 1 min 0,000 mm 1,9 UV-I 512 W/m 8,1 C 18,5 C 17,7 km/h (3 Bft) 100,00 %
14.04.2018 16:00 20,8 C 11,1 C 43 % 1017,9 hPa 0,0 l/m 16,0 km/h (3 Bft) N-NO 29 1 min 0,000 mm 1,9 UV-I 510 W/m 7,8 C 18,0 C 20,9 km/h (4 Bft) 100,00 %
14.04.2018 16:01 20,9 C 11,1 C 41 % 1017,9 hPa 0,0 l/m 16,2 km/h (3 Bft) N-NO 33 1 min 0,432 mm 1,9 UV-I 508 W/m 7,2 C 18,1 C 22,5 km/h (4 Bft) 100,00 %
14.04.2018 16:02 20,9 C 11,1 C 42 % 1017,9 hPa 0,0 l/m 16,2 km/h (3 Bft) NO 44 1 min 0,000 mm 1,9 UV-I 506 W/m 7,5 C 18,1 C 20,9 km/h (4 Bft) 100,00 %
14.04.2018 16:03 20,8 C 11,1 C 39 % 1017,9 hPa 0,0 l/m 15,0 km/h (3 Bft) O-NO 63 1 min 0,000 mm 1,9 UV-I 504 W/m 6,3 C 18,2 C 19,3 km/h (3 Bft) 95,65 %
14.04.2018 16:04 20,8 C 11,1 C 39 % 1017,9 hPa 0,0 l/m 11,3 km/h (2 Bft) O-NO 73 1 min 0,000 mm 1,9 UV-I 502 W/m 6,3 C 19,1 C 14,5 km/h (3 Bft) 96,55 %
14.04.2018 16:05 20,8 C 11,1 C 40 % 1017,8 hPa 0,0 l/m 8,1 km/h (2 Bft) NO 36 1 min 0,000 mm 1,8 UV-I 500 W/m 6,7 C 20,2 C 11,3 km/h (2 Bft) 96,30 %
14.04.2018 16:06 20,8 C 11,1 C 42 % 1017,9 hPa 0,0 l/m 8,4 km/h (2 Bft) NO 53 1 min 0,000 mm 1,8 UV-I 497 W/m 7,4 C 20,0 C 12,9 km/h (3 Bft) 95,65 %
14.04.2018 16:07 20,7 C 11,1 C 40 % 1017,8 hPa 0,0 l/m 9,3 km/h (2 Bft) O-NO 57 1 min 0,000 mm 1,8 UV-I 494 W/m 6,6 C 19,6 C 16,1 km/h (3 Bft) 100,00 %
14.04.2018 16:08 20,7 C 11,1 C 40 % 1017,9 hPa 0,0 l/m 10,7 km/h (2 Bft) O-NO 74 1 min 0,000 mm 1,8 UV-I 492 W/m 6,6 C 19,2 C 16,1 km/h (3 Bft) 100,00 %
14.04.2018 16:09 20,7 C 11,1 C 40 % 1017,9 hPa 0,0 l/m 11,0 km/h (2 Bft) O 92 1 min 0,000 mm 1,8 UV-I 490 W/m 6,6 C 19,1 C 14,5 km/h (3 Bft) 95,65 %
14.04.2018 16:10 20,7 C 11,1 C 41 % 1017,9 hPa 0,0 l/m 11,7 km/h (2 Bft) O-NO 66 1 min 0,000 mm 1,8 UV-I 488 W/m 7,0 C 18,9 C 16,1 km/h (3 Bft) 95,83 %
14.04.2018 16:11 20,7 C 11,1 C 42 % 1017,8 hPa 0,0 l/m 13,7 km/h (3 Bft) O-NO 58 1 min 0,000 mm 1,8 UV-I 486 W/m 7,3 C 18,4 C 22,5 km/h (4 Bft) 100,00 %
14.04.2018 16:12 20,8 C 11,1 C 42 % 1017,8 hPa 0,0 l/m 15,9 km/h (3 Bft) O-NO 70 1 min 0,000 mm 1,7 UV-I 483 W/m 7,4 C 18,0 C 22,5 km/h (4 Bft) 100,00 %
14.04.2018 16:13 20,8 C 11,1 C 40 % 1017,8 hPa 0,0 l/m 16,2 km/h (3 Bft) O-NO 57 1 min 0,000 mm 1,7 UV-I 482 W/m 6,7 C 18,0 C 19,3 km/h (3 Bft) 100,00 %
14.04.2018 16:14 20,8 C 11,1 C 41 % 1017,8 hPa 0,0 l/m 16,7 km/h (3 Bft) NO 34 1 min 0,000 mm 1,7 UV-I 479 W/m 7,1 C 17,9 C 20,9 km/h (4 Bft) 100,00 %
14.04.2018 16:15 20,9 C 11,1 C 41 % 1017,8 hPa 0,0 l/m 15,0 km/h (3 Bft) NO 42 1 min 0,000 mm 1,7 UV-I 478 W/m 7,2 C 18,3 C 20,9 km/h (4 Bft) 95,65 %
14.04.2018 16:16 20,9 C 11,1 C 38 % 1017,8 hPa 0,0 l/m 10,7 km/h (2 Bft) O-NO 57 1 min 0,000 mm 1,7 UV-I 475 W/m 6,0 C 19,4 C 14,5 km/h (3 Bft) 100,00 %
14.04.2018 16:17 20,8 C 11,1 C 40 % 1017,7 hPa 0,0 l/m 16,2 km/h (3 Bft) NO 52 1 min 0,000 mm 1,7 UV-I 474 W/m 6,7 C 18,0 C 20,9 km/h (4 Bft) 100,00 %
14.04.2018 16:18 20,8 C 11,1 C 41 % 1017,7 hPa 0,0 l/m 17,7 km/h (3 Bft) O 80 1 min 0,000 mm 1,6 UV-I 471 W/m 7,1 C 17,7 C 20,9 km/h (4 Bft) 100,00 %
14.04.2018 16:19 20,7 C 11,1 C 38 % 1017,7 hPa 0,0 l/m 15,8 km/h (3 Bft) NO 44 1 min 0,000 mm 1,6 UV-I 469 W/m 5,9 C 17,9 C 19,3 km/h (3 Bft) 100,00 %
14.04.2018 16:20 20,7 C 11,1 C 39 % 1017,7 hPa 0,0 l/m 8,0 km/h (2 Bft) O-NO 76 1 min 0,000 mm 1,6 UV-I 466 W/m 6,2 C 20,1 C 12,9 km/h (3 Bft) 95,83 %
14.04.2018 16:21 20,7 C 11,1 C 39 % 1017,6 hPa 0,0 l/m 5,5 km/h (1 Bft) O 82 1 min 0,000 mm 1,6 UV-I 464 W/m 6,2 C 20,7 C 6,4 km/h (2 Bft) 100,00 %
14.04.2018 16:22 20,6 C 11,1 C 37 % 1017,6 hPa 0,0 l/m 12,5 km/h (3 Bft) O-NO 59 1 min 0,000 mm 1,6 UV-I 461 W/m 5,4 C 18,6 C 22,5 km/h (4 Bft) 100,00 %
14.04.2018 16:23 20,6 C 11,1 C 39 % 1017,6 hPa 0,0 l/m 16,2 km/h (3 Bft) O-NO 63 1 min 0,000 mm 1,6 UV-I 460 W/m 6,2 C 17,7 C 20,9 km/h (4 Bft) 100,00 %
14.04.2018 16:24 20,7 C 11,1 C 42 % 1017,6 hPa 0,0 l/m 11,3 km/h (2 Bft) NO 46 1 min 0,000 mm 1,6 UV-I 457 W/m 7,3 C 19,0 C 17,7 km/h (3 Bft) 100,00 %
14.04.2018 16:25 20,7 C 11,1 C 43 % 1017,5 hPa 0,0 l/m 16,0 km/h (3 Bft) NO 42 1 min 0,000 mm 1,5 UV-I 455 W/m 7,7 C 17,9 C 20,9 km/h (4 Bft) 100,00 %
14.04.2018 16:26 20,8 C 11,1 C 42 % 1017,6 hPa 0,0 l/m 13,4 km/h (3 Bft) O-NO 58 1 min 0,000 mm 1,5 UV-I 453 W/m 7,4 C 18,6 C 17,7 km/h (3 Bft) 100,00 %
14.04.2018 16:27 20,9 C 11,1 C 42 % 1017,6 hPa 0,0 l/m 12,6 km/h (3 Bft) NO 49 1 min 0,000 mm 1,5 UV-I 451 W/m 7,5 C 18,9 C 16,1 km/h (3 Bft) 100,00 %
14.04.2018 16:28 20,9 C 11,1 C 42 % 1017,5 hPa 0,0 l/m 11,5 km/h (2 Bft) NO 50 1 min 0,000 mm 1,5 UV-I 449 W/m 7,5 C 19,2 C 16,1 km/h (3 Bft) 100,00 %
14.04.2018 16:29 20,9 C 11,1 C 41 % 1017,5 hPa 0,0 l/m 10,1 km/h (2 Bft) O 92 1 min 0,000 mm 1,5 UV-I 447 W/m 7,2 C 19,6 C 19,3 km/h (3 Bft) 95,83 %
14.04.2018 16:30 20,9 C 11,1 C 40 % 1017,5 hPa 0,0 l/m 14,9 km/h (3 Bft) O-NO 60 1 min 0,000 mm 1,5 UV-I 445 W/m 6,8 C 18,4 C 17,7 km/h (3 Bft) 100,00 %
14.04.2018 16:31 20,8 C 11,1 C 37 % 1017,5 hPa 0,0 l/m 11,3 km/h (2 Bft) O-NO 68 1 min 0,000 mm 1,5 UV-I 442 W/m 5,6 C 19,1 C 16,1 km/h (3 Bft) 100,00 %
14.04.2018 16:32 20,7 C 11,1 C 38 % 1017,5 hPa 0,0 l/m 14,6 km/h (3 Bft) O-NO 78 1 min 0,000 mm 1,4 UV-I 439 W/m 5,9 C 18,2 C 17,7 km/h (3 Bft) 100,00 %
14.04.2018 16:33 20,7 C 11,1 C 38 % 1017,5 hPa 0,0 l/m 15,1 km/h (3 Bft) NO 34 1 min 0,000 mm 1,4 UV-I 437 W/m 5,9 C 18,1 C 17,7 km/h (3 Bft) 100,00 %
14.04.2018 16:34 20,7 C 11,1 C 39 % 1017,5 hPa 0,0 l/m 18,1 km/h (3 Bft) NO 46 1 min 0,000 mm 1,4 UV-I 434 W/m 6,2 C 17,5 C 24,1 km/h (4 Bft) 100,00 %
14.04.2018 16:35 20,7 C 11,1 C 40 % 1017,4 hPa 0,0 l/m 18,6 km/h (3 Bft) NO 41 1 min 0,000 mm 1,4 UV-I 431 W/m 6,6 C 17,4 C 22,5 km/h (4 Bft) 100,00 %
14.04.2018 16:36 20,7 C 11,1 C 43 % 1017,4 hPa 0,0 l/m 16,4 km/h (3 Bft) O 88 1 min 0,000 mm 1,4 UV-I 429 W/m 7,7 C 17,8 C 20,9 km/h (4 Bft) 95,65 %
14.04.2018 16:37 20,7 C 11,1 C 39 % 1017,4 hPa 0,0 l/m 13,0 km/h (3 Bft) O 95 1 min 0,000 mm 1,4 UV-I 427 W/m 6,2 C 18,6 C 16,1 km/h (3 Bft) 100,00 %
14.04.2018 16:38 20,7 C 11,1 C 38 % 1017,4 hPa 0,0 l/m 16,3 km/h (3 Bft) O 89 1 min 0,000 mm 1,4 UV-I 427 W/m 5,9 C 17,8 C 19,3 km/h (3 Bft) 95,83 %
14.04.2018 16:39 20,7 C 11,1 C 38 % 1017,4 hPa 0,0 l/m 18,4 km/h (3 Bft) O-NO 76 1 min 0,000 mm 1,3 UV-I 425 W/m 5,9 C 17,4 C 24,1 km/h (4 Bft) 91,30 %
14.04.2018 16:40 20,7 C 11,1 C 40 % 1017,3 hPa 0,0 l/m 15,4 km/h (3 Bft) O 80 1 min 0,000 mm 1,3 UV-I 421 W/m 6,6 C 18,0 C 20,9 km/h (4 Bft) 95,83 %
14.04.2018 16:41 20,7 C 11,1 C 40 % 1017,3 hPa 0,0 l/m 15,2 km/h (3 Bft) O 99 1 min 0,000 mm 1,3 UV-I 418 W/m 6,6 C 18,1 C 20,9 km/h (4 Bft) 95,65 %
14.04.2018 16:42 20,6 C 11,1 C 38 % 1017,4 hPa 0,0 l/m 16,4 km/h (3 Bft) O-NO 76 1 min 0,000 mm 1,3 UV-I 409 W/m 5,8 C 17,7 C 20,9 km/h (4 Bft) 95,83 %
14.04.2018 16:43 20,6 C 11,1 C 39 % 1017,3 hPa 0,0 l/m 12,2 km/h (2 Bft) O-NO 61 1 min 0,000 mm 1,3 UV-I 408 W/m 6,2 C 18,7 C 16,1 km/h (3 Bft) 100,00 %
14.04.2018 16:44 20,6 C 11,1 C 40 % 1017,4 hPa 0,0 l/m 12,7 km/h (3 Bft) N-NO 24 1 min 0,000 mm 1,3 UV-I 409 W/m 6,5 C 18,5 C 17,7 km/h (3 Bft) 96,30 %
14.04.2018 16:45 20,6 C 11,1 C 41 % 1017,4 hPa 0,0 l/m 9,5 km/h (2 Bft) NO 47 1 min 0,000 mm 1,3 UV-I 410 W/m 6,9 C 19,5 C 14,5 km/h (3 Bft) 91,30 %
14.04.2018 16:46 20,7 C 11,1 C 41 % 1017,4 hPa 0,0 l/m 10,3 km/h (2 Bft) NO 55 1 min 0,000 mm 1,3 UV-I 405 W/m 7,0 C 19,3 C 16,1 km/h (3 Bft) 100,00 %
14.04.2018 16:47 20,7 C 11,1 C 40 % 1017,4 hPa 0,0 l/m 8,6 km/h (2 Bft) NO 56 1 min 0,000 mm 1,3 UV-I 404 W/m 6,6 C 19,9 C 12,9 km/h (3 Bft) 95,65 %
14.04.2018 16:48 20,8 C 11,1 C 42 % 1017,3 hPa 0,0 l/m 6,7 km/h (2 Bft) NO 34 1 min 0,000 mm 1,2 UV-I 397 W/m 7,4 C 20,7 C 9,7 km/h (2 Bft) 100,00 %
14.04.2018 16:49 20,8 C 11,1 C 44 % 1017,3 hPa 0,0 l/m 6,8 km/h (2 Bft) O-NO 67 1 min 0,000 mm 1,2 UV-I 397 W/m 8,1 C 20,7 C 9,7 km/h (2 Bft) 95,65 %
14.04.2018 16:50 20,9 C 11,1 C 41 % 1017,3 hPa 0,0 l/m 5,9 km/h (2 Bft) O 86 1 min 0,000 mm 1,2 UV-I 398 W/m 7,2 C 20,9 C 9,7 km/h (2 Bft) 100,00 %
14.04.2018 16:51 20,9 C 11,1 C 40 % 1017,3 hPa 0,0 l/m 9,5 km/h (2 Bft) O-NO 58 1 min 0,000 mm 1,2 UV-I 395 W/m 6,8 C 19,8 C 14,5 km/h (3 Bft) 90,91 %
14.04.2018 16:52 20,9 C 11,1 C 40 % 1017,2 hPa 0,0 l/m 11,7 km/h (2 Bft) NO 43 1 min 0,000 mm 1,2 UV-I 389 W/m 6,8 C 19,1 C 14,5 km/h (3 Bft) 100,00 %
14.04.2018 16:53 20,9 C 11,1 C 43 % 1017,3 hPa 0,0 l/m 12,1 km/h (2 Bft) O-NO 65 1 min 0,000 mm 1,2 UV-I 385 W/m 7,8 C 19,0 C 14,5 km/h (3 Bft) 96,43 %
14.04.2018 16:54 20,9 C 11,1 C 43 % 1017,2 hPa 0,0 l/m 12,0 km/h (2 Bft) O-NO 68 1 min 0,000 mm 1,1 UV-I 374 W/m 7,8 C 19,1 C 16,1 km/h (3 Bft) 100,00 %
14.04.2018 16:55 20,9 C 11,1 C 40 % 1017,3 hPa 0,0 l/m 14,1 km/h (3 Bft) O-NO 72 1 min 0,000 mm 1,1 UV-I 373 W/m 6,8 C 18,5 C 19,3 km/h (3 Bft) 95,65 %
14.04.2018 16:56 20,9 C 11,1 C 39 % 1017,3 hPa 0,0 l/m 15,6 km/h (3 Bft) O-SO 109 1 min 0,000 mm 1,1 UV-I 372 W/m 6,4 C 18,2 C 19,3 km/h (3 Bft) 95,83 %
14.04.2018 16:57 20,8 C 11,1 C 39 % 1017,3 hPa 0,0 l/m 14,6 km/h (3 Bft) O 101 1 min 0,000 mm 1,1 UV-I 372 W/m 6,3 C 18,3 C 19,3 km/h (3 Bft) 100,00 %
14.04.2018 16:58 20,7 C 11,1 C 40 % 1017,3 hPa 0,0 l/m 14,2 km/h (3 Bft) O-NO 77 1 min 0,000 mm 1,1 UV-I 374 W/m 6,6 C 18,3 C 17,7 km/h (3 Bft) 94,74 %
14.04.2018 16:59 20,7 C 11,1 C 41 % 1017,2 hPa 0,0 l/m 10,7 km/h (2 Bft) O 88 1 min 0,000 mm 1,1 UV-I 374 W/m 7,0 C 19,2 C 14,5 km/h (3 Bft) 100,00 %
14.04.2018 17:00 20,7 C 11,1 C 39 % 1017,3 hPa 0,0 l/m 9,6 km/h (2 Bft) O-NO 77 1 min 0,000 mm 1,1 UV-I 366 W/m 6,2 C 19,5 C 12,9 km/h (3 Bft) 95,83 %
14.04.2018 17:01 20,7 C 11,1 C 38 % 1017,3 hPa 0,0 l/m 10,7 km/h (2 Bft) NO 50 1 min 0,381 mm 1,1 UV-I 355 W/m 5,9 C 19,2 C 14,5 km/h (3 Bft) 100,00 %
14.04.2018 17:02 20,7 C 11,1 C 39 % 1017,2 hPa 0,0 l/m 9,9 km/h (2 Bft) O 89 1 min 0,000 mm 1,0 UV-I 354 W/m 6,2 C 19,4 C 12,9 km/h (3 Bft) 95,65 %
14.04.2018 17:03 20,7 C 11,1 C 39 % 1017,3 hPa 0,0 l/m 7,6 km/h (2 Bft) O 101 1 min 0,000 mm 1,0 UV-I 355 W/m 6,2 C 20,2 C 11,3 km/h (2 Bft) 95,83 %
14.04.2018 17:04 20,7 C 11,1 C 40 % 1017,2 hPa 0,0 l/m 8,5 km/h (2 Bft) O-SO 105 1 min 0,000 mm 1,0 UV-I 356 W/m 6,6 C 19,9 C 11,3 km/h (2 Bft) 95,65 %
14.04.2018 17:05 20,7 C 11,1 C 39 % 1017,2 hPa 0,0 l/m 8,1 km/h (2 Bft) O 91 1 min 0,000 mm 1,0 UV-I 353 W/m 6,2 C 20,0 C 11,3 km/h (2 Bft) 95,83 %
14.04.2018 17:06 20,7 C 11,1 C 39 % 1017,2 hPa 0,0 l/m 9,7 km/h (2 Bft) O 101 1 min 0,000 mm 1,0 UV-I 348 W/m 6,2 C 19,5 C 16,1 km/h (3 Bft) 90,91 %
14.04.2018 17:07 20,7 C 11,1 C 38 % 1017,2 hPa 0,0 l/m 11,9 km/h (2 Bft) O 92 1 min 0,000 mm 1,0 UV-I 346 W/m 5,9 C 18,9 C 16,1 km/h (3 Bft) 100,00 %
14.04.2018 17:08 20,7 C 11,1 C 39 % 1017,2 hPa 0,0 l/m 12,1 km/h (2 Bft) O 81 1 min 0,000 mm 1,0 UV-I 341 W/m 6,2 C 18,8 C 16,1 km/h (3 Bft) 91,30 %
14.04.2018 17:09 20,6 C 11,1 C 39 % 1017,2 hPa 0,0 l/m 15,0 km/h (3 Bft) O 98 1 min 0,000 mm 1,0 UV-I 340 W/m 6,2 C 18,0 C 17,7 km/h (3 Bft) 95,83 %
14.04.2018 17:10 20,6 C 11,1 C 40 % 1017,2 hPa 0,0 l/m 16,2 km/h (3 Bft) O-SO 105 1 min 0,000 mm 1,0 UV-I 340 W/m 6,5 C 17,7 C 22,5 km/h (4 Bft) 95,65 %
14.04.2018 17:11 20,6 C 11,1 C 39 % 1017,1 hPa 0,0 l/m 15,4 km/h (3 Bft) O-SO 107 1 min 0,000 mm 0,9 UV-I 333 W/m 6,2 C 17,9 C 20,9 km/h (4 Bft) 95,83 %
14.04.2018 17:12 20,6 C 11,1 C 41 % 1017,2 hPa 0,0 l/m 13,4 km/h (3 Bft) O-NO 74 1 min 0,000 mm 0,9 UV-I 344 W/m 6,9 C 18,4 C 16,1 km/h (3 Bft) 91,30 %
14.04.2018 17:13 20,6 C 11,1 C 42 % 1017,1 hPa 0,0 l/m 11,4 km/h (2 Bft) O-SO 119 1 min 0,000 mm 0,9 UV-I 342 W/m 7,2 C 18,9 C 16,1 km/h (3 Bft) 96,30 %
14.04.2018 17:14 20,7 C 11,1 C 43 % 1017,0 hPa 0,0 l/m 7,4 km/h (2 Bft) O-SO 103 1 min 0,000 mm 0,9 UV-I 341 W/m 7,7 C 20,3 C 11,3 km/h (2 Bft) 95,65 %
14.04.2018 17:15 20,7 C 11,1 C 40 % 1017,1 hPa 0,0 l/m 8,9 km/h (2 Bft) O-SO 105 1 min 0,000 mm 0,9 UV-I 335 W/m 6,6 C 19,8 C 12,9 km/h (3 Bft) 95,83 %
14.04.2018 17:16 20,7 C 11,1 C 41 % 1017,0 hPa 0,0 l/m 7,1 km/h (2 Bft) O-NO 68 1 min 0,000 mm 0,9 UV-I 329 W/m 7,0 C 20,4 C 11,3 km/h (2 Bft) 95,65 %
14.04.2018 17:17 20,7 C 11,1 C 43 % 1017,1 hPa 0,0 l/m 10,1 km/h (2 Bft) O 90 1 min 0,000 mm 0,9 UV-I 325 W/m 7,7 C 19,4 C 14,5 km/h (3 Bft) 91,67 %
14.04.2018 17:18 20,7 C 11,1 C 39 % 1017,0 hPa 0,0 l/m 13,0 km/h (3 Bft) O-NO 65 1 min 0,000 mm 0,9 UV-I 318 W/m 6,2 C 18,6 C 17,7 km/h (3 Bft) 96,15 %
14.04.2018 17:19 20,7 C 11,1 C 41 % 1017,0 hPa 0,0 l/m 13,4 km/h (3 Bft) O 96 1 min 0,000 mm 0,9 UV-I 317 W/m 7,0 C 18,5 C 17,7 km/h (3 Bft) 95,83 %
14.04.2018 17:20 20,7 C 11,1 C 40 % 1017,0 hPa 0,0 l/m 12,1 km/h (2 Bft) O-NO 76 1 min 0,000 mm 0,8 UV-I 316 W/m 6,6 C 18,8 C 14,5 km/h (3 Bft) 95,65 %
14.04.2018 17:21 20,7 C 11,1 C 40 % 1017,1 hPa 0,0 l/m 14,5 km/h (3 Bft) NO 53 1 min 0,000 mm 0,8 UV-I 316 W/m 6,6 C 18,2 C 16,1 km/h (3 Bft) 96,30 %
14.04.2018 17:22 20,7 C 11,1 C 41 % 1017,1 hPa 0,0 l/m 14,7 km/h (3 Bft) NO 54 1 min 0,000 mm 0,8 UV-I 316 W/m 7,0 C 18,2 C 17,7 km/h (3 Bft) 91,30 %
14.04.2018 17:23 20,7 C 11,1 C 40 % 1017,0 hPa 0,0 l/m 12,1 km/h (2 Bft) O 92 1 min 0,000 mm 0,8 UV-I 321 W/m 6,6 C 18,8 C 16,1 km/h (3 Bft) 100,00 %
14.04.2018 17:24 20,6 C 11,1 C 40 % 1017,0 hPa 0,0 l/m 17,2 km/h (3 Bft) NO 55 1 min 0,000 mm 0,8 UV-I 314 W/m 6,5 C 17,5 C 22,5 km/h (4 Bft) 91,67 %
14.04.2018 17:25 20,6 C 11,1 C 41 % 1017,0 hPa 0,0 l/m 15,4 km/h (3 Bft) NO 48 1 min 0,000 mm 0,8 UV-I 308 W/m 6,9 C 17,9 C 20,9 km/h (4 Bft) 100,00 %
14.04.2018 17:26 20,6 C 11,1 C 40 % 1017,0 hPa 0,0 l/m 13,3 km/h (3 Bft) NO 36 1 min 0,000 mm 0,8 UV-I 302 W/m 6,5 C 18,4 C 16,1 km/h (3 Bft) 91,67 %
14.04.2018 17:27 20,7 C 11,1 C 43 % 1017,0 hPa 0,0 l/m 17,9 km/h (3 Bft) N-NO 24 1 min 0,000 mm 0,8 UV-I 285 W/m 7,7 C 17,5 C 24,1 km/h (4 Bft) 95,65 %
14.04.2018 17:28 20,7 C 11,1 C 42 % 1017,0 hPa 0,0 l/m 16,4 km/h (3 Bft) O-SO 104 1 min 0,000 mm 0,7 UV-I 274 W/m 7,3 C 17,8 C 20,9 km/h (4 Bft) 95,83 %
14.04.2018 17:29 20,7 C 11,1 C 41 % 1017,0 hPa 0,0 l/m 12,8 km/h (3 Bft) O-NO 61 1 min 0,000 mm 0,7 UV-I 283 W/m 7,0 C 18,6 C 19,3 km/h (3 Bft) 95,65 %
14.04.2018 17:30 20,6 C 11,1 C 42 % 1017,0 hPa 0,0 l/m 9,3 km/h (2 Bft) O 85 1 min 0,000 mm 0,7 UV-I 276 W/m 7,2 C 19,5 C 11,3 km/h (2 Bft) 91,67 %
14.04.2018 17:31 20,6 C 11,1 C 41 % 1017,0 hPa 0,0 l/m 10,6 km/h (2 Bft) O-NO 75 1 min 0,000 mm 0,7 UV-I 261 W/m 6,9 C 19,1 C 12,9 km/h (3 Bft) 96,67 %
14.04.2018 17:32 20,5 C 11,1 C 41 % 1017,0 hPa 0,0 l/m 12,5 km/h (3 Bft) O-NO 69 1 min 0,000 mm 0,7 UV-I 263 W/m 6,8 C 18,5 C 16,1 km/h (3 Bft) 95,83 %
14.04.2018 17:33 20,5 C 11,1 C 41 % 1017,0 hPa 0,0 l/m 8,5 km/h (2 Bft) O-NO 62 1 min 0,000 mm 0,7 UV-I 268 W/m 6,8 C 19,7 C 11,3 km/h (2 Bft) 91,30 %
14.04.2018 17:34 20,5 C 11,1 C 43 % 1017,0 hPa 0,0 l/m 11,0 km/h (2 Bft) NO 51 1 min 0,000 mm 0,7 UV-I 276 W/m 7,5 C 18,9 C 17,7 km/h (3 Bft) 96,30 %
14.04.2018 17:35 20,6 C 11,1 C 43 % 1017,0 hPa 0,0 l/m 9,3 km/h (2 Bft) NO 51 1 min 0,000 mm 0,7 UV-I 281 W/m 7,6 C 19,5 C 17,7 km/h (3 Bft) 86,96 %
14.04.2018 17:36 20,6 C 11,1 C 43 % 1017,0 hPa 0,0 l/m 13,5 km/h (3 Bft) NO 38 1 min 0,000 mm 0,7 UV-I 280 W/m 7,6 C 18,3 C 19,3 km/h (3 Bft) 100,00 %
14.04.2018 17:37 20,6 C 11,1 C 42 % 1016,9 hPa 0,0 l/m 20,5 km/h (4 Bft) NO 56 1 min 0,000 mm 0,7 UV-I 279 W/m 7,2 C 16,9 C 25,7 km/h (4 Bft) 86,96 %
14.04.2018 17:38 20,6 C 11,1 C 43 % 1016,9 hPa 0,0 l/m 17,8 km/h (3 Bft) O-NO 59 1 min 0,000 mm 0,7 UV-I 277 W/m 7,6 C 17,4 C 20,9 km/h (4 Bft) 95,83 %
14.04.2018 17:39 20,6 C 11,1 C 42 % 1016,9 hPa 0,0 l/m 15,4 km/h (3 Bft) O-NO 69 1 min 0,000 mm 0,6 UV-I 273 W/m 7,2 C 17,9 C 19,3 km/h (3 Bft) 95,65 %
14.04.2018 17:40 20,6 C 11,1 C 42 % 1017,0 hPa 0,0 l/m 13,1 km/h (3 Bft) O-NO 69 1 min 0,000 mm 0,6 UV-I 272 W/m 7,2 C 18,4 C 17,7 km/h (3 Bft) 87,50 %
14.04.2018 17:41 20,5 C 11,1 C 41 % 1016,9 hPa 0,0 l/m 14,1 km/h (3 Bft) O-NO 69 1 min 0,000 mm 0,6 UV-I 271 W/m 6,8 C 18,1 C 17,7 km/h (3 Bft) 100,00 %
14.04.2018 17:42 20,5 C 11,1 C 41 % 1016,9 hPa 0,0 l/m 10,7 km/h (2 Bft) O 83 1 min 0,000 mm 0,6 UV-I 268 W/m 6,8 C 19,0 C 17,7 km/h (3 Bft) 95,83 %
14.04.2018 17:43 20,4 C 11,1 C 41 % 1016,9 hPa 0,0 l/m 12,8 km/h (3 Bft) O-NO 78 1 min 0,000 mm 0,6 UV-I 262 W/m 6,7 C 18,3 C 17,7 km/h (3 Bft) 100,00 %
14.04.2018 17:44 20,4 C 11,1 C 42 % 1016,9 hPa 0,0 l/m 12,3 km/h (3 Bft) O 94 1 min 0,000 mm 0,6 UV-I 255 W/m 7,1 C 18,4 C 16,1 km/h (3 Bft) 91,30 %
14.04.2018 17:45 20,4 C 11,1 C 42 % 1016,9 hPa 0,0 l/m 11,9 km/h (2 Bft) O-NO 76 1 min 0,000 mm 0,6 UV-I 252 W/m 7,1 C 18,5 C 14,5 km/h (3 Bft) 100,00 %
14.04.2018 17:46 20,4 C 11,1 C 43 % 1016,9 hPa 0,0 l/m 10,2 km/h (2 Bft) O-NO 65 1 min 0,000 mm 0,6 UV-I 258 W/m 7,4 C 19,0 C 14,5 km/h (3 Bft) 96,55 %
14.04.2018 17:47 20,4 C 11,1 C 44 % 1016,9 hPa 0,0 l/m 12,6 km/h (3 Bft) NO 47 1 min 0,000 mm 0,6 UV-I 258 W/m 7,7 C 18,3 C 17,7 km/h (3 Bft) 100,00 %
14.04.2018 17:48 20,5 C 11,1 C 44 % 1016,9 hPa 0,0 l/m 16,7 km/h (3 Bft) O-NO 61 1 min 0,000 mm 0,6 UV-I 258 W/m 7,8 C 17,5 C 19,3 km/h (3 Bft) 91,30 %
14.04.2018 17:49 20,5 C 11,1 C 43 % 1016,9 hPa 0,0 l/m 10,4 km/h (2 Bft) O-NO 64 1 min 0,000 mm 0,5 UV-I 257 W/m 7,5 C 19,1 C 17,7 km/h (3 Bft) 87,50 %
14.04.2018 17:50 20,5 C 11,1 C 42 % 1016,9 hPa 0,0 l/m 10,5 km/h (2 Bft) O 96 1 min 0,000 mm 0,5 UV-I 256 W/m 7,1 C 19,0 C 14,5 km/h (3 Bft) 91,30 %
14.04.2018 17:51 20,6 C 11,1 C 42 % 1016,9 hPa 0,0 l/m 12,0 km/h (2 Bft) O 85 1 min 0,000 mm 0,5 UV-I 252 W/m 7,2 C 18,7 C 16,1 km/h (3 Bft) 100,00 %
14.04.2018 17:52 20,5 C 11,1 C 43 % 1016,9 hPa 0,0 l/m 8,3 km/h (2 Bft) NO 46 1 min 0,000 mm 0,5 UV-I 248 W/m 7,5 C 19,8 C 11,3 km/h (2 Bft) 95,83 %
14.04.2018 17:53 20,5 C 11,1 C 43 % 1016,9 hPa 0,0 l/m 13,9 km/h (3 Bft) NO 54 1 min 0,000 mm 0,5 UV-I 248 W/m 7,5 C 18,1 C 17,7 km/h (3 Bft) 100,00 %
14.04.2018 17:54 20,4 C 11,1 C 43 % 1016,9 hPa 0,0 l/m 11,4 km/h (2 Bft) O 84 1 min 0,000 mm 0,5 UV-I 247 W/m 7,4 C 18,7 C 19,3 km/h (3 Bft) 95,83 %
14.04.2018 17:55 20,4 C 11,1 C 42 % 1016,9 hPa 0,0 l/m 14,4 km/h (3 Bft) O-NO 74 1 min 0,000 mm 0,5 UV-I 243 W/m 7,1 C 17,9 C 17,7 km/h (3 Bft) 91,30 %
14.04.2018 17:56 20,4 C 11,1 C 42 % 1016,9 hPa 0,0 l/m 13,0 km/h (3 Bft) O-NO 78 1 min 0,000 mm 0,5 UV-I 240 W/m 7,1 C 18,2 C 20,9 km/h (4 Bft) 95,83 %
14.04.2018 17:57 20,4 C 11,1 C 44 % 1016,9 hPa 0,0 l/m 12,8 km/h (3 Bft) O-NO 74 1 min 0,000 mm 0,5 UV-I 239 W/m 7,7 C 18,3 C 17,7 km/h (3 Bft) 91,30 %
14.04.2018 17:58 20,4 C 11,1 C 43 % 1016,9 hPa 0,0 l/m 15,3 km/h (3 Bft) O-NO 64 1 min 0,000 mm 0,5 UV-I 237 W/m 7,4 C 17,7 C 22,5 km/h (4 Bft) 100,00 %
14.04.2018 17:59 20,4 C 11,1 C 41 % 1016,9 hPa 0,0 l/m 14,8 km/h (3 Bft) NO 42 1 min 0,000 mm 0,5 UV-I 233 W/m 6,7 C 17,8 C 20,9 km/h (4 Bft) 96,15 %
14.04.2018 18:00 20,3 C 11,1 C 41 % 1016,9 hPa 0,0 l/m 13,4 km/h (3 Bft) O-NO 71 1 min 0,000 mm 0,5 UV-I 229 W/m 6,6 C 18,0 C 16,1 km/h (3 Bft) 100,00 %
14.04.2018 18:01 20,3 C 11,1 C 42 % 1016,9 hPa 0,0 l/m 16,8 km/h (3 Bft) O-NO 64 1 min 0,279 mm 0,4 UV-I 224 W/m 7,0 C 17,2 C 22,5 km/h (4 Bft) 96,15 %
14.04.2018 18:02 20,3 C 11,1 C 43 % 1016,9 hPa 0,0 l/m 13,9 km/h (3 Bft) O-NO 61 1 min 0,000 mm 0,0 UV-I 218 W/m 7,3 C 17,9 C 17,7 km/h (3 Bft) 95,83 %
14.04.2018 18:03 20,3 C 11,1 C 44 % 1016,9 hPa 0,0 l/m 16,0 km/h (3 Bft) O-NO 61 1 min 0,000 mm 0,0 UV-I 214 W/m 7,6 C 17,4 C 20,9 km/h (4 Bft) 100,00 %
14.04.2018 18:04 20,3 C 11,1 C 43 % 1016,9 hPa 0,0 l/m 10,6 km/h (2 Bft) NO 43 1 min 0,000 mm 0,0 UV-I 214 W/m 7,3 C 18,8 C 14,5 km/h (3 Bft) 100,00 %
14.04.2018 18:05 20,3 C 11,1 C 44 % 1016,9 hPa 0,0 l/m 8,9 km/h (2 Bft) O 79 1 min 0,000 mm 0,0 UV-I 212 W/m 7,6 C 19,3 C 12,9 km/h (3 Bft) 100,00 %
14.04.2018 18:06 20,2 C 11,1 C 44 % 1016,9 hPa 0,0 l/m 10,8 km/h (2 Bft) O-NO 71 1 min 0,000 mm 0,0 UV-I 207 W/m 7,6 C 18,6 C 16,1 km/h (3 Bft) 100,00 %
14.04.2018 18:07 20,3 C 11,1 C 45 % 1016,9 hPa 0,0 l/m 11,1 km/h (2 Bft) O-NO 76 1 min 0,000 mm 0,0 UV-I 199 W/m 8,0 C 18,6 C 16,1 km/h (3 Bft) 100,00 %
14.04.2018 18:08 20,2 C 11,1 C 41 % 1016,9 hPa 0,0 l/m 10,7 km/h (2 Bft) O-NO 59 1 min 0,000 mm 0,0 UV-I 189 W/m 6,5 C 18,6 C 14,5 km/h (3 Bft) 91,67 %
14.04.2018 18:09 20,3 C 11,1 C 43 % 1016,9 hPa 0,0 l/m 10,2 km/h (2 Bft) O-NO 60 1 min 0,000 mm 0,0 UV-I 187 W/m 7,3 C 18,9 C 17,7 km/h (3 Bft) 96,15 %
14.04.2018 18:10 20,3 C 11,1 C 44 % 1016,9 hPa 0,0 l/m 10,3 km/h (2 Bft) NO 42 1 min 0,000 mm 0,0 UV-I 192 W/m 7,6 C 18,9 C 14,5 km/h (3 Bft) 100,00 %
14.04.2018 18:11 20,3 C 11,1 C 45 % 1016,9 hPa 0,0 l/m 11,7 km/h (2 Bft) O-NO 65 1 min 0,000 mm 0,0 UV-I 188 W/m 8,0 C 18,5 C 14,5 km/h (3 Bft) 100,00 %
14.04.2018 18:12 20,3 C 11,1 C 43 % 1016,9 hPa 0,0 l/m 14,5 km/h (3 Bft) NO 55 1 min 0,000 mm 0,0 UV-I 194 W/m 7,3 C 17,7 C 16,1 km/h (3 Bft) 100,00 %
14.04.2018 18:13 20,3 C 11,1 C 43 % 1016,9 hPa 0,0 l/m 15,4 km/h (3 Bft) O-NO 60 1 min 0,000 mm 0,0 UV-I 193 W/m 7,3 C 17,5 C 19,3 km/h (3 Bft) 100,00 %
14.04.2018 18:14 20,2 C 11,1 C 42 % 1016,9 hPa 0,0 l/m 16,6 km/h (3 Bft) NO 36 1 min 0,000 mm 0,0 UV-I 190 W/m 6,9 C 17,1 C 22,5 km/h (4 Bft) 100,00 %
14.04.2018 18:15 20,2 C 11,1 C 42 % 1016,9 hPa 0,0 l/m 15,0 km/h (3 Bft) O-NO 63 1 min 0,000 mm 0,0 UV-I 182 W/m 6,9 C 17,5 C 17,7 km/h (3 Bft) 95,83 %
14.04.2018 18:16 20,2 C 11,1 C 43 % 1016,9 hPa 0,0 l/m 15,2 km/h (3 Bft) O-NO 63 1 min 0,000 mm 0,0 UV-I 181 W/m 7,2 C 17,4 C 17,7 km/h (3 Bft) 100,00 %
14.04.2018 18:17 20,1 C 11,1 C 42 % 1016,9 hPa 0,0 l/m 14,0 km/h (3 Bft) NO 39 1 min 0,000 mm 0,0 UV-I 176 W/m 6,8 C 17,6 C 17,7 km/h (3 Bft) 100,00 %
14.04.2018 18:18 20,1 C 11,1 C 43 % 1016,9 hPa 0,0 l/m 13,5 km/h (3 Bft) NO 49 1 min 0,000 mm 0,0 UV-I 174 W/m 7,1 C 17,7 C 16,1 km/h (3 Bft) 95,65 %
14.04.2018 18:19 20,1 C 11,1 C 44 % 1016,9 hPa 0,0 l/m 13,4 km/h (3 Bft) N-NO 32 1 min 0,000 mm 0,0 UV-I 176 W/m 7,5 C 17,8 C 19,3 km/h (3 Bft) 100,00 %
14.04.2018 18:20 20,0 C 11,1 C 44 % 1016,8 hPa 0,0 l/m 12,6 km/h (3 Bft) O-NO 60 1 min 0,000 mm 0,0 UV-I 180 W/m 7,4 C 17,9 C 16,1 km/h (3 Bft) 100,00 %
14.04.2018 18:21 19,9 C 11,1 C 44 % 1016,8 hPa 0,0 l/m 13,5 km/h (3 Bft) O-NO 76 1 min 0,000 mm 0,0 UV-I 178 W/m 7,3 C 17,5 C 16,1 km/h (3 Bft) 100,00 %
14.04.2018 18:22 19,9 C 11,1 C 45 % 1016,8 hPa 0,0 l/m 14,8 km/h (3 Bft) NO 49 1 min 0,000 mm 0,0 UV-I 174 W/m 7,6 C 17,2 C 17,7 km/h (3 Bft) 100,00 %
14.04.2018 18:23 19,9 C 11,1 C 44 % 1016,8 hPa 0,0 l/m 13,6 km/h (3 Bft) O-NO 71 1 min 0,000 mm 0,0 UV-I 173 W/m 7,3 C 17,5 C 16,1 km/h (3 Bft) 100,00 %
14.04.2018 18:24 20,0 C 11,1 C 44 % 1016,8 hPa 0,0 l/m 10,3 km/h (2 Bft) NO 53 1 min 0,000 mm 0,0 UV-I 172 W/m 7,4 C 18,5 C 14,5 km/h (3 Bft) 100,00 %
14.04.2018 18:25 20,1 C 11,1 C 45 % 1016,8 hPa 0,0 l/m 13,2 km/h (3 Bft) O-NO 60 1 min 0,000 mm 0,0 UV-I 170 W/m 7,8 C 17,8 C 17,7 km/h (3 Bft) 100,00 %
14.04.2018 18:26 20,1 C 11,1 C 44 % 1016,8 hPa 0,0 l/m 10,3 km/h (2 Bft) O-NO 57 1 min 0,000 mm 0,0 UV-I 168 W/m 7,5 C 18,7 C 14,5 km/h (3 Bft) 100,00 %
14.04.2018 18:27 20,1 C 11,1 C 45 % 1016,8 hPa 0,0 l/m 12,3 km/h (3 Bft) NO 49 1 min 0,000 mm 0,0 UV-I 164 W/m 7,8 C 18,1 C 16,1 km/h (3 Bft) 95,83 %
14.04.2018 18:28 20,0 C 11,1 C 45 % 1016,8 hPa 0,0 l/m 9,9 km/h (2 Bft) NO 43 1 min 0,000 mm 0,0 UV-I 162 W/m 7,7 C 18,7 C 14,5 km/h (3 Bft) 100,00 %
14.04.2018 18:29 20,0 C 11,1 C 46 % 1016,8 hPa 0,0 l/m 10,9 km/h (2 Bft) O 87 1 min 0,000 mm 0,0 UV-I 159 W/m 8,0 C 18,4 C 14,5 km/h (3 Bft) 100,00 %
14.04.2018 18:30 20,1 C 11,1 C 44 % 1016,8 hPa 0,0 l/m 9,9 km/h (2 Bft) NO 53 1 min 0,000 mm 0,0 UV-I 158 W/m 7,5 C 18,8 C 16,1 km/h (3 Bft) 86,96 %
14.04.2018 18:31 20,0 C 11,1 C 44 % 1016,8 hPa 0,0 l/m 10,4 km/h (2 Bft) NO 40 1 min 0,000 mm 0,0 UV-I 156 W/m 7,4 C 18,5 C 12,9 km/h (3 Bft) 96,30 %
14.04.2018 18:32 20,0 C 11,1 C 44 % 1016,8 hPa 0,0 l/m 7,5 km/h (2 Bft) NO 55 1 min 0,000 mm 0,0 UV-I 154 W/m 7,4 C 19,5 C 9,7 km/h (2 Bft) 100,00 %
14.04.2018 18:33 20,0 C 11,1 C 43 % 1016,8 hPa 0,0 l/m 9,8 km/h (2 Bft) NO 56 1 min 0,000 mm 0,0 UV-I 150 W/m 7,0 C 18,7 C 16,1 km/h (3 Bft) 100,00 %
14.04.2018 18:34 20,0 C 11,1 C 44 % 1016,8 hPa 0,0 l/m 11,3 km/h (2 Bft) O 98 1 min 0,000 mm 0,0 UV-I 148 W/m 7,4 C 18,2 C 16,1 km/h (3 Bft) 100,00 %
14.04.2018 18:35 20,0 C 11,1 C 43 % 1016,8 hPa 0,0 l/m 12,4 km/h (3 Bft) O-NO 72 1 min 0,000 mm 0,0 UV-I 145 W/m 7,0 C 17,9 C 16,1 km/h (3 Bft) 100,00 %
14.04.2018 18:36 20,0 C 11,1 C 43 % 1016,8 hPa 0,0 l/m 14,3 km/h (3 Bft) O-NO 63 1 min 0,000 mm 0,0 UV-I 143 W/m 7,0 C 17,4 C 16,1 km/h (3 Bft) 100,00 %
14.04.2018 18:37 19,9 C 11,1 C 43 % 1016,8 hPa 0,0 l/m 13,0 km/h (3 Bft) O-NO 65 1 min 0,000 mm 0,0 UV-I 141 W/m 6,9 C 17,6 C 16,1 km/h (3 Bft) 95,83 %
14.04.2018 18:38 19,9 C 11,1 C 43 % 1016,8 hPa 0,0 l/m 10,6 km/h (2 Bft) O-NO 76 1 min 0,000 mm 0,0 UV-I 140 W/m 6,9 C 18,3 C 16,1 km/h (3 Bft) 100,00 %
14.04.2018 18:39 19,9 C 11,1 C 43 % 1016,8 hPa 0,0 l/m 7,8 km/h (2 Bft) NO 53 1 min 0,000 mm 0,0 UV-I 137 W/m 6,9 C 19,3 C 9,7 km/h (2 Bft) 95,65 %
14.04.2018 18:40 19,9 C 11,1 C 45 % 1016,8 hPa 0,0 l/m 8,7 km/h (2 Bft) NO 47 1 min 0,000 mm 0,0 UV-I 135 W/m 7,6 C 19,0 C 12,9 km/h (3 Bft) 100,00 %
14.04.2018 18:41 19,8 C 11,1 C 45 % 1016,9 hPa 0,0 l/m 13,3 km/h (3 Bft) NO 52 1 min 0,000 mm 0,0 UV-I 133 W/m 7,5 C 17,4 C 17,7 km/h (3 Bft) 100,00 %
14.04.2018 18:42 19,8 C 11,1 C 43 % 1016,9 hPa 0,0 l/m 7,8 km/h (2 Bft) O-NO 63 1 min 0,000 mm 0,0 UV-I 131 W/m 6,9 C 19,2 C 11,3 km/h (2 Bft) 100,00 %
14.04.2018 18:43 19,8 C 11,1 C 44 % 1017,0 hPa 0,0 l/m 8,0 km/h (2 Bft) NO 42 1 min 0,000 mm 0,0 UV-I 129 W/m 7,2 C 19,1 C 11,3 km/h (2 Bft) 100,00 %
14.04.2018 18:44 19,8 C 11,1 C 43 % 1016,9 hPa 0,0 l/m 7,7 km/h (2 Bft) O 95 1 min 0,000 mm 0,0 UV-I 127 W/m 6,9 C 19,3 C 11,3 km/h (2 Bft) 100,00 %
14.04.2018 18:45 19,8 C 11,1 C 43 % 1017,0 hPa 0,0 l/m 9,1 km/h (2 Bft) O 82 1 min 0,000 mm 0,0 UV-I 125 W/m 6,9 C 18,7 C 12,9 km/h (3 Bft) 100,00 %
14.04.2018 18:46 19,8 C 11,1 C 43 % 1017,0 hPa 0,0 l/m 11,3 km/h (2 Bft) O-NO 59 1 min 0,000 mm 0,0 UV-I 123 W/m 6,9 C 18,0 C 14,5 km/h (3 Bft) 95,83 %
14.04.2018 18:47 19,8 C 11,1 C 43 % 1017,0 hPa 0,0 l/m 11,3 km/h (2 Bft) O-NO 63 1 min 0,000 mm 0,0 UV-I 121 W/m 6,9 C 18,0 C 17,7 km/h (3 Bft) 100,00 %
14.04.2018 18:48 19,7 C 11,1 C 44 % 1017,0 hPa 0,0 l/m 11,1 km/h (2 Bft) O-NO 64 1 min 0,000 mm 0,0 UV-I 119 W/m 7,1 C 18,0 C 14,5 km/h (3 Bft) 95,83 %
14.04.2018 18:49 19,7 C 11,1 C 44 % 1017,0 hPa 0,0 l/m 11,7 km/h (2 Bft) O-NO 57 1 min 0,000 mm 0,0 UV-I 118 W/m 7,1 C 17,8 C 16,1 km/h (3 Bft) 100,00 %
14.04.2018 18:50 19,6 C 11,1 C 44 % 1017,0 hPa 0,0 l/m 10,3 km/h (2 Bft) O-NO 62 1 min 0,000 mm 0,0 UV-I 116 W/m 7,0 C 18,1 C 14,5 km/h (3 Bft) 95,83 %
14.04.2018 18:51 19,6 C 11,1 C 44 % 1017,0 hPa 0,0 l/m 9,9 km/h (2 Bft) O-NO 61 1 min 0,000 mm 0,0 UV-I 114 W/m 7,0 C 18,2 C 14,5 km/h (3 Bft) 100,00 %
14.04.2018 18:52 19,6 C 11,1 C 45 % 1017,0 hPa 0,0 l/m 9,1 km/h (2 Bft) O-NO 63 1 min 0,000 mm 0,0 UV-I 110 W/m 7,3 C 18,5 C 12,9 km/h (3 Bft) 95,83 %
14.04.2018 18:53 19,6 C 11,1 C 44 % 1017,0 hPa 0,0 l/m 6,6 km/h (2 Bft) O-NO 67 1 min 0,000 mm 0,0 UV-I 107 W/m 7,0 C 19,5 C 11,3 km/h (2 Bft) 100,00 %
14.04.2018 18:54 19,6 C 11,1 C 44 % 1017,0 hPa 0,0 l/m 10,0 km/h (2 Bft) O-NO 73 1 min 0,000 mm 0,0 UV-I 104 W/m 7,0 C 18,2 C 14,5 km/h (3 Bft) 100,00 %
14.04.2018 18:55 19,6 C 11,1 C 44 % 1017,0 hPa 0,0 l/m 9,5 km/h (2 Bft) NO 38 1 min 0,000 mm 0,0 UV-I 99 W/m 7,0 C 18,4 C 14,5 km/h (3 Bft) 100,00 %
14.04.2018 18:56 19,5 C 11,1 C 44 % 1017,0 hPa 0,0 l/m 9,1 km/h (2 Bft) O-NO 75 1 min 0,000 mm 0,0 UV-I 93 W/m 6,9 C 18,4 C 14,5 km/h (3 Bft) 93,33 %
14.04.2018 18:58 19,4 C 11,1 C 44 % 1017,0 hPa 0,0 l/m 12,3 km/h (3 Bft) O-NO 69 2 min 0,000 mm 0,0 UV-I 97 W/m 6,8 C 17,3 C 20,9 km/h (4 Bft) 100,00 %
14.04.2018 18:59 19,4 C 11,1 C 42 % 1017,0 hPa 0,0 l/m 16,7 km/h (3 Bft) O 93 1 min 0,000 mm 0,0 UV-I 98 W/m 6,2 C 16,1 C 19,3 km/h (3 Bft) 100,00 %
14.04.2018 19:00 19,4 C 11,1 C 44 % 1017,0 hPa 0,0 l/m 14,7 km/h (3 Bft) O-NO 69 1 min 0,000 mm 0,0 UV-I 98 W/m 6,8 C 16,6 C 19,3 km/h (3 Bft) 100,00 %
14.04.2018 19:01 19,3 C 11,1 C 45 % 1017,0 hPa 0,0 l/m 14,3 km/h (3 Bft) O-NO 69 1 min 0,178 mm 0,0 UV-I 98 W/m 7,1 C 16,6 C 17,7 km/h (3 Bft) 100,00 %
14.04.2018 19:02 19,2 C 11,1 C 45 % 1016,9 hPa 0,0 l/m 13,3 km/h (3 Bft) O 86 1 min 0,000 mm 0,0 UV-I 97 W/m 7,0 C 16,7 C 17,7 km/h (3 Bft) 100,00 %
14.04.2018 19:03 19,2 C 11,1 C 45 % 1017,0 hPa 0,0 l/m 10,8 km/h (2 Bft) O-NO 76 1 min 0,000 mm 0,0 UV-I 95 W/m 7,0 C 17,5 C 14,5 km/h (3 Bft) 95,83 %
14.04.2018 19:04 19,2 C 11,1 C 45 % 1016,9 hPa 0,0 l/m 12,5 km/h (3 Bft) O-NO 69 1 min 0,000 mm 0,0 UV-I 90 W/m 7,0 C 17,0 C 16,1 km/h (3 Bft) 100,00 %
14.04.2018 19:05 19,1 C 11,1 C 45 % 1017,0 hPa 0,0 l/m 12,2 km/h (2 Bft) O-NO 63 1 min 0,000 mm 0,0 UV-I 88 W/m 6,9 C 16,9 C 16,1 km/h (3 Bft) 95,83 %
14.04.2018 19:06 19,1 C 11,1 C 44 % 1017,0 hPa 0,0 l/m 15,1 km/h (3 Bft) O 94 1 min 0,000 mm 0,0 UV-I 87 W/m 6,6 C 16,1 C 20,9 km/h (4 Bft) 100,00 %
14.04.2018 19:08 19,0 C 11,1 C 45 % 1017,0 hPa 0,0 l/m 10,8 km/h (2 Bft) O-NO 75 2 min 0,000 mm 0,0 UV-I 79 W/m 6,8 C 17,3 C 14,5 km/h (3 Bft) 97,92 %
14.04.2018 19:09 18,9 C 11,1 C 46 % 1017,0 hPa 0,0 l/m 13,3 km/h (3 Bft) O 82 1 min 0,000 mm 0,0 UV-I 67 W/m 7,0 C 16,4 C 17,7 km/h (3 Bft) 91,30 %
14.04.2018 19:10 18,9 C 11,1 C 45 % 1017,0 hPa 0,0 l/m 13,5 km/h (3 Bft) O-NO 70 1 min 0,000 mm 0,0 UV-I 68 W/m 6,7 C 16,3 C 17,7 km/h (3 Bft) 95,83 %
14.04.2018 19:11 18,9 C 11,1 C 45 % 1017,0 hPa 0,0 l/m 17,2 km/h (3 Bft) O-NO 70 1 min 0,000 mm 0,0 UV-I 71 W/m 6,7 C 15,4 C 19,3 km/h (3 Bft) 100,00 %
14.04.2018 19:12 18,9 C 11,1 C 44 % 1017,0 hPa 0,0 l/m 14,6 km/h (3 Bft) O-NO 66 1 min 0,000 mm 0,0 UV-I 73 W/m 6,4 C 16,0 C 19,3 km/h (3 Bft) 95,83 %
14.04.2018 19:13 18,9 C 11,1 C 45 % 1017,0 hPa 0,0 l/m 14,2 km/h (3 Bft) O 95 1 min 0,000 mm 0,0 UV-I 72 W/m 6,7 C 16,1 C 20,9 km/h (4 Bft) 100,00 %
14.04.2018 19:14 18,8 C 11,1 C 45 % 1017,0 hPa 0,0 l/m 15,4 km/h (3 Bft) O 99 1 min 0,000 mm 0,0 UV-I 72 W/m 6,6 C 15,7 C 19,3 km/h (3 Bft) 95,83 %
14.04.2018 19:15 18,8 C 11,1 C 45 % 1017,1 hPa 0,0 l/m 14,6 km/h (3 Bft) O-NO 74 1 min 0,000 mm 0,0 UV-I 69 W/m 6,6 C 15,9 C 17,7 km/h (3 Bft) 100,00 %
14.04.2018 19:16 18,7 C 11,1 C 45 % 1017,1 hPa 0,0 l/m 13,5 km/h (3 Bft) O-NO 67 1 min 0,000 mm 0,0 UV-I 66 W/m 6,5 C 16,1 C 16,1 km/h (3 Bft) 95,83 %
14.04.2018 19:17 18,7 C 11,1 C 45 % 1017,0 hPa 0,0 l/m 14,5 km/h (3 Bft) O-NO 66 1 min 0,000 mm 0,0 UV-I 62 W/m 6,5 C 15,8 C 19,3 km/h (3 Bft) 100,00 %
14.04.2018 19:18 18,7 C 11,1 C 46 % 1017,0 hPa 0,0 l/m 14,9 km/h (3 Bft) O-NO 68 1 min 0,000 mm 0,0 UV-I 58 W/m 6,8 C 15,7 C 22,5 km/h (4 Bft) 95,83 %
14.04.2018 19:19 18,7 C 11,1 C 45 % 1017,1 hPa 0,0 l/m 16,2 km/h (3 Bft) O-NO 78 1 min 0,000 mm 0,0 UV-I 54 W/m 6,5 C 15,4 C 19,3 km/h (3 Bft) 95,65 %
14.04.2018 19:20 18,6 C 11,1 C 46 % 1017,1 hPa 0,0 l/m 14,9 km/h (3 Bft) O-NO 68 1 min 0,000 mm 0,0 UV-I 51 W/m 6,8 C 15,6 C 19,3 km/h (3 Bft) 100,00 %
14.04.2018 19:21 18,6 C 11,1 C 45 % 1017,0 hPa 0,0 l/m 14,4 km/h (3 Bft) O-NO 72 1 min 0,000 mm 0,0 UV-I 45 W/m 6,4 C 15,7 C 19,3 km/h (3 Bft) 95,65 %
14.04.2018 19:22 18,6 C 11,1 C 45 % 1017,0 hPa 0,0 l/m 14,5 km/h (3 Bft) O-NO 57 1 min 0,000 mm 0,0 UV-I 40 W/m 6,4 C 15,7 C 19,3 km/h (3 Bft) 100,00 %
14.04.2018 19:23 18,6 C 11,1 C 45 % 1017,1 hPa 0,0 l/m 16,2 km/h (3 Bft) O 83 0 min 0,000 mm 0,0 UV-I 37 W/m 6,4 C 15,2 C 17,7 km/h (3 Bft) 95,65 %
14.04.2018 19:24 18,6 C 11,1 C 45 % 1017,1 hPa 0,0 l/m 12,6 km/h (3 Bft) NO 46 0 min 0,000 mm 0,0 UV-I 34 W/m 6,4 C 16,2 C 17,7 km/h (3 Bft) 100,00 %
14.04.2018 19:25 18,5 C 11,1 C 45 % 1017,1 hPa 0,0 l/m 14,3 km/h (3 Bft) O-NO 75 0 min 0,000 mm 0,0 UV-I 32 W/m 6,3 C 15,6 C 19,3 km/h (3 Bft) 96,15 %
14.04.2018 19:26 18,5 C 11,1 C 45 % 1017,1 hPa 0,0 l/m 15,0 km/h (3 Bft) O-NO 62 0 min 0,000 mm 0,0 UV-I 30 W/m 6,3 C 15,4 C 19,3 km/h (3 Bft) 95,83 %
14.04.2018 19:27 18,4 C 11,1 C 46 % 1017,1 hPa 0,0 l/m 13,4 km/h (3 Bft) O-NO 69 0 min 0,000 mm 0,0 UV-I 30 W/m 6,6 C 15,8 C 16,1 km/h (3 Bft) 100,00 %
14.04.2018 19:28 18,3 C 11,1 C 47 % 1017,1 hPa 0,0 l/m 10,1 km/h (2 Bft) O-NO 68 0 min 0,000 mm 0,0 UV-I 27 W/m 6,8 C 16,7 C 14,5 km/h (3 Bft) 93,33 %
14.04.2018 19:29 18,2 C 11,1 C 47 % 1017,1 hPa 0,0 l/m 13,6 km/h (3 Bft) O-NO 63 0 min 0,000 mm 0,0 UV-I 25 W/m 6,7 C 15,5 C 20,9 km/h (4 Bft) 100,00 %
14.04.2018 19:30 18,2 C 11,1 C 46 % 1017,1 hPa 0,0 l/m 14,3 km/h (3 Bft) O-NO 61 0 min 0,000 mm 0,0 UV-I 24 W/m 6,4 C 15,3 C 17,7 km/h (3 Bft) 95,65 %
14.04.2018 19:31 18,1 C 11,1 C 47 % 1017,2 hPa 0,0 l/m 13,6 km/h (3 Bft) O-NO 78 0 min 0,000 mm 0,0 UV-I 21 W/m 6,6 C 15,3 C 16,1 km/h (3 Bft) 100,00 %
14.04.2018 19:32 18,1 C 11,1 C 47 % 1017,2 hPa 0,0 l/m 10,5 km/h (2 Bft) O-NO 69 0 min 0,000 mm 0,0 UV-I 21 W/m 6,6 C 16,4 C 14,5 km/h (3 Bft) 95,65 %
14.04.2018 19:33 18,1 C 11,1 C 47 % 1017,2 hPa 0,0 l/m 11,5 km/h (2 Bft) O-NO 77 0 min 0,000 mm 0,0 UV-I 19 W/m 6,6 C 16,0 C 14,5 km/h (3 Bft) 100,00 %
14.04.2018 19:34 18,0 C 11,1 C 47 % 1017,2 hPa 0,0 l/m 13,1 km/h (3 Bft) NO 56 0 min 0,000 mm 0,0 UV-I 19 W/m 6,5 C 15,4 C 16,1 km/h (3 Bft) 95,65 %
14.04.2018 19:35 17,9 C 11,1 C 47 % 1017,2 hPa 0,0 l/m 9,4 km/h (2 Bft) O 93 0 min 0,000 mm 0,0 UV-I 18 W/m 6,4 C 16,6 C 12,9 km/h (3 Bft) 100,00 %
14.04.2018 19:36 17,9 C 11,1 C 47 % 1017,2 hPa 0,0 l/m 10,7 km/h (2 Bft) O-NO 67 0 min 0,000 mm 0,0 UV-I 17 W/m 6,4 C 16,1 C 22,5 km/h (4 Bft) 100,00 %
14.04.2018 19:37 17,9 C 11,1 C 48 % 1017,2 hPa 0,0 l/m 10,1 km/h (2 Bft) O-NO 69 1 min 0,000 mm 0,0 UV-I 16 W/m 6,7 C 16,3 C 12,9 km/h (3 Bft) 95,83 %
14.04.2018 19:38 17,8 C 11,1 C 47 % 1017,2 hPa 0,0 l/m 11,3 km/h (2 Bft) O-NO 76 0 min 0,000 mm 0,0 UV-I 14 W/m 6,3 C 15,7 C 16,1 km/h (3 Bft) 100,00 %
14.04.2018 19:39 17,8 C 11,1 C 48 % 1017,2 hPa 0,0 l/m 13,7 km/h (3 Bft) O-NO 78 1 min 0,000 mm 0,0 UV-I 14 W/m 6,6 C 15,0 C 19,3 km/h (3 Bft) 100,00 %
14.04.2018 19:40 17,8 C 11,1 C 47 % 1017,2 hPa 0,0 l/m 13,2 km/h (3 Bft) O-NO 71 1 min 0,000 mm 0,0 UV-I 12 W/m 6,3 C 15,1 C 17,7 km/h (3 Bft) 100,00 %
14.04.2018 19:41 17,8 C 11,1 C 47 % 1017,2 hPa 0,0 l/m 14,1 km/h (3 Bft) O-NO 69 1 min 0,000 mm 0,0 UV-I 12 W/m 6,3 C 14,8 C 17,7 km/h (3 Bft) 100,00 %
14.04.2018 19:42 17,8 C 11,1 C 48 % 1017,2 hPa 0,0 l/m 13,6 km/h (3 Bft) O-NO 66 1 min 0,000 mm 0,0 UV-I 11 W/m 6,6 C 15,0 C 16,1 km/h (3 Bft) 95,65 %
14.04.2018 19:43 17,8 C 11,1 C 48 % 1017,2 hPa 0,0 l/m 11,8 km/h (2 Bft) O 83 0 min 0,000 mm 0,0 UV-I 11 W/m 6,6 C 15,6 C 14,5 km/h (3 Bft) 100,00 %
14.04.2018 19:44 17,8 C 11,1 C 48 % 1017,2 hPa 0,0 l/m 11,9 km/h (2 Bft) O-NO 60 0 min 0,000 mm 0,0 UV-I 11 W/m 6,6 C 15,5 C 16,1 km/h (3 Bft) 100,00 %
14.04.2018 19:45 17,7 C 11,1 C 48 % 1017,2 hPa 0,0 l/m 12,3 km/h (3 Bft) O-NO 76 0 min 0,000 mm 0,0 UV-I 10 W/m 6,6 C 15,3 C 16,1 km/h (3 Bft) 96,55 %
14.04.2018 19:46 17,7 C 11,1 C 48 % 1017,2 hPa 0,0 l/m 11,5 km/h (2 Bft) O-NO 71 0 min 0,000 mm 0,0 UV-I 9 W/m 6,6 C 15,6 C 14,5 km/h (3 Bft) 95,83 %
14.04.2018 19:47 17,6 C 11,1 C 49 % 1017,2 hPa 0,0 l/m 8,8 km/h (2 Bft) O-NO 66 0 min 0,000 mm 0,0 UV-I 9 W/m 6,8 C 16,5 C 12,9 km/h (3 Bft) 100,00 %
14.04.2018 19:48 17,5 C 11,1 C 49 % 1017,2 hPa 0,0 l/m 8,9 km/h (2 Bft) O-NO 68 0 min 0,000 mm 0,0 UV-I 9 W/m 6,7 C 16,3 C 12,9 km/h (3 Bft) 100,00 %
14.04.2018 19:49 17,4 C 11,1 C 50 % 1017,2 hPa 0,0 l/m 11,9 km/h (2 Bft) O-NO 77 0 min 0,000 mm 0,0 UV-I 7 W/m 6,9 C 15,1 C 16,1 km/h (3 Bft) 100,00 %
14.04.2018 19:50 17,4 C 11,1 C 49 % 1017,3 hPa 0,0 l/m 10,4 km/h (2 Bft) O-NO 61 0 min 0,000 mm 0,0 UV-I 7 W/m 6,6 C 15,6 C 14,5 km/h (3 Bft) 100,00 %
14.04.2018 19:51 17,4 C 11,1 C 49 % 1017,2 hPa 0,0 l/m 12,7 km/h (3 Bft) O-NO 59 0 min 0,000 mm 0,0 UV-I 7 W/m 6,6 C 14,8 C 16,1 km/h (3 Bft) 95,65 %
14.04.2018 19:53 17,3 C 11,1 C 50 % 1017,3 hPa 0,0 l/m 12,0 km/h (2 Bft) O-NO 71 0 min 0,000 mm 0,0 UV-I 6 W/m 6,8 C 14,9 C 17,7 km/h (3 Bft) 97,87 %
14.04.2018 19:54 17,3 C 11,1 C 50 % 1017,3 hPa 0,0 l/m 11,4 km/h (2 Bft) O-NO 59 0 min 0,000 mm 0,0 UV-I 5 W/m 6,8 C 15,1 C 14,5 km/h (3 Bft) 100,00 %
14.04.2018 19:55 17,3 C 11,1 C 49 % 1017,3 hPa 0,0 l/m 11,6 km/h (2 Bft) O-NO 74 0 min 0,000 mm 0,0 UV-I 5 W/m 6,5 C 15,1 C 16,1 km/h (3 Bft) 100,00 %
14.04.2018 19:56 17,3 C 11,1 C 49 % 1017,3 hPa 0,0 l/m 12,8 km/h (3 Bft) O 81 0 min 0,000 mm 0,0 UV-I 5 W/m 6,5 C 14,7 C 16,1 km/h (3 Bft) 100,00 %
14.04.2018 19:57 17,2 C 11,1 C 50 % 1017,3 hPa 0,0 l/m 11,3 km/h (2 Bft) O-NO 71 0 min 0,000 mm 0,0 UV-I 5 W/m 6,7 C 15,1 C 16,1 km/h (3 Bft) 95,65 %
14.04.2018 19:58 17,2 C 11,1 C 50 % 1017,4 hPa 0,0 l/m 11,5 km/h (2 Bft) O 80 0 min 0,000 mm 0,0 UV-I 5 W/m 6,7 C 15,0 C 14,5 km/h (3 Bft) 100,00 %
14.04.2018 19:59 17,2 C 11,1 C 50 % 1017,3 hPa 0,0 l/m 10,5 km/h (2 Bft) O-NO 76 0 min 0,000 mm 0,0 UV-I 5 W/m 6,7 C 15,4 C 14,5 km/h (3 Bft) 100,00 %
14.04.2018 20:00 17,2 C 11,1 C 50 % 1017,3 hPa 0,0 l/m 8,0 km/h (2 Bft) O-NO 71 0 min 0,000 mm 0,0 UV-I 5 W/m 6,7 C 16,4 C 11,3 km/h (2 Bft) 100,00 %
14.04.2018 20:01 17,1 C 11,1 C 50 % 1017,4 hPa 0,0 l/m 8,4 km/h (2 Bft) O-NO 63 0 min 0,127 mm 0,0 UV-I 5 W/m 6,6 C 16,1 C 12,9 km/h (3 Bft) 100,00 %
14.04.2018 20:02 17,1 C 11,1 C 50 % 1017,4 hPa 0,0 l/m 10,3 km/h (2 Bft) O-NO 76 0 min 0,000 mm 0,0 UV-I 5 W/m 6,6 C 15,3 C 12,9 km/h (3 Bft) 100,00 %
14.04.2018 20:03 17,1 C 11,1 C 50 % 1017,4 hPa 0,0 l/m 7,1 km/h (2 Bft) O-NO 73 0 min 0,000 mm 0,0 UV-I 5 W/m 6,6 C 16,7 C 11,3 km/h (2 Bft) 100,00 %
14.04.2018 20:04 17,1 C 11,1 C 50 % 1017,4 hPa 0,0 l/m 9,4 km/h (2 Bft) O-NO 61 0 min 0,000 mm 0,0 UV-I 3 W/m 6,6 C 15,7 C 14,5 km/h (3 Bft) 95,65 %
14.04.2018 20:05 17,1 C 11,1 C 50 % 1017,4 hPa 0,0 l/m 10,9 km/h (2 Bft) O-NO 73 0 min 0,000 mm 0,0 UV-I 0 W/m 6,6 C 15,1 C 14,5 km/h (3 Bft) 100,00 %
14.04.2018 20:06 17,1 C 11,1 C 50 % 1017,4 hPa 0,0 l/m 11,4 km/h (2 Bft) O 84 0 min 0,000 mm 0,0 UV-I 0 W/m 6,6 C 14,9 C 14,5 km/h (3 Bft) 95,65 %
14.04.2018 20:07 17,0 C 11,1 C 50 % 1017,4 hPa 0,0 l/m 12,7 km/h (3 Bft) O-NO 66 0 min 0,000 mm 0,0 UV-I 0 W/m 6,5 C 14,3 C 14,5 km/h (3 Bft) 100,00 %
14.04.2018 20:08 17,0 C 11,1 C 50 % 1017,4 hPa 0,0 l/m 12,5 km/h (3 Bft) O 87 0 min 0,000 mm 0,0 UV-I 0 W/m 6,5 C 14,4 C 17,7 km/h (3 Bft) 100,00 %
14.04.2018 20:09 17,0 C 11,1 C 51 % 1017,4 hPa 0,0 l/m 11,6 km/h (2 Bft) O 87 0 min 0,000 mm 0,0 UV-I 0 W/m 6,8 C 14,7 C 16,1 km/h (3 Bft) 100,00 %
14.04.2018 20:10 16,9 C 11,1 C 51 % 1017,4 hPa 0,0 l/m 13,2 km/h (3 Bft) O 80 0 min 0,000 mm 0,0 UV-I 0 W/m 6,7 C 14,1 C 17,7 km/h (3 Bft) 100,00 %
14.04.2018 20:11 16,9 C 11,1 C 51 % 1017,5 hPa 0,0 l/m 14,1 km/h (3 Bft) O 82 0 min 0,000 mm 0,0 UV-I 0 W/m 6,7 C 13,8 C 17,7 km/h (3 Bft) 100,00 %
14.04.2018 20:12 16,9 C 11,1 C 51 % 1017,4 hPa 0,0 l/m 12,4 km/h (3 Bft) O-NO 78 0 min 0,000 mm 0,0 UV-I 0 W/m 6,7 C 14,3 C 16,1 km/h (3 Bft) 100,00 %
14.04.2018 20:13 16,9 C 11,1 C 51 % 1017,4 hPa 0,0 l/m 13,1 km/h (3 Bft) O-NO 68 0 min 0,000 mm 0,0 UV-I 0 W/m 6,7 C 14,1 C 16,1 km/h (3 Bft) 100,00 %
14.04.2018 20:14 16,9 C 11,1 C 51 % 1017,5 hPa 0,0 l/m 12,9 km/h (3 Bft) O 90 0 min 0,000 mm 0,0 UV-I 0 W/m 6,7 C 14,2 C 14,5 km/h (3 Bft) 100,00 %
14.04.2018 20:15 16,9 C 11,1 C 51 % 1017,5 hPa 0,0 l/m 13,4 km/h (3 Bft) NO 55 0 min 0,000 mm 0,0 UV-I 0 W/m 6,7 C 14,0 C 16,1 km/h (3 Bft) 100,00 %
14.04.2018 20:16 16,9 C 11,1 C 50 % 1017,5 hPa 0,0 l/m 12,2 km/h (2 Bft) O-NO 73 0 min 0,000 mm 0,0 UV-I 0 W/m 6,4 C 14,4 C 16,1 km/h (3 Bft) 100,00 %
14.04.2018 20:17 16,9 C 11,1 C 51 % 1017,5 hPa 0,0 l/m 13,7 km/h (3 Bft) O-NO 77 0 min 0,000 mm 0,0 UV-I 0 W/m 6,7 C 13,9 C 17,7 km/h (3 Bft) 95,83 %
14.04.2018 20:18 16,9 C 11,1 C 51 % 1017,5 hPa 0,0 l/m 14,1 km/h (3 Bft) O 81 0 min 0,000 mm 0,0 UV-I 0 W/m 6,7 C 13,8 C 17,7 km/h (3 Bft) 95,65 %
14.04.2018 20:19 16,9 C 11,1 C 51 % 1017,5 hPa 0,0 l/m 14,3 km/h (3 Bft) O-NO 59 0 min 0,000 mm 0,0 UV-I 0 W/m 6,7 C 13,7 C 19,3 km/h (3 Bft) 100,00 %
14.04.2018 20:20 16,9 C 11,1 C 51 % 1017,6 hPa 0,0 l/m 14,2 km/h (3 Bft) O-NO 75 0 min 0,000 mm 0,0 UV-I 0 W/m 6,7 C 13,7 C 17,7 km/h (3 Bft) 100,00 %
14.04.2018 20:21 16,9 C 11,1 C 51 % 1017,5 hPa 0,0 l/m 15,2 km/h (3 Bft) O-NO 73 0 min 0,000 mm 0,0 UV-I 0 W/m 6,7 C 13,4 C 17,7 km/h (3 Bft) 100,00 %
14.04.2018 20:22 16,9 C 11,1 C 51 % 1017,6 hPa 0,0 l/m 13,1 km/h (3 Bft) O-NO 78 0 min 0,000 mm 0,0 UV-I 0 W/m 6,7 C 14,1 C 16,1 km/h (3 Bft) 100,00 %
14.04.2018 20:23 16,8 C 11,1 C 51 % 1017,6 hPa 0,0 l/m 13,5 km/h (3 Bft) O-NO 74 0 min 0,000 mm 0,0 UV-I 0 W/m 6,6 C 13,8 C 16,1 km/h (3 Bft) 100,00 %
14.04.2018 20:24 16,8 C 11,1 C 51 % 1017,6 hPa 0,0 l/m 13,2 km/h (3 Bft) O-NO 69 0 min 0,000 mm 0,0 UV-I 0 W/m 6,6 C 13,9 C 16,1 km/h (3 Bft) 100,00 %
14.04.2018 20:25 16,8 C 11,1 C 51 % 1017,6 hPa 0,0 l/m 12,7 km/h (3 Bft) O-SO 105 0 min 0,000 mm 0,0 UV-I 0 W/m 6,6 C 14,1 C 14,5 km/h (3 Bft) 100,00 %
14.04.2018 20:26 16,8 C 11,1 C 51 % 1017,6 hPa 0,0 l/m 12,0 km/h (2 Bft) O-NO 63 0 min 0,000 mm 0,0 UV-I 0 W/m 6,6 C 14,3 C 16,1 km/h (3 Bft) 100,00 %
14.04.2018 20:27 16,7 C 11,1 C 51 % 1017,6 hPa 0,0 l/m 12,4 km/h (3 Bft) O 94 0 min 0,000 mm 0,0 UV-I 0 W/m 6,5 C 14,1 C 16,1 km/h (3 Bft) 100,00 %
14.04.2018 20:28 16,7 C 11,1 C 52 % 1017,6 hPa 0,0 l/m 14,2 km/h (3 Bft) O 96 0 min 0,000 mm 0,0 UV-I 0 W/m 6,8 C 13,5 C 17,7 km/h (3 Bft) 100,00 %
14.04.2018 20:29 16,6 C 11,1 C 52 % 1017,6 hPa 0,0 l/m 13,5 km/h (3 Bft) O-NO 76 0 min 0,000 mm 0,0 UV-I 0 W/m 6,7 C 13,6 C 17,7 km/h (3 Bft) 100,00 %
14.04.2018 20:30 16,6 C 11,1 C 52 % 1017,6 hPa 0,0 l/m 13,8 km/h (3 Bft) O-NO 58 0 min 0,000 mm 0,0 UV-I 0 W/m 6,7 C 13,5 C 19,3 km/h (3 Bft) 100,00 %
14.04.2018 20:31 16,6 C 11,1 C 52 % 1017,6 hPa 0,0 l/m 13,4 km/h (3 Bft) O-NO 73 0 min 0,000 mm 0,0 UV-I 0 W/m 6,7 C 13,6 C 16,1 km/h (3 Bft) 100,00 %
14.04.2018 20:32 16,6 C 11,1 C 52 % 1017,5 hPa 0,0 l/m 13,7 km/h (3 Bft) O-NO 65 0 min 0,000 mm 0,0 UV-I 0 W/m 6,7 C 13,5 C 17,7 km/h (3 Bft) 100,00 %
14.04.2018 20:33 16,6 C 11,1 C 52 % 1017,6 hPa 0,0 l/m 13,5 km/h (3 Bft) NO 53 0 min 0,000 mm 0,0 UV-I 0 W/m 6,7 C 13,6 C 17,7 km/h (3 Bft) 100,00 %
14.04.2018 20:34 16,6 C 11,1 C 52 % 1017,6 hPa 0,0 l/m 13,3 km/h (3 Bft) O-NO 69 0 min 0,000 mm 0,0 UV-I 0 W/m 6,7 C 13,7 C 16,1 km/h (3 Bft) 100,00 %
14.04.2018 20:35 16,6 C 11,1 C 52 % 1017,6 hPa 0,0 l/m 13,9 km/h (3 Bft) O 92 0 min 0,000 mm 0,0 UV-I 0 W/m 6,7 C 13,5 C 16,1 km/h (3 Bft) 100,00 %
14.04.2018 20:36 16,6 C 11,1 C 52 % 1017,5 hPa 0,0 l/m 11,7 km/h (2 Bft) O-NO 61 0 min 0,000 mm 0,0 UV-I 0 W/m 6,7 C 14,2 C 16,1 km/h (3 Bft) 100,00 %
14.04.2018 20:37 16,5 C 11,1 C 52 % 1017,6 hPa 0,0 l/m 12,3 km/h (3 Bft) O 92 0 min 0,000 mm 0,0 UV-I 0 W/m 6,6 C 13,9 C 16,1 km/h (3 Bft) 95,65 %
14.04.2018 20:38 16,5 C 11,1 C 52 % 1017,5 hPa 0,0 l/m 14,4 km/h (3 Bft) O 94 0 min 0,000 mm 0,0 UV-I 0 W/m 6,6 C 13,2 C 17,7 km/h (3 Bft) 100,00 %
14.04.2018 20:39 16,4 C 11,1 C 53 % 1017,5 hPa 0,0 l/m 11,6 km/h (2 Bft) O-NO 72 0 min 0,000 mm 0,0 UV-I 0 W/m 6,8 C 14,0 C 16,1 km/h (3 Bft) 100,00 %
14.04.2018 20:40 16,4 C 11,1 C 53 % 1017,5 hPa 0,0 l/m 13,4 km/h (3 Bft) O 93 0 min 0,000 mm 0,0 UV-I 0 W/m 6,8 C 13,4 C 20,9 km/h (4 Bft) 100,00 %
14.04.2018 20:41 16,4 C 11,1 C 52 % 1017,5 hPa 0,0 l/m 14,6 km/h (3 Bft) O 101 0 min 0,000 mm 0,0 UV-I 0 W/m 6,5 C 13,0 C 19,3 km/h (3 Bft) 100,00 %
14.04.2018 20:42 16,4 C 11,1 C 53 % 1017,5 hPa 0,0 l/m 16,5 km/h (3 Bft) O 99 0 min 0,000 mm 0,0 UV-I 0 W/m 6,8 C 12,5 C 19,3 km/h (3 Bft) 100,00 %
14.04.2018 20:43 16,4 C 11,1 C 53 % 1017,5 hPa 0,0 l/m 15,9 km/h (3 Bft) O-SO 115 0 min 0,000 mm 0,0 UV-I 0 W/m 6,8 C 12,6 C 19,3 km/h (3 Bft) 100,00 %
14.04.2018 20:44 16,4 C 11,1 C 52 % 1017,5 hPa 0,0 l/m 13,5 km/h (3 Bft) O 101 0 min 0,000 mm 0,0 UV-I 0 W/m 6,5 C 13,4 C 19,3 km/h (3 Bft) 91,30 %
14.04.2018 20:45 16,4 C 11,1 C 52 % 1017,5 hPa 0,0 l/m 14,5 km/h (3 Bft) O 80 0 min 0,000 mm 0,0 UV-I 0 W/m 6,5 C 13,0 C 20,9 km/h (4 Bft) 100,00 %
14.04.2018 20:46 16,4 C 11,1 C 52 % 1017,5 hPa 0,0 l/m 17,3 km/h (3 Bft) O 79 0 min 0,000 mm 0,0 UV-I 0 W/m 6,5 C 12,2 C 22,5 km/h (4 Bft) 92,31 %
14.04.2018 20:47 16,4 C 11,1 C 52 % 1017,5 hPa 0,0 l/m 17,8 km/h (3 Bft) O-SO 103 0 min 0,000 mm 0,0 UV-I 0 W/m 6,5 C 12,1 C 22,5 km/h (4 Bft) 100,00 %
14.04.2018 20:48 16,5 C 11,1 C 52 % 1017,5 hPa 0,0 l/m 16,7 km/h (3 Bft) O 101 0 min 0,000 mm 0,0 UV-I 0 W/m 6,6 C 12,5 C 20,9 km/h (4 Bft) 100,00 %
14.04.2018 20:49 16,5 C 11,1 C 52 % 1017,5 hPa 0,0 l/m 15,2 km/h (3 Bft) O-NO 77 0 min 0,000 mm 0,0 UV-I 0 W/m 6,6 C 12,9 C 17,7 km/h (3 Bft) 100,00 %
14.04.2018 20:50 16,5 C 11,1 C 51 % 1017,5 hPa 0,0 l/m 14,4 km/h (3 Bft) O-NO 76 0 min 0,000 mm 0,0 UV-I 0 W/m 6,3 C 13,2 C 19,3 km/h (3 Bft) 100,00 %
14.04.2018 20:51 16,5 C 11,1 C 52 % 1017,5 hPa 0,0 l/m 18,8 km/h (3 Bft) O 96 0 min 0,000 mm 0,0 UV-I 0 W/m 6,6 C 12,0 C 22,5 km/h (4 Bft) 100,00 %
14.04.2018 20:52 16,6 C 11,1 C 51 % 1017,5 hPa 0,0 l/m 17,0 km/h (3 Bft) O-SO 119 0 min 0,000 mm 0,0 UV-I 0 W/m 6,4 C 12,6 C 20,9 km/h (4 Bft) 91,30 %
14.04.2018 20:53 16,6 C 11,1 C 51 % 1017,5 hPa 0,0 l/m 18,3 km/h (3 Bft) O-NO 74 0 min 0,000 mm 0,0 UV-I 0 W/m 6,4 C 12,2 C 20,9 km/h (4 Bft) 100,00 %
14.04.2018 20:54 16,6 C 11,1 C 51 % 1017,5 hPa 0,0 l/m 16,5 km/h (3 Bft) O-SO 107 0 min 0,000 mm 0,0 UV-I 0 W/m 6,4 C 12,7 C 20,9 km/h (4 Bft) 100,00 %
14.04.2018 20:55 16,6 C 11,1 C 51 % 1017,5 hPa 0,0 l/m 20,4 km/h (4 Bft) O 95 0 min 0,000 mm 0,0 UV-I 0 W/m 6,4 C 11,7 C 24,1 km/h (4 Bft) 100,00 %
14.04.2018 20:56 16,6 C 11,1 C 51 % 1017,4 hPa 0,0 l/m 18,9 km/h (3 Bft) O 92 0 min 0,000 mm 0,0 UV-I 0 W/m 6,4 C 12,1 C 27,4 km/h (4 Bft) 100,00 %
14.04.2018 20:57 16,6 C 11,1 C 51 % 1017,4 hPa 0,0 l/m 19,0 km/h (3 Bft) O 98 0 min 0,000 mm 0,0 UV-I 0 W/m 6,4 C 12,1 C 24,1 km/h (4 Bft) 96,30 %
14.04.2018 20:58 16,6 C 11,1 C 51 % 1017,4 hPa 0,0 l/m 16,9 km/h (3 Bft) O 96 0 min 0,000 mm 0,0 UV-I 0 W/m 6,4 C 12,6 C 25,7 km/h (4 Bft) 100,00 %
14.04.2018 20:59 16,6 C 11,1 C 51 % 1017,4 hPa 0,0 l/m 17,6 km/h (3 Bft) O-SO 103 0 min 0,000 mm 0,0 UV-I 0 W/m 6,4 C 12,4 C 22,5 km/h (4 Bft) 100,00 %
14.04.2018 21:00 16,6 C 11,1 C 51 % 1017,4 hPa 0,0 l/m 17,1 km/h (3 Bft) O 88 0 min 0,000 mm 0,0 UV-I 0 W/m 6,4 C 12,5 C 24,1 km/h (4 Bft) 100,00 %
14.04.2018 21:01 16,6 C 11,1 C 51 % 1017,4 hPa 0,0 l/m 18,3 km/h (3 Bft) O 101 0 min 0,102 mm 0,0 UV-I 0 W/m 6,4 C 12,2 C 25,7 km/h (4 Bft) 95,83 %
14.04.2018 21:02 16,6 C 11,1 C 51 % 1017,4 hPa 0,0 l/m 17,5 km/h (3 Bft) O-SO 109 0 min 0,000 mm 0,0 UV-I 0 W/m 6,4 C 12,4 C 24,1 km/h (4 Bft) 100,00 %
14.04.2018 21:03 16,6 C 11,1 C 51 % 1017,4 hPa 0,0 l/m 18,4 km/h (3 Bft) O-SO 122 0 min 0,000 mm 0,0 UV-I 0 W/m 6,4 C 12,2 C 24,1 km/h (4 Bft) 95,83 %
14.04.2018 21:04 16,6 C 11,1 C 50 % 1017,4 hPa 0,0 l/m 18,0 km/h (3 Bft) O-SO 113 0 min 0,000 mm 0,0 UV-I 0 W/m 6,1 C 12,3 C 22,5 km/h (4 Bft) 95,65 %
14.04.2018 21:05 16,6 C 11,1 C 51 % 1017,4 hPa 0,0 l/m 17,4 km/h (3 Bft) O 100 0 min 0,000 mm 0,0 UV-I 0 W/m 6,4 C 12,5 C 22,5 km/h (4 Bft) 95,83 %
14.04.2018 21:06 16,6 C 11,1 C 51 % 1017,4 hPa 0,0 l/m 17,8 km/h (3 Bft) O-SO 111 0 min 0,000 mm 0,0 UV-I 0 W/m 6,4 C 12,4 C 24,1 km/h (4 Bft) 100,00 %
14.04.2018 21:07 16,4 C 11,1 C 51 % 1017,4 hPa 0,0 l/m 18,9 km/h (3 Bft) O-SO 116 0 min 0,000 mm 0,0 UV-I 0 W/m 6,2 C 11,8 C 25,7 km/h (4 Bft) 95,65 %
14.04.2018 21:08 16,4 C 11,1 C 51 % 1017,4 hPa 0,0 l/m 18,3 km/h (3 Bft) O-SO 116 0 min 0,000 mm 0,0 UV-I 0 W/m 6,2 C 12,0 C 24,1 km/h (4 Bft) 95,83 %
14.04.2018 21:09 16,4 C 11,1 C 51 % 1017,4 hPa 0,0 l/m 19,2 km/h (3 Bft) O-SO 111 0 min 0,000 mm 0,0 UV-I 0 W/m 6,2 C 11,7 C 27,4 km/h (4 Bft) 100,00 %
14.04.2018 21:10 16,4 C 11,1 C 51 % 1017,3 hPa 0,0 l/m 18,4 km/h (3 Bft) O-NO 76 0 min 0,000 mm 0,0 UV-I 0 W/m 6,2 C 11,9 C 22,5 km/h (4 Bft) 95,83 %
14.04.2018 21:11 16,4 C 11,1 C 52 % 1017,2 hPa 0,0 l/m 19,1 km/h (3 Bft) O-SO 111 0 min 0,000 mm 0,0 UV-I 0 W/m 6,5 C 11,8 C 29,0 km/h (5 Bft) 95,65 %
14.04.2018 21:12 16,4 C 11,1 C 51 % 1017,3 hPa 0,0 l/m 16,9 km/h (3 Bft) O-SO 105 0 min 0,000 mm 0,0 UV-I 0 W/m 6,2 C 12,3 C 22,5 km/h (4 Bft) 91,67 %
14.04.2018 21:13 16,3 C 11,1 C 51 % 1017,2 hPa 0,0 l/m 15,1 km/h (3 Bft) O 96 0 min 0,000 mm 0,0 UV-I 0 W/m 6,1 C 12,7 C 20,9 km/h (4 Bft) 100,00 %
14.04.2018 21:14 16,3 C 11,1 C 51 % 1017,2 hPa 0,0 l/m 18,0 km/h (3 Bft) O-SO 114 0 min 0,000 mm 0,0 UV-I 0 W/m 6,1 C 11,9 C 24,1 km/h (4 Bft) 91,67 %
14.04.2018 21:15 16,3 C 11,1 C 51 % 1017,2 hPa 0,0 l/m 17,6 km/h (3 Bft) O-SO 105 0 min 0,000 mm 0,0 UV-I 0 W/m 6,1 C 12,0 C 24,1 km/h (4 Bft) 88,46 %
14.04.2018 21:16 16,3 C 11,1 C 52 % 1017,2 hPa 0,0 l/m 18,6 km/h (3 Bft) O-SO 108 0 min 0,000 mm 0,0 UV-I 0 W/m 6,4 C 11,8 C 24,1 km/h (4 Bft) 91,67 %
14.04.2018 21:17 16,3 C 11,1 C 52 % 1017,2 hPa 0,0 l/m 20,9 km/h (4 Bft) O-SO 103 0 min 0,000 mm 0,0 UV-I 0 W/m 6,4 C 11,2 C 29,0 km/h (5 Bft) 100,00 %
14.04.2018 21:18 16,3 C 11,1 C 52 % 1017,2 hPa 0,0 l/m 16,0 km/h (3 Bft) O-SO 106 0 min 0,000 mm 0,0 UV-I 0 W/m 6,4 C 12,5 C 24,1 km/h (4 Bft) 91,67 %
14.04.2018 21:19 16,3 C 11,1 C 52 % 1017,2 hPa 0,0 l/m 17,2 km/h (3 Bft) O-SO 103 0 min 0,000 mm 0,0 UV-I 0 W/m 6,4 C 12,1 C 22,5 km/h (4 Bft) 100,00 %
14.04.2018 21:20 16,2 C 11,1 C 52 % 1017,2 hPa 0,0 l/m 18,8 km/h (3 Bft) O-SO 105 0 min 0,000 mm 0,0 UV-I 0 W/m 6,3 C 11,6 C 24,1 km/h (4 Bft) 91,67 %
14.04.2018 21:21 16,2 C 11,1 C 52 % 1017,2 hPa 0,0 l/m 16,0 km/h (3 Bft) O-NO 76 0 min 0,000 mm 0,0 UV-I 0 W/m 6,3 C 12,3 C 20,9 km/h (4 Bft) 95,83 %
14.04.2018 21:22 16,1 C 11,1 C 52 % 1017,1 hPa 0,0 l/m 17,5 km/h (3 Bft) O 90 0 min 0,000 mm 0,0 UV-I 0 W/m 6,2 C 11,8 C 22,5 km/h (4 Bft) 95,65 %
14.04.2018 21:23 16,1 C 11,1 C 52 % 1017,1 hPa 0,0 l/m 16,8 km/h (3 Bft) O-SO 109 0 min 0,000 mm 0,0 UV-I 0 W/m 6,2 C 12,0 C 20,9 km/h (4 Bft) 95,83 %
14.04.2018 21:24 16,1 C 11,1 C 53 % 1017,1 hPa 0,0 l/m 13,9 km/h (3 Bft) O 92 0 min 0,000 mm 0,0 UV-I 0 W/m 6,5 C 12,9 C 17,7 km/h (3 Bft) 100,00 %
14.04.2018 21:25 16,0 C 11,1 C 53 % 1017,1 hPa 0,0 l/m 19,2 km/h (3 Bft) O-SO 111 0 min 0,000 mm 0,0 UV-I 0 W/m 6,4 C 11,2 C 29,0 km/h (5 Bft) 95,83 %
14.04.2018 21:26 16,0 C 11,1 C 52 % 1017,1 hPa 0,0 l/m 18,1 km/h (3 Bft) O-SO 113 0 min 0,000 mm 0,0 UV-I 0 W/m 6,2 C 11,5 C 22,5 km/h (4 Bft) 91,30 %
14.04.2018 21:27 16,0 C 11,1 C 53 % 1017,1 hPa 0,0 l/m 15,2 km/h (3 Bft) O-SO 105 0 min 0,000 mm 0,0 UV-I 0 W/m 6,4 C 12,3 C 20,9 km/h (4 Bft) 91,67 %
14.04.2018 21:28 16,0 C 11,1 C 53 % 1017,0 hPa 0,0 l/m 16,4 km/h (3 Bft) O 91 0 min 0,000 mm 0,0 UV-I 0 W/m 6,4 C 12,0 C 22,5 km/h (4 Bft) 95,65 %
14.04.2018 21:29 15,9 C 11,1 C 53 % 1017,0 hPa 0,0 l/m 20,1 km/h (4 Bft) O 98 0 min 0,000 mm 0,0 UV-I 0 W/m 6,3 C 10,9 C 25,7 km/h (4 Bft) 96,30 %
14.04.2018 21:30 15,9 C 11,1 C 53 % 1017,0 hPa 0,0 l/m 16,6 km/h (3 Bft) O-NO 71 0 min 0,000 mm 0,0 UV-I 0 W/m 6,3 C 11,8 C 24,1 km/h (4 Bft) 86,96 %
14.04.2018 21:31 15,9 C 11,1 C 53 % 1017,0 hPa 0,0 l/m 17,1 km/h (3 Bft) O-SO 115 0 min 0,000 mm 0,0 UV-I 0 W/m 6,3 C 11,7 C 20,9 km/h (4 Bft) 95,83 %
14.04.2018 21:32 15,9 C 11,1 C 53 % 1017,0 hPa 0,0 l/m 14,8 km/h (3 Bft) O 95 0 min 0,000 mm 0,0 UV-I 0 W/m 6,3 C 12,3 C 20,9 km/h (4 Bft) 91,30 %
14.04.2018 21:33 15,9 C 11,1 C 53 % 1017,0 hPa 0,0 l/m 14,6 km/h (3 Bft) O-SO 106 0 min 0,000 mm 0,0 UV-I 0 W/m 6,3 C 12,4 C 17,7 km/h (3 Bft) 91,67 %
14.04.2018 21:34 15,8 C 11,1 C 54 % 1017,0 hPa 0,0 l/m 13,7 km/h (3 Bft) O-SO 109 0 min 0,000 mm 0,0 UV-I 0 W/m 6,5 C 12,6 C 20,9 km/h (4 Bft) 95,65 %
14.04.2018 21:35 15,8 C 11,1 C 53 % 1017,0 hPa 0,0 l/m 16,2 km/h (3 Bft) O 98 0 min 0,000 mm 0,0 UV-I 0 W/m 6,2 C 11,8 C 20,9 km/h (4 Bft) 95,83 %
14.04.2018 21:36 15,8 C 11,1 C 53 % 1016,9 hPa 0,0 l/m 14,5 km/h (3 Bft) O 96 0 min 0,000 mm 0,0 UV-I 0 W/m 6,2 C 12,3 C 22,5 km/h (4 Bft) 95,65 %
14.04.2018 21:37 15,8 C 11,1 C 53 % 1017,0 hPa 0,0 l/m 17,0 km/h (3 Bft) O-SO 111 0 min 0,000 mm 0,0 UV-I 0 W/m 6,2 C 11,6 C 20,9 km/h (4 Bft) 95,83 %
14.04.2018 21:38 15,8 C 11,1 C 53 % 1016,9 hPa 0,0 l/m 14,2 km/h (3 Bft) O-SO 115 0 min 0,000 mm 0,0 UV-I 0 W/m 6,2 C 12,4 C 25,7 km/h (4 Bft) 95,65 %
14.04.2018 21:39 15,8 C 11,1 C 53 % 1016,9 hPa 0,0 l/m 19,2 km/h (3 Bft) O 94 0 min 0,000 mm 0,0 UV-I 0 W/m 6,2 C 11,0 C 25,7 km/h (4 Bft) 100,00 %
14.04.2018 21:40 15,8 C 11,1 C 53 % 1016,9 hPa 0,0 l/m 14,7 km/h (3 Bft) O 90 0 min 0,000 mm 0,0 UV-I 0 W/m 6,2 C 12,3 C 20,9 km/h (4 Bft) 95,83 %
14.04.2018 21:41 15,7 C 11,1 C 53 % 1016,9 hPa 0,0 l/m 17,6 km/h (3 Bft) O-NO 77 0 min 0,000 mm 0,0 UV-I 0 W/m 6,1 C 11,3 C 24,1 km/h (4 Bft) 95,65 %
14.04.2018 21:42 15,7 C 11,1 C 53 % 1016,8 hPa 0,0 l/m 15,2 km/h (3 Bft) O 96 0 min 0,000 mm 0,0 UV-I 0 W/m 6,1 C 12,0 C 22,5 km/h (4 Bft) 95,83 %
14.04.2018 21:43 15,7 C 11,1 C 53 % 1016,8 hPa 0,0 l/m 17,4 km/h (3 Bft) O-SO 106 0 min 0,000 mm 0,0 UV-I 0 W/m 6,1 C 11,3 C 22,5 km/h (4 Bft) 95,65 %
14.04.2018 21:44 15,7 C 11,1 C 54 % 1016,7 hPa 0,0 l/m 15,4 km/h (3 Bft) O-SO 114 0 min 0,000 mm 0,0 UV-I 0 W/m 6,4 C 11,9 C 19,3 km/h (3 Bft) 91,67 %
14.04.2018 21:45 15,7 C 11,1 C 53 % 1016,7 hPa 0,0 l/m 15,2 km/h (3 Bft) O 98 0 min 0,000 mm 0,0 UV-I 0 W/m 6,1 C 12,0 C 19,3 km/h (3 Bft) 96,15 %
14.04.2018 21:46 15,7 C 11,1 C 54 % 1016,7 hPa 0,0 l/m 15,0 km/h (3 Bft) O-SO 117 0 min 0,000 mm 0,0 UV-I 0 W/m 6,4 C 12,0 C 22,5 km/h (4 Bft) 100,00 %
14.04.2018 21:47 15,6 C 11,1 C 54 % 1016,7 hPa 0,0 l/m 16,4 km/h (3 Bft) O-SO 123 0 min 0,000 mm 0,0 UV-I 0 W/m 6,3 C 11,5 C 24,1 km/h (4 Bft) 91,30 %
14.04.2018 21:48 15,6 C 11,1 C 53 % 1016,7 hPa 0,0 l/m 18,0 km/h (3 Bft) O 100 0 min 0,000 mm 0,0 UV-I 0 W/m 6,1 C 11,0 C 22,5 km/h (4 Bft) 100,00 %
14.04.2018 21:49 15,6 C 11,1 C 54 % 1016,6 hPa 0,0 l/m 16,7 km/h (3 Bft) O 98 0 min 0,000 mm 0,0 UV-I 0 W/m 6,3 C 11,4 C 22,5 km/h (4 Bft) 95,65 %
14.04.2018 21:50 15,6 C 11,1 C 54 % 1016,6 hPa 0,0 l/m 16,5 km/h (3 Bft) O 90 0 min 0,000 mm 0,0 UV-I 0 W/m 6,3 C 11,5 C 20,9 km/h (4 Bft) 100,00 %
14.04.2018 21:51 15,6 C 11,1 C 54 % 1016,6 hPa 0,0 l/m 16,0 km/h (3 Bft) O 92 0 min 0,000 mm 0,0 UV-I 0 W/m 6,3 C 11,6 C 20,9 km/h (4 Bft) 95,65 %
14.04.2018 21:52 15,6 C 11,1 C 54 % 1016,5 hPa 0,0 l/m 17,1 km/h (3 Bft) O-SO 105 0 min 0,000 mm 0,0 UV-I 0 W/m 6,3 C 11,3 C 22,5 km/h (4 Bft) 100,00 %
14.04.2018 21:53 15,5 C 11,1 C 54 % 1016,5 hPa 0,0 l/m 17,0 km/h (3 Bft) O 95 0 min 0,000 mm 0,0 UV-I 0 W/m 6,2 C 11,2 C 19,3 km/h (3 Bft) 95,65 %
14.04.2018 21:54 15,5 C 11,1 C 54 % 1016,5 hPa 0,0 l/m 17,1 km/h (3 Bft) O 82 0 min 0,000 mm 0,0 UV-I 0 W/m 6,2 C 11,2 C 24,1 km/h (4 Bft) 100,00 %
14.04.2018 21:55 15,4 C 11,1 C 54 % 1016,4 hPa 0,0 l/m 15,6 km/h (3 Bft) O-SO 117 0 min 0,000 mm 0,0 UV-I 0 W/m 6,1 C 11,5 C 20,9 km/h (4 Bft) 96,15 %
14.04.2018 21:56 15,4 C 11,1 C 54 % 1016,4 hPa 0,0 l/m 17,9 km/h (3 Bft) O 94 0 min 0,000 mm 0,0 UV-I 0 W/m 6,1 C 10,8 C 25,7 km/h (4 Bft) 100,00 %
14.04.2018 21:58 15,4 C 11,1 C 55 % 1016,3 hPa 0,0 l/m 18,0 km/h (3 Bft) O 84 0 min 0,000 mm 0,0 UV-I 0 W/m 6,4 C 10,8 C 22,5 km/h (4 Bft) 94,00 %
14.04.2018 21:59 15,3 C 11,1 C 55 % 1016,3 hPa 0,0 l/m 21,2 km/h (4 Bft) O 101 0 min 0,000 mm 0,0 UV-I 0 W/m 6,3 C 9,8 C 25,7 km/h (4 Bft) 100,00 %
14.04.2018 22:00 15,4 C 11,1 C 54 % 1016,4 hPa 0,0 l/m 17,9 km/h (3 Bft) O-SO 103 0 min 0,000 mm 0,0 UV-I 0 W/m 6,1 C 10,8 C 22,5 km/h (4 Bft) 100,00 %
14.04.2018 22:02 15,4 C 11,1 C 55 % 1016,4 hPa 0,0 l/m 18,3 km/h (3 Bft) O-SO 114 0 min 0,101 mm 0,0 UV-I 0 W/m 6,4 C 10,7 C 29,0 km/h (5 Bft) 96,00 %
14.04.2018 22:03 15,4 C 11,1 C 55 % 1016,4 hPa 0,0 l/m 15,1 km/h (3 Bft) O 81 0 min 0,000 mm 0,0 UV-I 0 W/m 6,4 C 11,6 C 20,9 km/h (4 Bft) 100,00 %
14.04.2018 22:04 15,3 C 11,1 C 55 % 1016,4 hPa 0,0 l/m 15,9 km/h (3 Bft) O-NO 65 0 min 0,000 mm 0,0 UV-I 0 W/m 6,3 C 11,3 C 22,5 km/h (4 Bft) 96,15 %
14.04.2018 22:05 15,2 C 11,1 C 55 % 1016,4 hPa 0,0 l/m 13,2 km/h (3 Bft) O-NO 75 0 min 0,000 mm 0,0 UV-I 0 W/m 6,2 C 12,1 C 16,1 km/h (3 Bft) 100,00 %
14.04.2018 22:06 15,1 C 11,1 C 56 % 1016,4 hPa 0,0 l/m 12,7 km/h (3 Bft) O 84 0 min 0,000 mm 0,0 UV-I 0 W/m 6,4 C 12,1 C 17,7 km/h (3 Bft) 95,65 %
14.04.2018 22:07 15,1 C 11,1 C 56 % 1016,4 hPa 0,0 l/m 13,2 km/h (3 Bft) O-NO 70 0 min 0,000 mm 0,0 UV-I 0 W/m 6,4 C 11,9 C 17,7 km/h (3 Bft) 87,50 %
14.04.2018 22:08 15,0 C 11,1 C 56 % 1016,4 hPa 0,0 l/m 14,9 km/h (3 Bft) O-NO 64 0 min 0,000 mm 0,0 UV-I 0 W/m 6,3 C 11,2 C 19,3 km/h (3 Bft) 100,00 %
14.04.2018 22:09 14,9 C 11,1 C 56 % 1016,5 hPa 0,0 l/m 12,0 km/h (2 Bft) O-NO 69 0 min 0,000 mm 0,0 UV-I 0 W/m 6,2 C 12,2 C 16,1 km/h (3 Bft) 95,83 %
14.04.2018 22:10 15,0 C 11,1 C 56 % 1016,5 hPa 0,0 l/m 13,2 km/h (3 Bft) O 80 0 min 0,000 mm 0,0 UV-I 0 W/m 6,3 C 11,8 C 17,7 km/h (3 Bft) 95,65 %
14.04.2018 22:11 15,0 C 11,1 C 56 % 1016,5 hPa 0,0 l/m 11,8 km/h (2 Bft) O 94 0 min 0,000 mm 0,0 UV-I 0 W/m 6,3 C 12,4 C 16,1 km/h (3 Bft) 95,83 %
14.04.2018 22:12 14,9 C 11,1 C 56 % 1016,5 hPa 0,0 l/m 11,5 km/h (2 Bft) O-NO 59 0 min 0,000 mm 0,0 UV-I 0 W/m 6,2 C 12,4 C 14,5 km/h (3 Bft) 95,65 %
14.04.2018 22:13 14,9 C 11,1 C 57 % 1016,4 hPa 0,0 l/m 11,4 km/h (2 Bft) O 91 0 min 0,000 mm 0,0 UV-I 0 W/m 6,5 C 12,4 C 17,7 km/h (3 Bft) 91,67 %
14.04.2018 22:14 14,8 C 11,1 C 57 % 1016,4 hPa 0,0 l/m 12,3 km/h (3 Bft) O-NO 76 0 min 0,000 mm 0,0 UV-I 0 W/m 6,4 C 11,9 C 16,1 km/h (3 Bft) 100,00 %
14.04.2018 22:15 14,8 C 11,1 C 57 % 1016,4 hPa 0,0 l/m 9,5 km/h (2 Bft) O-NO 70 0 min 0,000 mm 0,0 UV-I 0 W/m 6,4 C 13,1 C 14,5 km/h (3 Bft) 95,83 %
14.04.2018 22:16 14,8 C 11,1 C 57 % 1016,4 hPa 0,0 l/m 11,5 km/h (2 Bft) O-NO 69 0 min 0,000 mm 0,0 UV-I 0 W/m 6,4 C 12,2 C 14,5 km/h (3 Bft) 100,00 %
14.04.2018 22:17 14,7 C 11,1 C 57 % 1016,3 hPa 0,0 l/m 12,0 km/h (2 Bft) O 80 0 min 0,000 mm 0,0 UV-I 0 W/m 6,3 C 11,9 C 16,1 km/h (3 Bft) 100,00 %
14.04.2018 22:18 14,7 C 11,1 C 57 % 1016,3 hPa 0,0 l/m 13,3 km/h (3 Bft) O-NO 71 0 min 0,000 mm 0,0 UV-I 0 W/m 6,3 C 11,4 C 16,1 km/h (3 Bft) 97,56 %
14.04.2018 22:19 14,8 C 11,1 C 57 % 1016,3 hPa 0,0 l/m 13,6 km/h (3 Bft) O 92 0 min 0,000 mm 0,0 UV-I 0 W/m 6,4 C 11,4 C 17,7 km/h (3 Bft) 91,67 %
14.04.2018 22:20 14,8 C 11,1 C 57 % 1016,3 hPa 0,0 l/m 13,2 km/h (3 Bft) O-NO 66 0 min 0,000 mm 0,0 UV-I 0 W/m 6,4 C 11,6 C 19,3 km/h (3 Bft) 100,00 %
14.04.2018 22:21 14,7 C 11,1 C 57 % 1016,3 hPa 0,0 l/m 15,3 km/h (3 Bft) O 80 0 min 0,000 mm 0,0 UV-I 0 W/m 6,3 C 10,7 C 19,3 km/h (3 Bft) 100,00 %
14.04.2018 22:22 14,7 C 11,1 C 57 % 1016,3 hPa 0,0 l/m 15,4 km/h (3 Bft) O 90 0 min 0,000 mm 0,0 UV-I 0 W/m 6,3 C 10,7 C 19,3 km/h (3 Bft) 100,00 %
14.04.2018 22:23 14,7 C 11,1 C 57 % 1016,3 hPa 0,0 l/m 13,9 km/h (3 Bft) O 86 0 min 0,000 mm 0,0 UV-I 0 W/m 6,3 C 11,2 C 16,1 km/h (3 Bft) 100,00 %
14.04.2018 22:24 14,7 C 11,1 C 57 % 1016,3 hPa 0,0 l/m 20,6 km/h (4 Bft) O-NO 71 0 min 0,000 mm 0,0 UV-I 0 W/m 6,3 C 9,2 C 27,4 km/h (4 Bft) 100,00 %
14.04.2018 22:25 14,7 C 11,1 C 57 % 1016,3 hPa 0,0 l/m 18,0 km/h (3 Bft) O-NO 78 0 min 0,000 mm 0,0 UV-I 0 W/m 6,3 C 9,9 C 22,5 km/h (4 Bft) 95,65 %
14.04.2018 22:26 14,8 C 11,1 C 57 % 1016,2 hPa 0,0 l/m 15,8 km/h (3 Bft) O-NO 76 0 min 0,000 mm 0,0 UV-I 0 W/m 6,4 C 10,7 C 19,3 km/h (3 Bft) 100,00 %
14.04.2018 22:28 14,8 C 11,1 C 56 % 1016,2 hPa 0,0 l/m 14,1 km/h (3 Bft) O 88 0 min 0,000 mm 0,0 UV-I 0 W/m 6,1 C 11,3 C 20,9 km/h (4 Bft) 96,23 %
14.04.2018 22:29 14,9 C 11,1 C 56 % 1016,2 hPa 0,0 l/m 17,6 km/h (3 Bft) O 90 0 min 0,000 mm 0,0 UV-I 0 W/m 6,2 C 10,3 C 20,9 km/h (4 Bft) 96,67 %
14.04.2018 22:30 14,9 C 11,1 C 56 % 1016,2 hPa 0,0 l/m 14,6 km/h (3 Bft) O-NO 67 0 min 0,000 mm 0,0 UV-I 0 W/m 6,2 C 11,2 C 19,3 km/h (3 Bft) 100,00 %
14.04.2018 22:31 14,9 C 11,1 C 56 % 1016,2 hPa 0,0 l/m 16,5 km/h (3 Bft) O-NO 74 0 min 0,000 mm 0,0 UV-I 0 W/m 6,2 C 10,6 C 20,9 km/h (4 Bft) 100,00 %
14.04.2018 22:32 14,9 C 11,1 C 56 % 1016,2 hPa 0,0 l/m 17,0 km/h (3 Bft) O-NO 73 0 min 0,000 mm 0,0 UV-I 0 W/m 6,2 C 10,4 C 25,7 km/h (4 Bft) 100,00 %
14.04.2018 22:33 14,9 C 11,1 C 56 % 1016,2 hPa 0,0 l/m 17,6 km/h (3 Bft) O-NO 73 0 min 0,000 mm 0,0 UV-I 0 W/m 6,2 C 10,3 C 22,5 km/h (4 Bft) 91,67 %
14.04.2018 22:34 14,9 C 11,1 C 56 % 1016,3 hPa 0,0 l/m 19,5 km/h (3 Bft) O 90 0 min 0,000 mm 0,0 UV-I 0 W/m 6,2 C 9,7 C 25,7 km/h (4 Bft) 100,00 %
14.04.2018 22:35 14,9 C 11,1 C 56 % 1016,2 hPa 0,0 l/m 13,4 km/h (3 Bft) O 95 0 min 0,000 mm 0,0 UV-I 0 W/m 6,2 C 11,6 C 20,9 km/h (4 Bft) 100,00 %
14.04.2018 22:36 14,8 C 11,1 C 56 % 1016,2 hPa 0,0 l/m 12,8 km/h (3 Bft) O-NO 75 0 min 0,000 mm 0,0 UV-I 0 W/m 6,1 C 11,7 C 16,1 km/h (3 Bft) 100,00 %
14.04.2018 22:37 14,8 C 11,1 C 57 % 1016,2 hPa 0,0 l/m 12,1 km/h (2 Bft) O-NO 67 0 min 0,000 mm 0,0 UV-I 0 W/m 6,4 C 12,0 C 16,1 km/h (3 Bft) 100,00 %
14.04.2018 22:38 14,7 C 11,1 C 57 % 1016,3 hPa 0,0 l/m 10,4 km/h (2 Bft) NO 50 0 min 0,000 mm 0,0 UV-I 0 W/m 6,3 C 12,6 C 12,9 km/h (3 Bft) 100,00 %
14.04.2018 22:39 14,6 C 11,1 C 58 % 1016,3 hPa 0,0 l/m 8,6 km/h (2 Bft) O-NO 69 0 min 0,000 mm 0,0 UV-I 0 W/m 6,4 C 13,4 C 14,5 km/h (3 Bft) 100,00 %
14.04.2018 22:40 14,4 C 11,1 C 58 % 1016,2 hPa 0,0 l/m 10,5 km/h (2 Bft) O-NO 78 0 min 0,000 mm 0,0 UV-I 0 W/m 6,2 C 12,2 C 14,5 km/h (3 Bft) 100,00 %
14.04.2018 22:41 14,4 C 11,1 C 58 % 1016,2 hPa 0,0 l/m 10,9 km/h (2 Bft) O-NO 61 0 min 0,000 mm 0,0 UV-I 0 W/m 6,2 C 12,0 C 14,5 km/h (3 Bft) 100,00 %
14.04.2018 22:42 14,4 C 11,1 C 58 % 1016,2 hPa 0,0 l/m 14,4 km/h (3 Bft) O-NO 74 0 min 0,000 mm 0,0 UV-I 0 W/m 6,2 C 10,7 C 19,3 km/h (3 Bft) 100,00 %
14.04.2018 22:43 14,3 C 11,1 C 58 % 1016,2 hPa 0,0 l/m 11,0 km/h (2 Bft) NO 52 0 min 0,000 mm 0,0 UV-I 0 W/m 6,2 C 11,9 C 12,9 km/h (3 Bft) 100,00 %
14.04.2018 22:44 14,3 C 11,1 C 59 % 1016,2 hPa 0,0 l/m 10,3 km/h (2 Bft) O 80 0 min 0,000 mm 0,0 UV-I 0 W/m 6,4 C 12,2 C 14,5 km/h (3 Bft) 100,00 %
14.04.2018 22:45 14,3 C 11,1 C 59 % 1016,2 hPa 0,0 l/m 12,0 km/h (2 Bft) O 90 0 min 0,000 mm 0,0 UV-I 0 W/m 6,4 C 11,5 C 14,5 km/h (3 Bft) 100,00 %
14.04.2018 22:46 14,3 C 11,1 C 59 % 1016,2 hPa 0,0 l/m 14,6 km/h (3 Bft) O-NO 65 0 min 0,000 mm 0,0 UV-I 0 W/m 6,4 C 10,5 C 19,3 km/h (3 Bft) 96,15 %
14.04.2018 22:47 14,3 C 11,1 C 59 % 1016,2 hPa 0,0 l/m 12,9 km/h (3 Bft) O 82 0 min 0,000 mm 0,0 UV-I 0 W/m 6,4 C 11,1 C 16,1 km/h (3 Bft) 100,00 %
14.04.2018 22:48 14,2 C 11,1 C 59 % 1016,2 hPa 0,0 l/m 13,3 km/h (3 Bft) O-NO 68 0 min 0,000 mm 0,0 UV-I 0 W/m 6,3 C 10,8 C 16,1 km/h (3 Bft) 95,65 %
14.04.2018 22:49 14,2 C 11,1 C 59 % 1016,2 hPa 0,0 l/m 12,7 km/h (3 Bft) O-NO 70 0 min 0,000 mm 0,0 UV-I 0 W/m 6,3 C 11,1 C 16,1 km/h (3 Bft) 100,00 %
14.04.2018 22:50 14,2 C 11,1 C 59 % 1016,2 hPa 0,0 l/m 11,6 km/h (2 Bft) O-NO 69 0 min 0,000 mm 0,0 UV-I 0 W/m 6,3 C 11,5 C 14,5 km/h (3 Bft) 100,00 %
14.04.2018 22:51 14,1 C 11,1 C 59 % 1016,2 hPa 0,0 l/m 11,6 km/h (2 Bft) O-NO 74 0 min 0,000 mm 0,0 UV-I 0 W/m 6,2 C 11,4 C 14,5 km/h (3 Bft) 100,00 %
14.04.2018 22:52 14,1 C 11,1 C 59 % 1016,2 hPa 0,0 l/m 8,4 km/h (2 Bft) O-NO 71 0 min 0,000 mm 0,0 UV-I 0 W/m 6,2 C 12,9 C 11,3 km/h (2 Bft) 100,00 %
14.04.2018 22:53 14,0 C 11,1 C 60 % 1016,2 hPa 0,0 l/m 11,3 km/h (2 Bft) O-NO 73 0 min 0,000 mm 0,0 UV-I 0 W/m 6,4 C 11,4 C 14,5 km/h (3 Bft) 100,00 %
14.04.2018 22:54 13,9 C 11,1 C 60 % 1016,2 hPa 0,0 l/m 11,1 km/h (2 Bft) O 86 0 min 0,000 mm 0,0 UV-I 0 W/m 6,3 C 11,4 C 14,5 km/h (3 Bft) 100,00 %
14.04.2018 22:55 13,9 C 11,1 C 60 % 1016,2 hPa 0,0 l/m 11,1 km/h (2 Bft) O-NO 71 0 min 0,000 mm 0,0 UV-I 0 W/m 6,3 C 11,4 C 14,5 km/h (3 Bft) 100,00 %
14.04.2018 22:56 13,9 C 11,1 C 60 % 1016,2 hPa 0,0 l/m 11,2 km/h (2 Bft) O 82 0 min 0,000 mm 0,0 UV-I 0 W/m 6,3 C 11,3 C 14,5 km/h (3 Bft) 100,00 %
14.04.2018 22:57 13,8 C 11,1 C 60 % 1016,2 hPa 0,0 l/m 11,0 km/h (2 Bft) O 85 0 min 0,000 mm 0,0 UV-I 0 W/m 6,2 C 11,3 C 14,5 km/h (3 Bft) 96,15 %
14.04.2018 22:58 13,8 C 11,1 C 60 % 1016,2 hPa 0,0 l/m 10,3 km/h (2 Bft) O 88 0 min 0,000 mm 0,0 UV-I 0 W/m 6,2 C 11,6 C 12,9 km/h (3 Bft) 100,00 %
14.04.2018 22:59 13,8 C 11,1 C 61 % 1016,2 hPa 0,0 l/m 8,6 km/h (2 Bft) O-NO 78 0 min 0,000 mm 0,0 UV-I 0 W/m 6,4 C 12,5 C 14,5 km/h (3 Bft) 100,00 %
14.04.2018 23:00 13,8 C 11,1 C 61 % 1016,1 hPa 0,0 l/m 10,8 km/h (2 Bft) O-NO 75 0 min 0,000 mm 0,0 UV-I 0 W/m 6,4 C 11,4 C 14,5 km/h (3 Bft) 100,00 %
14.04.2018 23:01 13,7 C 11,1 C 61 % 1016,1 hPa 0,0 l/m 11,0 km/h (2 Bft) O-NO 71 0 min 0,077 mm 0,0 UV-I 0 W/m 6,3 C 11,2 C 14,5 km/h (3 Bft) 100,00 %
14.04.2018 23:02 13,7 C 11,1 C 61 % 1016,1 hPa 0,0 l/m 9,6 km/h (2 Bft) O 81 0 min 0,000 mm 0,0 UV-I 0 W/m 6,3 C 11,9 C 14,5 km/h (3 Bft) 95,83 %
14.04.2018 23:03 13,7 C 11,1 C 61 % 1016,1 hPa 0,0 l/m 9,9 km/h (2 Bft) O-NO 77 0 min 0,000 mm 0,0 UV-I 0 W/m 6,3 C 11,7 C 16,1 km/h (3 Bft) 95,65 %
14.04.2018 23:04 13,7 C 11,1 C 61 % 1016,1 hPa 0,0 l/m 8,6 km/h (2 Bft) O-NO 76 0 min 0,000 mm 0,0 UV-I 0 W/m 6,3 C 12,4 C 11,3 km/h (2 Bft) 100,00 %
14.04.2018 23:05 13,7 C 11,1 C 61 % 1016,1 hPa 0,0 l/m 10,3 km/h (2 Bft) O 85 0 min 0,000 mm 0,0 UV-I 0 W/m 6,3 C 11,5 C 14,5 km/h (3 Bft) 91,30 %
14.04.2018 23:06 13,7 C 11,1 C 61 % 1016,1 hPa 0,0 l/m 10,0 km/h (2 Bft) O-NO 74 0 min 0,000 mm 0,0 UV-I 0 W/m 6,3 C 11,7 C 14,5 km/h (3 Bft) 100,00 %
14.04.2018 23:07 13,7 C 11,1 C 61 % 1016,1 hPa 0,0 l/m 9,9 km/h (2 Bft) O-NO 65 0 min 0,000 mm 0,0 UV-I 0 W/m 6,3 C 11,7 C 12,9 km/h (3 Bft) 91,30 %
14.04.2018 23:08 13,6 C 11,1 C 61 % 1016,0 hPa 0,0 l/m 9,9 km/h (2 Bft) O-NO 74 0 min 0,000 mm 0,0 UV-I 0 W/m 6,2 C 11,6 C 12,9 km/h (3 Bft) 100,00 %
14.04.2018 23:09 13,6 C 11,1 C 62 % 1016,1 hPa 0,0 l/m 10,3 km/h (2 Bft) O-NO 76 0 min 0,000 mm 0,0 UV-I 0 W/m 6,5 C 11,4 C 12,9 km/h (3 Bft) 91,30 %
14.04.2018 23:10 13,4 C 11,1 C 62 % 1016,1 hPa 0,0 l/m 10,1 km/h (2 Bft) O-NO 67 0 min 0,000 mm 0,0 UV-I 0 W/m 6,3 C 11,3 C 14,5 km/h (3 Bft) 95,83 %
14.04.2018 23:11 13,4 C 11,1 C 62 % 1016,1 hPa 0,0 l/m 9,9 km/h (2 Bft) O-NO 73 0 min 0,000 mm 0,0 UV-I 0 W/m 6,3 C 11,4 C 12,9 km/h (3 Bft) 91,30 %
14.04.2018 23:12 13,4 C 11,1 C 62 % 1016,1 hPa 0,0 l/m 8,2 km/h (2 Bft) NO 54 0 min 0,000 mm 0,0 UV-I 0 W/m 6,3 C 12,3 C 12,9 km/h (3 Bft) 95,83 %
14.04.2018 23:13 13,4 C 11,1 C 62 % 1016,1 hPa 0,0 l/m 8,9 km/h (2 Bft) NO 55 0 min 0,000 mm 0,0 UV-I 0 W/m 6,3 C 11,9 C 12,9 km/h (3 Bft) 100,00 %
14.04.2018 23:14 13,3 C 11,1 C 62 % 1016,1 hPa 0,0 l/m 8,9 km/h (2 Bft) O-NO 65 0 min 0,000 mm 0,0 UV-I 0 W/m 6,2 C 11,8 C 14,5 km/h (3 Bft) 93,33 %
14.04.2018 23:15 13,3 C 11,1 C 63 % 1016,1 hPa 0,0 l/m 7,6 km/h (2 Bft) O-NO 74 0 min 0,000 mm 0,0 UV-I 0 W/m 6,4 C 12,6 C 11,3 km/h (2 Bft) 95,83 %
14.04.2018 23:16 13,3 C 11,1 C 63 % 1016,1 hPa 0,0 l/m 7,6 km/h (2 Bft) O-NO 59 0 min 0,000 mm 0,0 UV-I 0 W/m 6,4 C 12,6 C 11,3 km/h (2 Bft) 91,30 %
14.04.2018 23:17 13,2 C 11,1 C 63 % 1016,1 hPa 0,0 l/m 11,0 km/h (2 Bft) NO 52 0 min 0,000 mm 0,0 UV-I 0 W/m 6,3 C 10,6 C 16,1 km/h (3 Bft) 100,00 %
14.04.2018 23:18 13,2 C 11,1 C 63 % 1016,1 hPa 0,0 l/m 9,6 km/h (2 Bft) O-NO 77 0 min 0,000 mm 0,0 UV-I 0 W/m 6,3 C 11,3 C 12,9 km/h (3 Bft) 95,65 %
14.04.2018 23:19 13,3 C 11,1 C 62 % 1016,1 hPa 0,0 l/m 9,5 km/h (2 Bft) NO 45 0 min 0,000 mm 0,0 UV-I 0 W/m 6,2 C 11,5 C 16,1 km/h (3 Bft) 100,00 %
14.04.2018 23:20 13,3 C 11,1 C 62 % 1016,0 hPa 0,0 l/m 9,4 km/h (2 Bft) O-NO 73 0 min 0,000 mm 0,0 UV-I 0 W/m 6,2 C 11,5 C 14,5 km/h (3 Bft) 91,30 %
14.04.2018 23:21 13,3 C 11,1 C 62 % 1016,0 hPa 0,0 l/m 9,9 km/h (2 Bft) O-NO 76 0 min 0,000 mm 0,0 UV-I 0 W/m 6,2 C 11,3 C 12,9 km/h (3 Bft) 95,83 %
14.04.2018 23:22 13,3 C 11,1 C 62 % 1016,1 hPa 0,0 l/m 11,1 km/h (2 Bft) O-NO 67 0 min 0,000 mm 0,0 UV-I 0 W/m 6,2 C 10,7 C 14,5 km/h (3 Bft) 91,30 %
14.04.2018 23:23 13,3 C 11,1 C 62 % 1016,0 hPa 0,0 l/m 11,7 km/h (2 Bft) O-NO 77 0 min 0,000 mm 0,0 UV-I 0 W/m 6,2 C 10,4 C 16,1 km/h (3 Bft) 95,83 %
14.04.2018 23:24 13,3 C 11,1 C 63 % 1015,9 hPa 0,0 l/m 8,8 km/h (2 Bft) NO 55 0 min 0,000 mm 0,0 UV-I 0 W/m 6,4 C 11,9 C 14,5 km/h (3 Bft) 95,65 %
14.04.2018 23:25 13,3 C 11,1 C 63 % 1016,0 hPa 0,0 l/m 7,8 km/h (2 Bft) O-NO 59 0 min 0,000 mm 0,0 UV-I 0 W/m 6,4 C 12,4 C 11,3 km/h (2 Bft) 95,83 %
14.04.2018 23:26 13,3 C 11,1 C 63 % 1016,0 hPa 0,0 l/m 7,8 km/h (2 Bft) O-NO 65 0 min 0,000 mm 0,0 UV-I 0 W/m 6,4 C 12,4 C 9,7 km/h (2 Bft) 100,00 %
14.04.2018 23:27 13,3 C 11,1 C 63 % 1016,1 hPa 0,0 l/m 6,8 km/h (2 Bft) O-NO 71 0 min 0,000 mm 0,0 UV-I 0 W/m 6,4 C 13,1 C 11,3 km/h (2 Bft) 91,67 %
14.04.2018 23:28 13,2 C 11,1 C 63 % 1016,1 hPa 0,0 l/m 9,1 km/h (2 Bft) NO 52 0 min 0,000 mm 0,0 UV-I 0 W/m 6,3 C 11,6 C 14,5 km/h (3 Bft) 94,74 %
14.04.2018 23:29 13,2 C 11,1 C 63 % 1016,1 hPa 0,0 l/m 9,1 km/h (2 Bft) O-NO 61 0 min 0,000 mm 0,0 UV-I 0 W/m 6,3 C 11,6 C 12,9 km/h (3 Bft) 100,00 %
14.04.2018 23:30 13,3 C 11,1 C 63 % 1016,1 hPa 0,0 l/m 7,8 km/h (2 Bft) O-NO 57 0 min 0,000 mm 0,0 UV-I 0 W/m 6,4 C 12,4 C 12,9 km/h (3 Bft) 100,00 %
14.04.2018 23:31 13,2 C 11,1 C 63 % 1016,1 hPa 0,0 l/m 8,1 km/h (2 Bft) NO 52 0 min 0,000 mm 0,0 UV-I 0 W/m 6,3 C 12,2 C 12,9 km/h (3 Bft) 96,15 %
14.04.2018 23:32 13,1 C 11,1 C 63 % 1016,1 hPa 0,0 l/m 7,3 km/h (2 Bft) O-NO 62 0 min 0,000 mm 0,0 UV-I 0 W/m 6,2 C 12,5 C 9,7 km/h (2 Bft) 95,83 %
14.04.2018 23:33 13,1 C 11,1 C 63 % 1016,1 hPa 0,0 l/m 6,9 km/h (2 Bft) N-NO 27 0 min 0,000 mm 0,0 UV-I 0 W/m 6,2 C 12,8 C 9,7 km/h (2 Bft) 95,65 %
14.04.2018 23:34 13,1 C 11,1 C 64 % 1016,0 hPa 0,0 l/m 7,6 km/h (2 Bft) O-NO 59 0 min 0,000 mm 0,0 UV-I 0 W/m 6,4 C 12,3 C 9,7 km/h (2 Bft) 100,00 %
14.04.2018 23:35 12,9 C 11,1 C 64 % 1016,0 hPa 0,0 l/m 7,8 km/h (2 Bft) NO 51 0 min 0,000 mm 0,0 UV-I 0 W/m 6,3 C 12,0 C 9,7 km/h (2 Bft) 100,00 %
14.04.2018 23:36 12,8 C 11,1 C 64 % 1016,0 hPa 0,0 l/m 7,6 km/h (2 Bft) NO 56 0 min 0,000 mm 0,0 UV-I 0 W/m 6,2 C 12,0 C 11,3 km/h (2 Bft) 100,00 %
14.04.2018 23:37 12,8 C 11,1 C 64 % 1016,0 hPa 0,0 l/m 7,6 km/h (2 Bft) O-NO 69 0 min 0,000 mm 0,0 UV-I 0 W/m 6,2 C 12,0 C 8,0 km/h (2 Bft) 100,00 %
14.04.2018 23:38 12,8 C 11,1 C 64 % 1016,0 hPa 0,0 l/m 8,9 km/h (2 Bft) NO 50 0 min 0,000 mm 0,0 UV-I 0 W/m 6,2 C 11,3 C 14,5 km/h (3 Bft) 100,00 %
14.04.2018 23:39 12,7 C 11,1 C 65 % 1016,1 hPa 0,0 l/m 5,9 km/h (2 Bft) NO 43 0 min 0,000 mm 0,0 UV-I 0 W/m 6,3 C 12,7 C 8,0 km/h (2 Bft) 95,65 %
14.04.2018 23:40 12,7 C 11,1 C 65 % 1016,0 hPa 0,0 l/m 6,8 km/h (2 Bft) NO 44 0 min 0,000 mm 0,0 UV-I 0 W/m 6,3 C 12,5 C 8,0 km/h (2 Bft) 100,00 %
14.04.2018 23:41 12,6 C 11,1 C 65 % 1016,0 hPa 0,0 l/m 7,9 km/h (2 Bft) NO 38 0 min 0,000 mm 0,0 UV-I 0 W/m 6,2 C 11,6 C 9,7 km/h (2 Bft) 100,00 %
14.04.2018 23:42 12,6 C 11,1 C 65 % 1016,0 hPa 0,0 l/m 9,1 km/h (2 Bft) O-NO 65 0 min 0,000 mm 0,0 UV-I 0 W/m 6,2 C 10,9 C 11,3 km/h (2 Bft) 100,00 %
14.04.2018 23:43 12,5 C 11,1 C 65 % 1016,1 hPa 0,0 l/m 8,8 km/h (2 Bft) NO 41 0 min 0,000 mm 0,0 UV-I 0 W/m 6,1 C 11,0 C 11,3 km/h (2 Bft) 100,00 %
14.04.2018 23:44 12,4 C 11,1 C 66 % 1015,9 hPa 0,0 l/m 10,2 km/h (2 Bft) NO 55 0 min 0,000 mm 0,0 UV-I 0 W/m 6,2 C 10,1 C 12,9 km/h (3 Bft) 100,00 %
14.04.2018 23:45 12,4 C 11,1 C 66 % 1015,9 hPa 0,0 l/m 11,1 km/h (2 Bft) O-NO 63 0 min 0,000 mm 0,0 UV-I 0 W/m 6,2 C 9,7 C 14,5 km/h (3 Bft) 95,65 %
14.04.2018 23:46 12,4 C 11,1 C 66 % 1015,9 hPa 0,0 l/m 9,4 km/h (2 Bft) O-NO 61 0 min 0,000 mm 0,0 UV-I 0 W/m 6,2 C 10,6 C 12,9 km/h (3 Bft) 100,00 %
14.04.2018 23:47 12,4 C 11,1 C 66 % 1015,9 hPa 0,0 l/m 11,6 km/h (2 Bft) O-NO 58 0 min 0,000 mm 0,0 UV-I 0 W/m 6,2 C 9,5 C 17,7 km/h (3 Bft) 95,65 %
14.04.2018 23:48 12,4 C 11,1 C 66 % 1015,9 hPa 0,0 l/m 10,6 km/h (2 Bft) O-NO 59 0 min 0,000 mm 0,0 UV-I 0 W/m 6,2 C 9,9 C 14,5 km/h (3 Bft) 100,00 %
14.04.2018 23:49 12,5 C 11,1 C 66 % 1015,9 hPa 0,0 l/m 9,8 km/h (2 Bft) O-NO 68 0 min 0,000 mm 0,0 UV-I 0 W/m 6,3 C 10,5 C 14,5 km/h (3 Bft) 100,00 %
14.04.2018 23:50 12,6 C 11,1 C 65 % 1015,9 hPa 0,0 l/m 7,0 km/h (2 Bft) O-NO 78 0 min 0,000 mm 0,0 UV-I 0 W/m 6,2 C 12,2 C 9,7 km/h (2 Bft) 100,00 %
14.04.2018 23:51 12,6 C 11,1 C 65 % 1015,9 hPa 0,0 l/m 5,4 km/h (1 Bft) O-NO 71 0 min 0,000 mm 0,0 UV-I 0 W/m 6,2 C 12,6 C 8,0 km/h (2 Bft) 100,00 %
14.04.2018 23:52 12,6 C 11,1 C 65 % 1016,0 hPa 0,0 l/m 6,4 km/h (2 Bft) NO 40 0 min 0,000 mm 0,0 UV-I 0 W/m 6,2 C 12,6 C 11,3 km/h (2 Bft) 100,00 %
14.04.2018 23:53 12,5 C 11,1 C 66 % 1015,9 hPa 0,0 l/m 7,4 km/h (2 Bft) O-NO 60 0 min 0,000 mm 0,0 UV-I 0 W/m 6,3 C 11,9 C 9,7 km/h (2 Bft) 100,00 %
14.04.2018 23:54 12,4 C 11,1 C 66 % 1015,9 hPa 0,0 l/m 6,3 km/h (2 Bft) O-NO 58 0 min 0,000 mm 0,0 UV-I 0 W/m 6,2 C 12,4 C 9,7 km/h (2 Bft) 100,00 %
14.04.2018 23:55 12,4 C 11,1 C 66 % 1016,0 hPa 0,0 l/m 4,5 km/h (1 Bft) O-NO 57 0 min 0,000 mm 0,0 UV-I 0 W/m 6,2 C 12,4 C 8,0 km/h (2 Bft) 100,00 %
14.04.2018 23:56 12,4 C 11,1 C 66 % 1016,1 hPa 0,0 l/m 3,0 km/h (1 Bft) O-NO 61 0 min 0,000 mm 0,0 UV-I 0 W/m 6,2 C 12,4 C 4,8 km/h (1 Bft) 95,65 %
14.04.2018 23:57 12,4 C 11,1 C 66 % 1016,0 hPa 0,0 l/m 4,8 km/h (1 Bft) O-NO 74 0 min 0,000 mm 0,0 UV-I 0 W/m 6,2 C 12,4 C 6,4 km/h (2 Bft) 95,83 %
14.04.2018 23:58 12,4 C 11,1 C 66 % 1016,1 hPa 0,0 l/m 4,8 km/h (1 Bft) O-NO 76 0 min 0,000 mm 0,0 UV-I 0 W/m 6,2 C 12,4 C 6,4 km/h (2 Bft) 100,00 %
14.04.2018 23:59 12,4 C 11,1 C 66 % 1016,1 hPa 0,0 l/m 4,3 km/h (1 Bft) O-NO 77 0 min 0,000 mm 0,0 UV-I 0 W/m 6,2 C 12,4 C 4,8 km/h (1 Bft) 100,00 %
_ Min-Zeit 06:04 00:00 16:22 23:24 - 02:47 - - - - - - 06:03 06:13 02:47 04:12
Minimum _ 3,4 C 10,6 C 37 % 1015,9 hPa - 0,0 km/h (0 Bft) - - - - - - 2,3 C 2,8 C 0,0 km/h (0 Bft) 83,33 %
_ Max-Zeit 16:30 06:35 06:07 10:12 00:00 21:59 - - 10:14 15:02 12:43 12:43 12:14 16:50 21:11 00:02
Maximum _ 21,0 C 11,1 C 94 % 1020,6 hPa 0,0 l/m 21,2 km/h
O (4 Bft)
- - 2 min 0,482 mm 3,6 UV-I 741 W/m 10,6 C 20,9 C 29,0 km/h
O (5 Bft)
100,00 %
Durchschnitt _ 12,8 C 11,0 C 67 % 1018,3 hPa #0,0 l/m 8,9 km/h (2 Bft) O-NO - #12:45 h #4,166 mm 2,1 UV-I 397 W/m 6,1 C 11,3 C 12,0 km/h (2 Bft) 97,52 %